<?xml version="1.0" encoding="UTF-8" standalone="no" ?>
<gpx xmlns="http://www.topografix.com/GPX/1/1" xmlns:xsi="http://www.w3.org/2001/XMLSchema-instance" xsi:schemaLocation="http://www.topografix.com/GPX/1/1 http://www.topografix.com/GPX/1/1/gpx.xsd" version="1.1" creator="VisuGPX - https://www.visugpx.com">
  <metadata>
    <name>Balade de la gym de marsannay le jeudi 28 Juin 2018</name>
    <desc><![CDATA[Dernière rando de la saison, une boucle autour de Fixin ]]></desc>
  </metadata>
  <trk>
    <name><![CDATA[Track]]></name>
    <trkseg>
      <trkpt lat="47.24579" lon="4.96525">
        <ele>372.31164550781</ele>
        <time>2018-06-28T09:01:44+0200</time>
      </trkpt>
      <trkpt lat="47.24558" lon="4.96571">
        <ele>374.22644042969</ele>
        <time>2018-06-28T09:01:47+0200</time>
      </trkpt>
      <trkpt lat="47.24567" lon="4.96564">
        <ele>339.79611206055</ele>
        <time>2018-06-28T09:01:50+0200</time>
      </trkpt>
      <trkpt lat="47.24566" lon="4.96567">
        <ele>339.94256591797</ele>
        <time>2018-06-28T09:01:53+0200</time>
      </trkpt>
      <trkpt lat="47.24565" lon="4.96569">
        <ele>339.05123901367</ele>
        <time>2018-06-28T09:01:56+0200</time>
      </trkpt>
      <trkpt lat="47.24562" lon="4.96573">
        <ele>338.28155517578</ele>
        <time>2018-06-28T09:01:59+0200</time>
      </trkpt>
      <trkpt lat="47.2456" lon="4.96571">
        <ele>341.13650512695</ele>
        <time>2018-06-28T09:02:02+0200</time>
      </trkpt>
      <trkpt lat="47.24559" lon="4.96571">
        <ele>344.2360534668</ele>
        <time>2018-06-28T09:02:05+0200</time>
      </trkpt>
      <trkpt lat="47.24559" lon="4.96572">
        <ele>345.17617797852</ele>
        <time>2018-06-28T09:02:08+0200</time>
      </trkpt>
      <trkpt lat="47.24559" lon="4.96572">
        <ele>345.00482177734</ele>
        <time>2018-06-28T09:02:11+0200</time>
      </trkpt>
      <trkpt lat="47.24559" lon="4.96572">
        <ele>343.83932495117</ele>
        <time>2018-06-28T09:02:14+0200</time>
      </trkpt>
      <trkpt lat="47.24559" lon="4.96569">
        <ele>343.30206298828</ele>
        <time>2018-06-28T09:02:17+0200</time>
      </trkpt>
      <trkpt lat="47.24559" lon="4.96568">
        <ele>343.2438659668</ele>
        <time>2018-06-28T09:02:20+0200</time>
      </trkpt>
      <trkpt lat="47.24559" lon="4.96565">
        <ele>343.13751220703</ele>
        <time>2018-06-28T09:02:23+0200</time>
      </trkpt>
      <trkpt lat="47.24559" lon="4.96565">
        <ele>342.94235229492</ele>
        <time>2018-06-28T09:02:26+0200</time>
      </trkpt>
      <trkpt lat="47.24559" lon="4.96565">
        <ele>342.65570068359</ele>
        <time>2018-06-28T09:02:29+0200</time>
      </trkpt>
      <trkpt lat="47.24558" lon="4.96559">
        <ele>342.3674621582</ele>
        <time>2018-06-28T09:02:32+0200</time>
      </trkpt>
      <trkpt lat="47.24558" lon="4.96559">
        <ele>342.25204467773</ele>
        <time>2018-06-28T09:02:35+0200</time>
      </trkpt>
      <trkpt lat="47.24553" lon="4.96562">
        <ele>341.90484619141</ele>
        <time>2018-06-28T09:02:38+0200</time>
      </trkpt>
      <trkpt lat="47.24553" lon="4.96562">
        <ele>341.69039916992</ele>
        <time>2018-06-28T09:02:41+0200</time>
      </trkpt>
      <trkpt lat="47.24552" lon="4.96558">
        <ele>341.62173461914</ele>
        <time>2018-06-28T09:02:44+0200</time>
      </trkpt>
      <trkpt lat="47.24552" lon="4.96556">
        <ele>341.33377075195</ele>
        <time>2018-06-28T09:02:47+0200</time>
      </trkpt>
      <trkpt lat="47.24544" lon="4.96555">
        <ele>340.71643066406</ele>
        <time>2018-06-28T09:02:50+0200</time>
      </trkpt>
      <trkpt lat="47.24544" lon="4.96555">
        <ele>339.81604003906</ele>
        <time>2018-06-28T09:02:53+0200</time>
      </trkpt>
      <trkpt lat="47.24544" lon="4.96554">
        <ele>339.05737304688</ele>
        <time>2018-06-28T09:02:56+0200</time>
      </trkpt>
      <trkpt lat="47.24545" lon="4.96552">
        <ele>338.97869873047</ele>
        <time>2018-06-28T09:02:59+0200</time>
      </trkpt>
      <trkpt lat="47.24543" lon="4.96552">
        <ele>338.90057373047</ele>
        <time>2018-06-28T09:03:02+0200</time>
      </trkpt>
      <trkpt lat="47.24541" lon="4.96554">
        <ele>338.79019165039</ele>
        <time>2018-06-28T09:03:05+0200</time>
      </trkpt>
      <trkpt lat="47.24543" lon="4.96555">
        <ele>338.64166259766</ele>
        <time>2018-06-28T09:03:08+0200</time>
      </trkpt>
      <trkpt lat="47.24545" lon="4.96552">
        <ele>338.47988891602</ele>
        <time>2018-06-28T09:03:11+0200</time>
      </trkpt>
      <trkpt lat="47.24547" lon="4.96551">
        <ele>337.81521606445</ele>
        <time>2018-06-28T09:03:14+0200</time>
      </trkpt>
      <trkpt lat="47.24547" lon="4.96551">
        <ele>337.16067504883</ele>
        <time>2018-06-28T09:03:17+0200</time>
      </trkpt>
      <trkpt lat="47.24548" lon="4.96553">
        <ele>337.01351928711</ele>
        <time>2018-06-28T09:03:20+0200</time>
      </trkpt>
      <trkpt lat="47.24548" lon="4.96556">
        <ele>336.8815612793</ele>
        <time>2018-06-28T09:03:23+0200</time>
      </trkpt>
      <trkpt lat="47.24548" lon="4.96558">
        <ele>336.40084838867</ele>
        <time>2018-06-28T09:03:26+0200</time>
      </trkpt>
      <trkpt lat="47.24547" lon="4.96558">
        <ele>336.29092407227</ele>
        <time>2018-06-28T09:03:29+0200</time>
      </trkpt>
      <trkpt lat="47.24547" lon="4.96557">
        <ele>335.53701782227</ele>
        <time>2018-06-28T09:03:32+0200</time>
      </trkpt>
      <trkpt lat="47.24547" lon="4.96557">
        <ele>335.1266784668</ele>
        <time>2018-06-28T09:03:35+0200</time>
      </trkpt>
      <trkpt lat="47.24546" lon="4.96558">
        <ele>334.22064208984</ele>
        <time>2018-06-28T09:03:38+0200</time>
      </trkpt>
      <trkpt lat="47.24546" lon="4.9656">
        <ele>333.92300415039</ele>
        <time>2018-06-28T09:03:41+0200</time>
      </trkpt>
      <trkpt lat="47.24546" lon="4.96561">
        <ele>333.85415649414</ele>
        <time>2018-06-28T09:03:44+0200</time>
      </trkpt>
      <trkpt lat="47.24547" lon="4.96561">
        <ele>333.60549926758</ele>
        <time>2018-06-28T09:03:47+0200</time>
      </trkpt>
      <trkpt lat="47.2455" lon="4.9656">
        <ele>333.27676391602</ele>
        <time>2018-06-28T09:03:50+0200</time>
      </trkpt>
      <trkpt lat="47.24551" lon="4.9656">
        <ele>333.25378417969</ele>
        <time>2018-06-28T09:03:53+0200</time>
      </trkpt>
      <trkpt lat="47.24552" lon="4.96558">
        <ele>333.18014526367</ele>
        <time>2018-06-28T09:03:56+0200</time>
      </trkpt>
      <trkpt lat="47.24554" lon="4.96558">
        <ele>333.15832519531</ele>
        <time>2018-06-28T09:03:59+0200</time>
      </trkpt>
      <trkpt lat="47.24554" lon="4.96559">
        <ele>333.1435546875</ele>
        <time>2018-06-28T09:04:02+0200</time>
      </trkpt>
      <trkpt lat="47.24554" lon="4.96559">
        <ele>333.12762451172</ele>
        <time>2018-06-28T09:04:05+0200</time>
      </trkpt>
      <trkpt lat="47.24554" lon="4.96556">
        <ele>333.16775512695</ele>
        <time>2018-06-28T09:04:08+0200</time>
      </trkpt>
      <trkpt lat="47.24555" lon="4.96556">
        <ele>333.23205566406</ele>
        <time>2018-06-28T09:04:11+0200</time>
      </trkpt>
      <trkpt lat="47.24555" lon="4.9656">
        <ele>333.27319335938</ele>
        <time>2018-06-28T09:04:14+0200</time>
      </trkpt>
      <trkpt lat="47.24557" lon="4.96562">
        <ele>333.33480834961</ele>
        <time>2018-06-28T09:04:17+0200</time>
      </trkpt>
      <trkpt lat="47.24558" lon="4.9656">
        <ele>333.40411376953</ele>
        <time>2018-06-28T09:04:20+0200</time>
      </trkpt>
      <trkpt lat="47.24558" lon="4.96561">
        <ele>333.48333740234</ele>
        <time>2018-06-28T09:04:23+0200</time>
      </trkpt>
      <trkpt lat="47.24557" lon="4.96563">
        <ele>333.56951904297</ele>
        <time>2018-06-28T09:04:26+0200</time>
      </trkpt>
      <trkpt lat="47.24558" lon="4.96565">
        <ele>333.9680480957</ele>
        <time>2018-06-28T09:04:29+0200</time>
      </trkpt>
      <trkpt lat="47.24559" lon="4.96565">
        <ele>334.38360595703</ele>
        <time>2018-06-28T09:04:32+0200</time>
      </trkpt>
      <trkpt lat="47.2456" lon="4.96566">
        <ele>334.50015258789</ele>
        <time>2018-06-28T09:04:35+0200</time>
      </trkpt>
      <trkpt lat="47.24559" lon="4.96567">
        <ele>335.34219360352</ele>
        <time>2018-06-28T09:04:38+0200</time>
      </trkpt>
      <trkpt lat="47.24557" lon="4.96567">
        <ele>335.44033813477</ele>
        <time>2018-06-28T09:04:41+0200</time>
      </trkpt>
      <trkpt lat="47.24556" lon="4.96567">
        <ele>335.51318359375</ele>
        <time>2018-06-28T09:04:44+0200</time>
      </trkpt>
      <trkpt lat="47.24556" lon="4.96566">
        <ele>335.57427978516</ele>
        <time>2018-06-28T09:04:47+0200</time>
      </trkpt>
      <trkpt lat="47.24556" lon="4.96567">
        <ele>335.62899780273</ele>
        <time>2018-06-28T09:04:50+0200</time>
      </trkpt>
      <trkpt lat="47.24556" lon="4.96565">
        <ele>335.67208862305</ele>
        <time>2018-06-28T09:04:53+0200</time>
      </trkpt>
      <trkpt lat="47.24556" lon="4.96563">
        <ele>335.69906616211</ele>
        <time>2018-06-28T09:04:56+0200</time>
      </trkpt>
      <trkpt lat="47.24557" lon="4.96561">
        <ele>335.71072387695</ele>
        <time>2018-06-28T09:04:59+0200</time>
      </trkpt>
      <trkpt lat="47.24556" lon="4.96563">
        <ele>335.76602172852</ele>
        <time>2018-06-28T09:05:02+0200</time>
      </trkpt>
      <trkpt lat="47.24557" lon="4.96563">
        <ele>335.78366088867</ele>
        <time>2018-06-28T09:05:05+0200</time>
      </trkpt>
      <trkpt lat="47.2456" lon="4.96563">
        <ele>335.80438232422</ele>
        <time>2018-06-28T09:05:08+0200</time>
      </trkpt>
      <trkpt lat="47.24562" lon="4.96561">
        <ele>335.90380859375</ele>
        <time>2018-06-28T09:05:11+0200</time>
      </trkpt>
      <trkpt lat="47.24562" lon="4.96561">
        <ele>335.92953491211</ele>
        <time>2018-06-28T09:05:14+0200</time>
      </trkpt>
      <trkpt lat="47.24561" lon="4.96561">
        <ele>336.04620361328</ele>
        <time>2018-06-28T09:05:17+0200</time>
      </trkpt>
      <trkpt lat="47.2456" lon="4.96562">
        <ele>336.18106079102</ele>
        <time>2018-06-28T09:05:20+0200</time>
      </trkpt>
      <trkpt lat="47.2456" lon="4.96563">
        <ele>336.31768798828</ele>
        <time>2018-06-28T09:05:23+0200</time>
      </trkpt>
      <trkpt lat="47.2456" lon="4.96563">
        <ele>336.56985473633</ele>
        <time>2018-06-28T09:05:27+0200</time>
      </trkpt>
      <trkpt lat="47.2456" lon="4.96565">
        <ele>336.61038208008</ele>
        <time>2018-06-28T09:05:30+0200</time>
      </trkpt>
      <trkpt lat="47.2456" lon="4.96565">
        <ele>336.78448486328</ele>
        <time>2018-06-28T09:05:33+0200</time>
      </trkpt>
      <trkpt lat="47.2456" lon="4.96565">
        <ele>336.82702636719</ele>
        <time>2018-06-28T09:05:36+0200</time>
      </trkpt>
      <trkpt lat="47.24561" lon="4.96568">
        <ele>337.15661621094</ele>
        <time>2018-06-28T09:05:39+0200</time>
      </trkpt>
      <trkpt lat="47.24561" lon="4.96569">
        <ele>337.22296142578</ele>
        <time>2018-06-28T09:05:42+0200</time>
      </trkpt>
      <trkpt lat="47.24563" lon="4.9657">
        <ele>337.31561279297</ele>
        <time>2018-06-28T09:05:45+0200</time>
      </trkpt>
      <trkpt lat="47.24567" lon="4.96569">
        <ele>337.4267578125</ele>
        <time>2018-06-28T09:05:48+0200</time>
      </trkpt>
      <trkpt lat="47.24566" lon="4.9657">
        <ele>337.53884887695</ele>
        <time>2018-06-28T09:05:51+0200</time>
      </trkpt>
      <trkpt lat="47.24567" lon="4.96569">
        <ele>337.64080810547</ele>
        <time>2018-06-28T09:05:54+0200</time>
      </trkpt>
      <trkpt lat="47.24568" lon="4.96568">
        <ele>337.73425292969</ele>
        <time>2018-06-28T09:05:57+0200</time>
      </trkpt>
      <trkpt lat="47.24568" lon="4.96567">
        <ele>337.82611083984</ele>
        <time>2018-06-28T09:06:00+0200</time>
      </trkpt>
      <trkpt lat="47.24568" lon="4.96567">
        <ele>337.90942382812</ele>
        <time>2018-06-28T09:06:03+0200</time>
      </trkpt>
      <trkpt lat="47.24568" lon="4.96566">
        <ele>337.98526000977</ele>
        <time>2018-06-28T09:06:06+0200</time>
      </trkpt>
      <trkpt lat="47.24567" lon="4.96567">
        <ele>338.04925537109</ele>
        <time>2018-06-28T09:06:09+0200</time>
      </trkpt>
      <trkpt lat="47.24566" lon="4.96565">
        <ele>338.0966796875</ele>
        <time>2018-06-28T09:06:12+0200</time>
      </trkpt>
      <trkpt lat="47.24566" lon="4.96564">
        <ele>338.1328125</ele>
        <time>2018-06-28T09:06:15+0200</time>
      </trkpt>
      <trkpt lat="47.24567" lon="4.96564">
        <ele>338.16662597656</ele>
        <time>2018-06-28T09:06:18+0200</time>
      </trkpt>
      <trkpt lat="47.24567" lon="4.96567">
        <ele>338.20819091797</ele>
        <time>2018-06-28T09:06:21+0200</time>
      </trkpt>
      <trkpt lat="47.24568" lon="4.96567">
        <ele>338.40676879883</ele>
        <time>2018-06-28T09:06:24+0200</time>
      </trkpt>
      <trkpt lat="47.24567" lon="4.96569">
        <ele>338.46307373047</ele>
        <time>2018-06-28T09:06:27+0200</time>
      </trkpt>
      <trkpt lat="47.24566" lon="4.96572">
        <ele>338.70761108398</ele>
        <time>2018-06-28T09:06:30+0200</time>
      </trkpt>
      <trkpt lat="47.24565" lon="4.96572">
        <ele>338.76953125</ele>
        <time>2018-06-28T09:06:33+0200</time>
      </trkpt>
      <trkpt lat="47.24565" lon="4.96573">
        <ele>338.83331298828</ele>
        <time>2018-06-28T09:06:36+0200</time>
      </trkpt>
      <trkpt lat="47.24566" lon="4.9657">
        <ele>338.89358520508</ele>
        <time>2018-06-28T09:06:39+0200</time>
      </trkpt>
      <trkpt lat="47.24566" lon="4.96568">
        <ele>338.94808959961</ele>
        <time>2018-06-28T09:06:42+0200</time>
      </trkpt>
      <trkpt lat="47.24566" lon="4.96567">
        <ele>338.99667358398</ele>
        <time>2018-06-28T09:06:45+0200</time>
      </trkpt>
      <trkpt lat="47.24566" lon="4.96565">
        <ele>339.03604125977</ele>
        <time>2018-06-28T09:06:48+0200</time>
      </trkpt>
      <trkpt lat="47.24566" lon="4.96564">
        <ele>339.25857543945</ele>
        <time>2018-06-28T09:06:51+0200</time>
      </trkpt>
      <trkpt lat="47.24564" lon="4.96565">
        <ele>339.52072143555</ele>
        <time>2018-06-28T09:06:54+0200</time>
      </trkpt>
      <trkpt lat="47.24563" lon="4.96564">
        <ele>339.66696166992</ele>
        <time>2018-06-28T09:06:57+0200</time>
      </trkpt>
      <trkpt lat="47.24563" lon="4.96564">
        <ele>339.70477294922</ele>
        <time>2018-06-28T09:07:00+0200</time>
      </trkpt>
      <trkpt lat="47.24561" lon="4.96564">
        <ele>339.85000610352</ele>
        <time>2018-06-28T09:07:03+0200</time>
      </trkpt>
      <trkpt lat="47.2456" lon="4.96565">
        <ele>339.88668823242</ele>
        <time>2018-06-28T09:07:06+0200</time>
      </trkpt>
      <trkpt lat="47.2456" lon="4.96564">
        <ele>339.919921875</ele>
        <time>2018-06-28T09:07:09+0200</time>
      </trkpt>
      <trkpt lat="47.24559" lon="4.96563">
        <ele>339.94586181641</ele>
        <time>2018-06-28T09:07:12+0200</time>
      </trkpt>
      <trkpt lat="47.24558" lon="4.96563">
        <ele>339.96606445312</ele>
        <time>2018-06-28T09:07:15+0200</time>
      </trkpt>
      <trkpt lat="47.24557" lon="4.96568">
        <ele>339.99041748047</ele>
        <time>2018-06-28T09:07:18+0200</time>
      </trkpt>
      <trkpt lat="47.24556" lon="4.96571">
        <ele>340.02432250977</ele>
        <time>2018-06-28T09:07:21+0200</time>
      </trkpt>
      <trkpt lat="47.24556" lon="4.96572">
        <ele>340.06881713867</ele>
        <time>2018-06-28T09:07:24+0200</time>
      </trkpt>
      <trkpt lat="47.24556" lon="4.96571">
        <ele>340.11676025391</ele>
        <time>2018-06-28T09:07:27+0200</time>
      </trkpt>
      <trkpt lat="47.24556" lon="4.9657">
        <ele>340.29177856445</ele>
        <time>2018-06-28T09:07:30+0200</time>
      </trkpt>
      <trkpt lat="47.24557" lon="4.9657">
        <ele>340.33065795898</ele>
        <time>2018-06-28T09:07:33+0200</time>
      </trkpt>
      <trkpt lat="47.24557" lon="4.96571">
        <ele>340.37228393555</ele>
        <time>2018-06-28T09:07:36+0200</time>
      </trkpt>
      <trkpt lat="47.24556" lon="4.9657">
        <ele>340.41067504883</ele>
        <time>2018-06-28T09:07:39+0200</time>
      </trkpt>
      <trkpt lat="47.24555" lon="4.96571">
        <ele>340.45220947266</ele>
        <time>2018-06-28T09:07:42+0200</time>
      </trkpt>
      <trkpt lat="47.24556" lon="4.9657">
        <ele>340.49862670898</ele>
        <time>2018-06-28T09:07:45+0200</time>
      </trkpt>
      <trkpt lat="47.24557" lon="4.96569">
        <ele>340.54550170898</ele>
        <time>2018-06-28T09:07:48+0200</time>
      </trkpt>
      <trkpt lat="47.24558" lon="4.96567">
        <ele>340.59512329102</ele>
        <time>2018-06-28T09:07:51+0200</time>
      </trkpt>
      <trkpt lat="47.24558" lon="4.96567">
        <ele>340.64389038086</ele>
        <time>2018-06-28T09:07:54+0200</time>
      </trkpt>
      <trkpt lat="47.2456" lon="4.96567">
        <ele>340.69689941406</ele>
        <time>2018-06-28T09:07:57+0200</time>
      </trkpt>
      <trkpt lat="47.24559" lon="4.96567">
        <ele>340.74896240234</ele>
        <time>2018-06-28T09:08:00+0200</time>
      </trkpt>
      <trkpt lat="47.24557" lon="4.96566">
        <ele>340.78561401367</ele>
        <time>2018-06-28T09:08:03+0200</time>
      </trkpt>
      <trkpt lat="47.24556" lon="4.96565">
        <ele>340.80206298828</ele>
        <time>2018-06-28T09:08:06+0200</time>
      </trkpt>
      <trkpt lat="47.24556" lon="4.96566">
        <ele>340.8095703125</ele>
        <time>2018-06-28T09:08:09+0200</time>
      </trkpt>
      <trkpt lat="47.24558" lon="4.96568">
        <ele>340.83227539062</ele>
        <time>2018-06-28T09:08:12+0200</time>
      </trkpt>
      <trkpt lat="47.2456" lon="4.96563">
        <ele>340.85455322266</ele>
        <time>2018-06-28T09:08:15+0200</time>
      </trkpt>
      <trkpt lat="47.2456" lon="4.96563">
        <ele>340.92681884766</ele>
        <time>2018-06-28T09:08:18+0200</time>
      </trkpt>
      <trkpt lat="47.2456" lon="4.96564">
        <ele>340.94506835938</ele>
        <time>2018-06-28T09:08:21+0200</time>
      </trkpt>
      <trkpt lat="47.2456" lon="4.96563">
        <ele>340.9596862793</ele>
        <time>2018-06-28T09:08:24+0200</time>
      </trkpt>
      <trkpt lat="47.2456" lon="4.96563">
        <ele>340.96765136719</ele>
        <time>2018-06-28T09:08:27+0200</time>
      </trkpt>
      <trkpt lat="47.24559" lon="4.96564">
        <ele>341.0065612793</ele>
        <time>2018-06-28T09:08:30+0200</time>
      </trkpt>
      <trkpt lat="47.24559" lon="4.96566">
        <ele>341.01904296875</ele>
        <time>2018-06-28T09:08:33+0200</time>
      </trkpt>
      <trkpt lat="47.24559" lon="4.96563">
        <ele>341.02963256836</ele>
        <time>2018-06-28T09:08:36+0200</time>
      </trkpt>
      <trkpt lat="47.24558" lon="4.96562">
        <ele>341.03494262695</ele>
        <time>2018-06-28T09:08:39+0200</time>
      </trkpt>
      <trkpt lat="47.24557" lon="4.96566">
        <ele>341.04244995117</ele>
        <time>2018-06-28T09:08:42+0200</time>
      </trkpt>
      <trkpt lat="47.24558" lon="4.96567">
        <ele>341.05764770508</ele>
        <time>2018-06-28T09:08:45+0200</time>
      </trkpt>
      <trkpt lat="47.24558" lon="4.96569">
        <ele>341.08117675781</ele>
        <time>2018-06-28T09:08:48+0200</time>
      </trkpt>
      <trkpt lat="47.24559" lon="4.96572">
        <ele>341.11633300781</ele>
        <time>2018-06-28T09:08:51+0200</time>
      </trkpt>
      <trkpt lat="47.24559" lon="4.96574">
        <ele>341.16369628906</ele>
        <time>2018-06-28T09:08:54+0200</time>
      </trkpt>
      <trkpt lat="47.24558" lon="4.96574">
        <ele>341.37335205078</ele>
        <time>2018-06-28T09:08:57+0200</time>
      </trkpt>
      <trkpt lat="47.24557" lon="4.96569">
        <ele>341.73107910156</ele>
        <time>2018-06-28T09:09:00+0200</time>
      </trkpt>
      <trkpt lat="47.24555" lon="4.96568">
        <ele>342.03732299805</ele>
        <time>2018-06-28T09:09:03+0200</time>
      </trkpt>
      <trkpt lat="47.24554" lon="4.96569">
        <ele>342.28106689453</ele>
        <time>2018-06-28T09:09:06+0200</time>
      </trkpt>
      <trkpt lat="47.24555" lon="4.96571">
        <ele>342.52810668945</ele>
        <time>2018-06-28T09:09:09+0200</time>
      </trkpt>
      <trkpt lat="47.24557" lon="4.96574">
        <ele>342.59777832031</ele>
        <time>2018-06-28T09:09:12+0200</time>
      </trkpt>
      <trkpt lat="47.24557" lon="4.96575">
        <ele>342.6100769043</ele>
        <time>2018-06-28T09:09:15+0200</time>
      </trkpt>
      <trkpt lat="47.24557" lon="4.96576">
        <ele>342.62347412109</ele>
        <time>2018-06-28T09:09:18+0200</time>
      </trkpt>
      <trkpt lat="47.24558" lon="4.96577">
        <ele>342.6598815918</ele>
        <time>2018-06-28T09:09:21+0200</time>
      </trkpt>
      <trkpt lat="47.24559" lon="4.96582">
        <ele>342.62493896484</ele>
        <time>2018-06-28T09:09:24+0200</time>
      </trkpt>
      <trkpt lat="47.2456" lon="4.96585">
        <ele>342.49252319336</ele>
        <time>2018-06-28T09:09:27+0200</time>
      </trkpt>
      <trkpt lat="47.24561" lon="4.96589">
        <ele>342.38110351562</ele>
        <time>2018-06-28T09:09:30+0200</time>
      </trkpt>
      <trkpt lat="47.24562" lon="4.96591">
        <ele>342.19104003906</ele>
        <time>2018-06-28T09:09:33+0200</time>
      </trkpt>
      <trkpt lat="47.24563" lon="4.96596">
        <ele>341.93920898438</ele>
        <time>2018-06-28T09:09:36+0200</time>
      </trkpt>
      <trkpt lat="47.24564" lon="4.966">
        <ele>341.73040771484</ele>
        <time>2018-06-28T09:09:39+0200</time>
      </trkpt>
      <trkpt lat="47.24564" lon="4.96603">
        <ele>341.46649169922</ele>
        <time>2018-06-28T09:09:42+0200</time>
      </trkpt>
      <trkpt lat="47.24566" lon="4.96605">
        <ele>341.26361083984</ele>
        <time>2018-06-28T09:09:45+0200</time>
      </trkpt>
      <trkpt lat="47.24568" lon="4.96607">
        <ele>341.10202026367</ele>
        <time>2018-06-28T09:09:48+0200</time>
      </trkpt>
      <trkpt lat="47.24569" lon="4.96609">
        <ele>340.94024658203</ele>
        <time>2018-06-28T09:09:51+0200</time>
      </trkpt>
      <trkpt lat="47.24573" lon="4.96614">
        <ele>340.76809692383</ele>
        <time>2018-06-28T09:09:54+0200</time>
      </trkpt>
      <trkpt lat="47.24575" lon="4.96619">
        <ele>340.4221496582</ele>
        <time>2018-06-28T09:09:57+0200</time>
      </trkpt>
      <trkpt lat="47.24577" lon="4.96623">
        <ele>340.06872558594</ele>
        <time>2018-06-28T09:10:00+0200</time>
      </trkpt>
      <trkpt lat="47.24579" lon="4.96625">
        <ele>339.67211914062</ele>
        <time>2018-06-28T09:10:03+0200</time>
      </trkpt>
      <trkpt lat="47.2458" lon="4.96628">
        <ele>339.38870239258</ele>
        <time>2018-06-28T09:10:06+0200</time>
      </trkpt>
      <trkpt lat="47.24582" lon="4.96629">
        <ele>339.20999145508</ele>
        <time>2018-06-28T09:10:09+0200</time>
      </trkpt>
      <trkpt lat="47.24588" lon="4.96628">
        <ele>338.93365478516</ele>
        <time>2018-06-28T09:10:12+0200</time>
      </trkpt>
      <trkpt lat="47.24591" lon="4.96627">
        <ele>338.48806762695</ele>
        <time>2018-06-28T09:10:15+0200</time>
      </trkpt>
      <trkpt lat="47.24592" lon="4.96625">
        <ele>338.00723266602</ele>
        <time>2018-06-28T09:10:18+0200</time>
      </trkpt>
      <trkpt lat="47.24596" lon="4.96622">
        <ele>337.51193237305</ele>
        <time>2018-06-28T09:10:21+0200</time>
      </trkpt>
      <trkpt lat="47.24598" lon="4.96621">
        <ele>337.14157104492</ele>
        <time>2018-06-28T09:10:24+0200</time>
      </trkpt>
      <trkpt lat="47.24599" lon="4.9662">
        <ele>336.84017944336</ele>
        <time>2018-06-28T09:10:27+0200</time>
      </trkpt>
      <trkpt lat="47.24602" lon="4.96616">
        <ele>336.51278686523</ele>
        <time>2018-06-28T09:10:30+0200</time>
      </trkpt>
      <trkpt lat="47.24603" lon="4.96612">
        <ele>336.19586181641</ele>
        <time>2018-06-28T09:10:33+0200</time>
      </trkpt>
      <trkpt lat="47.24604" lon="4.9661">
        <ele>335.88662719727</ele>
        <time>2018-06-28T09:10:36+0200</time>
      </trkpt>
      <trkpt lat="47.24607" lon="4.96605">
        <ele>335.55297851562</ele>
        <time>2018-06-28T09:10:39+0200</time>
      </trkpt>
      <trkpt lat="47.24609" lon="4.966">
        <ele>335.18502807617</ele>
        <time>2018-06-28T09:10:42+0200</time>
      </trkpt>
      <trkpt lat="47.24612" lon="4.96596">
        <ele>334.84414672852</ele>
        <time>2018-06-28T09:10:45+0200</time>
      </trkpt>
      <trkpt lat="47.24614" lon="4.96594">
        <ele>334.51449584961</ele>
        <time>2018-06-28T09:10:48+0200</time>
      </trkpt>
      <trkpt lat="47.24618" lon="4.96595">
        <ele>334.15606689453</ele>
        <time>2018-06-28T09:10:51+0200</time>
      </trkpt>
      <trkpt lat="47.2462" lon="4.96595">
        <ele>333.75628662109</ele>
        <time>2018-06-28T09:10:54+0200</time>
      </trkpt>
      <trkpt lat="47.24622" lon="4.96596">
        <ele>333.38336181641</ele>
        <time>2018-06-28T09:10:57+0200</time>
      </trkpt>
      <trkpt lat="47.24625" lon="4.96593">
        <ele>332.95794677734</ele>
        <time>2018-06-28T09:11:00+0200</time>
      </trkpt>
      <trkpt lat="47.24626" lon="4.96592">
        <ele>332.50173950195</ele>
        <time>2018-06-28T09:11:03+0200</time>
      </trkpt>
      <trkpt lat="47.24626" lon="4.96592">
        <ele>332.2864074707</ele>
        <time>2018-06-28T09:11:06+0200</time>
      </trkpt>
      <trkpt lat="47.24628" lon="4.96594">
        <ele>331.84466552734</ele>
        <time>2018-06-28T09:11:09+0200</time>
      </trkpt>
      <trkpt lat="47.2463" lon="4.96594">
        <ele>331.55892944336</ele>
        <time>2018-06-28T09:11:12+0200</time>
      </trkpt>
      <trkpt lat="47.24631" lon="4.96595">
        <ele>331.52545166016</ele>
        <time>2018-06-28T09:11:15+0200</time>
      </trkpt>
      <trkpt lat="47.24631" lon="4.96595">
        <ele>331.16265869141</ele>
        <time>2018-06-28T09:11:18+0200</time>
      </trkpt>
      <trkpt lat="47.24634" lon="4.96597">
        <ele>330.99664306641</ele>
        <time>2018-06-28T09:11:21+0200</time>
      </trkpt>
      <trkpt lat="47.24638" lon="4.96596">
        <ele>330.92553710938</ele>
        <time>2018-06-28T09:11:24+0200</time>
      </trkpt>
      <trkpt lat="47.24639" lon="4.96593">
        <ele>330.84527587891</ele>
        <time>2018-06-28T09:11:27+0200</time>
      </trkpt>
      <trkpt lat="47.24642" lon="4.96589">
        <ele>330.7961730957</ele>
        <time>2018-06-28T09:11:30+0200</time>
      </trkpt>
      <trkpt lat="47.24644" lon="4.96589">
        <ele>330.7529296875</ele>
        <time>2018-06-28T09:11:33+0200</time>
      </trkpt>
      <trkpt lat="47.24647" lon="4.96589">
        <ele>330.69470214844</ele>
        <time>2018-06-28T09:11:36+0200</time>
      </trkpt>
      <trkpt lat="47.24654" lon="4.96587">
        <ele>330.52838134766</ele>
        <time>2018-06-28T09:11:39+0200</time>
      </trkpt>
      <trkpt lat="47.24658" lon="4.96585">
        <ele>330.39288330078</ele>
        <time>2018-06-28T09:11:42+0200</time>
      </trkpt>
      <trkpt lat="47.2466" lon="4.96586">
        <ele>330.3196105957</ele>
        <time>2018-06-28T09:11:45+0200</time>
      </trkpt>
      <trkpt lat="47.2466" lon="4.96587">
        <ele>330.30413818359</ele>
        <time>2018-06-28T09:11:48+0200</time>
      </trkpt>
      <trkpt lat="47.2466" lon="4.96587">
        <ele>330.26846313477</ele>
        <time>2018-06-28T09:11:51+0200</time>
      </trkpt>
      <trkpt lat="47.2466" lon="4.96587">
        <ele>330.22747802734</ele>
        <time>2018-06-28T09:11:54+0200</time>
      </trkpt>
      <trkpt lat="47.2466" lon="4.96587">
        <ele>329.95297241211</ele>
        <time>2018-06-28T09:11:57+0200</time>
      </trkpt>
      <trkpt lat="47.2466" lon="4.96587">
        <ele>329.92028808594</ele>
        <time>2018-06-28T09:12:00+0200</time>
      </trkpt>
      <trkpt lat="47.2466" lon="4.96587">
        <ele>329.90097045898</ele>
        <time>2018-06-28T09:12:03+0200</time>
      </trkpt>
      <trkpt lat="47.2466" lon="4.96586">
        <ele>329.88748168945</ele>
        <time>2018-06-28T09:12:06+0200</time>
      </trkpt>
      <trkpt lat="47.2466" lon="4.96586">
        <ele>329.87747192383</ele>
        <time>2018-06-28T09:12:09+0200</time>
      </trkpt>
      <trkpt lat="47.2466" lon="4.96586">
        <ele>329.86944580078</ele>
        <time>2018-06-28T09:12:12+0200</time>
      </trkpt>
      <trkpt lat="47.2466" lon="4.96586">
        <ele>329.8606262207</ele>
        <time>2018-06-28T09:12:15+0200</time>
      </trkpt>
      <trkpt lat="47.2466" lon="4.96586">
        <ele>329.85009765625</ele>
        <time>2018-06-28T09:12:18+0200</time>
      </trkpt>
      <trkpt lat="47.2466" lon="4.96586">
        <ele>329.83767700195</ele>
        <time>2018-06-28T09:12:21+0200</time>
      </trkpt>
      <trkpt lat="47.24661" lon="4.96585">
        <ele>329.78057861328</ele>
        <time>2018-06-28T09:12:24+0200</time>
      </trkpt>
      <trkpt lat="47.24662" lon="4.96584">
        <ele>329.6259765625</ele>
        <time>2018-06-28T09:12:27+0200</time>
      </trkpt>
      <trkpt lat="47.24664" lon="4.96583">
        <ele>329.47399902344</ele>
        <time>2018-06-28T09:12:30+0200</time>
      </trkpt>
      <trkpt lat="47.24666" lon="4.96581">
        <ele>329.37976074219</ele>
        <time>2018-06-28T09:12:33+0200</time>
      </trkpt>
      <trkpt lat="47.24666" lon="4.96581">
        <ele>329.32516479492</ele>
        <time>2018-06-28T09:12:36+0200</time>
      </trkpt>
      <trkpt lat="47.24668" lon="4.96582">
        <ele>329.1833190918</ele>
        <time>2018-06-28T09:12:39+0200</time>
      </trkpt>
      <trkpt lat="47.24672" lon="4.96587">
        <ele>328.99691772461</ele>
        <time>2018-06-28T09:12:42+0200</time>
      </trkpt>
      <trkpt lat="47.24672" lon="4.96588">
        <ele>328.69873046875</ele>
        <time>2018-06-28T09:12:45+0200</time>
      </trkpt>
      <trkpt lat="47.24671" lon="4.96591">
        <ele>328.44180297852</ele>
        <time>2018-06-28T09:12:48+0200</time>
      </trkpt>
      <trkpt lat="47.24671" lon="4.96591">
        <ele>328.3977355957</ele>
        <time>2018-06-28T09:12:51+0200</time>
      </trkpt>
      <trkpt lat="47.2467" lon="4.96592">
        <ele>328.12322998047</ele>
        <time>2018-06-28T09:12:54+0200</time>
      </trkpt>
      <trkpt lat="47.24671" lon="4.96595">
        <ele>327.81857299805</ele>
        <time>2018-06-28T09:12:57+0200</time>
      </trkpt>
      <trkpt lat="47.24672" lon="4.96598">
        <ele>327.62042236328</ele>
        <time>2018-06-28T09:13:00+0200</time>
      </trkpt>
      <trkpt lat="47.24675" lon="4.96603">
        <ele>327.45709228516</ele>
        <time>2018-06-28T09:13:03+0200</time>
      </trkpt>
      <trkpt lat="47.24676" lon="4.96605">
        <ele>327.32943725586</ele>
        <time>2018-06-28T09:13:06+0200</time>
      </trkpt>
      <trkpt lat="47.24679" lon="4.9661">
        <ele>327.21881103516</ele>
        <time>2018-06-28T09:13:09+0200</time>
      </trkpt>
      <trkpt lat="47.24681" lon="4.96614">
        <ele>327.13095092773</ele>
        <time>2018-06-28T09:13:12+0200</time>
      </trkpt>
      <trkpt lat="47.24682" lon="4.96618">
        <ele>327.0924987793</ele>
        <time>2018-06-28T09:13:15+0200</time>
      </trkpt>
      <trkpt lat="47.24684" lon="4.96623">
        <ele>327.07345581055</ele>
        <time>2018-06-28T09:13:18+0200</time>
      </trkpt>
      <trkpt lat="47.24684" lon="4.96628">
        <ele>326.97625732422</ele>
        <time>2018-06-28T09:13:21+0200</time>
      </trkpt>
      <trkpt lat="47.24684" lon="4.96634">
        <ele>326.74957275391</ele>
        <time>2018-06-28T09:13:24+0200</time>
      </trkpt>
      <trkpt lat="47.24684" lon="4.96638">
        <ele>326.45919799805</ele>
        <time>2018-06-28T09:13:27+0200</time>
      </trkpt>
      <trkpt lat="47.24685" lon="4.96643">
        <ele>326.23736572266</ele>
        <time>2018-06-28T09:13:30+0200</time>
      </trkpt>
      <trkpt lat="47.24686" lon="4.96648">
        <ele>326.07626342773</ele>
        <time>2018-06-28T09:13:33+0200</time>
      </trkpt>
      <trkpt lat="47.24687" lon="4.96652">
        <ele>325.97039794922</ele>
        <time>2018-06-28T09:13:36+0200</time>
      </trkpt>
      <trkpt lat="47.24687" lon="4.96657">
        <ele>325.82916259766</ele>
        <time>2018-06-28T09:13:39+0200</time>
      </trkpt>
      <trkpt lat="47.24687" lon="4.96661">
        <ele>325.69509887695</ele>
        <time>2018-06-28T09:13:42+0200</time>
      </trkpt>
      <trkpt lat="47.24687" lon="4.96666">
        <ele>325.61462402344</ele>
        <time>2018-06-28T09:13:45+0200</time>
      </trkpt>
      <trkpt lat="47.24687" lon="4.96671">
        <ele>325.49255371094</ele>
        <time>2018-06-28T09:13:48+0200</time>
      </trkpt>
      <trkpt lat="47.2469" lon="4.96675">
        <ele>325.40362548828</ele>
        <time>2018-06-28T09:13:51+0200</time>
      </trkpt>
      <trkpt lat="47.24692" lon="4.96679">
        <ele>325.26196289062</ele>
        <time>2018-06-28T09:13:54+0200</time>
      </trkpt>
      <trkpt lat="47.24693" lon="4.96683">
        <ele>325.15112304688</ele>
        <time>2018-06-28T09:13:57+0200</time>
      </trkpt>
      <trkpt lat="47.24693" lon="4.96687">
        <ele>325.0849609375</ele>
        <time>2018-06-28T09:14:00+0200</time>
      </trkpt>
      <trkpt lat="47.24694" lon="4.96692">
        <ele>325.09829711914</ele>
        <time>2018-06-28T09:14:03+0200</time>
      </trkpt>
      <trkpt lat="47.24694" lon="4.96697">
        <ele>325.11367797852</ele>
        <time>2018-06-28T09:14:06+0200</time>
      </trkpt>
      <trkpt lat="47.24694" lon="4.96702">
        <ele>325.04483032227</ele>
        <time>2018-06-28T09:14:09+0200</time>
      </trkpt>
      <trkpt lat="47.24696" lon="4.96707">
        <ele>325.03567504883</ele>
        <time>2018-06-28T09:14:12+0200</time>
      </trkpt>
      <trkpt lat="47.24698" lon="4.96712">
        <ele>325.08102416992</ele>
        <time>2018-06-28T09:14:15+0200</time>
      </trkpt>
      <trkpt lat="47.24699" lon="4.96716">
        <ele>325.11965942383</ele>
        <time>2018-06-28T09:14:18+0200</time>
      </trkpt>
      <trkpt lat="47.247" lon="4.96721">
        <ele>325.11331176758</ele>
        <time>2018-06-28T09:14:21+0200</time>
      </trkpt>
      <trkpt lat="47.24702" lon="4.96726">
        <ele>325.03286743164</ele>
        <time>2018-06-28T09:14:24+0200</time>
      </trkpt>
      <trkpt lat="47.24702" lon="4.96733">
        <ele>324.87243652344</ele>
        <time>2018-06-28T09:14:27+0200</time>
      </trkpt>
      <trkpt lat="47.24702" lon="4.96739">
        <ele>324.61215209961</ele>
        <time>2018-06-28T09:14:30+0200</time>
      </trkpt>
      <trkpt lat="47.24703" lon="4.96744">
        <ele>324.30920410156</ele>
        <time>2018-06-28T09:14:33+0200</time>
      </trkpt>
      <trkpt lat="47.24704" lon="4.96749">
        <ele>323.96542358398</ele>
        <time>2018-06-28T09:14:36+0200</time>
      </trkpt>
      <trkpt lat="47.24704" lon="4.96755">
        <ele>323.63629150391</ele>
        <time>2018-06-28T09:14:39+0200</time>
      </trkpt>
      <trkpt lat="47.24704" lon="4.96759">
        <ele>323.30401611328</ele>
        <time>2018-06-28T09:14:42+0200</time>
      </trkpt>
      <trkpt lat="47.24705" lon="4.96764">
        <ele>322.9421081543</ele>
        <time>2018-06-28T09:14:45+0200</time>
      </trkpt>
      <trkpt lat="47.24706" lon="4.96769">
        <ele>322.56307983398</ele>
        <time>2018-06-28T09:14:48+0200</time>
      </trkpt>
      <trkpt lat="47.24706" lon="4.96773">
        <ele>322.28671264648</ele>
        <time>2018-06-28T09:14:51+0200</time>
      </trkpt>
      <trkpt lat="47.24707" lon="4.96777">
        <ele>322.21112060547</ele>
        <time>2018-06-28T09:14:54+0200</time>
      </trkpt>
      <trkpt lat="47.24709" lon="4.96783">
        <ele>322.04287719727</ele>
        <time>2018-06-28T09:14:57+0200</time>
      </trkpt>
      <trkpt lat="47.2471" lon="4.96789">
        <ele>321.84286499023</ele>
        <time>2018-06-28T09:15:00+0200</time>
      </trkpt>
      <trkpt lat="47.24714" lon="4.96792">
        <ele>321.65438842773</ele>
        <time>2018-06-28T09:15:03+0200</time>
      </trkpt>
      <trkpt lat="47.24717" lon="4.96793">
        <ele>321.48263549805</ele>
        <time>2018-06-28T09:15:06+0200</time>
      </trkpt>
      <trkpt lat="47.2472" lon="4.96792">
        <ele>321.29858398438</ele>
        <time>2018-06-28T09:15:09+0200</time>
      </trkpt>
      <trkpt lat="47.24722" lon="4.96792">
        <ele>321.11972045898</ele>
        <time>2018-06-28T09:15:12+0200</time>
      </trkpt>
      <trkpt lat="47.24725" lon="4.9679">
        <ele>320.89694213867</ele>
        <time>2018-06-28T09:15:15+0200</time>
      </trkpt>
      <trkpt lat="47.24728" lon="4.96788">
        <ele>320.70217895508</ele>
        <time>2018-06-28T09:15:18+0200</time>
      </trkpt>
      <trkpt lat="47.24731" lon="4.96786">
        <ele>320.53179931641</ele>
        <time>2018-06-28T09:15:21+0200</time>
      </trkpt>
      <trkpt lat="47.24733" lon="4.96785">
        <ele>320.40979003906</ele>
        <time>2018-06-28T09:15:24+0200</time>
      </trkpt>
      <trkpt lat="47.24735" lon="4.96783">
        <ele>320.30358886719</ele>
        <time>2018-06-28T09:15:27+0200</time>
      </trkpt>
      <trkpt lat="47.24738" lon="4.96779">
        <ele>320.21771240234</ele>
        <time>2018-06-28T09:15:30+0200</time>
      </trkpt>
      <trkpt lat="47.24739" lon="4.96777">
        <ele>320.14309692383</ele>
        <time>2018-06-28T09:15:33+0200</time>
      </trkpt>
      <trkpt lat="47.24741" lon="4.96775">
        <ele>320.11080932617</ele>
        <time>2018-06-28T09:15:36+0200</time>
      </trkpt>
      <trkpt lat="47.24743" lon="4.96775">
        <ele>320.14001464844</ele>
        <time>2018-06-28T09:15:39+0200</time>
      </trkpt>
      <trkpt lat="47.24745" lon="4.96776">
        <ele>320.19674682617</ele>
        <time>2018-06-28T09:15:42+0200</time>
      </trkpt>
      <trkpt lat="47.24748" lon="4.9678">
        <ele>320.29281616211</ele>
        <time>2018-06-28T09:15:45+0200</time>
      </trkpt>
      <trkpt lat="47.2475" lon="4.96782">
        <ele>320.37448120117</ele>
        <time>2018-06-28T09:15:48+0200</time>
      </trkpt>
      <trkpt lat="47.24752" lon="4.96783">
        <ele>320.40548706055</ele>
        <time>2018-06-28T09:15:51+0200</time>
      </trkpt>
      <trkpt lat="47.24754" lon="4.96785">
        <ele>320.51000976562</ele>
        <time>2018-06-28T09:15:54+0200</time>
      </trkpt>
      <trkpt lat="47.24757" lon="4.96785">
        <ele>320.6399230957</ele>
        <time>2018-06-28T09:15:57+0200</time>
      </trkpt>
      <trkpt lat="47.24759" lon="4.96787">
        <ele>320.74438476562</ele>
        <time>2018-06-28T09:16:00+0200</time>
      </trkpt>
      <trkpt lat="47.24762" lon="4.96788">
        <ele>320.84222412109</ele>
        <time>2018-06-28T09:16:03+0200</time>
      </trkpt>
      <trkpt lat="47.24764" lon="4.9679">
        <ele>320.92349243164</ele>
        <time>2018-06-28T09:16:06+0200</time>
      </trkpt>
      <trkpt lat="47.24767" lon="4.96791">
        <ele>321.00067138672</ele>
        <time>2018-06-28T09:16:09+0200</time>
      </trkpt>
      <trkpt lat="47.24769" lon="4.96792">
        <ele>321.1242980957</ele>
        <time>2018-06-28T09:16:12+0200</time>
      </trkpt>
      <trkpt lat="47.24772" lon="4.96795">
        <ele>321.25628662109</ele>
        <time>2018-06-28T09:16:15+0200</time>
      </trkpt>
      <trkpt lat="47.24775" lon="4.96798">
        <ele>321.37017822266</ele>
        <time>2018-06-28T09:16:18+0200</time>
      </trkpt>
      <trkpt lat="47.24777" lon="4.96799">
        <ele>321.47222900391</ele>
        <time>2018-06-28T09:16:21+0200</time>
      </trkpt>
      <trkpt lat="47.2478" lon="4.96802">
        <ele>321.5993347168</ele>
        <time>2018-06-28T09:16:24+0200</time>
      </trkpt>
      <trkpt lat="47.24782" lon="4.96803">
        <ele>321.69497680664</ele>
        <time>2018-06-28T09:16:27+0200</time>
      </trkpt>
      <trkpt lat="47.24784" lon="4.96804">
        <ele>321.83090209961</ele>
        <time>2018-06-28T09:16:30+0200</time>
      </trkpt>
      <trkpt lat="47.24787" lon="4.96806">
        <ele>321.98373413086</ele>
        <time>2018-06-28T09:16:33+0200</time>
      </trkpt>
      <trkpt lat="47.24789" lon="4.96807">
        <ele>322.1257019043</ele>
        <time>2018-06-28T09:16:36+0200</time>
      </trkpt>
      <trkpt lat="47.24791" lon="4.96808">
        <ele>322.26431274414</ele>
        <time>2018-06-28T09:16:39+0200</time>
      </trkpt>
      <trkpt lat="47.24794" lon="4.9681">
        <ele>322.43139648438</ele>
        <time>2018-06-28T09:16:42+0200</time>
      </trkpt>
      <trkpt lat="47.24797" lon="4.96811">
        <ele>322.60406494141</ele>
        <time>2018-06-28T09:16:45+0200</time>
      </trkpt>
      <trkpt lat="47.248" lon="4.96813">
        <ele>322.72360229492</ele>
        <time>2018-06-28T09:16:48+0200</time>
      </trkpt>
      <trkpt lat="47.24802" lon="4.96815">
        <ele>322.81259155273</ele>
        <time>2018-06-28T09:16:51+0200</time>
      </trkpt>
      <trkpt lat="47.24805" lon="4.96816">
        <ele>322.87615966797</ele>
        <time>2018-06-28T09:16:54+0200</time>
      </trkpt>
      <trkpt lat="47.24808" lon="4.96816">
        <ele>322.93579101562</ele>
        <time>2018-06-28T09:16:57+0200</time>
      </trkpt>
      <trkpt lat="47.2481" lon="4.96817">
        <ele>322.98846435547</ele>
        <time>2018-06-28T09:17:00+0200</time>
      </trkpt>
      <trkpt lat="47.24812" lon="4.96818">
        <ele>323.13534545898</ele>
        <time>2018-06-28T09:17:03+0200</time>
      </trkpt>
      <trkpt lat="47.24814" lon="4.96819">
        <ele>323.31845092773</ele>
        <time>2018-06-28T09:17:06+0200</time>
      </trkpt>
      <trkpt lat="47.24818" lon="4.96821">
        <ele>323.4714050293</ele>
        <time>2018-06-28T09:17:09+0200</time>
      </trkpt>
      <trkpt lat="47.24819" lon="4.9682">
        <ele>323.6003112793</ele>
        <time>2018-06-28T09:17:12+0200</time>
      </trkpt>
      <trkpt lat="47.24823" lon="4.96821">
        <ele>323.69570922852</ele>
        <time>2018-06-28T09:17:15+0200</time>
      </trkpt>
      <trkpt lat="47.24825" lon="4.96821">
        <ele>323.80233764648</ele>
        <time>2018-06-28T09:17:18+0200</time>
      </trkpt>
      <trkpt lat="47.24826" lon="4.96821">
        <ele>323.90280151367</ele>
        <time>2018-06-28T09:17:21+0200</time>
      </trkpt>
      <trkpt lat="47.24829" lon="4.96821">
        <ele>323.95462036133</ele>
        <time>2018-06-28T09:17:24+0200</time>
      </trkpt>
      <trkpt lat="47.24832" lon="4.96819">
        <ele>323.99859619141</ele>
        <time>2018-06-28T09:17:27+0200</time>
      </trkpt>
      <trkpt lat="47.24834" lon="4.9682">
        <ele>324.08139038086</ele>
        <time>2018-06-28T09:17:30+0200</time>
      </trkpt>
      <trkpt lat="47.24837" lon="4.96822">
        <ele>324.21588134766</ele>
        <time>2018-06-28T09:17:33+0200</time>
      </trkpt>
      <trkpt lat="47.2484" lon="4.96823">
        <ele>324.3977355957</ele>
        <time>2018-06-28T09:17:36+0200</time>
      </trkpt>
      <trkpt lat="47.24844" lon="4.96825">
        <ele>324.58038330078</ele>
        <time>2018-06-28T09:17:39+0200</time>
      </trkpt>
      <trkpt lat="47.24846" lon="4.96825">
        <ele>324.75860595703</ele>
        <time>2018-06-28T09:17:42+0200</time>
      </trkpt>
      <trkpt lat="47.24848" lon="4.96825">
        <ele>324.9626159668</ele>
        <time>2018-06-28T09:17:45+0200</time>
      </trkpt>
      <trkpt lat="47.2485" lon="4.96825">
        <ele>325.17562866211</ele>
        <time>2018-06-28T09:17:48+0200</time>
      </trkpt>
      <trkpt lat="47.24852" lon="4.96827">
        <ele>325.3232421875</ele>
        <time>2018-06-28T09:17:51+0200</time>
      </trkpt>
      <trkpt lat="47.24856" lon="4.96829">
        <ele>325.39498901367</ele>
        <time>2018-06-28T09:17:54+0200</time>
      </trkpt>
      <trkpt lat="47.24858" lon="4.9683">
        <ele>325.47183227539</ele>
        <time>2018-06-28T09:17:57+0200</time>
      </trkpt>
      <trkpt lat="47.24861" lon="4.96832">
        <ele>325.52572631836</ele>
        <time>2018-06-28T09:18:00+0200</time>
      </trkpt>
      <trkpt lat="47.24863" lon="4.96835">
        <ele>325.59710693359</ele>
        <time>2018-06-28T09:18:02+0200</time>
      </trkpt>
      <trkpt lat="47.24865" lon="4.96836">
        <ele>325.66839599609</ele>
        <time>2018-06-28T09:18:05+0200</time>
      </trkpt>
      <trkpt lat="47.24865" lon="4.96838">
        <ele>325.70642089844</ele>
        <time>2018-06-28T09:18:08+0200</time>
      </trkpt>
      <trkpt lat="47.24865" lon="4.96838">
        <ele>325.71014404297</ele>
        <time>2018-06-28T09:18:11+0200</time>
      </trkpt>
      <trkpt lat="47.24865" lon="4.96838">
        <ele>325.70877075195</ele>
        <time>2018-06-28T09:18:14+0200</time>
      </trkpt>
      <trkpt lat="47.24865" lon="4.96839">
        <ele>325.70803833008</ele>
        <time>2018-06-28T09:18:17+0200</time>
      </trkpt>
      <trkpt lat="47.24865" lon="4.96839">
        <ele>325.72909545898</ele>
        <time>2018-06-28T09:18:20+0200</time>
      </trkpt>
      <trkpt lat="47.24865" lon="4.9684">
        <ele>325.79928588867</ele>
        <time>2018-06-28T09:18:23+0200</time>
      </trkpt>
      <trkpt lat="47.24865" lon="4.9684">
        <ele>325.79833984375</ele>
        <time>2018-06-28T09:18:26+0200</time>
      </trkpt>
      <trkpt lat="47.24865" lon="4.9684">
        <ele>325.79000854492</ele>
        <time>2018-06-28T09:18:29+0200</time>
      </trkpt>
      <trkpt lat="47.24865" lon="4.9684">
        <ele>325.78048706055</ele>
        <time>2018-06-28T09:18:32+0200</time>
      </trkpt>
      <trkpt lat="47.24865" lon="4.9684">
        <ele>325.77645874023</ele>
        <time>2018-06-28T09:18:35+0200</time>
      </trkpt>
      <trkpt lat="47.24865" lon="4.96841">
        <ele>325.78131103516</ele>
        <time>2018-06-28T09:18:38+0200</time>
      </trkpt>
      <trkpt lat="47.24865" lon="4.96841">
        <ele>325.78701782227</ele>
        <time>2018-06-28T09:18:41+0200</time>
      </trkpt>
      <trkpt lat="47.24865" lon="4.96843">
        <ele>325.84750366211</ele>
        <time>2018-06-28T09:18:44+0200</time>
      </trkpt>
      <trkpt lat="47.24866" lon="4.96844">
        <ele>325.86334228516</ele>
        <time>2018-06-28T09:18:47+0200</time>
      </trkpt>
      <trkpt lat="47.24866" lon="4.96845">
        <ele>325.99905395508</ele>
        <time>2018-06-28T09:18:50+0200</time>
      </trkpt>
      <trkpt lat="47.24869" lon="4.96848">
        <ele>326.04486083984</ele>
        <time>2018-06-28T09:18:53+0200</time>
      </trkpt>
      <trkpt lat="47.24869" lon="4.96849">
        <ele>326.07299804688</ele>
        <time>2018-06-28T09:18:56+0200</time>
      </trkpt>
      <trkpt lat="47.24869" lon="4.96849">
        <ele>326.11514282227</ele>
        <time>2018-06-28T09:18:59+0200</time>
      </trkpt>
      <trkpt lat="47.2487" lon="4.96849">
        <ele>326.13092041016</ele>
        <time>2018-06-28T09:19:02+0200</time>
      </trkpt>
      <trkpt lat="47.24871" lon="4.9685">
        <ele>326.13189697266</ele>
        <time>2018-06-28T09:19:05+0200</time>
      </trkpt>
      <trkpt lat="47.24872" lon="4.96851">
        <ele>326.16101074219</ele>
        <time>2018-06-28T09:19:08+0200</time>
      </trkpt>
      <trkpt lat="47.24873" lon="4.96852">
        <ele>326.18490600586</ele>
        <time>2018-06-28T09:19:11+0200</time>
      </trkpt>
      <trkpt lat="47.24875" lon="4.96855">
        <ele>326.14511108398</ele>
        <time>2018-06-28T09:19:14+0200</time>
      </trkpt>
      <trkpt lat="47.24877" lon="4.96856">
        <ele>326.03924560547</ele>
        <time>2018-06-28T09:19:17+0200</time>
      </trkpt>
      <trkpt lat="47.24879" lon="4.96857">
        <ele>325.96240234375</ele>
        <time>2018-06-28T09:19:20+0200</time>
      </trkpt>
      <trkpt lat="47.24882" lon="4.96858">
        <ele>325.92758178711</ele>
        <time>2018-06-28T09:19:23+0200</time>
      </trkpt>
      <trkpt lat="47.24883" lon="4.96858">
        <ele>325.90948486328</ele>
        <time>2018-06-28T09:19:26+0200</time>
      </trkpt>
      <trkpt lat="47.24885" lon="4.96858">
        <ele>325.85299682617</ele>
        <time>2018-06-28T09:19:29+0200</time>
      </trkpt>
      <trkpt lat="47.24886" lon="4.96858">
        <ele>325.80661010742</ele>
        <time>2018-06-28T09:19:32+0200</time>
      </trkpt>
      <trkpt lat="47.24887" lon="4.96859">
        <ele>325.7541809082</ele>
        <time>2018-06-28T09:19:35+0200</time>
      </trkpt>
      <trkpt lat="47.24889" lon="4.9686">
        <ele>325.69161987305</ele>
        <time>2018-06-28T09:19:38+0200</time>
      </trkpt>
      <trkpt lat="47.24891" lon="4.96861">
        <ele>325.58172607422</ele>
        <time>2018-06-28T09:19:41+0200</time>
      </trkpt>
      <trkpt lat="47.24894" lon="4.96862">
        <ele>325.51071166992</ele>
        <time>2018-06-28T09:19:44+0200</time>
      </trkpt>
      <trkpt lat="47.24897" lon="4.96862">
        <ele>325.51202392578</ele>
        <time>2018-06-28T09:19:47+0200</time>
      </trkpt>
      <trkpt lat="47.24901" lon="4.96863">
        <ele>325.56643676758</ele>
        <time>2018-06-28T09:19:50+0200</time>
      </trkpt>
      <trkpt lat="47.24903" lon="4.96864">
        <ele>325.63854980469</ele>
        <time>2018-06-28T09:19:53+0200</time>
      </trkpt>
      <trkpt lat="47.24905" lon="4.96865">
        <ele>325.68725585938</ele>
        <time>2018-06-28T09:19:56+0200</time>
      </trkpt>
      <trkpt lat="47.24906" lon="4.96866">
        <ele>325.72473144531</ele>
        <time>2018-06-28T09:19:59+0200</time>
      </trkpt>
      <trkpt lat="47.24908" lon="4.96866">
        <ele>325.7658996582</ele>
        <time>2018-06-28T09:20:02+0200</time>
      </trkpt>
      <trkpt lat="47.24912" lon="4.96867">
        <ele>325.79721069336</ele>
        <time>2018-06-28T09:20:05+0200</time>
      </trkpt>
      <trkpt lat="47.24914" lon="4.96868">
        <ele>325.83206176758</ele>
        <time>2018-06-28T09:20:08+0200</time>
      </trkpt>
      <trkpt lat="47.24917" lon="4.96869">
        <ele>325.88986206055</ele>
        <time>2018-06-28T09:20:11+0200</time>
      </trkpt>
      <trkpt lat="47.24919" lon="4.96871">
        <ele>325.93466186523</ele>
        <time>2018-06-28T09:20:14+0200</time>
      </trkpt>
      <trkpt lat="47.24921" lon="4.96871">
        <ele>325.93170166016</ele>
        <time>2018-06-28T09:20:17+0200</time>
      </trkpt>
      <trkpt lat="47.24923" lon="4.96872">
        <ele>325.89953613281</ele>
        <time>2018-06-28T09:20:20+0200</time>
      </trkpt>
      <trkpt lat="47.24925" lon="4.96872">
        <ele>325.8369140625</ele>
        <time>2018-06-28T09:20:23+0200</time>
      </trkpt>
      <trkpt lat="47.24928" lon="4.96873">
        <ele>325.75958251953</ele>
        <time>2018-06-28T09:20:26+0200</time>
      </trkpt>
      <trkpt lat="47.2493" lon="4.96874">
        <ele>325.68826293945</ele>
        <time>2018-06-28T09:20:29+0200</time>
      </trkpt>
      <trkpt lat="47.24932" lon="4.96875">
        <ele>325.63143920898</ele>
        <time>2018-06-28T09:20:32+0200</time>
      </trkpt>
      <trkpt lat="47.24935" lon="4.96876">
        <ele>325.58187866211</ele>
        <time>2018-06-28T09:20:35+0200</time>
      </trkpt>
      <trkpt lat="47.24936" lon="4.96876">
        <ele>325.54214477539</ele>
        <time>2018-06-28T09:20:38+0200</time>
      </trkpt>
      <trkpt lat="47.24938" lon="4.96877">
        <ele>325.6467590332</ele>
        <time>2018-06-28T09:20:41+0200</time>
      </trkpt>
      <trkpt lat="47.24941" lon="4.96879">
        <ele>325.79144287109</ele>
        <time>2018-06-28T09:20:44+0200</time>
      </trkpt>
      <trkpt lat="47.24946" lon="4.96881">
        <ele>325.89923095703</ele>
        <time>2018-06-28T09:20:47+0200</time>
      </trkpt>
      <trkpt lat="47.24949" lon="4.96882">
        <ele>325.92657470703</ele>
        <time>2018-06-28T09:20:50+0200</time>
      </trkpt>
      <trkpt lat="47.24951" lon="4.96883">
        <ele>325.93621826172</ele>
        <time>2018-06-28T09:20:53+0200</time>
      </trkpt>
      <trkpt lat="47.24955" lon="4.96884">
        <ele>325.96612548828</ele>
        <time>2018-06-28T09:20:56+0200</time>
      </trkpt>
      <trkpt lat="47.24958" lon="4.96886">
        <ele>325.96932983398</ele>
        <time>2018-06-28T09:20:59+0200</time>
      </trkpt>
      <trkpt lat="47.24961" lon="4.96888">
        <ele>325.96197509766</ele>
        <time>2018-06-28T09:21:02+0200</time>
      </trkpt>
      <trkpt lat="47.24963" lon="4.96889">
        <ele>325.94107055664</ele>
        <time>2018-06-28T09:21:05+0200</time>
      </trkpt>
      <trkpt lat="47.24966" lon="4.96891">
        <ele>325.91735839844</ele>
        <time>2018-06-28T09:21:08+0200</time>
      </trkpt>
      <trkpt lat="47.2497" lon="4.96894">
        <ele>325.95239257812</ele>
        <time>2018-06-28T09:21:11+0200</time>
      </trkpt>
      <trkpt lat="47.24973" lon="4.96895">
        <ele>325.99697875977</ele>
        <time>2018-06-28T09:21:14+0200</time>
      </trkpt>
      <trkpt lat="47.24976" lon="4.96896">
        <ele>326.01116943359</ele>
        <time>2018-06-28T09:21:17+0200</time>
      </trkpt>
      <trkpt lat="47.24978" lon="4.96897">
        <ele>326.00317382812</ele>
        <time>2018-06-28T09:21:20+0200</time>
      </trkpt>
      <trkpt lat="47.2498" lon="4.96898">
        <ele>326.04824829102</ele>
        <time>2018-06-28T09:21:23+0200</time>
      </trkpt>
      <trkpt lat="47.24982" lon="4.96899">
        <ele>326.15249633789</ele>
        <time>2018-06-28T09:21:26+0200</time>
      </trkpt>
      <trkpt lat="47.24986" lon="4.96902">
        <ele>326.18035888672</ele>
        <time>2018-06-28T09:21:29+0200</time>
      </trkpt>
      <trkpt lat="47.24988" lon="4.96903">
        <ele>326.20251464844</ele>
        <time>2018-06-28T09:21:32+0200</time>
      </trkpt>
      <trkpt lat="47.2499" lon="4.96904">
        <ele>326.21011352539</ele>
        <time>2018-06-28T09:21:35+0200</time>
      </trkpt>
      <trkpt lat="47.24991" lon="4.96905">
        <ele>326.22695922852</ele>
        <time>2018-06-28T09:21:38+0200</time>
      </trkpt>
      <trkpt lat="47.2499" lon="4.96905">
        <ele>326.24044799805</ele>
        <time>2018-06-28T09:21:41+0200</time>
      </trkpt>
      <trkpt lat="47.2499" lon="4.96905">
        <ele>326.25500488281</ele>
        <time>2018-06-28T09:21:44+0200</time>
      </trkpt>
      <trkpt lat="47.2499" lon="4.96905">
        <ele>326.28067016602</ele>
        <time>2018-06-28T09:21:47+0200</time>
      </trkpt>
      <trkpt lat="47.24991" lon="4.96905">
        <ele>326.30642700195</ele>
        <time>2018-06-28T09:21:50+0200</time>
      </trkpt>
      <trkpt lat="47.24991" lon="4.96905">
        <ele>326.31063842773</ele>
        <time>2018-06-28T09:21:53+0200</time>
      </trkpt>
      <trkpt lat="47.24991" lon="4.96905">
        <ele>326.31582641602</ele>
        <time>2018-06-28T09:21:56+0200</time>
      </trkpt>
      <trkpt lat="47.24991" lon="4.96906">
        <ele>326.32412719727</ele>
        <time>2018-06-28T09:21:59+0200</time>
      </trkpt>
      <trkpt lat="47.24992" lon="4.96906">
        <ele>326.39862060547</ele>
        <time>2018-06-28T09:22:02+0200</time>
      </trkpt>
      <trkpt lat="47.24994" lon="4.96906">
        <ele>326.55630493164</ele>
        <time>2018-06-28T09:22:05+0200</time>
      </trkpt>
      <trkpt lat="47.24996" lon="4.96902">
        <ele>326.71875</ele>
        <time>2018-06-28T09:22:08+0200</time>
      </trkpt>
      <trkpt lat="47.24998" lon="4.96899">
        <ele>326.86013793945</ele>
        <time>2018-06-28T09:22:11+0200</time>
      </trkpt>
      <trkpt lat="47.24999" lon="4.96897">
        <ele>327.00344848633</ele>
        <time>2018-06-28T09:22:14+0200</time>
      </trkpt>
      <trkpt lat="47.24999" lon="4.96893">
        <ele>327.13952636719</ele>
        <time>2018-06-28T09:22:17+0200</time>
      </trkpt>
      <trkpt lat="47.25001" lon="4.9689">
        <ele>327.25582885742</ele>
        <time>2018-06-28T09:22:20+0200</time>
      </trkpt>
      <trkpt lat="47.25001" lon="4.96887">
        <ele>327.37884521484</ele>
        <time>2018-06-28T09:22:23+0200</time>
      </trkpt>
      <trkpt lat="47.25001" lon="4.96883">
        <ele>327.53369140625</ele>
        <time>2018-06-28T09:22:26+0200</time>
      </trkpt>
      <trkpt lat="47.25001" lon="4.96879">
        <ele>327.69775390625</ele>
        <time>2018-06-28T09:22:29+0200</time>
      </trkpt>
      <trkpt lat="47.25002" lon="4.96876">
        <ele>327.80526733398</ele>
        <time>2018-06-28T09:22:32+0200</time>
      </trkpt>
      <trkpt lat="47.25003" lon="4.96872">
        <ele>327.87167358398</ele>
        <time>2018-06-28T09:22:35+0200</time>
      </trkpt>
      <trkpt lat="47.25004" lon="4.96868">
        <ele>327.92434692383</ele>
        <time>2018-06-28T09:22:38+0200</time>
      </trkpt>
      <trkpt lat="47.25004" lon="4.96865">
        <ele>327.98721313477</ele>
        <time>2018-06-28T09:22:41+0200</time>
      </trkpt>
      <trkpt lat="47.25004" lon="4.96862">
        <ele>328.07940673828</ele>
        <time>2018-06-28T09:22:44+0200</time>
      </trkpt>
      <trkpt lat="47.25004" lon="4.96859">
        <ele>328.23428344727</ele>
        <time>2018-06-28T09:22:47+0200</time>
      </trkpt>
      <trkpt lat="47.25004" lon="4.96856">
        <ele>328.39309692383</ele>
        <time>2018-06-28T09:22:50+0200</time>
      </trkpt>
      <trkpt lat="47.25004" lon="4.96852">
        <ele>328.54956054688</ele>
        <time>2018-06-28T09:22:53+0200</time>
      </trkpt>
      <trkpt lat="47.25004" lon="4.96849">
        <ele>328.72634887695</ele>
        <time>2018-06-28T09:22:56+0200</time>
      </trkpt>
      <trkpt lat="47.25005" lon="4.96845">
        <ele>328.90603637695</ele>
        <time>2018-06-28T09:22:59+0200</time>
      </trkpt>
      <trkpt lat="47.25005" lon="4.96841">
        <ele>329.08435058594</ele>
        <time>2018-06-28T09:23:02+0200</time>
      </trkpt>
      <trkpt lat="47.25005" lon="4.96837">
        <ele>329.22573852539</ele>
        <time>2018-06-28T09:23:05+0200</time>
      </trkpt>
      <trkpt lat="47.25005" lon="4.96835">
        <ele>329.36654663086</ele>
        <time>2018-06-28T09:23:08+0200</time>
      </trkpt>
      <trkpt lat="47.25005" lon="4.96832">
        <ele>329.55841064453</ele>
        <time>2018-06-28T09:23:11+0200</time>
      </trkpt>
      <trkpt lat="47.25006" lon="4.96829">
        <ele>329.76333618164</ele>
        <time>2018-06-28T09:23:14+0200</time>
      </trkpt>
      <trkpt lat="47.25006" lon="4.96825">
        <ele>329.96417236328</ele>
        <time>2018-06-28T09:23:17+0200</time>
      </trkpt>
      <trkpt lat="47.25006" lon="4.96822">
        <ele>330.17837524414</ele>
        <time>2018-06-28T09:23:20+0200</time>
      </trkpt>
      <trkpt lat="47.25007" lon="4.96819">
        <ele>330.39370727539</ele>
        <time>2018-06-28T09:23:23+0200</time>
      </trkpt>
      <trkpt lat="47.25007" lon="4.96817">
        <ele>330.6494140625</ele>
        <time>2018-06-28T09:23:26+0200</time>
      </trkpt>
      <trkpt lat="47.25007" lon="4.96814">
        <ele>330.90563964844</ele>
        <time>2018-06-28T09:23:29+0200</time>
      </trkpt>
      <trkpt lat="47.25007" lon="4.96811">
        <ele>331.13684082031</ele>
        <time>2018-06-28T09:23:32+0200</time>
      </trkpt>
      <trkpt lat="47.25008" lon="4.96808">
        <ele>331.36437988281</ele>
        <time>2018-06-28T09:23:35+0200</time>
      </trkpt>
      <trkpt lat="47.25008" lon="4.96805">
        <ele>331.59741210938</ele>
        <time>2018-06-28T09:23:38+0200</time>
      </trkpt>
      <trkpt lat="47.25008" lon="4.96802">
        <ele>331.80654907227</ele>
        <time>2018-06-28T09:23:41+0200</time>
      </trkpt>
      <trkpt lat="47.25008" lon="4.96797">
        <ele>331.984375</ele>
        <time>2018-06-28T09:23:44+0200</time>
      </trkpt>
      <trkpt lat="47.25007" lon="4.96794">
        <ele>332.1081237793</ele>
        <time>2018-06-28T09:23:47+0200</time>
      </trkpt>
      <trkpt lat="47.25007" lon="4.96791">
        <ele>332.23022460938</ele>
        <time>2018-06-28T09:23:50+0200</time>
      </trkpt>
      <trkpt lat="47.25008" lon="4.96788">
        <ele>332.29010009766</ele>
        <time>2018-06-28T09:23:53+0200</time>
      </trkpt>
      <trkpt lat="47.25009" lon="4.96785">
        <ele>332.31661987305</ele>
        <time>2018-06-28T09:23:56+0200</time>
      </trkpt>
      <trkpt lat="47.25011" lon="4.96781">
        <ele>332.31784057617</ele>
        <time>2018-06-28T09:23:59+0200</time>
      </trkpt>
      <trkpt lat="47.25013" lon="4.96779">
        <ele>332.32666015625</ele>
        <time>2018-06-28T09:24:02+0200</time>
      </trkpt>
      <trkpt lat="47.25015" lon="4.96778">
        <ele>332.37994384766</ele>
        <time>2018-06-28T09:24:05+0200</time>
      </trkpt>
      <trkpt lat="47.25016" lon="4.96776">
        <ele>332.49655151367</ele>
        <time>2018-06-28T09:24:08+0200</time>
      </trkpt>
      <trkpt lat="47.25019" lon="4.96774">
        <ele>332.62414550781</ele>
        <time>2018-06-28T09:24:11+0200</time>
      </trkpt>
      <trkpt lat="47.25021" lon="4.96773">
        <ele>332.78894042969</ele>
        <time>2018-06-28T09:24:14+0200</time>
      </trkpt>
      <trkpt lat="47.25022" lon="4.96769">
        <ele>332.9104309082</ele>
        <time>2018-06-28T09:24:17+0200</time>
      </trkpt>
      <trkpt lat="47.25024" lon="4.96766">
        <ele>332.96182250977</ele>
        <time>2018-06-28T09:24:20+0200</time>
      </trkpt>
      <trkpt lat="47.25026" lon="4.96764">
        <ele>332.97698974609</ele>
        <time>2018-06-28T09:24:23+0200</time>
      </trkpt>
      <trkpt lat="47.25027" lon="4.96764">
        <ele>333.04229736328</ele>
        <time>2018-06-28T09:24:26+0200</time>
      </trkpt>
      <trkpt lat="47.25029" lon="4.96762">
        <ele>333.11172485352</ele>
        <time>2018-06-28T09:24:29+0200</time>
      </trkpt>
      <trkpt lat="47.25029" lon="4.96763">
        <ele>333.17840576172</ele>
        <time>2018-06-28T09:24:32+0200</time>
      </trkpt>
      <trkpt lat="47.25029" lon="4.96762">
        <ele>333.19012451172</ele>
        <time>2018-06-28T09:24:35+0200</time>
      </trkpt>
      <trkpt lat="47.25029" lon="4.96762">
        <ele>333.19882202148</ele>
        <time>2018-06-28T09:24:38+0200</time>
      </trkpt>
      <trkpt lat="47.25029" lon="4.96762">
        <ele>333.2067565918</ele>
        <time>2018-06-28T09:24:41+0200</time>
      </trkpt>
      <trkpt lat="47.25029" lon="4.96763">
        <ele>333.24166870117</ele>
        <time>2018-06-28T09:24:44+0200</time>
      </trkpt>
      <trkpt lat="47.25029" lon="4.96763">
        <ele>333.29418945312</ele>
        <time>2018-06-28T09:24:47+0200</time>
      </trkpt>
      <trkpt lat="47.25029" lon="4.96764">
        <ele>333.47790527344</ele>
        <time>2018-06-28T09:24:50+0200</time>
      </trkpt>
      <trkpt lat="47.2503" lon="4.96769">
        <ele>333.97463989258</ele>
        <time>2018-06-28T09:24:53+0200</time>
      </trkpt>
      <trkpt lat="47.25033" lon="4.9677">
        <ele>334.51739501953</ele>
        <time>2018-06-28T09:24:56+0200</time>
      </trkpt>
      <trkpt lat="47.25034" lon="4.96769">
        <ele>334.73083496094</ele>
        <time>2018-06-28T09:24:59+0200</time>
      </trkpt>
      <trkpt lat="47.25035" lon="4.96768">
        <ele>335.26113891602</ele>
        <time>2018-06-28T09:25:02+0200</time>
      </trkpt>
      <trkpt lat="47.25038" lon="4.96765">
        <ele>335.85787963867</ele>
        <time>2018-06-28T09:25:05+0200</time>
      </trkpt>
      <trkpt lat="47.2504" lon="4.96763">
        <ele>336.28936767578</ele>
        <time>2018-06-28T09:25:08+0200</time>
      </trkpt>
      <trkpt lat="47.25042" lon="4.96764">
        <ele>336.70358276367</ele>
        <time>2018-06-28T09:25:11+0200</time>
      </trkpt>
      <trkpt lat="47.25045" lon="4.96762">
        <ele>337.29748535156</ele>
        <time>2018-06-28T09:25:14+0200</time>
      </trkpt>
      <trkpt lat="47.25048" lon="4.9676">
        <ele>337.68682861328</ele>
        <time>2018-06-28T09:25:17+0200</time>
      </trkpt>
      <trkpt lat="47.25049" lon="4.96761">
        <ele>338.08355712891</ele>
        <time>2018-06-28T09:25:20+0200</time>
      </trkpt>
      <trkpt lat="47.2505" lon="4.9676">
        <ele>338.48028564453</ele>
        <time>2018-06-28T09:25:23+0200</time>
      </trkpt>
      <trkpt lat="47.25052" lon="4.96759">
        <ele>338.84558105469</ele>
        <time>2018-06-28T09:25:26+0200</time>
      </trkpt>
      <trkpt lat="47.25054" lon="4.96758">
        <ele>339.47955322266</ele>
        <time>2018-06-28T09:25:29+0200</time>
      </trkpt>
      <trkpt lat="47.25057" lon="4.96757">
        <ele>340.02130126953</ele>
        <time>2018-06-28T09:25:32+0200</time>
      </trkpt>
      <trkpt lat="47.2506" lon="4.96755">
        <ele>340.53973388672</ele>
        <time>2018-06-28T09:25:35+0200</time>
      </trkpt>
      <trkpt lat="47.25061" lon="4.96754">
        <ele>341.09143066406</ele>
        <time>2018-06-28T09:25:38+0200</time>
      </trkpt>
      <trkpt lat="47.25064" lon="4.96753">
        <ele>341.64239501953</ele>
        <time>2018-06-28T09:25:41+0200</time>
      </trkpt>
      <trkpt lat="47.25067" lon="4.96751">
        <ele>342.14175415039</ele>
        <time>2018-06-28T09:25:44+0200</time>
      </trkpt>
      <trkpt lat="47.25069" lon="4.96748">
        <ele>342.57260131836</ele>
        <time>2018-06-28T09:25:47+0200</time>
      </trkpt>
      <trkpt lat="47.25069" lon="4.96749">
        <ele>343.25738525391</ele>
        <time>2018-06-28T09:25:50+0200</time>
      </trkpt>
      <trkpt lat="47.25074" lon="4.96744">
        <ele>343.92446899414</ele>
        <time>2018-06-28T09:25:53+0200</time>
      </trkpt>
      <trkpt lat="47.25074" lon="4.96743">
        <ele>344.55844116211</ele>
        <time>2018-06-28T09:25:56+0200</time>
      </trkpt>
      <trkpt lat="47.25076" lon="4.96742">
        <ele>345.1823425293</ele>
        <time>2018-06-28T09:25:59+0200</time>
      </trkpt>
      <trkpt lat="47.25078" lon="4.9674">
        <ele>345.69750976562</ele>
        <time>2018-06-28T09:26:02+0200</time>
      </trkpt>
      <trkpt lat="47.2508" lon="4.96738">
        <ele>346.69744873047</ele>
        <time>2018-06-28T09:26:05+0200</time>
      </trkpt>
      <trkpt lat="47.25082" lon="4.96737">
        <ele>347.46392822266</ele>
        <time>2018-06-28T09:26:08+0200</time>
      </trkpt>
      <trkpt lat="47.25083" lon="4.96735">
        <ele>348.54119873047</ele>
        <time>2018-06-28T09:26:11+0200</time>
      </trkpt>
      <trkpt lat="47.25084" lon="4.96735">
        <ele>349.32763671875</ele>
        <time>2018-06-28T09:26:14+0200</time>
      </trkpt>
      <trkpt lat="47.25086" lon="4.96737">
        <ele>350.48428344727</ele>
        <time>2018-06-28T09:26:17+0200</time>
      </trkpt>
      <trkpt lat="47.25087" lon="4.96738">
        <ele>351.66836547852</ele>
        <time>2018-06-28T09:26:20+0200</time>
      </trkpt>
      <trkpt lat="47.25089" lon="4.96739">
        <ele>352.87478637695</ele>
        <time>2018-06-28T09:26:23+0200</time>
      </trkpt>
      <trkpt lat="47.25092" lon="4.96739">
        <ele>353.64364624023</ele>
        <time>2018-06-28T09:26:26+0200</time>
      </trkpt>
      <trkpt lat="47.251" lon="4.96743">
        <ele>354.18103027344</ele>
        <time>2018-06-28T09:26:29+0200</time>
      </trkpt>
      <trkpt lat="47.251" lon="4.96743">
        <ele>354.24923706055</ele>
        <time>2018-06-28T09:26:32+0200</time>
      </trkpt>
      <trkpt lat="47.251" lon="4.96744">
        <ele>354.30856323242</ele>
        <time>2018-06-28T09:26:35+0200</time>
      </trkpt>
      <trkpt lat="47.251" lon="4.96744">
        <ele>354.35568237305</ele>
        <time>2018-06-28T09:26:38+0200</time>
      </trkpt>
      <trkpt lat="47.25101" lon="4.96745">
        <ele>354.69583129883</ele>
        <time>2018-06-28T09:26:41+0200</time>
      </trkpt>
      <trkpt lat="47.25104" lon="4.96745">
        <ele>355.0378112793</ele>
        <time>2018-06-28T09:26:44+0200</time>
      </trkpt>
      <trkpt lat="47.25104" lon="4.96744">
        <ele>355.29449462891</ele>
        <time>2018-06-28T09:26:47+0200</time>
      </trkpt>
      <trkpt lat="47.25104" lon="4.96743">
        <ele>355.48138427734</ele>
        <time>2018-06-28T09:26:50+0200</time>
      </trkpt>
      <trkpt lat="47.25107" lon="4.96743">
        <ele>355.6891784668</ele>
        <time>2018-06-28T09:26:53+0200</time>
      </trkpt>
      <trkpt lat="47.25108" lon="4.96742">
        <ele>356.08969116211</ele>
        <time>2018-06-28T09:26:56+0200</time>
      </trkpt>
      <trkpt lat="47.25108" lon="4.96742">
        <ele>356.16162109375</ele>
        <time>2018-06-28T09:26:59+0200</time>
      </trkpt>
      <trkpt lat="47.2511" lon="4.96742">
        <ele>356.66381835938</ele>
        <time>2018-06-28T09:27:02+0200</time>
      </trkpt>
      <trkpt lat="47.25114" lon="4.96744">
        <ele>356.94711303711</ele>
        <time>2018-06-28T09:27:05+0200</time>
      </trkpt>
      <trkpt lat="47.25116" lon="4.96742">
        <ele>357.34216308594</ele>
        <time>2018-06-28T09:27:08+0200</time>
      </trkpt>
      <trkpt lat="47.25115" lon="4.96741">
        <ele>357.48590087891</ele>
        <time>2018-06-28T09:27:11+0200</time>
      </trkpt>
      <trkpt lat="47.25115" lon="4.96741">
        <ele>357.52194213867</ele>
        <time>2018-06-28T09:27:14+0200</time>
      </trkpt>
      <trkpt lat="47.25116" lon="4.9674">
        <ele>357.55880737305</ele>
        <time>2018-06-28T09:27:17+0200</time>
      </trkpt>
      <trkpt lat="47.25116" lon="4.9674">
        <ele>357.59411621094</ele>
        <time>2018-06-28T09:27:20+0200</time>
      </trkpt>
      <trkpt lat="47.25116" lon="4.9674">
        <ele>357.59362792969</ele>
        <time>2018-06-28T09:27:23+0200</time>
      </trkpt>
      <trkpt lat="47.25116" lon="4.9674">
        <ele>357.53332519531</ele>
        <time>2018-06-28T09:27:26+0200</time>
      </trkpt>
      <trkpt lat="47.25115" lon="4.96739">
        <ele>357.42712402344</ele>
        <time>2018-06-28T09:27:29+0200</time>
      </trkpt>
      <trkpt lat="47.25115" lon="4.96739">
        <ele>357.28707885742</ele>
        <time>2018-06-28T09:27:32+0200</time>
      </trkpt>
      <trkpt lat="47.25115" lon="4.96738">
        <ele>357.15264892578</ele>
        <time>2018-06-28T09:27:35+0200</time>
      </trkpt>
      <trkpt lat="47.25115" lon="4.96737">
        <ele>357.04760742188</ele>
        <time>2018-06-28T09:27:38+0200</time>
      </trkpt>
      <trkpt lat="47.25112" lon="4.96737">
        <ele>355.99996948242</ele>
        <time>2018-06-28T09:27:41+0200</time>
      </trkpt>
      <trkpt lat="47.25113" lon="4.96738">
        <ele>355.09811401367</ele>
        <time>2018-06-28T09:27:44+0200</time>
      </trkpt>
      <trkpt lat="47.25119" lon="4.96742">
        <ele>354.40963745117</ele>
        <time>2018-06-28T09:27:47+0200</time>
      </trkpt>
      <trkpt lat="47.25119" lon="4.96743">
        <ele>353.93640136719</ele>
        <time>2018-06-28T09:27:50+0200</time>
      </trkpt>
      <trkpt lat="47.2512" lon="4.96743">
        <ele>353.83880615234</ele>
        <time>2018-06-28T09:27:53+0200</time>
      </trkpt>
      <trkpt lat="47.25122" lon="4.96744">
        <ele>353.77536010742</ele>
        <time>2018-06-28T09:27:56+0200</time>
      </trkpt>
      <trkpt lat="47.25122" lon="4.96745">
        <ele>353.6780090332</ele>
        <time>2018-06-28T09:27:59+0200</time>
      </trkpt>
      <trkpt lat="47.25124" lon="4.96747">
        <ele>353.21463012695</ele>
        <time>2018-06-28T09:28:02+0200</time>
      </trkpt>
      <trkpt lat="47.25125" lon="4.9675">
        <ele>352.74655151367</ele>
        <time>2018-06-28T09:28:05+0200</time>
      </trkpt>
      <trkpt lat="47.25124" lon="4.96748">
        <ele>352.36361694336</ele>
        <time>2018-06-28T09:28:08+0200</time>
      </trkpt>
      <trkpt lat="47.25123" lon="4.96749">
        <ele>352.34970092773</ele>
        <time>2018-06-28T09:28:11+0200</time>
      </trkpt>
      <trkpt lat="47.25123" lon="4.96748">
        <ele>352.34973144531</ele>
        <time>2018-06-28T09:28:14+0200</time>
      </trkpt>
      <trkpt lat="47.25123" lon="4.96748">
        <ele>352.33850097656</ele>
        <time>2018-06-28T09:28:17+0200</time>
      </trkpt>
      <trkpt lat="47.25123" lon="4.96748">
        <ele>352.31390380859</ele>
        <time>2018-06-28T09:28:20+0200</time>
      </trkpt>
      <trkpt lat="47.25123" lon="4.96748">
        <ele>352.27294921875</ele>
        <time>2018-06-28T09:28:23+0200</time>
      </trkpt>
      <trkpt lat="47.25123" lon="4.96748">
        <ele>352.23397827148</ele>
        <time>2018-06-28T09:28:26+0200</time>
      </trkpt>
      <trkpt lat="47.25123" lon="4.96749">
        <ele>352.20980834961</ele>
        <time>2018-06-28T09:28:29+0200</time>
      </trkpt>
      <trkpt lat="47.25123" lon="4.96749">
        <ele>352.19247436523</ele>
        <time>2018-06-28T09:28:32+0200</time>
      </trkpt>
      <trkpt lat="47.25124" lon="4.96752">
        <ele>352.18960571289</ele>
        <time>2018-06-28T09:28:35+0200</time>
      </trkpt>
      <trkpt lat="47.25126" lon="4.96755">
        <ele>352.30606079102</ele>
        <time>2018-06-28T09:28:38+0200</time>
      </trkpt>
      <trkpt lat="47.25126" lon="4.96755">
        <ele>352.38854980469</ele>
        <time>2018-06-28T09:28:41+0200</time>
      </trkpt>
      <trkpt lat="47.25126" lon="4.96755">
        <ele>352.41784667969</ele>
        <time>2018-06-28T09:28:44+0200</time>
      </trkpt>
      <trkpt lat="47.25126" lon="4.96755">
        <ele>352.45373535156</ele>
        <time>2018-06-28T09:28:47+0200</time>
      </trkpt>
      <trkpt lat="47.25126" lon="4.96755">
        <ele>352.73782348633</ele>
        <time>2018-06-28T09:28:50+0200</time>
      </trkpt>
      <trkpt lat="47.25127" lon="4.96756">
        <ele>353.1396484375</ele>
        <time>2018-06-28T09:28:53+0200</time>
      </trkpt>
      <trkpt lat="47.25127" lon="4.96756">
        <ele>353.51647949219</ele>
        <time>2018-06-28T09:28:56+0200</time>
      </trkpt>
      <trkpt lat="47.25128" lon="4.96756">
        <ele>353.75854492188</ele>
        <time>2018-06-28T09:28:59+0200</time>
      </trkpt>
      <trkpt lat="47.25128" lon="4.96756">
        <ele>354.10247802734</ele>
        <time>2018-06-28T09:29:02+0200</time>
      </trkpt>
      <trkpt lat="47.25129" lon="4.96757">
        <ele>354.26666259766</ele>
        <time>2018-06-28T09:29:05+0200</time>
      </trkpt>
      <trkpt lat="47.2513" lon="4.96758">
        <ele>354.64093017578</ele>
        <time>2018-06-28T09:29:08+0200</time>
      </trkpt>
      <trkpt lat="47.2513" lon="4.96758">
        <ele>355.05325317383</ele>
        <time>2018-06-28T09:29:11+0200</time>
      </trkpt>
      <trkpt lat="47.25132" lon="4.96762">
        <ele>355.2360534668</ele>
        <time>2018-06-28T09:29:14+0200</time>
      </trkpt>
      <trkpt lat="47.25134" lon="4.96766">
        <ele>355.32150268555</ele>
        <time>2018-06-28T09:29:17+0200</time>
      </trkpt>
      <trkpt lat="47.25134" lon="4.96767">
        <ele>355.41421508789</ele>
        <time>2018-06-28T09:29:20+0200</time>
      </trkpt>
      <trkpt lat="47.25135" lon="4.96769">
        <ele>355.43814086914</ele>
        <time>2018-06-28T09:29:23+0200</time>
      </trkpt>
      <trkpt lat="47.25137" lon="4.96771">
        <ele>355.66018676758</ele>
        <time>2018-06-28T09:29:26+0200</time>
      </trkpt>
      <trkpt lat="47.2514" lon="4.96777">
        <ele>355.61825561523</ele>
        <time>2018-06-28T09:29:29+0200</time>
      </trkpt>
      <trkpt lat="47.25142" lon="4.9678">
        <ele>355.53100585938</ele>
        <time>2018-06-28T09:29:32+0200</time>
      </trkpt>
      <trkpt lat="47.25143" lon="4.96781">
        <ele>355.44421386719</ele>
        <time>2018-06-28T09:29:35+0200</time>
      </trkpt>
      <trkpt lat="47.25143" lon="4.96779">
        <ele>355.42678833008</ele>
        <time>2018-06-28T09:29:38+0200</time>
      </trkpt>
      <trkpt lat="47.25148" lon="4.96781">
        <ele>355.29620361328</ele>
        <time>2018-06-28T09:29:41+0200</time>
      </trkpt>
      <trkpt lat="47.25152" lon="4.96783">
        <ele>355.16400146484</ele>
        <time>2018-06-28T09:29:44+0200</time>
      </trkpt>
      <trkpt lat="47.25154" lon="4.96783">
        <ele>354.96807861328</ele>
        <time>2018-06-28T09:29:47+0200</time>
      </trkpt>
      <trkpt lat="47.25158" lon="4.96784">
        <ele>354.79382324219</ele>
        <time>2018-06-28T09:29:50+0200</time>
      </trkpt>
      <trkpt lat="47.25158" lon="4.96778">
        <ele>354.37576293945</ele>
        <time>2018-06-28T09:29:53+0200</time>
      </trkpt>
      <trkpt lat="47.25161" lon="4.96785">
        <ele>353.76724243164</ele>
        <time>2018-06-28T09:29:56+0200</time>
      </trkpt>
      <trkpt lat="47.25162" lon="4.96787">
        <ele>353.0634765625</ele>
        <time>2018-06-28T09:29:59+0200</time>
      </trkpt>
      <trkpt lat="47.25163" lon="4.96791">
        <ele>352.21084594727</ele>
        <time>2018-06-28T09:30:02+0200</time>
      </trkpt>
      <trkpt lat="47.25164" lon="4.96795">
        <ele>351.68154907227</ele>
        <time>2018-06-28T09:30:05+0200</time>
      </trkpt>
      <trkpt lat="47.25164" lon="4.96796">
        <ele>351.13912963867</ele>
        <time>2018-06-28T09:30:08+0200</time>
      </trkpt>
      <trkpt lat="47.25167" lon="4.96794">
        <ele>350.29016113281</ele>
        <time>2018-06-28T09:30:11+0200</time>
      </trkpt>
      <trkpt lat="47.25172" lon="4.96789">
        <ele>349.44793701172</ele>
        <time>2018-06-28T09:30:14+0200</time>
      </trkpt>
      <trkpt lat="47.25174" lon="4.96785">
        <ele>348.56649780273</ele>
        <time>2018-06-28T09:30:17+0200</time>
      </trkpt>
      <trkpt lat="47.25175" lon="4.96782">
        <ele>347.76971435547</ele>
        <time>2018-06-28T09:30:20+0200</time>
      </trkpt>
      <trkpt lat="47.25176" lon="4.9678">
        <ele>347.0657043457</ele>
        <time>2018-06-28T09:30:23+0200</time>
      </trkpt>
      <trkpt lat="47.25177" lon="4.96776">
        <ele>346.46130371094</ele>
        <time>2018-06-28T09:30:26+0200</time>
      </trkpt>
      <trkpt lat="47.25178" lon="4.96771">
        <ele>345.91110229492</ele>
        <time>2018-06-28T09:30:29+0200</time>
      </trkpt>
      <trkpt lat="47.25179" lon="4.96768">
        <ele>345.35668945312</ele>
        <time>2018-06-28T09:30:32+0200</time>
      </trkpt>
      <trkpt lat="47.25179" lon="4.96763">
        <ele>344.91860961914</ele>
        <time>2018-06-28T09:30:36+0200</time>
      </trkpt>
      <trkpt lat="47.25183" lon="4.96758">
        <ele>344.70755004883</ele>
        <time>2018-06-28T09:30:39+0200</time>
      </trkpt>
      <trkpt lat="47.25186" lon="4.96757">
        <ele>344.55450439453</ele>
        <time>2018-06-28T09:30:42+0200</time>
      </trkpt>
      <trkpt lat="47.25188" lon="4.96755">
        <ele>344.41165161133</ele>
        <time>2018-06-28T09:30:45+0200</time>
      </trkpt>
      <trkpt lat="47.25191" lon="4.9675">
        <ele>344.24322509766</ele>
        <time>2018-06-28T09:30:48+0200</time>
      </trkpt>
      <trkpt lat="47.25192" lon="4.96748">
        <ele>343.97259521484</ele>
        <time>2018-06-28T09:30:51+0200</time>
      </trkpt>
      <trkpt lat="47.25192" lon="4.96744">
        <ele>343.74768066406</ele>
        <time>2018-06-28T09:30:54+0200</time>
      </trkpt>
      <trkpt lat="47.25195" lon="4.96742">
        <ele>343.72470092773</ele>
        <time>2018-06-28T09:30:57+0200</time>
      </trkpt>
      <trkpt lat="47.25196" lon="4.96738">
        <ele>343.72012329102</ele>
        <time>2018-06-28T09:31:00+0200</time>
      </trkpt>
      <trkpt lat="47.25197" lon="4.96735">
        <ele>343.68609619141</ele>
        <time>2018-06-28T09:31:03+0200</time>
      </trkpt>
      <trkpt lat="47.25197" lon="4.96729">
        <ele>343.70989990234</ele>
        <time>2018-06-28T09:31:06+0200</time>
      </trkpt>
      <trkpt lat="47.25199" lon="4.96725">
        <ele>343.80816650391</ele>
        <time>2018-06-28T09:31:09+0200</time>
      </trkpt>
      <trkpt lat="47.25201" lon="4.96719">
        <ele>343.69039916992</ele>
        <time>2018-06-28T09:31:12+0200</time>
      </trkpt>
      <trkpt lat="47.25202" lon="4.96714">
        <ele>343.41986083984</ele>
        <time>2018-06-28T09:31:15+0200</time>
      </trkpt>
      <trkpt lat="47.25203" lon="4.9671">
        <ele>343.2350769043</ele>
        <time>2018-06-28T09:31:18+0200</time>
      </trkpt>
      <trkpt lat="47.25205" lon="4.96708">
        <ele>343.1630859375</ele>
        <time>2018-06-28T09:31:21+0200</time>
      </trkpt>
      <trkpt lat="47.25206" lon="4.96705">
        <ele>343.20935058594</ele>
        <time>2018-06-28T09:31:24+0200</time>
      </trkpt>
      <trkpt lat="47.25204" lon="4.96705">
        <ele>343.30700683594</ele>
        <time>2018-06-28T09:31:27+0200</time>
      </trkpt>
      <trkpt lat="47.25207" lon="4.96701">
        <ele>343.42013549805</ele>
        <time>2018-06-28T09:31:30+0200</time>
      </trkpt>
      <trkpt lat="47.25209" lon="4.96698">
        <ele>343.58837890625</ele>
        <time>2018-06-28T09:31:33+0200</time>
      </trkpt>
      <trkpt lat="47.2521" lon="4.96697">
        <ele>343.80310058594</ele>
        <time>2018-06-28T09:31:36+0200</time>
      </trkpt>
      <trkpt lat="47.25213" lon="4.96693">
        <ele>343.92352294922</ele>
        <time>2018-06-28T09:31:39+0200</time>
      </trkpt>
      <trkpt lat="47.25214" lon="4.9669">
        <ele>344.05960083008</ele>
        <time>2018-06-28T09:31:42+0200</time>
      </trkpt>
      <trkpt lat="47.25215" lon="4.96686">
        <ele>344.20498657227</ele>
        <time>2018-06-28T09:31:45+0200</time>
      </trkpt>
      <trkpt lat="47.25216" lon="4.96683">
        <ele>344.28625488281</ele>
        <time>2018-06-28T09:31:48+0200</time>
      </trkpt>
      <trkpt lat="47.2522" lon="4.96679">
        <ele>344.38681030273</ele>
        <time>2018-06-28T09:31:51+0200</time>
      </trkpt>
      <trkpt lat="47.25222" lon="4.96676">
        <ele>344.53582763672</ele>
        <time>2018-06-28T09:31:54+0200</time>
      </trkpt>
      <trkpt lat="47.25226" lon="4.9667">
        <ele>344.71435546875</ele>
        <time>2018-06-28T09:31:57+0200</time>
      </trkpt>
      <trkpt lat="47.25226" lon="4.96664">
        <ele>344.66452026367</ele>
        <time>2018-06-28T09:32:00+0200</time>
      </trkpt>
      <trkpt lat="47.25227" lon="4.9666">
        <ele>344.41241455078</ele>
        <time>2018-06-28T09:32:03+0200</time>
      </trkpt>
      <trkpt lat="47.25228" lon="4.96657">
        <ele>344.17633056641</ele>
        <time>2018-06-28T09:32:06+0200</time>
      </trkpt>
      <trkpt lat="47.25229" lon="4.96653">
        <ele>344.1364440918</ele>
        <time>2018-06-28T09:32:09+0200</time>
      </trkpt>
      <trkpt lat="47.2523" lon="4.96649">
        <ele>344.09680175781</ele>
        <time>2018-06-28T09:32:12+0200</time>
      </trkpt>
      <trkpt lat="47.25231" lon="4.96646">
        <ele>344.02301025391</ele>
        <time>2018-06-28T09:32:15+0200</time>
      </trkpt>
      <trkpt lat="47.25233" lon="4.96643">
        <ele>343.80569458008</ele>
        <time>2018-06-28T09:32:18+0200</time>
      </trkpt>
      <trkpt lat="47.25234" lon="4.96638">
        <ele>343.55426025391</ele>
        <time>2018-06-28T09:32:21+0200</time>
      </trkpt>
      <trkpt lat="47.25234" lon="4.96638">
        <ele>343.29794311523</ele>
        <time>2018-06-28T09:32:24+0200</time>
      </trkpt>
      <trkpt lat="47.25235" lon="4.96635">
        <ele>343.0647277832</ele>
        <time>2018-06-28T09:32:27+0200</time>
      </trkpt>
      <trkpt lat="47.25238" lon="4.96633">
        <ele>342.84747314453</ele>
        <time>2018-06-28T09:32:30+0200</time>
      </trkpt>
      <trkpt lat="47.2524" lon="4.9663">
        <ele>342.67193603516</ele>
        <time>2018-06-28T09:32:33+0200</time>
      </trkpt>
      <trkpt lat="47.25242" lon="4.96626">
        <ele>342.58740234375</ele>
        <time>2018-06-28T09:32:36+0200</time>
      </trkpt>
      <trkpt lat="47.25243" lon="4.96621">
        <ele>342.58135986328</ele>
        <time>2018-06-28T09:32:39+0200</time>
      </trkpt>
      <trkpt lat="47.25244" lon="4.96618">
        <ele>342.50915527344</ele>
        <time>2018-06-28T09:32:42+0200</time>
      </trkpt>
      <trkpt lat="47.25245" lon="4.96615">
        <ele>342.41482543945</ele>
        <time>2018-06-28T09:32:45+0200</time>
      </trkpt>
      <trkpt lat="47.25245" lon="4.9661">
        <ele>342.43048095703</ele>
        <time>2018-06-28T09:32:48+0200</time>
      </trkpt>
      <trkpt lat="47.25246" lon="4.96607">
        <ele>342.56365966797</ele>
        <time>2018-06-28T09:32:51+0200</time>
      </trkpt>
      <trkpt lat="47.25247" lon="4.96603">
        <ele>342.86709594727</ele>
        <time>2018-06-28T09:32:54+0200</time>
      </trkpt>
      <trkpt lat="47.25247" lon="4.966">
        <ele>343.19268798828</ele>
        <time>2018-06-28T09:32:57+0200</time>
      </trkpt>
      <trkpt lat="47.25249" lon="4.96599">
        <ele>343.45346069336</ele>
        <time>2018-06-28T09:33:00+0200</time>
      </trkpt>
      <trkpt lat="47.25251" lon="4.96597">
        <ele>343.56976318359</ele>
        <time>2018-06-28T09:33:03+0200</time>
      </trkpt>
      <trkpt lat="47.25251" lon="4.96591">
        <ele>343.77496337891</ele>
        <time>2018-06-28T09:33:06+0200</time>
      </trkpt>
      <trkpt lat="47.25253" lon="4.96589">
        <ele>343.92431640625</ele>
        <time>2018-06-28T09:33:09+0200</time>
      </trkpt>
      <trkpt lat="47.25254" lon="4.96587">
        <ele>344.07885742188</ele>
        <time>2018-06-28T09:33:12+0200</time>
      </trkpt>
      <trkpt lat="47.25256" lon="4.96585">
        <ele>344.1604309082</ele>
        <time>2018-06-28T09:33:15+0200</time>
      </trkpt>
      <trkpt lat="47.25258" lon="4.9658">
        <ele>344.20791625977</ele>
        <time>2018-06-28T09:33:18+0200</time>
      </trkpt>
      <trkpt lat="47.25258" lon="4.96576">
        <ele>344.3630065918</ele>
        <time>2018-06-28T09:33:21+0200</time>
      </trkpt>
      <trkpt lat="47.2526" lon="4.96572">
        <ele>344.63537597656</ele>
        <time>2018-06-28T09:33:24+0200</time>
      </trkpt>
      <trkpt lat="47.2526" lon="4.96567">
        <ele>344.93374633789</ele>
        <time>2018-06-28T09:33:27+0200</time>
      </trkpt>
      <trkpt lat="47.25261" lon="4.96566">
        <ele>345.28622436523</ele>
        <time>2018-06-28T09:33:30+0200</time>
      </trkpt>
      <trkpt lat="47.25263" lon="4.96561">
        <ele>345.5954284668</ele>
        <time>2018-06-28T09:33:33+0200</time>
      </trkpt>
      <trkpt lat="47.25263" lon="4.96558">
        <ele>345.95697021484</ele>
        <time>2018-06-28T09:33:36+0200</time>
      </trkpt>
      <trkpt lat="47.25266" lon="4.96558">
        <ele>346.16983032227</ele>
        <time>2018-06-28T09:33:39+0200</time>
      </trkpt>
      <trkpt lat="47.25269" lon="4.96552">
        <ele>346.49844360352</ele>
        <time>2018-06-28T09:33:42+0200</time>
      </trkpt>
      <trkpt lat="47.25272" lon="4.96547">
        <ele>346.81109619141</ele>
        <time>2018-06-28T09:33:45+0200</time>
      </trkpt>
      <trkpt lat="47.25274" lon="4.96544">
        <ele>347.04336547852</ele>
        <time>2018-06-28T09:33:48+0200</time>
      </trkpt>
      <trkpt lat="47.25275" lon="4.96544">
        <ele>347.3157043457</ele>
        <time>2018-06-28T09:33:51+0200</time>
      </trkpt>
      <trkpt lat="47.25276" lon="4.96543">
        <ele>347.68392944336</ele>
        <time>2018-06-28T09:33:54+0200</time>
      </trkpt>
      <trkpt lat="47.25277" lon="4.9654">
        <ele>348.25317382812</ele>
        <time>2018-06-28T09:33:57+0200</time>
      </trkpt>
      <trkpt lat="47.2528" lon="4.96538">
        <ele>348.93347167969</ele>
        <time>2018-06-28T09:34:00+0200</time>
      </trkpt>
      <trkpt lat="47.25282" lon="4.96533">
        <ele>349.41003417969</ele>
        <time>2018-06-28T09:34:03+0200</time>
      </trkpt>
      <trkpt lat="47.25283" lon="4.9653">
        <ele>349.94961547852</ele>
        <time>2018-06-28T09:34:06+0200</time>
      </trkpt>
      <trkpt lat="47.25285" lon="4.96525">
        <ele>350.20074462891</ele>
        <time>2018-06-28T09:34:09+0200</time>
      </trkpt>
      <trkpt lat="47.25286" lon="4.96518">
        <ele>350.4140625</ele>
        <time>2018-06-28T09:34:12+0200</time>
      </trkpt>
      <trkpt lat="47.25287" lon="4.96516">
        <ele>350.67059326172</ele>
        <time>2018-06-28T09:34:15+0200</time>
      </trkpt>
      <trkpt lat="47.2529" lon="4.96514">
        <ele>350.92071533203</ele>
        <time>2018-06-28T09:34:18+0200</time>
      </trkpt>
      <trkpt lat="47.25292" lon="4.96511">
        <ele>351.29653930664</ele>
        <time>2018-06-28T09:34:21+0200</time>
      </trkpt>
      <trkpt lat="47.25295" lon="4.96507">
        <ele>351.662109375</ele>
        <time>2018-06-28T09:34:24+0200</time>
      </trkpt>
      <trkpt lat="47.25296" lon="4.96506">
        <ele>352.03442382812</ele>
        <time>2018-06-28T09:34:27+0200</time>
      </trkpt>
      <trkpt lat="47.25298" lon="4.96504">
        <ele>352.24349975586</ele>
        <time>2018-06-28T09:34:30+0200</time>
      </trkpt>
      <trkpt lat="47.25298" lon="4.96502">
        <ele>352.4928894043</ele>
        <time>2018-06-28T09:34:33+0200</time>
      </trkpt>
      <trkpt lat="47.253" lon="4.96501">
        <ele>352.70419311523</ele>
        <time>2018-06-28T09:34:36+0200</time>
      </trkpt>
      <trkpt lat="47.25303" lon="4.96499">
        <ele>352.78857421875</ele>
        <time>2018-06-28T09:34:39+0200</time>
      </trkpt>
      <trkpt lat="47.25302" lon="4.96499">
        <ele>352.84234619141</ele>
        <time>2018-06-28T09:34:42+0200</time>
      </trkpt>
      <trkpt lat="47.25305" lon="4.96496">
        <ele>352.87850952148</ele>
        <time>2018-06-28T09:34:45+0200</time>
      </trkpt>
      <trkpt lat="47.25307" lon="4.96496">
        <ele>352.80389404297</ele>
        <time>2018-06-28T09:34:48+0200</time>
      </trkpt>
      <trkpt lat="47.25309" lon="4.96493">
        <ele>352.7067565918</ele>
        <time>2018-06-28T09:34:51+0200</time>
      </trkpt>
      <trkpt lat="47.2531" lon="4.96491">
        <ele>352.50015258789</ele>
        <time>2018-06-28T09:34:54+0200</time>
      </trkpt>
      <trkpt lat="47.25313" lon="4.96492">
        <ele>352.18685913086</ele>
        <time>2018-06-28T09:34:57+0200</time>
      </trkpt>
      <trkpt lat="47.25318" lon="4.96494">
        <ele>351.85217285156</ele>
        <time>2018-06-28T09:35:00+0200</time>
      </trkpt>
      <trkpt lat="47.25321" lon="4.96492">
        <ele>351.43295288086</ele>
        <time>2018-06-28T09:35:03+0200</time>
      </trkpt>
      <trkpt lat="47.25324" lon="4.96491">
        <ele>350.89898681641</ele>
        <time>2018-06-28T09:35:06+0200</time>
      </trkpt>
      <trkpt lat="47.25327" lon="4.9649">
        <ele>350.36087036133</ele>
        <time>2018-06-28T09:35:09+0200</time>
      </trkpt>
      <trkpt lat="47.25329" lon="4.96487">
        <ele>349.75881958008</ele>
        <time>2018-06-28T09:35:12+0200</time>
      </trkpt>
      <trkpt lat="47.25332" lon="4.96485">
        <ele>349.1682434082</ele>
        <time>2018-06-28T09:35:15+0200</time>
      </trkpt>
      <trkpt lat="47.25334" lon="4.96481">
        <ele>348.63793945312</ele>
        <time>2018-06-28T09:35:18+0200</time>
      </trkpt>
      <trkpt lat="47.25335" lon="4.9648">
        <ele>348.17407226562</ele>
        <time>2018-06-28T09:35:21+0200</time>
      </trkpt>
      <trkpt lat="47.25337" lon="4.96476">
        <ele>347.77816772461</ele>
        <time>2018-06-28T09:35:24+0200</time>
      </trkpt>
      <trkpt lat="47.25339" lon="4.96474">
        <ele>347.44104003906</ele>
        <time>2018-06-28T09:35:27+0200</time>
      </trkpt>
      <trkpt lat="47.25341" lon="4.96471">
        <ele>347.17575073242</ele>
        <time>2018-06-28T09:35:30+0200</time>
      </trkpt>
      <trkpt lat="47.25343" lon="4.96468">
        <ele>347.03076171875</ele>
        <time>2018-06-28T09:35:33+0200</time>
      </trkpt>
      <trkpt lat="47.25344" lon="4.96466">
        <ele>346.95446777344</ele>
        <time>2018-06-28T09:35:36+0200</time>
      </trkpt>
      <trkpt lat="47.25347" lon="4.96461">
        <ele>346.78506469727</ele>
        <time>2018-06-28T09:35:39+0200</time>
      </trkpt>
      <trkpt lat="47.2535" lon="4.96455">
        <ele>346.63751220703</ele>
        <time>2018-06-28T09:35:42+0200</time>
      </trkpt>
      <trkpt lat="47.25351" lon="4.96453">
        <ele>346.50946044922</ele>
        <time>2018-06-28T09:35:45+0200</time>
      </trkpt>
      <trkpt lat="47.25353" lon="4.9645">
        <ele>346.39239501953</ele>
        <time>2018-06-28T09:35:48+0200</time>
      </trkpt>
      <trkpt lat="47.25354" lon="4.96447">
        <ele>346.30935668945</ele>
        <time>2018-06-28T09:35:51+0200</time>
      </trkpt>
      <trkpt lat="47.25355" lon="4.96444">
        <ele>346.22756958008</ele>
        <time>2018-06-28T09:35:54+0200</time>
      </trkpt>
      <trkpt lat="47.25357" lon="4.96439">
        <ele>346.123046875</ele>
        <time>2018-06-28T09:35:57+0200</time>
      </trkpt>
      <trkpt lat="47.2536" lon="4.96433">
        <ele>346.0530090332</ele>
        <time>2018-06-28T09:36:00+0200</time>
      </trkpt>
      <trkpt lat="47.25361" lon="4.9643">
        <ele>346.00598144531</ele>
        <time>2018-06-28T09:36:03+0200</time>
      </trkpt>
      <trkpt lat="47.25362" lon="4.96426">
        <ele>345.95367431641</ele>
        <time>2018-06-28T09:36:06+0200</time>
      </trkpt>
      <trkpt lat="47.25363" lon="4.96424">
        <ele>345.88647460938</ele>
        <time>2018-06-28T09:36:09+0200</time>
      </trkpt>
      <trkpt lat="47.25365" lon="4.9642">
        <ele>345.78558349609</ele>
        <time>2018-06-28T09:36:12+0200</time>
      </trkpt>
      <trkpt lat="47.25367" lon="4.96415">
        <ele>345.67932128906</ele>
        <time>2018-06-28T09:36:15+0200</time>
      </trkpt>
      <trkpt lat="47.25368" lon="4.96411">
        <ele>345.56719970703</ele>
        <time>2018-06-28T09:36:18+0200</time>
      </trkpt>
      <trkpt lat="47.2537" lon="4.96407">
        <ele>345.43676757812</ele>
        <time>2018-06-28T09:36:21+0200</time>
      </trkpt>
      <trkpt lat="47.25372" lon="4.96403">
        <ele>345.31295776367</ele>
        <time>2018-06-28T09:36:24+0200</time>
      </trkpt>
      <trkpt lat="47.25373" lon="4.96399">
        <ele>345.2028503418</ele>
        <time>2018-06-28T09:36:27+0200</time>
      </trkpt>
      <trkpt lat="47.25375" lon="4.96395">
        <ele>345.07086181641</ele>
        <time>2018-06-28T09:36:30+0200</time>
      </trkpt>
      <trkpt lat="47.25376" lon="4.96391">
        <ele>344.91156005859</ele>
        <time>2018-06-28T09:36:33+0200</time>
      </trkpt>
      <trkpt lat="47.25377" lon="4.96388">
        <ele>344.78244018555</ele>
        <time>2018-06-28T09:36:36+0200</time>
      </trkpt>
      <trkpt lat="47.25378" lon="4.96386">
        <ele>344.69485473633</ele>
        <time>2018-06-28T09:36:39+0200</time>
      </trkpt>
      <trkpt lat="47.25379" lon="4.96384">
        <ele>344.61807250977</ele>
        <time>2018-06-28T09:36:42+0200</time>
      </trkpt>
      <trkpt lat="47.2538" lon="4.96381">
        <ele>344.56307983398</ele>
        <time>2018-06-28T09:36:45+0200</time>
      </trkpt>
      <trkpt lat="47.2538" lon="4.96377">
        <ele>344.61956787109</ele>
        <time>2018-06-28T09:36:48+0200</time>
      </trkpt>
      <trkpt lat="47.25382" lon="4.9637">
        <ele>344.80453491211</ele>
        <time>2018-06-28T09:36:51+0200</time>
      </trkpt>
      <trkpt lat="47.25383" lon="4.96365">
        <ele>345.10568237305</ele>
        <time>2018-06-28T09:36:54+0200</time>
      </trkpt>
      <trkpt lat="47.25385" lon="4.96362">
        <ele>345.43841552734</ele>
        <time>2018-06-28T09:36:57+0200</time>
      </trkpt>
      <trkpt lat="47.25387" lon="4.96359">
        <ele>345.80291748047</ele>
        <time>2018-06-28T09:37:00+0200</time>
      </trkpt>
      <trkpt lat="47.25389" lon="4.96356">
        <ele>346.15707397461</ele>
        <time>2018-06-28T09:37:03+0200</time>
      </trkpt>
      <trkpt lat="47.2539" lon="4.96353">
        <ele>346.39898681641</ele>
        <time>2018-06-28T09:37:06+0200</time>
      </trkpt>
      <trkpt lat="47.25391" lon="4.9635">
        <ele>346.74661254883</ele>
        <time>2018-06-28T09:37:09+0200</time>
      </trkpt>
      <trkpt lat="47.25392" lon="4.96348">
        <ele>347.07717895508</ele>
        <time>2018-06-28T09:37:12+0200</time>
      </trkpt>
      <trkpt lat="47.25393" lon="4.96346">
        <ele>347.38842773438</ele>
        <time>2018-06-28T09:37:15+0200</time>
      </trkpt>
      <trkpt lat="47.25395" lon="4.96342">
        <ele>347.69192504883</ele>
        <time>2018-06-28T09:37:18+0200</time>
      </trkpt>
      <trkpt lat="47.25398" lon="4.96339">
        <ele>347.99130249023</ele>
        <time>2018-06-28T09:37:21+0200</time>
      </trkpt>
      <trkpt lat="47.254" lon="4.96334">
        <ele>348.27777099609</ele>
        <time>2018-06-28T09:37:24+0200</time>
      </trkpt>
      <trkpt lat="47.25403" lon="4.9633">
        <ele>348.51190185547</ele>
        <time>2018-06-28T09:37:27+0200</time>
      </trkpt>
      <trkpt lat="47.25407" lon="4.96323">
        <ele>348.70861816406</ele>
        <time>2018-06-28T09:37:30+0200</time>
      </trkpt>
      <trkpt lat="47.25408" lon="4.96318">
        <ele>348.87438964844</ele>
        <time>2018-06-28T09:37:33+0200</time>
      </trkpt>
      <trkpt lat="47.25409" lon="4.96313">
        <ele>349.09826660156</ele>
        <time>2018-06-28T09:37:36+0200</time>
      </trkpt>
      <trkpt lat="47.2541" lon="4.96309">
        <ele>349.34167480469</ele>
        <time>2018-06-28T09:37:39+0200</time>
      </trkpt>
      <trkpt lat="47.25411" lon="4.96305">
        <ele>349.61019897461</ele>
        <time>2018-06-28T09:37:42+0200</time>
      </trkpt>
      <trkpt lat="47.25411" lon="4.96301">
        <ele>349.93365478516</ele>
        <time>2018-06-28T09:37:45+0200</time>
      </trkpt>
      <trkpt lat="47.2541" lon="4.963">
        <ele>350.16091918945</ele>
        <time>2018-06-28T09:37:48+0200</time>
      </trkpt>
      <trkpt lat="47.25411" lon="4.96295">
        <ele>350.49774169922</ele>
        <time>2018-06-28T09:37:51+0200</time>
      </trkpt>
      <trkpt lat="47.25411" lon="4.96292">
        <ele>350.76461791992</ele>
        <time>2018-06-28T09:37:54+0200</time>
      </trkpt>
      <trkpt lat="47.25411" lon="4.96291">
        <ele>350.80850219727</ele>
        <time>2018-06-28T09:37:57+0200</time>
      </trkpt>
      <trkpt lat="47.25411" lon="4.96291">
        <ele>350.85360717773</ele>
        <time>2018-06-28T09:38:00+0200</time>
      </trkpt>
      <trkpt lat="47.25411" lon="4.96291">
        <ele>350.89849853516</ele>
        <time>2018-06-28T09:38:03+0200</time>
      </trkpt>
      <trkpt lat="47.25411" lon="4.9629">
        <ele>351.20056152344</ele>
        <time>2018-06-28T09:38:06+0200</time>
      </trkpt>
      <trkpt lat="47.25412" lon="4.96289">
        <ele>351.51361083984</ele>
        <time>2018-06-28T09:38:09+0200</time>
      </trkpt>
      <trkpt lat="47.25413" lon="4.96286">
        <ele>351.95596313477</ele>
        <time>2018-06-28T09:38:12+0200</time>
      </trkpt>
      <trkpt lat="47.25414" lon="4.96282">
        <ele>352.41973876953</ele>
        <time>2018-06-28T09:38:15+0200</time>
      </trkpt>
      <trkpt lat="47.25414" lon="4.96281">
        <ele>352.89074707031</ele>
        <time>2018-06-28T09:38:18+0200</time>
      </trkpt>
      <trkpt lat="47.25415" lon="4.96278">
        <ele>353.36791992188</ele>
        <time>2018-06-28T09:38:21+0200</time>
      </trkpt>
      <trkpt lat="47.25416" lon="4.96275">
        <ele>353.81072998047</ele>
        <time>2018-06-28T09:38:24+0200</time>
      </trkpt>
      <trkpt lat="47.25416" lon="4.96274">
        <ele>354.11114501953</ele>
        <time>2018-06-28T09:38:27+0200</time>
      </trkpt>
      <trkpt lat="47.25417" lon="4.96272">
        <ele>354.56759643555</ele>
        <time>2018-06-28T09:38:30+0200</time>
      </trkpt>
      <trkpt lat="47.25419" lon="4.96268">
        <ele>355.03393554688</ele>
        <time>2018-06-28T09:38:33+0200</time>
      </trkpt>
      <trkpt lat="47.25421" lon="4.96266">
        <ele>355.50454711914</ele>
        <time>2018-06-28T09:38:36+0200</time>
      </trkpt>
      <trkpt lat="47.25423" lon="4.96262">
        <ele>355.95471191406</ele>
        <time>2018-06-28T09:38:39+0200</time>
      </trkpt>
      <trkpt lat="47.25424" lon="4.96259">
        <ele>356.36434936523</ele>
        <time>2018-06-28T09:38:42+0200</time>
      </trkpt>
      <trkpt lat="47.25424" lon="4.96257">
        <ele>356.73025512695</ele>
        <time>2018-06-28T09:38:45+0200</time>
      </trkpt>
      <trkpt lat="47.25426" lon="4.96254">
        <ele>357.06741333008</ele>
        <time>2018-06-28T09:38:48+0200</time>
      </trkpt>
      <trkpt lat="47.25427" lon="4.96251">
        <ele>357.39724731445</ele>
        <time>2018-06-28T09:38:51+0200</time>
      </trkpt>
      <trkpt lat="47.25428" lon="4.96248">
        <ele>357.71682739258</ele>
        <time>2018-06-28T09:38:54+0200</time>
      </trkpt>
      <trkpt lat="47.2543" lon="4.96244">
        <ele>358.03140258789</ele>
        <time>2018-06-28T09:38:57+0200</time>
      </trkpt>
      <trkpt lat="47.25431" lon="4.96242">
        <ele>358.35705566406</ele>
        <time>2018-06-28T09:39:00+0200</time>
      </trkpt>
      <trkpt lat="47.25431" lon="4.96241">
        <ele>358.39117431641</ele>
        <time>2018-06-28T09:39:03+0200</time>
      </trkpt>
      <trkpt lat="47.25431" lon="4.96239">
        <ele>358.53341674805</ele>
        <time>2018-06-28T09:39:06+0200</time>
      </trkpt>
      <trkpt lat="47.25433" lon="4.96234">
        <ele>358.90899658203</ele>
        <time>2018-06-28T09:39:09+0200</time>
      </trkpt>
      <trkpt lat="47.25435" lon="4.96228">
        <ele>359.31286621094</ele>
        <time>2018-06-28T09:39:12+0200</time>
      </trkpt>
      <trkpt lat="47.25436" lon="4.96226">
        <ele>359.70681762695</ele>
        <time>2018-06-28T09:39:15+0200</time>
      </trkpt>
      <trkpt lat="47.25437" lon="4.96222">
        <ele>360.10662841797</ele>
        <time>2018-06-28T09:39:18+0200</time>
      </trkpt>
      <trkpt lat="47.25438" lon="4.96218">
        <ele>360.52294921875</ele>
        <time>2018-06-28T09:39:21+0200</time>
      </trkpt>
      <trkpt lat="47.25439" lon="4.96214">
        <ele>360.91198730469</ele>
        <time>2018-06-28T09:39:24+0200</time>
      </trkpt>
      <trkpt lat="47.25441" lon="4.9621">
        <ele>361.26693725586</ele>
        <time>2018-06-28T09:39:27+0200</time>
      </trkpt>
      <trkpt lat="47.25442" lon="4.96207">
        <ele>361.58432006836</ele>
        <time>2018-06-28T09:39:30+0200</time>
      </trkpt>
      <trkpt lat="47.25443" lon="4.96204">
        <ele>361.87850952148</ele>
        <time>2018-06-28T09:39:33+0200</time>
      </trkpt>
      <trkpt lat="47.25445" lon="4.962">
        <ele>362.15646362305</ele>
        <time>2018-06-28T09:39:36+0200</time>
      </trkpt>
      <trkpt lat="47.25447" lon="4.96197">
        <ele>362.41708374023</ele>
        <time>2018-06-28T09:39:39+0200</time>
      </trkpt>
      <trkpt lat="47.25448" lon="4.96194">
        <ele>362.65267944336</ele>
        <time>2018-06-28T09:39:42+0200</time>
      </trkpt>
      <trkpt lat="47.2545" lon="4.96191">
        <ele>362.89944458008</ele>
        <time>2018-06-28T09:39:45+0200</time>
      </trkpt>
      <trkpt lat="47.25451" lon="4.96187">
        <ele>363.17083740234</ele>
        <time>2018-06-28T09:39:48+0200</time>
      </trkpt>
      <trkpt lat="47.25453" lon="4.96182">
        <ele>363.44522094727</ele>
        <time>2018-06-28T09:39:51+0200</time>
      </trkpt>
      <trkpt lat="47.25455" lon="4.96179">
        <ele>363.71215820312</ele>
        <time>2018-06-28T09:39:54+0200</time>
      </trkpt>
      <trkpt lat="47.25456" lon="4.96174">
        <ele>363.95428466797</ele>
        <time>2018-06-28T09:39:57+0200</time>
      </trkpt>
      <trkpt lat="47.25457" lon="4.96171">
        <ele>364.18240356445</ele>
        <time>2018-06-28T09:40:00+0200</time>
      </trkpt>
      <trkpt lat="47.25458" lon="4.96167">
        <ele>364.38540649414</ele>
        <time>2018-06-28T09:40:03+0200</time>
      </trkpt>
      <trkpt lat="47.25459" lon="4.96165">
        <ele>364.55502319336</ele>
        <time>2018-06-28T09:40:06+0200</time>
      </trkpt>
      <trkpt lat="47.2546" lon="4.9616">
        <ele>364.73440551758</ele>
        <time>2018-06-28T09:40:09+0200</time>
      </trkpt>
      <trkpt lat="47.25461" lon="4.96158">
        <ele>364.90286254883</ele>
        <time>2018-06-28T09:40:12+0200</time>
      </trkpt>
      <trkpt lat="47.25462" lon="4.96156">
        <ele>365.05502319336</ele>
        <time>2018-06-28T09:40:15+0200</time>
      </trkpt>
      <trkpt lat="47.25464" lon="4.96153">
        <ele>365.21224975586</ele>
        <time>2018-06-28T09:40:18+0200</time>
      </trkpt>
      <trkpt lat="47.25465" lon="4.9615">
        <ele>365.37033081055</ele>
        <time>2018-06-28T09:40:21+0200</time>
      </trkpt>
      <trkpt lat="47.25467" lon="4.96147">
        <ele>365.53945922852</ele>
        <time>2018-06-28T09:40:24+0200</time>
      </trkpt>
      <trkpt lat="47.25469" lon="4.96144">
        <ele>365.70864868164</ele>
        <time>2018-06-28T09:40:27+0200</time>
      </trkpt>
      <trkpt lat="47.25471" lon="4.96139">
        <ele>365.88806152344</ele>
        <time>2018-06-28T09:40:30+0200</time>
      </trkpt>
      <trkpt lat="47.25473" lon="4.96135">
        <ele>366.10781860352</ele>
        <time>2018-06-28T09:40:33+0200</time>
      </trkpt>
      <trkpt lat="47.25475" lon="4.96131">
        <ele>366.33483886719</ele>
        <time>2018-06-28T09:40:36+0200</time>
      </trkpt>
      <trkpt lat="47.25478" lon="4.96126">
        <ele>366.55187988281</ele>
        <time>2018-06-28T09:40:39+0200</time>
      </trkpt>
      <trkpt lat="47.2548" lon="4.96121">
        <ele>366.7834777832</ele>
        <time>2018-06-28T09:40:42+0200</time>
      </trkpt>
      <trkpt lat="47.25481" lon="4.96118">
        <ele>367.03805541992</ele>
        <time>2018-06-28T09:40:45+0200</time>
      </trkpt>
      <trkpt lat="47.25482" lon="4.96115">
        <ele>367.25918579102</ele>
        <time>2018-06-28T09:40:48+0200</time>
      </trkpt>
      <trkpt lat="47.25483" lon="4.96111">
        <ele>367.44491577148</ele>
        <time>2018-06-28T09:40:51+0200</time>
      </trkpt>
      <trkpt lat="47.25484" lon="4.96107">
        <ele>367.61825561523</ele>
        <time>2018-06-28T09:40:54+0200</time>
      </trkpt>
      <trkpt lat="47.25485" lon="4.96104">
        <ele>367.78143310547</ele>
        <time>2018-06-28T09:40:57+0200</time>
      </trkpt>
      <trkpt lat="47.25486" lon="4.96101">
        <ele>367.94671630859</ele>
        <time>2018-06-28T09:41:00+0200</time>
      </trkpt>
      <trkpt lat="47.25487" lon="4.961">
        <ele>368.01129150391</ele>
        <time>2018-06-28T09:41:03+0200</time>
      </trkpt>
      <trkpt lat="47.25486" lon="4.961">
        <ele>368.12390136719</ele>
        <time>2018-06-28T09:41:06+0200</time>
      </trkpt>
      <trkpt lat="47.25487" lon="4.96098">
        <ele>368.25961303711</ele>
        <time>2018-06-28T09:41:09+0200</time>
      </trkpt>
      <trkpt lat="47.25488" lon="4.96093">
        <ele>368.42092895508</ele>
        <time>2018-06-28T09:41:12+0200</time>
      </trkpt>
      <trkpt lat="47.25489" lon="4.96088">
        <ele>368.58331298828</ele>
        <time>2018-06-28T09:41:15+0200</time>
      </trkpt>
      <trkpt lat="47.2549" lon="4.96085">
        <ele>368.70346069336</ele>
        <time>2018-06-28T09:41:18+0200</time>
      </trkpt>
      <trkpt lat="47.25491" lon="4.96081">
        <ele>368.77865600586</ele>
        <time>2018-06-28T09:41:21+0200</time>
      </trkpt>
      <trkpt lat="47.25492" lon="4.96077">
        <ele>368.86434936523</ele>
        <time>2018-06-28T09:41:24+0200</time>
      </trkpt>
      <trkpt lat="47.25492" lon="4.96075">
        <ele>368.90426635742</ele>
        <time>2018-06-28T09:41:27+0200</time>
      </trkpt>
      <trkpt lat="47.25492" lon="4.96072">
        <ele>369.03945922852</ele>
        <time>2018-06-28T09:41:30+0200</time>
      </trkpt>
      <trkpt lat="47.25493" lon="4.96067">
        <ele>369.22570800781</ele>
        <time>2018-06-28T09:41:33+0200</time>
      </trkpt>
      <trkpt lat="47.25494" lon="4.96064">
        <ele>369.43255615234</ele>
        <time>2018-06-28T09:41:36+0200</time>
      </trkpt>
      <trkpt lat="47.25495" lon="4.96061">
        <ele>369.60369873047</ele>
        <time>2018-06-28T09:41:39+0200</time>
      </trkpt>
      <trkpt lat="47.25496" lon="4.96057">
        <ele>369.73550415039</ele>
        <time>2018-06-28T09:41:42+0200</time>
      </trkpt>
      <trkpt lat="47.25496" lon="4.96054">
        <ele>369.8776550293</ele>
        <time>2018-06-28T09:41:45+0200</time>
      </trkpt>
      <trkpt lat="47.25495" lon="4.96051">
        <ele>369.96975708008</ele>
        <time>2018-06-28T09:41:48+0200</time>
      </trkpt>
      <trkpt lat="47.25495" lon="4.96046">
        <ele>370.14904785156</ele>
        <time>2018-06-28T09:41:51+0200</time>
      </trkpt>
      <trkpt lat="47.25495" lon="4.96044">
        <ele>370.23245239258</ele>
        <time>2018-06-28T09:41:54+0200</time>
      </trkpt>
      <trkpt lat="47.25496" lon="4.9604">
        <ele>370.44345092773</ele>
        <time>2018-06-28T09:41:57+0200</time>
      </trkpt>
      <trkpt lat="47.25498" lon="4.96037">
        <ele>370.66613769531</ele>
        <time>2018-06-28T09:42:00+0200</time>
      </trkpt>
      <trkpt lat="47.25498" lon="4.96033">
        <ele>370.87731933594</ele>
        <time>2018-06-28T09:42:03+0200</time>
      </trkpt>
      <trkpt lat="47.25498" lon="4.96028">
        <ele>371.11749267578</ele>
        <time>2018-06-28T09:42:06+0200</time>
      </trkpt>
      <trkpt lat="47.25498" lon="4.96025">
        <ele>371.36950683594</ele>
        <time>2018-06-28T09:42:09+0200</time>
      </trkpt>
      <trkpt lat="47.25498" lon="4.96022">
        <ele>371.60366821289</ele>
        <time>2018-06-28T09:42:12+0200</time>
      </trkpt>
      <trkpt lat="47.25497" lon="4.96019">
        <ele>371.75692749023</ele>
        <time>2018-06-28T09:42:15+0200</time>
      </trkpt>
      <trkpt lat="47.25497" lon="4.96017">
        <ele>371.94717407227</ele>
        <time>2018-06-28T09:42:18+0200</time>
      </trkpt>
      <trkpt lat="47.25498" lon="4.96012">
        <ele>372.25704956055</ele>
        <time>2018-06-28T09:42:21+0200</time>
      </trkpt>
      <trkpt lat="47.25499" lon="4.96006">
        <ele>372.55715942383</ele>
        <time>2018-06-28T09:42:24+0200</time>
      </trkpt>
      <trkpt lat="47.255" lon="4.96003">
        <ele>372.7668762207</ele>
        <time>2018-06-28T09:42:27+0200</time>
      </trkpt>
      <trkpt lat="47.255" lon="4.95998">
        <ele>373.05740356445</ele>
        <time>2018-06-28T09:42:30+0200</time>
      </trkpt>
      <trkpt lat="47.25501" lon="4.95993">
        <ele>373.32730102539</ele>
        <time>2018-06-28T09:42:33+0200</time>
      </trkpt>
      <trkpt lat="47.25501" lon="4.9599">
        <ele>373.58166503906</ele>
        <time>2018-06-28T09:42:36+0200</time>
      </trkpt>
      <trkpt lat="47.25502" lon="4.95988">
        <ele>373.83227539062</ele>
        <time>2018-06-28T09:42:39+0200</time>
      </trkpt>
      <trkpt lat="47.25502" lon="4.95987">
        <ele>374.07391357422</ele>
        <time>2018-06-28T09:42:42+0200</time>
      </trkpt>
      <trkpt lat="47.25502" lon="4.95985">
        <ele>374.32974243164</ele>
        <time>2018-06-28T09:42:45+0200</time>
      </trkpt>
      <trkpt lat="47.25503" lon="4.95981">
        <ele>374.61779785156</ele>
        <time>2018-06-28T09:42:48+0200</time>
      </trkpt>
      <trkpt lat="47.25504" lon="4.95975">
        <ele>374.91033935547</ele>
        <time>2018-06-28T09:42:51+0200</time>
      </trkpt>
      <trkpt lat="47.25505" lon="4.95971">
        <ele>375.19635009766</ele>
        <time>2018-06-28T09:42:54+0200</time>
      </trkpt>
      <trkpt lat="47.25506" lon="4.95968">
        <ele>375.46817016602</ele>
        <time>2018-06-28T09:42:57+0200</time>
      </trkpt>
      <trkpt lat="47.25507" lon="4.95964">
        <ele>375.7262878418</ele>
        <time>2018-06-28T09:42:59+0200</time>
      </trkpt>
      <trkpt lat="47.25507" lon="4.95961">
        <ele>375.97323608398</ele>
        <time>2018-06-28T09:43:02+0200</time>
      </trkpt>
      <trkpt lat="47.25508" lon="4.95958">
        <ele>376.22106933594</ele>
        <time>2018-06-28T09:43:05+0200</time>
      </trkpt>
      <trkpt lat="47.25509" lon="4.95953">
        <ele>376.47073364258</ele>
        <time>2018-06-28T09:43:08+0200</time>
      </trkpt>
      <trkpt lat="47.2551" lon="4.9595">
        <ele>376.72494506836</ele>
        <time>2018-06-28T09:43:11+0200</time>
      </trkpt>
      <trkpt lat="47.2551" lon="4.95948">
        <ele>377.00225830078</ele>
        <time>2018-06-28T09:43:14+0200</time>
      </trkpt>
      <trkpt lat="47.25511" lon="4.95944">
        <ele>377.33065795898</ele>
        <time>2018-06-28T09:43:17+0200</time>
      </trkpt>
      <trkpt lat="47.25513" lon="4.9594">
        <ele>377.66778564453</ele>
        <time>2018-06-28T09:43:20+0200</time>
      </trkpt>
      <trkpt lat="47.25514" lon="4.95936">
        <ele>377.9814453125</ele>
        <time>2018-06-28T09:43:23+0200</time>
      </trkpt>
      <trkpt lat="47.25515" lon="4.95932">
        <ele>378.27163696289</ele>
        <time>2018-06-28T09:43:26+0200</time>
      </trkpt>
      <trkpt lat="47.25515" lon="4.95929">
        <ele>378.52938842773</ele>
        <time>2018-06-28T09:43:29+0200</time>
      </trkpt>
      <trkpt lat="47.25516" lon="4.95926">
        <ele>378.77169799805</ele>
        <time>2018-06-28T09:43:32+0200</time>
      </trkpt>
      <trkpt lat="47.25517" lon="4.95921">
        <ele>378.98788452148</ele>
        <time>2018-06-28T09:43:35+0200</time>
      </trkpt>
      <trkpt lat="47.25517" lon="4.95918">
        <ele>379.18533325195</ele>
        <time>2018-06-28T09:43:38+0200</time>
      </trkpt>
      <trkpt lat="47.25518" lon="4.95914">
        <ele>379.36889648438</ele>
        <time>2018-06-28T09:43:41+0200</time>
      </trkpt>
      <trkpt lat="47.25518" lon="4.9591">
        <ele>379.55081176758</ele>
        <time>2018-06-28T09:43:44+0200</time>
      </trkpt>
      <trkpt lat="47.25518" lon="4.95907">
        <ele>379.71398925781</ele>
        <time>2018-06-28T09:43:47+0200</time>
      </trkpt>
      <trkpt lat="47.25519" lon="4.95902">
        <ele>379.89251708984</ele>
        <time>2018-06-28T09:43:50+0200</time>
      </trkpt>
      <trkpt lat="47.25519" lon="4.95898">
        <ele>380.08389282227</ele>
        <time>2018-06-28T09:43:53+0200</time>
      </trkpt>
      <trkpt lat="47.25519" lon="4.95895">
        <ele>380.28881835938</ele>
        <time>2018-06-28T09:43:56+0200</time>
      </trkpt>
      <trkpt lat="47.25519" lon="4.95891">
        <ele>380.49862670898</ele>
        <time>2018-06-28T09:43:59+0200</time>
      </trkpt>
      <trkpt lat="47.25519" lon="4.95888">
        <ele>380.64663696289</ele>
        <time>2018-06-28T09:44:02+0200</time>
      </trkpt>
      <trkpt lat="47.25519" lon="4.95887">
        <ele>380.72930908203</ele>
        <time>2018-06-28T09:44:05+0200</time>
      </trkpt>
      <trkpt lat="47.25518" lon="4.95885">
        <ele>380.81533813477</ele>
        <time>2018-06-28T09:44:08+0200</time>
      </trkpt>
      <trkpt lat="47.25518" lon="4.95885">
        <ele>380.83831787109</ele>
        <time>2018-06-28T09:44:11+0200</time>
      </trkpt>
      <trkpt lat="47.25518" lon="4.95885">
        <ele>380.86318969727</ele>
        <time>2018-06-28T09:44:14+0200</time>
      </trkpt>
      <trkpt lat="47.25518" lon="4.95885">
        <ele>380.89047241211</ele>
        <time>2018-06-28T09:44:17+0200</time>
      </trkpt>
      <trkpt lat="47.25517" lon="4.95885">
        <ele>380.92028808594</ele>
        <time>2018-06-28T09:44:20+0200</time>
      </trkpt>
      <trkpt lat="47.25517" lon="4.95886">
        <ele>380.95489501953</ele>
        <time>2018-06-28T09:44:23+0200</time>
      </trkpt>
      <trkpt lat="47.25517" lon="4.95886">
        <ele>381.00192260742</ele>
        <time>2018-06-28T09:44:26+0200</time>
      </trkpt>
      <trkpt lat="47.25517" lon="4.95887">
        <ele>381.05975341797</ele>
        <time>2018-06-28T09:44:29+0200</time>
      </trkpt>
      <trkpt lat="47.25516" lon="4.95887">
        <ele>381.32318115234</ele>
        <time>2018-06-28T09:44:32+0200</time>
      </trkpt>
      <trkpt lat="47.25515" lon="4.95885">
        <ele>381.97085571289</ele>
        <time>2018-06-28T09:44:35+0200</time>
      </trkpt>
      <trkpt lat="47.25515" lon="4.95883">
        <ele>382.22869873047</ele>
        <time>2018-06-28T09:44:38+0200</time>
      </trkpt>
      <trkpt lat="47.25515" lon="4.95882">
        <ele>382.49533081055</ele>
        <time>2018-06-28T09:44:41+0200</time>
      </trkpt>
      <trkpt lat="47.25514" lon="4.95878">
        <ele>383.12835693359</ele>
        <time>2018-06-28T09:44:44+0200</time>
      </trkpt>
      <trkpt lat="47.25514" lon="4.95874">
        <ele>383.71585083008</ele>
        <time>2018-06-28T09:44:47+0200</time>
      </trkpt>
      <trkpt lat="47.25514" lon="4.9587">
        <ele>384.24835205078</ele>
        <time>2018-06-28T09:44:50+0200</time>
      </trkpt>
      <trkpt lat="47.25514" lon="4.9587">
        <ele>384.73159790039</ele>
        <time>2018-06-28T09:44:53+0200</time>
      </trkpt>
      <trkpt lat="47.25514" lon="4.95864">
        <ele>385.18307495117</ele>
        <time>2018-06-28T09:44:56+0200</time>
      </trkpt>
      <trkpt lat="47.25515" lon="4.9586">
        <ele>385.46893310547</ele>
        <time>2018-06-28T09:44:59+0200</time>
      </trkpt>
      <trkpt lat="47.25515" lon="4.95858">
        <ele>385.83380126953</ele>
        <time>2018-06-28T09:45:02+0200</time>
      </trkpt>
      <trkpt lat="47.25516" lon="4.95855">
        <ele>386.13336181641</ele>
        <time>2018-06-28T09:45:05+0200</time>
      </trkpt>
      <trkpt lat="47.25516" lon="4.95851">
        <ele>386.34341430664</ele>
        <time>2018-06-28T09:45:08+0200</time>
      </trkpt>
      <trkpt lat="47.25516" lon="4.95848">
        <ele>386.46136474609</ele>
        <time>2018-06-28T09:45:11+0200</time>
      </trkpt>
      <trkpt lat="47.25516" lon="4.95845">
        <ele>386.51272583008</ele>
        <time>2018-06-28T09:45:14+0200</time>
      </trkpt>
      <trkpt lat="47.25517" lon="4.95843">
        <ele>386.5534362793</ele>
        <time>2018-06-28T09:45:17+0200</time>
      </trkpt>
      <trkpt lat="47.25517" lon="4.95843">
        <ele>386.60641479492</ele>
        <time>2018-06-28T09:45:20+0200</time>
      </trkpt>
      <trkpt lat="47.25517" lon="4.95842">
        <ele>386.63092041016</ele>
        <time>2018-06-28T09:45:23+0200</time>
      </trkpt>
      <trkpt lat="47.25518" lon="4.9584">
        <ele>386.66625976562</ele>
        <time>2018-06-28T09:45:26+0200</time>
      </trkpt>
      <trkpt lat="47.25518" lon="4.95839">
        <ele>386.70022583008</ele>
        <time>2018-06-28T09:45:29+0200</time>
      </trkpt>
      <trkpt lat="47.25519" lon="4.95836">
        <ele>386.79043579102</ele>
        <time>2018-06-28T09:45:32+0200</time>
      </trkpt>
      <trkpt lat="47.2552" lon="4.95834">
        <ele>386.80328369141</ele>
        <time>2018-06-28T09:45:35+0200</time>
      </trkpt>
      <trkpt lat="47.2552" lon="4.95833">
        <ele>386.81503295898</ele>
        <time>2018-06-28T09:45:38+0200</time>
      </trkpt>
      <trkpt lat="47.2552" lon="4.95832">
        <ele>386.82104492188</ele>
        <time>2018-06-28T09:45:41+0200</time>
      </trkpt>
      <trkpt lat="47.2552" lon="4.95832">
        <ele>386.82336425781</ele>
        <time>2018-06-28T09:45:44+0200</time>
      </trkpt>
      <trkpt lat="47.2552" lon="4.95832">
        <ele>386.83279418945</ele>
        <time>2018-06-28T09:45:47+0200</time>
      </trkpt>
      <trkpt lat="47.2552" lon="4.95832">
        <ele>386.85330200195</ele>
        <time>2018-06-28T09:45:50+0200</time>
      </trkpt>
      <trkpt lat="47.2552" lon="4.95831">
        <ele>386.8854675293</ele>
        <time>2018-06-28T09:45:53+0200</time>
      </trkpt>
      <trkpt lat="47.2552" lon="4.9583">
        <ele>386.93106079102</ele>
        <time>2018-06-28T09:45:56+0200</time>
      </trkpt>
      <trkpt lat="47.2552" lon="4.95829">
        <ele>386.98645019531</ele>
        <time>2018-06-28T09:45:59+0200</time>
      </trkpt>
      <trkpt lat="47.2552" lon="4.95828">
        <ele>387.04486083984</ele>
        <time>2018-06-28T09:46:02+0200</time>
      </trkpt>
      <trkpt lat="47.2552" lon="4.95827">
        <ele>387.10272216797</ele>
        <time>2018-06-28T09:46:05+0200</time>
      </trkpt>
      <trkpt lat="47.2552" lon="4.95828">
        <ele>387.15347290039</ele>
        <time>2018-06-28T09:46:08+0200</time>
      </trkpt>
      <trkpt lat="47.2552" lon="4.95828">
        <ele>387.19778442383</ele>
        <time>2018-06-28T09:46:11+0200</time>
      </trkpt>
      <trkpt lat="47.2552" lon="4.95828">
        <ele>387.2412109375</ele>
        <time>2018-06-28T09:46:14+0200</time>
      </trkpt>
      <trkpt lat="47.2552" lon="4.95828">
        <ele>387.29272460938</ele>
        <time>2018-06-28T09:46:17+0200</time>
      </trkpt>
      <trkpt lat="47.2552" lon="4.95828">
        <ele>387.35641479492</ele>
        <time>2018-06-28T09:46:20+0200</time>
      </trkpt>
      <trkpt lat="47.2552" lon="4.95828">
        <ele>387.43112182617</ele>
        <time>2018-06-28T09:46:23+0200</time>
      </trkpt>
      <trkpt lat="47.2552" lon="4.95828">
        <ele>387.50790405273</ele>
        <time>2018-06-28T09:46:26+0200</time>
      </trkpt>
      <trkpt lat="47.2552" lon="4.95827">
        <ele>387.5866394043</ele>
        <time>2018-06-28T09:46:29+0200</time>
      </trkpt>
      <trkpt lat="47.2552" lon="4.95827">
        <ele>387.66879272461</ele>
        <time>2018-06-28T09:46:32+0200</time>
      </trkpt>
      <trkpt lat="47.2552" lon="4.95827">
        <ele>387.75296020508</ele>
        <time>2018-06-28T09:46:35+0200</time>
      </trkpt>
      <trkpt lat="47.2552" lon="4.95827">
        <ele>387.83462524414</ele>
        <time>2018-06-28T09:46:38+0200</time>
      </trkpt>
      <trkpt lat="47.2552" lon="4.95827">
        <ele>387.91223144531</ele>
        <time>2018-06-28T09:46:41+0200</time>
      </trkpt>
      <trkpt lat="47.2552" lon="4.95826">
        <ele>387.99227905273</ele>
        <time>2018-06-28T09:46:44+0200</time>
      </trkpt>
      <trkpt lat="47.25519" lon="4.95825">
        <ele>388.07653808594</ele>
        <time>2018-06-28T09:46:47+0200</time>
      </trkpt>
      <trkpt lat="47.25519" lon="4.95824">
        <ele>388.16250610352</ele>
        <time>2018-06-28T09:46:50+0200</time>
      </trkpt>
      <trkpt lat="47.25519" lon="4.95824">
        <ele>388.25112915039</ele>
        <time>2018-06-28T09:46:53+0200</time>
      </trkpt>
      <trkpt lat="47.25519" lon="4.95823">
        <ele>388.34005737305</ele>
        <time>2018-06-28T09:46:56+0200</time>
      </trkpt>
      <trkpt lat="47.2552" lon="4.95823">
        <ele>388.42840576172</ele>
        <time>2018-06-28T09:46:59+0200</time>
      </trkpt>
      <trkpt lat="47.2552" lon="4.95823">
        <ele>388.51434326172</ele>
        <time>2018-06-28T09:47:02+0200</time>
      </trkpt>
      <trkpt lat="47.2552" lon="4.95822">
        <ele>388.59375</ele>
        <time>2018-06-28T09:47:05+0200</time>
      </trkpt>
      <trkpt lat="47.2552" lon="4.95822">
        <ele>388.66339111328</ele>
        <time>2018-06-28T09:47:08+0200</time>
      </trkpt>
      <trkpt lat="47.2552" lon="4.95822">
        <ele>388.72351074219</ele>
        <time>2018-06-28T09:47:11+0200</time>
      </trkpt>
      <trkpt lat="47.2552" lon="4.95821">
        <ele>388.77716064453</ele>
        <time>2018-06-28T09:47:14+0200</time>
      </trkpt>
      <trkpt lat="47.2552" lon="4.95821">
        <ele>388.82376098633</ele>
        <time>2018-06-28T09:47:17+0200</time>
      </trkpt>
      <trkpt lat="47.2552" lon="4.95821">
        <ele>388.86447143555</ele>
        <time>2018-06-28T09:47:20+0200</time>
      </trkpt>
      <trkpt lat="47.2552" lon="4.95821">
        <ele>388.90255737305</ele>
        <time>2018-06-28T09:47:23+0200</time>
      </trkpt>
      <trkpt lat="47.2552" lon="4.95821">
        <ele>388.93844604492</ele>
        <time>2018-06-28T09:47:26+0200</time>
      </trkpt>
      <trkpt lat="47.2552" lon="4.95821">
        <ele>388.97207641602</ele>
        <time>2018-06-28T09:47:29+0200</time>
      </trkpt>
      <trkpt lat="47.2552" lon="4.95821">
        <ele>389.00405883789</ele>
        <time>2018-06-28T09:47:32+0200</time>
      </trkpt>
      <trkpt lat="47.2552" lon="4.95821">
        <ele>389.03475952148</ele>
        <time>2018-06-28T09:47:35+0200</time>
      </trkpt>
      <trkpt lat="47.25521" lon="4.9582">
        <ele>389.06564331055</ele>
        <time>2018-06-28T09:47:38+0200</time>
      </trkpt>
      <trkpt lat="47.25521" lon="4.9582">
        <ele>389.08938598633</ele>
        <time>2018-06-28T09:47:41+0200</time>
      </trkpt>
      <trkpt lat="47.25521" lon="4.9582">
        <ele>389.10739135742</ele>
        <time>2018-06-28T09:47:44+0200</time>
      </trkpt>
      <trkpt lat="47.25521" lon="4.9582">
        <ele>389.11911010742</ele>
        <time>2018-06-28T09:47:47+0200</time>
      </trkpt>
      <trkpt lat="47.25521" lon="4.95821">
        <ele>389.1272277832</ele>
        <time>2018-06-28T09:47:50+0200</time>
      </trkpt>
      <trkpt lat="47.25521" lon="4.9582">
        <ele>389.13754272461</ele>
        <time>2018-06-28T09:47:53+0200</time>
      </trkpt>
      <trkpt lat="47.2552" lon="4.9582">
        <ele>389.15386962891</ele>
        <time>2018-06-28T09:47:56+0200</time>
      </trkpt>
      <trkpt lat="47.2552" lon="4.9582">
        <ele>389.17639160156</ele>
        <time>2018-06-28T09:47:59+0200</time>
      </trkpt>
      <trkpt lat="47.2552" lon="4.9582">
        <ele>389.20178222656</ele>
        <time>2018-06-28T09:48:02+0200</time>
      </trkpt>
      <trkpt lat="47.2552" lon="4.95819">
        <ele>389.23016357422</ele>
        <time>2018-06-28T09:48:05+0200</time>
      </trkpt>
      <trkpt lat="47.2552" lon="4.95819">
        <ele>389.26232910156</ele>
        <time>2018-06-28T09:48:08+0200</time>
      </trkpt>
      <trkpt lat="47.2552" lon="4.95819">
        <ele>389.29159545898</ele>
        <time>2018-06-28T09:48:11+0200</time>
      </trkpt>
      <trkpt lat="47.2552" lon="4.95819">
        <ele>389.31588745117</ele>
        <time>2018-06-28T09:48:14+0200</time>
      </trkpt>
      <trkpt lat="47.25519" lon="4.95819">
        <ele>389.33520507812</ele>
        <time>2018-06-28T09:48:17+0200</time>
      </trkpt>
      <trkpt lat="47.25519" lon="4.95819">
        <ele>389.35302734375</ele>
        <time>2018-06-28T09:48:20+0200</time>
      </trkpt>
      <trkpt lat="47.25519" lon="4.95819">
        <ele>389.37902832031</ele>
        <time>2018-06-28T09:48:23+0200</time>
      </trkpt>
      <trkpt lat="47.25519" lon="4.95819">
        <ele>389.41546630859</ele>
        <time>2018-06-28T09:48:26+0200</time>
      </trkpt>
      <trkpt lat="47.25519" lon="4.95819">
        <ele>389.46325683594</ele>
        <time>2018-06-28T09:48:29+0200</time>
      </trkpt>
      <trkpt lat="47.25519" lon="4.95819">
        <ele>389.52227783203</ele>
        <time>2018-06-28T09:48:32+0200</time>
      </trkpt>
      <trkpt lat="47.25519" lon="4.95819">
        <ele>389.58560180664</ele>
        <time>2018-06-28T09:48:35+0200</time>
      </trkpt>
      <trkpt lat="47.25519" lon="4.95819">
        <ele>389.64828491211</ele>
        <time>2018-06-28T09:48:38+0200</time>
      </trkpt>
      <trkpt lat="47.25518" lon="4.95821">
        <ele>389.7082824707</ele>
        <time>2018-06-28T09:48:41+0200</time>
      </trkpt>
      <trkpt lat="47.25518" lon="4.95824">
        <ele>389.76422119141</ele>
        <time>2018-06-28T09:48:44+0200</time>
      </trkpt>
      <trkpt lat="47.25517" lon="4.95824">
        <ele>389.81854248047</ele>
        <time>2018-06-28T09:48:47+0200</time>
      </trkpt>
      <trkpt lat="47.25517" lon="4.95825">
        <ele>389.87368774414</ele>
        <time>2018-06-28T09:48:50+0200</time>
      </trkpt>
      <trkpt lat="47.25517" lon="4.95825">
        <ele>389.9313659668</ele>
        <time>2018-06-28T09:48:53+0200</time>
      </trkpt>
      <trkpt lat="47.25517" lon="4.95825">
        <ele>389.99194335938</ele>
        <time>2018-06-28T09:48:56+0200</time>
      </trkpt>
      <trkpt lat="47.25517" lon="4.95826">
        <ele>390.05679321289</ele>
        <time>2018-06-28T09:48:59+0200</time>
      </trkpt>
      <trkpt lat="47.25517" lon="4.95826">
        <ele>390.12631225586</ele>
        <time>2018-06-28T09:49:02+0200</time>
      </trkpt>
      <trkpt lat="47.25517" lon="4.95826">
        <ele>390.20153808594</ele>
        <time>2018-06-28T09:49:05+0200</time>
      </trkpt>
      <trkpt lat="47.25517" lon="4.95826">
        <ele>390.28100585938</ele>
        <time>2018-06-28T09:49:08+0200</time>
      </trkpt>
      <trkpt lat="47.25517" lon="4.95825">
        <ele>390.36389160156</ele>
        <time>2018-06-28T09:49:11+0200</time>
      </trkpt>
      <trkpt lat="47.25517" lon="4.95825">
        <ele>390.44668579102</ele>
        <time>2018-06-28T09:49:14+0200</time>
      </trkpt>
      <trkpt lat="47.25517" lon="4.95825">
        <ele>390.52883911133</ele>
        <time>2018-06-28T09:49:17+0200</time>
      </trkpt>
      <trkpt lat="47.25517" lon="4.95825">
        <ele>390.60824584961</ele>
        <time>2018-06-28T09:49:20+0200</time>
      </trkpt>
      <trkpt lat="47.25517" lon="4.95825">
        <ele>390.6842956543</ele>
        <time>2018-06-28T09:49:23+0200</time>
      </trkpt>
      <trkpt lat="47.25517" lon="4.95825">
        <ele>390.75698852539</ele>
        <time>2018-06-28T09:49:26+0200</time>
      </trkpt>
      <trkpt lat="47.25517" lon="4.95826">
        <ele>390.82592773438</ele>
        <time>2018-06-28T09:49:29+0200</time>
      </trkpt>
      <trkpt lat="47.25517" lon="4.95825">
        <ele>390.89526367188</ele>
        <time>2018-06-28T09:49:32+0200</time>
      </trkpt>
      <trkpt lat="47.25518" lon="4.95825">
        <ele>390.96295166016</ele>
        <time>2018-06-28T09:49:35+0200</time>
      </trkpt>
      <trkpt lat="47.25518" lon="4.95824">
        <ele>391.02127075195</ele>
        <time>2018-06-28T09:49:38+0200</time>
      </trkpt>
      <trkpt lat="47.25518" lon="4.95824">
        <ele>391.07122802734</ele>
        <time>2018-06-28T09:49:41+0200</time>
      </trkpt>
      <trkpt lat="47.25518" lon="4.95824">
        <ele>391.11639404297</ele>
        <time>2018-06-28T09:49:44+0200</time>
      </trkpt>
      <trkpt lat="47.25518" lon="4.95824">
        <ele>391.16036987305</ele>
        <time>2018-06-28T09:49:47+0200</time>
      </trkpt>
      <trkpt lat="47.25518" lon="4.95824">
        <ele>391.20101928711</ele>
        <time>2018-06-28T09:49:50+0200</time>
      </trkpt>
      <trkpt lat="47.25518" lon="4.95824">
        <ele>391.23806762695</ele>
        <time>2018-06-28T09:49:53+0200</time>
      </trkpt>
      <trkpt lat="47.25518" lon="4.95824">
        <ele>391.27536010742</ele>
        <time>2018-06-28T09:49:56+0200</time>
      </trkpt>
      <trkpt lat="47.25518" lon="4.95824">
        <ele>391.30828857422</ele>
        <time>2018-06-28T09:49:59+0200</time>
      </trkpt>
      <trkpt lat="47.25518" lon="4.95824">
        <ele>391.34432983398</ele>
        <time>2018-06-28T09:50:02+0200</time>
      </trkpt>
      <trkpt lat="47.25518" lon="4.95824">
        <ele>391.38507080078</ele>
        <time>2018-06-28T09:50:05+0200</time>
      </trkpt>
      <trkpt lat="47.25518" lon="4.95824">
        <ele>391.42868041992</ele>
        <time>2018-06-28T09:50:08+0200</time>
      </trkpt>
      <trkpt lat="47.25518" lon="4.95824">
        <ele>391.47393798828</ele>
        <time>2018-06-28T09:50:11+0200</time>
      </trkpt>
      <trkpt lat="47.25518" lon="4.95824">
        <ele>391.51449584961</ele>
        <time>2018-06-28T09:50:14+0200</time>
      </trkpt>
      <trkpt lat="47.25518" lon="4.95824">
        <ele>391.55239868164</ele>
        <time>2018-06-28T09:50:17+0200</time>
      </trkpt>
      <trkpt lat="47.25518" lon="4.95824">
        <ele>391.59802246094</ele>
        <time>2018-06-28T09:50:20+0200</time>
      </trkpt>
      <trkpt lat="47.25518" lon="4.95825">
        <ele>391.65075683594</ele>
        <time>2018-06-28T09:50:23+0200</time>
      </trkpt>
      <trkpt lat="47.25518" lon="4.95825">
        <ele>391.70748901367</ele>
        <time>2018-06-28T09:50:26+0200</time>
      </trkpt>
      <trkpt lat="47.25518" lon="4.95825">
        <ele>391.76583862305</ele>
        <time>2018-06-28T09:50:29+0200</time>
      </trkpt>
      <trkpt lat="47.25518" lon="4.95825">
        <ele>391.83358764648</ele>
        <time>2018-06-28T09:50:32+0200</time>
      </trkpt>
      <trkpt lat="47.25518" lon="4.95824">
        <ele>391.9108581543</ele>
        <time>2018-06-28T09:50:35+0200</time>
      </trkpt>
      <trkpt lat="47.25518" lon="4.95824">
        <ele>391.99005126953</ele>
        <time>2018-06-28T09:50:38+0200</time>
      </trkpt>
      <trkpt lat="47.25518" lon="4.95824">
        <ele>392.06219482422</ele>
        <time>2018-06-28T09:50:41+0200</time>
      </trkpt>
      <trkpt lat="47.25519" lon="4.95823">
        <ele>392.30798339844</ele>
        <time>2018-06-28T09:50:44+0200</time>
      </trkpt>
      <trkpt lat="47.25519" lon="4.95823">
        <ele>392.68579101562</ele>
        <time>2018-06-28T09:50:47+0200</time>
      </trkpt>
      <trkpt lat="47.2552" lon="4.95821">
        <ele>393.11392211914</ele>
        <time>2018-06-28T09:50:50+0200</time>
      </trkpt>
      <trkpt lat="47.2552" lon="4.95819">
        <ele>393.4426574707</ele>
        <time>2018-06-28T09:50:53+0200</time>
      </trkpt>
      <trkpt lat="47.25521" lon="4.95817">
        <ele>393.68389892578</ele>
        <time>2018-06-28T09:50:56+0200</time>
      </trkpt>
      <trkpt lat="47.25522" lon="4.95815">
        <ele>393.80630493164</ele>
        <time>2018-06-28T09:50:59+0200</time>
      </trkpt>
      <trkpt lat="47.25523" lon="4.95812">
        <ele>393.95275878906</ele>
        <time>2018-06-28T09:51:02+0200</time>
      </trkpt>
      <trkpt lat="47.25524" lon="4.95811">
        <ele>394.03677368164</ele>
        <time>2018-06-28T09:51:05+0200</time>
      </trkpt>
      <trkpt lat="47.25524" lon="4.95808">
        <ele>394.10250854492</ele>
        <time>2018-06-28T09:51:08+0200</time>
      </trkpt>
      <trkpt lat="47.25525" lon="4.95803">
        <ele>394.20550537109</ele>
        <time>2018-06-28T09:51:11+0200</time>
      </trkpt>
      <trkpt lat="47.25526" lon="4.95801">
        <ele>394.29962158203</ele>
        <time>2018-06-28T09:51:14+0200</time>
      </trkpt>
      <trkpt lat="47.25526" lon="4.95799">
        <ele>394.35641479492</ele>
        <time>2018-06-28T09:51:17+0200</time>
      </trkpt>
      <trkpt lat="47.25527" lon="4.95796">
        <ele>394.37115478516</ele>
        <time>2018-06-28T09:51:20+0200</time>
      </trkpt>
      <trkpt lat="47.25528" lon="4.95793">
        <ele>394.40496826172</ele>
        <time>2018-06-28T09:51:23+0200</time>
      </trkpt>
      <trkpt lat="47.25528" lon="4.9579">
        <ele>394.45803833008</ele>
        <time>2018-06-28T09:51:26+0200</time>
      </trkpt>
      <trkpt lat="47.25529" lon="4.95786">
        <ele>394.52780151367</ele>
        <time>2018-06-28T09:51:29+0200</time>
      </trkpt>
      <trkpt lat="47.25531" lon="4.95784">
        <ele>394.60998535156</ele>
        <time>2018-06-28T09:51:32+0200</time>
      </trkpt>
      <trkpt lat="47.25532" lon="4.9578">
        <ele>394.69140625</ele>
        <time>2018-06-28T09:51:35+0200</time>
      </trkpt>
      <trkpt lat="47.25533" lon="4.95775">
        <ele>394.80017089844</ele>
        <time>2018-06-28T09:51:38+0200</time>
      </trkpt>
      <trkpt lat="47.25534" lon="4.95771">
        <ele>394.91757202148</ele>
        <time>2018-06-28T09:51:41+0200</time>
      </trkpt>
      <trkpt lat="47.25534" lon="4.95769">
        <ele>395.03939819336</ele>
        <time>2018-06-28T09:51:44+0200</time>
      </trkpt>
      <trkpt lat="47.25535" lon="4.95767">
        <ele>395.14599609375</ele>
        <time>2018-06-28T09:51:47+0200</time>
      </trkpt>
      <trkpt lat="47.25536" lon="4.95764">
        <ele>395.29971313477</ele>
        <time>2018-06-28T09:51:50+0200</time>
      </trkpt>
      <trkpt lat="47.25536" lon="4.95761">
        <ele>395.58074951172</ele>
        <time>2018-06-28T09:51:53+0200</time>
      </trkpt>
      <trkpt lat="47.25537" lon="4.95758">
        <ele>395.93756103516</ele>
        <time>2018-06-28T09:51:56+0200</time>
      </trkpt>
      <trkpt lat="47.25538" lon="4.95755">
        <ele>396.32067871094</ele>
        <time>2018-06-28T09:51:59+0200</time>
      </trkpt>
      <trkpt lat="47.25539" lon="4.95752">
        <ele>396.69061279297</ele>
        <time>2018-06-28T09:52:02+0200</time>
      </trkpt>
      <trkpt lat="47.2554" lon="4.95751">
        <ele>396.94476318359</ele>
        <time>2018-06-28T09:52:05+0200</time>
      </trkpt>
      <trkpt lat="47.25541" lon="4.95751">
        <ele>396.98123168945</ele>
        <time>2018-06-28T09:52:08+0200</time>
      </trkpt>
      <trkpt lat="47.25542" lon="4.95749">
        <ele>397.1298828125</ele>
        <time>2018-06-28T09:52:11+0200</time>
      </trkpt>
      <trkpt lat="47.25543" lon="4.95748">
        <ele>397.53842163086</ele>
        <time>2018-06-28T09:52:14+0200</time>
      </trkpt>
      <trkpt lat="47.25545" lon="4.95745">
        <ele>397.94219970703</ele>
        <time>2018-06-28T09:52:17+0200</time>
      </trkpt>
      <trkpt lat="47.25547" lon="4.95742">
        <ele>398.33126831055</ele>
        <time>2018-06-28T09:52:20+0200</time>
      </trkpt>
      <trkpt lat="47.25549" lon="4.95738">
        <ele>398.74383544922</ele>
        <time>2018-06-28T09:52:23+0200</time>
      </trkpt>
      <trkpt lat="47.25551" lon="4.95735">
        <ele>399.16702270508</ele>
        <time>2018-06-28T09:52:26+0200</time>
      </trkpt>
      <trkpt lat="47.25552" lon="4.95732">
        <ele>399.46340942383</ele>
        <time>2018-06-28T09:52:29+0200</time>
      </trkpt>
      <trkpt lat="47.25554" lon="4.9573">
        <ele>399.86639404297</ele>
        <time>2018-06-28T09:52:32+0200</time>
      </trkpt>
      <trkpt lat="47.25556" lon="4.95728">
        <ele>400.14678955078</ele>
        <time>2018-06-28T09:52:35+0200</time>
      </trkpt>
      <trkpt lat="47.25558" lon="4.95726">
        <ele>400.53729248047</ele>
        <time>2018-06-28T09:52:38+0200</time>
      </trkpt>
      <trkpt lat="47.2556" lon="4.95724">
        <ele>400.82571411133</ele>
        <time>2018-06-28T09:52:41+0200</time>
      </trkpt>
      <trkpt lat="47.25562" lon="4.95723">
        <ele>401.27496337891</ele>
        <time>2018-06-28T09:52:44+0200</time>
      </trkpt>
      <trkpt lat="47.25565" lon="4.95722">
        <ele>401.72317504883</ele>
        <time>2018-06-28T09:52:47+0200</time>
      </trkpt>
      <trkpt lat="47.25569" lon="4.95721">
        <ele>402.07321166992</ele>
        <time>2018-06-28T09:52:50+0200</time>
      </trkpt>
      <trkpt lat="47.25574" lon="4.9572">
        <ele>402.29837036133</ele>
        <time>2018-06-28T09:52:53+0200</time>
      </trkpt>
      <trkpt lat="47.25577" lon="4.9572">
        <ele>402.42529296875</ele>
        <time>2018-06-28T09:52:56+0200</time>
      </trkpt>
      <trkpt lat="47.25581" lon="4.95719">
        <ele>402.50424194336</ele>
        <time>2018-06-28T09:52:59+0200</time>
      </trkpt>
      <trkpt lat="47.25583" lon="4.95717">
        <ele>402.55624389648</ele>
        <time>2018-06-28T09:53:02+0200</time>
      </trkpt>
      <trkpt lat="47.25585" lon="4.95716">
        <ele>402.63586425781</ele>
        <time>2018-06-28T09:53:05+0200</time>
      </trkpt>
      <trkpt lat="47.25587" lon="4.95715">
        <ele>402.76284790039</ele>
        <time>2018-06-28T09:53:08+0200</time>
      </trkpt>
      <trkpt lat="47.25591" lon="4.95713">
        <ele>402.95040893555</ele>
        <time>2018-06-28T09:53:11+0200</time>
      </trkpt>
      <trkpt lat="47.25593" lon="4.95712">
        <ele>403.03604125977</ele>
        <time>2018-06-28T09:53:14+0200</time>
      </trkpt>
      <trkpt lat="47.25595" lon="4.95711">
        <ele>403.14276123047</ele>
        <time>2018-06-28T09:53:17+0200</time>
      </trkpt>
      <trkpt lat="47.25597" lon="4.9571">
        <ele>403.25668334961</ele>
        <time>2018-06-28T09:53:20+0200</time>
      </trkpt>
      <trkpt lat="47.25601" lon="4.95708">
        <ele>403.61148071289</ele>
        <time>2018-06-28T09:53:23+0200</time>
      </trkpt>
      <trkpt lat="47.25603" lon="4.95708">
        <ele>403.89349365234</ele>
        <time>2018-06-28T09:53:26+0200</time>
      </trkpt>
      <trkpt lat="47.25606" lon="4.95705">
        <ele>404.3606262207</ele>
        <time>2018-06-28T09:53:29+0200</time>
      </trkpt>
      <trkpt lat="47.25608" lon="4.95704">
        <ele>404.84826660156</ele>
        <time>2018-06-28T09:53:32+0200</time>
      </trkpt>
      <trkpt lat="47.25611" lon="4.95703">
        <ele>405.19873046875</ele>
        <time>2018-06-28T09:53:35+0200</time>
      </trkpt>
      <trkpt lat="47.25612" lon="4.95703">
        <ele>405.59030151367</ele>
        <time>2018-06-28T09:53:38+0200</time>
      </trkpt>
      <trkpt lat="47.25615" lon="4.95702">
        <ele>406.16250610352</ele>
        <time>2018-06-28T09:53:41+0200</time>
      </trkpt>
      <trkpt lat="47.25618" lon="4.95701">
        <ele>406.69451904297</ele>
        <time>2018-06-28T09:53:44+0200</time>
      </trkpt>
      <trkpt lat="47.25618" lon="4.95702">
        <ele>406.90026855469</ele>
        <time>2018-06-28T09:53:47+0200</time>
      </trkpt>
      <trkpt lat="47.2562" lon="4.95702">
        <ele>407.24398803711</ele>
        <time>2018-06-28T09:53:50+0200</time>
      </trkpt>
      <trkpt lat="47.25623" lon="4.95701">
        <ele>407.75317382812</ele>
        <time>2018-06-28T09:53:53+0200</time>
      </trkpt>
      <trkpt lat="47.25628" lon="4.95701">
        <ele>408.17520141602</ele>
        <time>2018-06-28T09:53:56+0200</time>
      </trkpt>
      <trkpt lat="47.25631" lon="4.957">
        <ele>408.60247802734</ele>
        <time>2018-06-28T09:53:59+0200</time>
      </trkpt>
      <trkpt lat="47.25635" lon="4.95698">
        <ele>409.01733398438</ele>
        <time>2018-06-28T09:54:02+0200</time>
      </trkpt>
      <trkpt lat="47.25641" lon="4.95696">
        <ele>409.38473510742</ele>
        <time>2018-06-28T09:54:05+0200</time>
      </trkpt>
      <trkpt lat="47.25644" lon="4.95695">
        <ele>409.74984741211</ele>
        <time>2018-06-28T09:54:08+0200</time>
      </trkpt>
      <trkpt lat="47.25646" lon="4.95694">
        <ele>410.13040161133</ele>
        <time>2018-06-28T09:54:11+0200</time>
      </trkpt>
      <trkpt lat="47.25648" lon="4.95693">
        <ele>410.51928710938</ele>
        <time>2018-06-28T09:54:14+0200</time>
      </trkpt>
      <trkpt lat="47.2565" lon="4.95693">
        <ele>410.77865600586</ele>
        <time>2018-06-28T09:54:17+0200</time>
      </trkpt>
      <trkpt lat="47.25654" lon="4.95693">
        <ele>411.15881347656</ele>
        <time>2018-06-28T09:54:20+0200</time>
      </trkpt>
      <trkpt lat="47.25658" lon="4.95693">
        <ele>411.52816772461</ele>
        <time>2018-06-28T09:54:23+0200</time>
      </trkpt>
      <trkpt lat="47.25661" lon="4.95693">
        <ele>411.87005615234</ele>
        <time>2018-06-28T09:54:26+0200</time>
      </trkpt>
      <trkpt lat="47.25662" lon="4.95692">
        <ele>412.21371459961</ele>
        <time>2018-06-28T09:54:29+0200</time>
      </trkpt>
      <trkpt lat="47.25665" lon="4.95692">
        <ele>412.5325012207</ele>
        <time>2018-06-28T09:54:32+0200</time>
      </trkpt>
      <trkpt lat="47.25667" lon="4.95691">
        <ele>412.72396850586</ele>
        <time>2018-06-28T09:54:35+0200</time>
      </trkpt>
      <trkpt lat="47.25668" lon="4.9569">
        <ele>412.97500610352</ele>
        <time>2018-06-28T09:54:38+0200</time>
      </trkpt>
      <trkpt lat="47.2567" lon="4.95689">
        <ele>413.2194519043</ele>
        <time>2018-06-28T09:54:41+0200</time>
      </trkpt>
      <trkpt lat="47.25671" lon="4.95689">
        <ele>413.31094360352</ele>
        <time>2018-06-28T09:54:44+0200</time>
      </trkpt>
      <trkpt lat="47.25674" lon="4.95688">
        <ele>413.51187133789</ele>
        <time>2018-06-28T09:54:47+0200</time>
      </trkpt>
      <trkpt lat="47.25676" lon="4.95688">
        <ele>413.69555664062</ele>
        <time>2018-06-28T09:54:50+0200</time>
      </trkpt>
      <trkpt lat="47.25678" lon="4.95687">
        <ele>413.85110473633</ele>
        <time>2018-06-28T09:54:53+0200</time>
      </trkpt>
      <trkpt lat="47.25681" lon="4.95685">
        <ele>413.96340942383</ele>
        <time>2018-06-28T09:54:56+0200</time>
      </trkpt>
      <trkpt lat="47.25684" lon="4.95683">
        <ele>413.9992980957</ele>
        <time>2018-06-28T09:54:59+0200</time>
      </trkpt>
      <trkpt lat="47.25686" lon="4.95682">
        <ele>413.99270629883</ele>
        <time>2018-06-28T09:55:02+0200</time>
      </trkpt>
      <trkpt lat="47.25687" lon="4.95682">
        <ele>413.99713134766</ele>
        <time>2018-06-28T09:55:05+0200</time>
      </trkpt>
      <trkpt lat="47.25691" lon="4.95681">
        <ele>413.97161865234</ele>
        <time>2018-06-28T09:55:08+0200</time>
      </trkpt>
      <trkpt lat="47.25692" lon="4.9568">
        <ele>413.90740966797</ele>
        <time>2018-06-28T09:55:11+0200</time>
      </trkpt>
      <trkpt lat="47.25694" lon="4.9568">
        <ele>413.84289550781</ele>
        <time>2018-06-28T09:55:14+0200</time>
      </trkpt>
      <trkpt lat="47.25697" lon="4.95679">
        <ele>413.798828125</ele>
        <time>2018-06-28T09:55:17+0200</time>
      </trkpt>
      <trkpt lat="47.25702" lon="4.95676">
        <ele>413.73239135742</ele>
        <time>2018-06-28T09:55:20+0200</time>
      </trkpt>
      <trkpt lat="47.25701" lon="4.95677">
        <ele>413.70413208008</ele>
        <time>2018-06-28T09:55:23+0200</time>
      </trkpt>
      <trkpt lat="47.25703" lon="4.95676">
        <ele>413.66796875</ele>
        <time>2018-06-28T09:55:26+0200</time>
      </trkpt>
      <trkpt lat="47.25705" lon="4.95676">
        <ele>413.65698242188</ele>
        <time>2018-06-28T09:55:30+0200</time>
      </trkpt>
      <trkpt lat="47.25705" lon="4.95675">
        <ele>413.65649414062</ele>
        <time>2018-06-28T09:55:33+0200</time>
      </trkpt>
      <trkpt lat="47.25709" lon="4.95674">
        <ele>413.65649414062</ele>
        <time>2018-06-28T09:55:36+0200</time>
      </trkpt>
      <trkpt lat="47.25712" lon="4.95672">
        <ele>413.69006347656</ele>
        <time>2018-06-28T09:55:39+0200</time>
      </trkpt>
      <trkpt lat="47.25715" lon="4.95671">
        <ele>413.71038818359</ele>
        <time>2018-06-28T09:55:42+0200</time>
      </trkpt>
      <trkpt lat="47.25718" lon="4.9567">
        <ele>413.73059082031</ele>
        <time>2018-06-28T09:55:45+0200</time>
      </trkpt>
      <trkpt lat="47.25721" lon="4.95669">
        <ele>413.71716308594</ele>
        <time>2018-06-28T09:55:48+0200</time>
      </trkpt>
      <trkpt lat="47.25722" lon="4.95668">
        <ele>413.70007324219</ele>
        <time>2018-06-28T09:55:51+0200</time>
      </trkpt>
      <trkpt lat="47.25725" lon="4.95667">
        <ele>413.60668945312</ele>
        <time>2018-06-28T09:55:54+0200</time>
      </trkpt>
      <trkpt lat="47.25726" lon="4.95667">
        <ele>413.53472900391</ele>
        <time>2018-06-28T09:55:57+0200</time>
      </trkpt>
      <trkpt lat="47.25728" lon="4.95667">
        <ele>413.48159790039</ele>
        <time>2018-06-28T09:56:00+0200</time>
      </trkpt>
      <trkpt lat="47.2573" lon="4.95667">
        <ele>413.51470947266</ele>
        <time>2018-06-28T09:56:03+0200</time>
      </trkpt>
      <trkpt lat="47.25733" lon="4.95666">
        <ele>413.58969116211</ele>
        <time>2018-06-28T09:56:06+0200</time>
      </trkpt>
      <trkpt lat="47.25735" lon="4.95666">
        <ele>413.64935302734</ele>
        <time>2018-06-28T09:56:09+0200</time>
      </trkpt>
      <trkpt lat="47.25738" lon="4.95666">
        <ele>413.75134277344</ele>
        <time>2018-06-28T09:56:12+0200</time>
      </trkpt>
      <trkpt lat="47.25741" lon="4.95665">
        <ele>413.85699462891</ele>
        <time>2018-06-28T09:56:15+0200</time>
      </trkpt>
      <trkpt lat="47.25744" lon="4.95666">
        <ele>414.01684570312</ele>
        <time>2018-06-28T09:56:18+0200</time>
      </trkpt>
      <trkpt lat="47.25747" lon="4.95667">
        <ele>414.19946289062</ele>
        <time>2018-06-28T09:56:21+0200</time>
      </trkpt>
      <trkpt lat="47.25749" lon="4.95667">
        <ele>414.35494995117</ele>
        <time>2018-06-28T09:56:24+0200</time>
      </trkpt>
      <trkpt lat="47.25751" lon="4.95666">
        <ele>414.53137207031</ele>
        <time>2018-06-28T09:56:27+0200</time>
      </trkpt>
      <trkpt lat="47.25752" lon="4.95665">
        <ele>414.72485351562</ele>
        <time>2018-06-28T09:56:30+0200</time>
      </trkpt>
      <trkpt lat="47.25754" lon="4.95665">
        <ele>414.88998413086</ele>
        <time>2018-06-28T09:56:33+0200</time>
      </trkpt>
      <trkpt lat="47.25755" lon="4.95664">
        <ele>415.02258300781</ele>
        <time>2018-06-28T09:56:36+0200</time>
      </trkpt>
      <trkpt lat="47.25758" lon="4.95665">
        <ele>415.18927001953</ele>
        <time>2018-06-28T09:56:39+0200</time>
      </trkpt>
      <trkpt lat="47.25759" lon="4.95664">
        <ele>415.37036132812</ele>
        <time>2018-06-28T09:56:42+0200</time>
      </trkpt>
      <trkpt lat="47.25761" lon="4.95663">
        <ele>415.59060668945</ele>
        <time>2018-06-28T09:56:45+0200</time>
      </trkpt>
      <trkpt lat="47.25765" lon="4.95663">
        <ele>415.77996826172</ele>
        <time>2018-06-28T09:56:48+0200</time>
      </trkpt>
      <trkpt lat="47.25769" lon="4.95664">
        <ele>415.86727905273</ele>
        <time>2018-06-28T09:56:51+0200</time>
      </trkpt>
      <trkpt lat="47.25772" lon="4.95663">
        <ele>415.97207641602</ele>
        <time>2018-06-28T09:56:54+0200</time>
      </trkpt>
      <trkpt lat="47.25772" lon="4.95663">
        <ele>415.98330688477</ele>
        <time>2018-06-28T09:56:57+0200</time>
      </trkpt>
      <trkpt lat="47.25775" lon="4.95663">
        <ele>416.0657043457</ele>
        <time>2018-06-28T09:57:00+0200</time>
      </trkpt>
      <trkpt lat="47.25777" lon="4.95662">
        <ele>416.16128540039</ele>
        <time>2018-06-28T09:57:03+0200</time>
      </trkpt>
      <trkpt lat="47.25781" lon="4.95661">
        <ele>416.2405090332</ele>
        <time>2018-06-28T09:57:06+0200</time>
      </trkpt>
      <trkpt lat="47.25785" lon="4.9566">
        <ele>416.37322998047</ele>
        <time>2018-06-28T09:57:09+0200</time>
      </trkpt>
      <trkpt lat="47.2579" lon="4.95658">
        <ele>416.51794433594</ele>
        <time>2018-06-28T09:57:12+0200</time>
      </trkpt>
      <trkpt lat="47.25794" lon="4.95657">
        <ele>416.6484375</ele>
        <time>2018-06-28T09:57:15+0200</time>
      </trkpt>
      <trkpt lat="47.25797" lon="4.95655">
        <ele>416.70782470703</ele>
        <time>2018-06-28T09:57:18+0200</time>
      </trkpt>
      <trkpt lat="47.25799" lon="4.95654">
        <ele>416.75921630859</ele>
        <time>2018-06-28T09:57:21+0200</time>
      </trkpt>
      <trkpt lat="47.25802" lon="4.95653">
        <ele>416.85668945312</ele>
        <time>2018-06-28T09:57:24+0200</time>
      </trkpt>
      <trkpt lat="47.25804" lon="4.95651">
        <ele>416.97250366211</ele>
        <time>2018-06-28T09:57:27+0200</time>
      </trkpt>
      <trkpt lat="47.25806" lon="4.95648">
        <ele>417.11047363281</ele>
        <time>2018-06-28T09:57:30+0200</time>
      </trkpt>
      <trkpt lat="47.25809" lon="4.95645">
        <ele>417.22506713867</ele>
        <time>2018-06-28T09:57:33+0200</time>
      </trkpt>
      <trkpt lat="47.2581" lon="4.95642">
        <ele>417.35040283203</ele>
        <time>2018-06-28T09:57:36+0200</time>
      </trkpt>
      <trkpt lat="47.25812" lon="4.9564">
        <ele>417.50979614258</ele>
        <time>2018-06-28T09:57:39+0200</time>
      </trkpt>
      <trkpt lat="47.25815" lon="4.95636">
        <ele>417.6640625</ele>
        <time>2018-06-28T09:57:42+0200</time>
      </trkpt>
      <trkpt lat="47.25816" lon="4.95634">
        <ele>417.7903137207</ele>
        <time>2018-06-28T09:57:45+0200</time>
      </trkpt>
      <trkpt lat="47.25817" lon="4.95632">
        <ele>417.8415222168</ele>
        <time>2018-06-28T09:57:48+0200</time>
      </trkpt>
      <trkpt lat="47.2582" lon="4.95629">
        <ele>417.83056640625</ele>
        <time>2018-06-28T09:57:51+0200</time>
      </trkpt>
      <trkpt lat="47.25822" lon="4.95626">
        <ele>417.79153442383</ele>
        <time>2018-06-28T09:57:54+0200</time>
      </trkpt>
      <trkpt lat="47.25824" lon="4.95624">
        <ele>417.73641967773</ele>
        <time>2018-06-28T09:57:57+0200</time>
      </trkpt>
      <trkpt lat="47.25825" lon="4.95622">
        <ele>417.68029785156</ele>
        <time>2018-06-28T09:58:00+0200</time>
      </trkpt>
      <trkpt lat="47.25826" lon="4.95621">
        <ele>417.61920166016</ele>
        <time>2018-06-28T09:58:03+0200</time>
      </trkpt>
      <trkpt lat="47.25827" lon="4.95619">
        <ele>417.49240112305</ele>
        <time>2018-06-28T09:58:06+0200</time>
      </trkpt>
      <trkpt lat="47.2583" lon="4.95616">
        <ele>417.30667114258</ele>
        <time>2018-06-28T09:58:09+0200</time>
      </trkpt>
      <trkpt lat="47.25831" lon="4.95615">
        <ele>417.17205810547</ele>
        <time>2018-06-28T09:58:12+0200</time>
      </trkpt>
      <trkpt lat="47.25831" lon="4.95615">
        <ele>417.13229370117</ele>
        <time>2018-06-28T09:58:15+0200</time>
      </trkpt>
      <trkpt lat="47.25832" lon="4.95615">
        <ele>417.0934753418</ele>
        <time>2018-06-28T09:58:18+0200</time>
      </trkpt>
      <trkpt lat="47.25832" lon="4.95614">
        <ele>417.05822753906</ele>
        <time>2018-06-28T09:58:21+0200</time>
      </trkpt>
      <trkpt lat="47.25832" lon="4.95614">
        <ele>417.02767944336</ele>
        <time>2018-06-28T09:58:24+0200</time>
      </trkpt>
      <trkpt lat="47.25831" lon="4.95614">
        <ele>417.00302124023</ele>
        <time>2018-06-28T09:58:27+0200</time>
      </trkpt>
      <trkpt lat="47.25831" lon="4.95615">
        <ele>416.98251342773</ele>
        <time>2018-06-28T09:58:30+0200</time>
      </trkpt>
      <trkpt lat="47.25831" lon="4.95615">
        <ele>416.96566772461</ele>
        <time>2018-06-28T09:58:33+0200</time>
      </trkpt>
      <trkpt lat="47.25831" lon="4.95614">
        <ele>416.94995117188</ele>
        <time>2018-06-28T09:58:36+0200</time>
      </trkpt>
      <trkpt lat="47.2583" lon="4.95614">
        <ele>416.83206176758</ele>
        <time>2018-06-28T09:58:39+0200</time>
      </trkpt>
      <trkpt lat="47.2583" lon="4.95613">
        <ele>416.81362915039</ele>
        <time>2018-06-28T09:58:42+0200</time>
      </trkpt>
      <trkpt lat="47.2583" lon="4.95612">
        <ele>416.61798095703</ele>
        <time>2018-06-28T09:58:45+0200</time>
      </trkpt>
      <trkpt lat="47.2583" lon="4.95611">
        <ele>416.44100952148</ele>
        <time>2018-06-28T09:58:48+0200</time>
      </trkpt>
      <trkpt lat="47.25833" lon="4.95607">
        <ele>416.2822265625</ele>
        <time>2018-06-28T09:58:51+0200</time>
      </trkpt>
      <trkpt lat="47.25835" lon="4.95603">
        <ele>416.13653564453</ele>
        <time>2018-06-28T09:58:54+0200</time>
      </trkpt>
      <trkpt lat="47.25839" lon="4.95598">
        <ele>415.98965454102</ele>
        <time>2018-06-28T09:58:57+0200</time>
      </trkpt>
      <trkpt lat="47.25842" lon="4.95592">
        <ele>415.85766601562</ele>
        <time>2018-06-28T09:59:00+0200</time>
      </trkpt>
      <trkpt lat="47.25844" lon="4.95587">
        <ele>415.76422119141</ele>
        <time>2018-06-28T09:59:03+0200</time>
      </trkpt>
      <trkpt lat="47.25845" lon="4.95583">
        <ele>415.70147705078</ele>
        <time>2018-06-28T09:59:06+0200</time>
      </trkpt>
      <trkpt lat="47.25846" lon="4.9558">
        <ele>415.67660522461</ele>
        <time>2018-06-28T09:59:09+0200</time>
      </trkpt>
      <trkpt lat="47.25847" lon="4.95577">
        <ele>415.64691162109</ele>
        <time>2018-06-28T09:59:12+0200</time>
      </trkpt>
      <trkpt lat="47.25847" lon="4.95574">
        <ele>415.59854125977</ele>
        <time>2018-06-28T09:59:15+0200</time>
      </trkpt>
      <trkpt lat="47.25847" lon="4.95569">
        <ele>415.54696655273</ele>
        <time>2018-06-28T09:59:18+0200</time>
      </trkpt>
      <trkpt lat="47.25847" lon="4.95566">
        <ele>415.5016784668</ele>
        <time>2018-06-28T09:59:21+0200</time>
      </trkpt>
      <trkpt lat="47.25847" lon="4.95562">
        <ele>415.43569946289</ele>
        <time>2018-06-28T09:59:24+0200</time>
      </trkpt>
      <trkpt lat="47.25848" lon="4.95558">
        <ele>415.36618041992</ele>
        <time>2018-06-28T09:59:27+0200</time>
      </trkpt>
      <trkpt lat="47.25848" lon="4.95554">
        <ele>415.27984619141</ele>
        <time>2018-06-28T09:59:30+0200</time>
      </trkpt>
      <trkpt lat="47.25848" lon="4.9555">
        <ele>415.23193359375</ele>
        <time>2018-06-28T09:59:33+0200</time>
      </trkpt>
      <trkpt lat="47.25849" lon="4.95544">
        <ele>415.17681884766</ele>
        <time>2018-06-28T09:59:36+0200</time>
      </trkpt>
      <trkpt lat="47.2585" lon="4.95539">
        <ele>415.12823486328</ele>
        <time>2018-06-28T09:59:39+0200</time>
      </trkpt>
      <trkpt lat="47.2585" lon="4.95536">
        <ele>415.08923339844</ele>
        <time>2018-06-28T09:59:42+0200</time>
      </trkpt>
      <trkpt lat="47.2585" lon="4.95534">
        <ele>415.06304931641</ele>
        <time>2018-06-28T09:59:45+0200</time>
      </trkpt>
      <trkpt lat="47.2585" lon="4.95531">
        <ele>415.04803466797</ele>
        <time>2018-06-28T09:59:48+0200</time>
      </trkpt>
      <trkpt lat="47.25851" lon="4.95528">
        <ele>415.06680297852</ele>
        <time>2018-06-28T09:59:51+0200</time>
      </trkpt>
      <trkpt lat="47.25852" lon="4.95525">
        <ele>415.09725952148</ele>
        <time>2018-06-28T09:59:54+0200</time>
      </trkpt>
      <trkpt lat="47.25854" lon="4.95521">
        <ele>415.15475463867</ele>
        <time>2018-06-28T09:59:57+0200</time>
      </trkpt>
      <trkpt lat="47.25855" lon="4.95518">
        <ele>415.2483215332</ele>
        <time>2018-06-28T10:00:00+0200</time>
      </trkpt>
      <trkpt lat="47.25857" lon="4.95513">
        <ele>415.37112426758</ele>
        <time>2018-06-28T10:00:03+0200</time>
      </trkpt>
      <trkpt lat="47.25858" lon="4.95508">
        <ele>415.45654296875</ele>
        <time>2018-06-28T10:00:06+0200</time>
      </trkpt>
      <trkpt lat="47.25859" lon="4.95504">
        <ele>415.60543823242</ele>
        <time>2018-06-28T10:00:09+0200</time>
      </trkpt>
      <trkpt lat="47.25859" lon="4.95503">
        <ele>415.72198486328</ele>
        <time>2018-06-28T10:00:12+0200</time>
      </trkpt>
      <trkpt lat="47.25859" lon="4.95499">
        <ele>415.92340087891</ele>
        <time>2018-06-28T10:00:15+0200</time>
      </trkpt>
      <trkpt lat="47.2586" lon="4.95494">
        <ele>416.16784667969</ele>
        <time>2018-06-28T10:00:18+0200</time>
      </trkpt>
      <trkpt lat="47.25861" lon="4.95489">
        <ele>416.443359375</ele>
        <time>2018-06-28T10:00:21+0200</time>
      </trkpt>
      <trkpt lat="47.25861" lon="4.95487">
        <ele>416.70571899414</ele>
        <time>2018-06-28T10:00:24+0200</time>
      </trkpt>
      <trkpt lat="47.25862" lon="4.95484">
        <ele>416.94512939453</ele>
        <time>2018-06-28T10:00:27+0200</time>
      </trkpt>
      <trkpt lat="47.25863" lon="4.95479">
        <ele>417.19772338867</ele>
        <time>2018-06-28T10:00:30+0200</time>
      </trkpt>
      <trkpt lat="47.25864" lon="4.95477">
        <ele>417.46340942383</ele>
        <time>2018-06-28T10:00:33+0200</time>
      </trkpt>
      <trkpt lat="47.25865" lon="4.95473">
        <ele>417.76232910156</ele>
        <time>2018-06-28T10:00:36+0200</time>
      </trkpt>
      <trkpt lat="47.25865" lon="4.9547">
        <ele>418.10534667969</ele>
        <time>2018-06-28T10:00:39+0200</time>
      </trkpt>
      <trkpt lat="47.25866" lon="4.95467">
        <ele>418.48123168945</ele>
        <time>2018-06-28T10:00:42+0200</time>
      </trkpt>
      <trkpt lat="47.25867" lon="4.95464">
        <ele>418.88192749023</ele>
        <time>2018-06-28T10:00:45+0200</time>
      </trkpt>
      <trkpt lat="47.25867" lon="4.95461">
        <ele>419.28601074219</ele>
        <time>2018-06-28T10:00:48+0200</time>
      </trkpt>
      <trkpt lat="47.25868" lon="4.95457">
        <ele>419.68127441406</ele>
        <time>2018-06-28T10:00:51+0200</time>
      </trkpt>
      <trkpt lat="47.25869" lon="4.95457">
        <ele>419.84091186523</ele>
        <time>2018-06-28T10:00:54+0200</time>
      </trkpt>
      <trkpt lat="47.25869" lon="4.95457">
        <ele>419.88275146484</ele>
        <time>2018-06-28T10:00:57+0200</time>
      </trkpt>
      <trkpt lat="47.25868" lon="4.95456">
        <ele>419.92749023438</ele>
        <time>2018-06-28T10:01:00+0200</time>
      </trkpt>
      <trkpt lat="47.25868" lon="4.95457">
        <ele>419.97329711914</ele>
        <time>2018-06-28T10:01:03+0200</time>
      </trkpt>
      <trkpt lat="47.25868" lon="4.95456">
        <ele>420.01528930664</ele>
        <time>2018-06-28T10:01:06+0200</time>
      </trkpt>
      <trkpt lat="47.2587" lon="4.95454">
        <ele>420.05120849609</ele>
        <time>2018-06-28T10:01:09+0200</time>
      </trkpt>
      <trkpt lat="47.2587" lon="4.95454">
        <ele>420.08001708984</ele>
        <time>2018-06-28T10:01:12+0200</time>
      </trkpt>
      <trkpt lat="47.2587" lon="4.95454">
        <ele>420.10668945312</ele>
        <time>2018-06-28T10:01:15+0200</time>
      </trkpt>
      <trkpt lat="47.2587" lon="4.95454">
        <ele>420.13464355469</ele>
        <time>2018-06-28T10:01:18+0200</time>
      </trkpt>
      <trkpt lat="47.2587" lon="4.95453">
        <ele>420.16397094727</ele>
        <time>2018-06-28T10:01:21+0200</time>
      </trkpt>
      <trkpt lat="47.2587" lon="4.95453">
        <ele>420.20077514648</ele>
        <time>2018-06-28T10:01:24+0200</time>
      </trkpt>
      <trkpt lat="47.2587" lon="4.95453">
        <ele>420.24163818359</ele>
        <time>2018-06-28T10:01:27+0200</time>
      </trkpt>
      <trkpt lat="47.2587" lon="4.95453">
        <ele>420.40353393555</ele>
        <time>2018-06-28T10:01:30+0200</time>
      </trkpt>
      <trkpt lat="47.2587" lon="4.95452">
        <ele>420.44226074219</ele>
        <time>2018-06-28T10:01:33+0200</time>
      </trkpt>
      <trkpt lat="47.25871" lon="4.95452">
        <ele>420.48132324219</ele>
        <time>2018-06-28T10:01:36+0200</time>
      </trkpt>
      <trkpt lat="47.2587" lon="4.95452">
        <ele>420.52322387695</ele>
        <time>2018-06-28T10:01:39+0200</time>
      </trkpt>
      <trkpt lat="47.2587" lon="4.95452">
        <ele>420.56634521484</ele>
        <time>2018-06-28T10:01:42+0200</time>
      </trkpt>
      <trkpt lat="47.2587" lon="4.95452">
        <ele>420.60604858398</ele>
        <time>2018-06-28T10:01:45+0200</time>
      </trkpt>
      <trkpt lat="47.25871" lon="4.95451">
        <ele>420.64794921875</ele>
        <time>2018-06-28T10:01:48+0200</time>
      </trkpt>
      <trkpt lat="47.25871" lon="4.95451">
        <ele>420.6897277832</ele>
        <time>2018-06-28T10:01:51+0200</time>
      </trkpt>
      <trkpt lat="47.25871" lon="4.95451">
        <ele>420.73223876953</ele>
        <time>2018-06-28T10:01:54+0200</time>
      </trkpt>
      <trkpt lat="47.25871" lon="4.95451">
        <ele>420.78057861328</ele>
        <time>2018-06-28T10:01:57+0200</time>
      </trkpt>
      <trkpt lat="47.25871" lon="4.95451">
        <ele>420.83316040039</ele>
        <time>2018-06-28T10:02:00+0200</time>
      </trkpt>
      <trkpt lat="47.25871" lon="4.95451">
        <ele>420.88885498047</ele>
        <time>2018-06-28T10:02:03+0200</time>
      </trkpt>
      <trkpt lat="47.25871" lon="4.95451">
        <ele>420.94479370117</ele>
        <time>2018-06-28T10:02:06+0200</time>
      </trkpt>
      <trkpt lat="47.25871" lon="4.9545">
        <ele>421.00537109375</ele>
        <time>2018-06-28T10:02:09+0200</time>
      </trkpt>
      <trkpt lat="47.25871" lon="4.9545">
        <ele>421.07070922852</ele>
        <time>2018-06-28T10:02:12+0200</time>
      </trkpt>
      <trkpt lat="47.25871" lon="4.95449">
        <ele>421.34280395508</ele>
        <time>2018-06-28T10:02:15+0200</time>
      </trkpt>
      <trkpt lat="47.25871" lon="4.95449">
        <ele>421.40933227539</ele>
        <time>2018-06-28T10:02:18+0200</time>
      </trkpt>
      <trkpt lat="47.25871" lon="4.95449">
        <ele>421.47564697266</ele>
        <time>2018-06-28T10:02:21+0200</time>
      </trkpt>
      <trkpt lat="47.25872" lon="4.95446">
        <ele>422.11285400391</ele>
        <time>2018-06-28T10:02:24+0200</time>
      </trkpt>
      <trkpt lat="47.25871" lon="4.95447">
        <ele>422.3479309082</ele>
        <time>2018-06-28T10:02:27+0200</time>
      </trkpt>
      <trkpt lat="47.25871" lon="4.95447">
        <ele>422.40438842773</ele>
        <time>2018-06-28T10:02:30+0200</time>
      </trkpt>
      <trkpt lat="47.25871" lon="4.95446">
        <ele>422.46044921875</ele>
        <time>2018-06-28T10:02:33+0200</time>
      </trkpt>
      <trkpt lat="47.25872" lon="4.95444">
        <ele>422.83984375</ele>
        <time>2018-06-28T10:02:36+0200</time>
      </trkpt>
      <trkpt lat="47.25872" lon="4.95443">
        <ele>422.8893737793</ele>
        <time>2018-06-28T10:02:39+0200</time>
      </trkpt>
      <trkpt lat="47.25873" lon="4.95443">
        <ele>422.93417358398</ele>
        <time>2018-06-28T10:02:42+0200</time>
      </trkpt>
      <trkpt lat="47.25873" lon="4.95442">
        <ele>422.97372436523</ele>
        <time>2018-06-28T10:02:45+0200</time>
      </trkpt>
      <trkpt lat="47.25873" lon="4.95438">
        <ele>423.10980224609</ele>
        <time>2018-06-28T10:02:48+0200</time>
      </trkpt>
      <trkpt lat="47.25873" lon="4.95438">
        <ele>423.14324951172</ele>
        <time>2018-06-28T10:02:51+0200</time>
      </trkpt>
      <trkpt lat="47.25873" lon="4.95437">
        <ele>423.18173217773</ele>
        <time>2018-06-28T10:02:54+0200</time>
      </trkpt>
      <trkpt lat="47.25872" lon="4.95438">
        <ele>423.2184753418</ele>
        <time>2018-06-28T10:02:57+0200</time>
      </trkpt>
      <trkpt lat="47.25873" lon="4.95438">
        <ele>423.25341796875</ele>
        <time>2018-06-28T10:03:00+0200</time>
      </trkpt>
      <trkpt lat="47.25873" lon="4.95438">
        <ele>423.48776245117</ele>
        <time>2018-06-28T10:03:03+0200</time>
      </trkpt>
      <trkpt lat="47.25874" lon="4.95437">
        <ele>423.80603027344</ele>
        <time>2018-06-28T10:03:06+0200</time>
      </trkpt>
      <trkpt lat="47.25873" lon="4.95438">
        <ele>424.02081298828</ele>
        <time>2018-06-28T10:03:09+0200</time>
      </trkpt>
      <trkpt lat="47.25873" lon="4.95438">
        <ele>424.04449462891</ele>
        <time>2018-06-28T10:03:12+0200</time>
      </trkpt>
      <trkpt lat="47.25874" lon="4.95438">
        <ele>424.06292724609</ele>
        <time>2018-06-28T10:03:15+0200</time>
      </trkpt>
      <trkpt lat="47.25874" lon="4.95438">
        <ele>424.07931518555</ele>
        <time>2018-06-28T10:03:18+0200</time>
      </trkpt>
      <trkpt lat="47.25874" lon="4.95438">
        <ele>424.09494018555</ele>
        <time>2018-06-28T10:03:21+0200</time>
      </trkpt>
      <trkpt lat="47.25874" lon="4.95438">
        <ele>424.11184692383</ele>
        <time>2018-06-28T10:03:24+0200</time>
      </trkpt>
      <trkpt lat="47.25874" lon="4.95438">
        <ele>424.12826538086</ele>
        <time>2018-06-28T10:03:27+0200</time>
      </trkpt>
      <trkpt lat="47.25874" lon="4.95438">
        <ele>424.14178466797</ele>
        <time>2018-06-28T10:03:30+0200</time>
      </trkpt>
      <trkpt lat="47.25874" lon="4.95437">
        <ele>424.26983642578</ele>
        <time>2018-06-28T10:03:33+0200</time>
      </trkpt>
      <trkpt lat="47.25876" lon="4.95435">
        <ele>424.40780639648</ele>
        <time>2018-06-28T10:03:36+0200</time>
      </trkpt>
      <trkpt lat="47.25877" lon="4.95433">
        <ele>424.51049804688</ele>
        <time>2018-06-28T10:03:39+0200</time>
      </trkpt>
      <trkpt lat="47.25878" lon="4.9543">
        <ele>424.6598815918</ele>
        <time>2018-06-28T10:03:42+0200</time>
      </trkpt>
      <trkpt lat="47.2588" lon="4.95426">
        <ele>424.82571411133</ele>
        <time>2018-06-28T10:03:45+0200</time>
      </trkpt>
      <trkpt lat="47.25879" lon="4.95427">
        <ele>424.841796875</ele>
        <time>2018-06-28T10:03:48+0200</time>
      </trkpt>
      <trkpt lat="47.25879" lon="4.95427">
        <ele>424.86535644531</ele>
        <time>2018-06-28T10:03:51+0200</time>
      </trkpt>
      <trkpt lat="47.2588" lon="4.95426">
        <ele>424.89486694336</ele>
        <time>2018-06-28T10:03:54+0200</time>
      </trkpt>
      <trkpt lat="47.2588" lon="4.95424">
        <ele>425.02130126953</ele>
        <time>2018-06-28T10:03:57+0200</time>
      </trkpt>
      <trkpt lat="47.25881" lon="4.95423">
        <ele>425.13116455078</ele>
        <time>2018-06-28T10:04:00+0200</time>
      </trkpt>
      <trkpt lat="47.25881" lon="4.95423">
        <ele>425.15063476562</ele>
        <time>2018-06-28T10:04:03+0200</time>
      </trkpt>
      <trkpt lat="47.25881" lon="4.95423">
        <ele>425.16342163086</ele>
        <time>2018-06-28T10:04:06+0200</time>
      </trkpt>
      <trkpt lat="47.2588" lon="4.95423">
        <ele>425.22708129883</ele>
        <time>2018-06-28T10:04:10+0200</time>
      </trkpt>
      <trkpt lat="47.25881" lon="4.95421">
        <ele>425.28125</ele>
        <time>2018-06-28T10:04:13+0200</time>
      </trkpt>
      <trkpt lat="47.25881" lon="4.95421">
        <ele>425.28759765625</ele>
        <time>2018-06-28T10:04:16+0200</time>
      </trkpt>
      <trkpt lat="47.25881" lon="4.95421">
        <ele>425.29306030273</ele>
        <time>2018-06-28T10:04:19+0200</time>
      </trkpt>
      <trkpt lat="47.25881" lon="4.95421">
        <ele>425.29895019531</ele>
        <time>2018-06-28T10:04:22+0200</time>
      </trkpt>
      <trkpt lat="47.25881" lon="4.95422">
        <ele>425.30584716797</ele>
        <time>2018-06-28T10:04:25+0200</time>
      </trkpt>
      <trkpt lat="47.25881" lon="4.95421">
        <ele>425.35684204102</ele>
        <time>2018-06-28T10:04:28+0200</time>
      </trkpt>
      <trkpt lat="47.25881" lon="4.95419">
        <ele>425.43054199219</ele>
        <time>2018-06-28T10:04:31+0200</time>
      </trkpt>
      <trkpt lat="47.25882" lon="4.95418">
        <ele>425.47985839844</ele>
        <time>2018-06-28T10:04:34+0200</time>
      </trkpt>
      <trkpt lat="47.25882" lon="4.95417">
        <ele>425.5227355957</ele>
        <time>2018-06-28T10:04:37+0200</time>
      </trkpt>
      <trkpt lat="47.25882" lon="4.95417">
        <ele>425.52850341797</ele>
        <time>2018-06-28T10:04:40+0200</time>
      </trkpt>
      <trkpt lat="47.25881" lon="4.95419">
        <ele>425.53268432617</ele>
        <time>2018-06-28T10:04:43+0200</time>
      </trkpt>
      <trkpt lat="47.25882" lon="4.95418">
        <ele>425.57720947266</ele>
        <time>2018-06-28T10:04:46+0200</time>
      </trkpt>
      <trkpt lat="47.25883" lon="4.95416">
        <ele>425.6611328125</ele>
        <time>2018-06-28T10:04:49+0200</time>
      </trkpt>
      <trkpt lat="47.25883" lon="4.95416">
        <ele>425.7060546875</ele>
        <time>2018-06-28T10:04:52+0200</time>
      </trkpt>
      <trkpt lat="47.25883" lon="4.95416">
        <ele>425.71664428711</ele>
        <time>2018-06-28T10:04:55+0200</time>
      </trkpt>
      <trkpt lat="47.25883" lon="4.95415">
        <ele>425.72930908203</ele>
        <time>2018-06-28T10:04:58+0200</time>
      </trkpt>
      <trkpt lat="47.25883" lon="4.95415">
        <ele>425.74496459961</ele>
        <time>2018-06-28T10:05:01+0200</time>
      </trkpt>
      <trkpt lat="47.25883" lon="4.95415">
        <ele>425.76162719727</ele>
        <time>2018-06-28T10:05:04+0200</time>
      </trkpt>
      <trkpt lat="47.25883" lon="4.95415">
        <ele>425.78164672852</ele>
        <time>2018-06-28T10:05:07+0200</time>
      </trkpt>
      <trkpt lat="47.25883" lon="4.95415">
        <ele>425.80606079102</ele>
        <time>2018-06-28T10:05:10+0200</time>
      </trkpt>
      <trkpt lat="47.25884" lon="4.95414">
        <ele>425.97592163086</ele>
        <time>2018-06-28T10:05:13+0200</time>
      </trkpt>
      <trkpt lat="47.25884" lon="4.95412">
        <ele>426.15979003906</ele>
        <time>2018-06-28T10:05:16+0200</time>
      </trkpt>
      <trkpt lat="47.25885" lon="4.95411">
        <ele>426.41998291016</ele>
        <time>2018-06-28T10:05:19+0200</time>
      </trkpt>
      <trkpt lat="47.25886" lon="4.9541">
        <ele>426.44409179688</ele>
        <time>2018-06-28T10:05:22+0200</time>
      </trkpt>
      <trkpt lat="47.25886" lon="4.95408">
        <ele>426.61962890625</ele>
        <time>2018-06-28T10:05:25+0200</time>
      </trkpt>
      <trkpt lat="47.25887" lon="4.95406">
        <ele>426.72796630859</ele>
        <time>2018-06-28T10:05:28+0200</time>
      </trkpt>
      <trkpt lat="47.25889" lon="4.95401">
        <ele>426.9938659668</ele>
        <time>2018-06-28T10:05:31+0200</time>
      </trkpt>
      <trkpt lat="47.25889" lon="4.95399">
        <ele>427.24108886719</ele>
        <time>2018-06-28T10:05:34+0200</time>
      </trkpt>
      <trkpt lat="47.2589" lon="4.95397">
        <ele>427.48043823242</ele>
        <time>2018-06-28T10:05:37+0200</time>
      </trkpt>
      <trkpt lat="47.25891" lon="4.95392">
        <ele>427.68576049805</ele>
        <time>2018-06-28T10:05:40+0200</time>
      </trkpt>
      <trkpt lat="47.25892" lon="4.95388">
        <ele>427.84652709961</ele>
        <time>2018-06-28T10:05:43+0200</time>
      </trkpt>
      <trkpt lat="47.25893" lon="4.95384">
        <ele>427.97155761719</ele>
        <time>2018-06-28T10:05:46+0200</time>
      </trkpt>
      <trkpt lat="47.25894" lon="4.9538">
        <ele>428.05953979492</ele>
        <time>2018-06-28T10:05:49+0200</time>
      </trkpt>
      <trkpt lat="47.25894" lon="4.95379">
        <ele>428.09906005859</ele>
        <time>2018-06-28T10:05:52+0200</time>
      </trkpt>
      <trkpt lat="47.25895" lon="4.95375">
        <ele>428.14080810547</ele>
        <time>2018-06-28T10:05:55+0200</time>
      </trkpt>
      <trkpt lat="47.25895" lon="4.95372">
        <ele>428.19143676758</ele>
        <time>2018-06-28T10:05:58+0200</time>
      </trkpt>
      <trkpt lat="47.25896" lon="4.95367">
        <ele>428.23272705078</ele>
        <time>2018-06-28T10:06:01+0200</time>
      </trkpt>
      <trkpt lat="47.25896" lon="4.95365">
        <ele>428.23641967773</ele>
        <time>2018-06-28T10:06:04+0200</time>
      </trkpt>
      <trkpt lat="47.25896" lon="4.95363">
        <ele>428.23010253906</ele>
        <time>2018-06-28T10:06:07+0200</time>
      </trkpt>
      <trkpt lat="47.25896" lon="4.95361">
        <ele>428.21118164062</ele>
        <time>2018-06-28T10:06:10+0200</time>
      </trkpt>
      <trkpt lat="47.25896" lon="4.95359">
        <ele>428.20303344727</ele>
        <time>2018-06-28T10:06:13+0200</time>
      </trkpt>
      <trkpt lat="47.25896" lon="4.95359">
        <ele>428.20449829102</ele>
        <time>2018-06-28T10:06:16+0200</time>
      </trkpt>
      <trkpt lat="47.25896" lon="4.95358">
        <ele>428.23123168945</ele>
        <time>2018-06-28T10:06:19+0200</time>
      </trkpt>
      <trkpt lat="47.25897" lon="4.95354">
        <ele>428.2666015625</ele>
        <time>2018-06-28T10:06:22+0200</time>
      </trkpt>
      <trkpt lat="47.25897" lon="4.95351">
        <ele>428.30102539062</ele>
        <time>2018-06-28T10:06:25+0200</time>
      </trkpt>
      <trkpt lat="47.25897" lon="4.95348">
        <ele>428.35693359375</ele>
        <time>2018-06-28T10:06:28+0200</time>
      </trkpt>
      <trkpt lat="47.25898" lon="4.95345">
        <ele>428.3896484375</ele>
        <time>2018-06-28T10:06:31+0200</time>
      </trkpt>
      <trkpt lat="47.25898" lon="4.95342">
        <ele>428.4030456543</ele>
        <time>2018-06-28T10:06:34+0200</time>
      </trkpt>
      <trkpt lat="47.25898" lon="4.95343">
        <ele>428.40496826172</ele>
        <time>2018-06-28T10:06:37+0200</time>
      </trkpt>
      <trkpt lat="47.25897" lon="4.95343">
        <ele>428.40567016602</ele>
        <time>2018-06-28T10:06:40+0200</time>
      </trkpt>
      <trkpt lat="47.25897" lon="4.95341">
        <ele>428.42434692383</ele>
        <time>2018-06-28T10:06:43+0200</time>
      </trkpt>
      <trkpt lat="47.25898" lon="4.95337">
        <ele>428.46170043945</ele>
        <time>2018-06-28T10:06:46+0200</time>
      </trkpt>
      <trkpt lat="47.25898" lon="4.95335">
        <ele>428.52908325195</ele>
        <time>2018-06-28T10:06:49+0200</time>
      </trkpt>
      <trkpt lat="47.25898" lon="4.95331">
        <ele>428.60119628906</ele>
        <time>2018-06-28T10:06:52+0200</time>
      </trkpt>
      <trkpt lat="47.25898" lon="4.95329">
        <ele>428.66934204102</ele>
        <time>2018-06-28T10:06:55+0200</time>
      </trkpt>
      <trkpt lat="47.25898" lon="4.95327">
        <ele>428.77313232422</ele>
        <time>2018-06-28T10:06:58+0200</time>
      </trkpt>
      <trkpt lat="47.25898" lon="4.95324">
        <ele>428.89489746094</ele>
        <time>2018-06-28T10:07:01+0200</time>
      </trkpt>
      <trkpt lat="47.25898" lon="4.95321">
        <ele>429.06918334961</ele>
        <time>2018-06-28T10:07:04+0200</time>
      </trkpt>
      <trkpt lat="47.25898" lon="4.95316">
        <ele>429.31732177734</ele>
        <time>2018-06-28T10:07:07+0200</time>
      </trkpt>
      <trkpt lat="47.25899" lon="4.9531">
        <ele>429.65509033203</ele>
        <time>2018-06-28T10:07:10+0200</time>
      </trkpt>
      <trkpt lat="47.25898" lon="4.95307">
        <ele>430.05242919922</ele>
        <time>2018-06-28T10:07:13+0200</time>
      </trkpt>
      <trkpt lat="47.25897" lon="4.95304">
        <ele>430.52398681641</ele>
        <time>2018-06-28T10:07:16+0200</time>
      </trkpt>
      <trkpt lat="47.25896" lon="4.95303">
        <ele>431.05963134766</ele>
        <time>2018-06-28T10:07:19+0200</time>
      </trkpt>
      <trkpt lat="47.25896" lon="4.95302">
        <ele>431.27478027344</ele>
        <time>2018-06-28T10:07:22+0200</time>
      </trkpt>
      <trkpt lat="47.25896" lon="4.95299">
        <ele>431.65982055664</ele>
        <time>2018-06-28T10:07:25+0200</time>
      </trkpt>
      <trkpt lat="47.25896" lon="4.95296">
        <ele>432.21105957031</ele>
        <time>2018-06-28T10:07:28+0200</time>
      </trkpt>
      <trkpt lat="47.25897" lon="4.95291">
        <ele>432.76507568359</ele>
        <time>2018-06-28T10:07:31+0200</time>
      </trkpt>
      <trkpt lat="47.25897" lon="4.95289">
        <ele>433.32440185547</ele>
        <time>2018-06-28T10:07:34+0200</time>
      </trkpt>
      <trkpt lat="47.25897" lon="4.95287">
        <ele>433.89135742188</ele>
        <time>2018-06-28T10:07:37+0200</time>
      </trkpt>
      <trkpt lat="47.25898" lon="4.95284">
        <ele>434.46224975586</ele>
        <time>2018-06-28T10:07:40+0200</time>
      </trkpt>
      <trkpt lat="47.25899" lon="4.9528">
        <ele>435.0422668457</ele>
        <time>2018-06-28T10:07:43+0200</time>
      </trkpt>
      <trkpt lat="47.259" lon="4.95277">
        <ele>435.60885620117</ele>
        <time>2018-06-28T10:07:46+0200</time>
      </trkpt>
      <trkpt lat="47.25901" lon="4.95273">
        <ele>436.15179443359</ele>
        <time>2018-06-28T10:07:49+0200</time>
      </trkpt>
      <trkpt lat="47.25902" lon="4.95269">
        <ele>436.65911865234</ele>
        <time>2018-06-28T10:07:52+0200</time>
      </trkpt>
      <trkpt lat="47.25902" lon="4.95266">
        <ele>437.14297485352</ele>
        <time>2018-06-28T10:07:54+0200</time>
      </trkpt>
      <trkpt lat="47.25903" lon="4.95261">
        <ele>437.60345458984</ele>
        <time>2018-06-28T10:07:57+0200</time>
      </trkpt>
      <trkpt lat="47.25904" lon="4.95257">
        <ele>438.01943969727</ele>
        <time>2018-06-28T10:08:00+0200</time>
      </trkpt>
      <trkpt lat="47.25905" lon="4.95252">
        <ele>438.38119506836</ele>
        <time>2018-06-28T10:08:03+0200</time>
      </trkpt>
      <trkpt lat="47.25905" lon="4.9525">
        <ele>438.70040893555</ele>
        <time>2018-06-28T10:08:06+0200</time>
      </trkpt>
      <trkpt lat="47.25905" lon="4.95249">
        <ele>439.00231933594</ele>
        <time>2018-06-28T10:08:09+0200</time>
      </trkpt>
      <trkpt lat="47.25906" lon="4.95246">
        <ele>439.27920532227</ele>
        <time>2018-06-28T10:08:12+0200</time>
      </trkpt>
      <trkpt lat="47.25906" lon="4.95242">
        <ele>439.49926757812</ele>
        <time>2018-06-28T10:08:15+0200</time>
      </trkpt>
      <trkpt lat="47.25906" lon="4.9524">
        <ele>439.68737792969</ele>
        <time>2018-06-28T10:08:18+0200</time>
      </trkpt>
      <trkpt lat="47.25906" lon="4.95236">
        <ele>439.89056396484</ele>
        <time>2018-06-28T10:08:21+0200</time>
      </trkpt>
      <trkpt lat="47.25906" lon="4.95233">
        <ele>440.12976074219</ele>
        <time>2018-06-28T10:08:24+0200</time>
      </trkpt>
      <trkpt lat="47.25907" lon="4.95228">
        <ele>440.36199951172</ele>
        <time>2018-06-28T10:08:27+0200</time>
      </trkpt>
      <trkpt lat="47.25907" lon="4.95225">
        <ele>440.58688354492</ele>
        <time>2018-06-28T10:08:30+0200</time>
      </trkpt>
      <trkpt lat="47.25907" lon="4.95224">
        <ele>440.67562866211</ele>
        <time>2018-06-28T10:08:33+0200</time>
      </trkpt>
      <trkpt lat="47.25907" lon="4.95222">
        <ele>440.77816772461</ele>
        <time>2018-06-28T10:08:36+0200</time>
      </trkpt>
      <trkpt lat="47.25907" lon="4.95219">
        <ele>441.03939819336</ele>
        <time>2018-06-28T10:08:39+0200</time>
      </trkpt>
      <trkpt lat="47.25907" lon="4.95216">
        <ele>441.30740356445</ele>
        <time>2018-06-28T10:08:42+0200</time>
      </trkpt>
      <trkpt lat="47.25908" lon="4.95213">
        <ele>441.59442138672</ele>
        <time>2018-06-28T10:08:45+0200</time>
      </trkpt>
      <trkpt lat="47.25907" lon="4.9521">
        <ele>441.74652099609</ele>
        <time>2018-06-28T10:08:48+0200</time>
      </trkpt>
      <trkpt lat="47.25906" lon="4.95206">
        <ele>442.17477416992</ele>
        <time>2018-06-28T10:08:51+0200</time>
      </trkpt>
      <trkpt lat="47.25906" lon="4.95203">
        <ele>442.64666748047</ele>
        <time>2018-06-28T10:08:54+0200</time>
      </trkpt>
      <trkpt lat="47.25906" lon="4.952">
        <ele>443.14672851562</ele>
        <time>2018-06-28T10:08:57+0200</time>
      </trkpt>
      <trkpt lat="47.25907" lon="4.95197">
        <ele>443.62771606445</ele>
        <time>2018-06-28T10:09:00+0200</time>
      </trkpt>
      <trkpt lat="47.25907" lon="4.95191">
        <ele>444.09072875977</ele>
        <time>2018-06-28T10:09:03+0200</time>
      </trkpt>
      <trkpt lat="47.25907" lon="4.95189">
        <ele>444.42047119141</ele>
        <time>2018-06-28T10:09:06+0200</time>
      </trkpt>
      <trkpt lat="47.25908" lon="4.95186">
        <ele>444.74209594727</ele>
        <time>2018-06-28T10:09:09+0200</time>
      </trkpt>
      <trkpt lat="47.25908" lon="4.9518">
        <ele>445.07931518555</ele>
        <time>2018-06-28T10:09:12+0200</time>
      </trkpt>
      <trkpt lat="47.25907" lon="4.95177">
        <ele>445.56439208984</ele>
        <time>2018-06-28T10:09:15+0200</time>
      </trkpt>
      <trkpt lat="47.25908" lon="4.95171">
        <ele>445.99572753906</ele>
        <time>2018-06-28T10:09:18+0200</time>
      </trkpt>
      <trkpt lat="47.25908" lon="4.95169">
        <ele>446.37353515625</ele>
        <time>2018-06-28T10:09:21+0200</time>
      </trkpt>
      <trkpt lat="47.25908" lon="4.95165">
        <ele>446.73846435547</ele>
        <time>2018-06-28T10:09:24+0200</time>
      </trkpt>
      <trkpt lat="47.25908" lon="4.9516">
        <ele>447.08993530273</ele>
        <time>2018-06-28T10:09:27+0200</time>
      </trkpt>
      <trkpt lat="47.25908" lon="4.95155">
        <ele>447.46130371094</ele>
        <time>2018-06-28T10:09:30+0200</time>
      </trkpt>
      <trkpt lat="47.25907" lon="4.95152">
        <ele>447.75329589844</ele>
        <time>2018-06-28T10:09:33+0200</time>
      </trkpt>
      <trkpt lat="47.25908" lon="4.9515">
        <ele>448.04345703125</ele>
        <time>2018-06-28T10:09:36+0200</time>
      </trkpt>
      <trkpt lat="47.25908" lon="4.95146">
        <ele>448.44580078125</ele>
        <time>2018-06-28T10:09:39+0200</time>
      </trkpt>
      <trkpt lat="47.25909" lon="4.95142">
        <ele>448.82498168945</ele>
        <time>2018-06-28T10:09:42+0200</time>
      </trkpt>
      <trkpt lat="47.25909" lon="4.95138">
        <ele>449.17877197266</ele>
        <time>2018-06-28T10:09:45+0200</time>
      </trkpt>
      <trkpt lat="47.25909" lon="4.95134">
        <ele>449.5361328125</ele>
        <time>2018-06-28T10:09:48+0200</time>
      </trkpt>
      <trkpt lat="47.25908" lon="4.95131">
        <ele>449.88400268555</ele>
        <time>2018-06-28T10:09:51+0200</time>
      </trkpt>
      <trkpt lat="47.25908" lon="4.95129">
        <ele>450.23727416992</ele>
        <time>2018-06-28T10:09:54+0200</time>
      </trkpt>
      <trkpt lat="47.25908" lon="4.95125">
        <ele>450.5588684082</ele>
        <time>2018-06-28T10:09:57+0200</time>
      </trkpt>
      <trkpt lat="47.25909" lon="4.95121">
        <ele>450.77679443359</ele>
        <time>2018-06-28T10:10:00+0200</time>
      </trkpt>
      <trkpt lat="47.2591" lon="4.95117">
        <ele>450.88311767578</ele>
        <time>2018-06-28T10:10:03+0200</time>
      </trkpt>
      <trkpt lat="47.25909" lon="4.95112">
        <ele>450.89590454102</ele>
        <time>2018-06-28T10:10:06+0200</time>
      </trkpt>
      <trkpt lat="47.25911" lon="4.95105">
        <ele>450.73486328125</ele>
        <time>2018-06-28T10:10:09+0200</time>
      </trkpt>
      <trkpt lat="47.25911" lon="4.95099">
        <ele>450.41915893555</ele>
        <time>2018-06-28T10:10:12+0200</time>
      </trkpt>
      <trkpt lat="47.25912" lon="4.95097">
        <ele>450.08236694336</ele>
        <time>2018-06-28T10:10:15+0200</time>
      </trkpt>
      <trkpt lat="47.25912" lon="4.95096">
        <ele>449.64846801758</ele>
        <time>2018-06-28T10:10:18+0200</time>
      </trkpt>
      <trkpt lat="47.25913" lon="4.95092">
        <ele>449.34072875977</ele>
        <time>2018-06-28T10:10:21+0200</time>
      </trkpt>
      <trkpt lat="47.25912" lon="4.95088">
        <ele>449.05838012695</ele>
        <time>2018-06-28T10:10:24+0200</time>
      </trkpt>
      <trkpt lat="47.25913" lon="4.95082">
        <ele>448.7922668457</ele>
        <time>2018-06-28T10:10:27+0200</time>
      </trkpt>
      <trkpt lat="47.25913" lon="4.95081">
        <ele>448.63748168945</ele>
        <time>2018-06-28T10:10:30+0200</time>
      </trkpt>
      <trkpt lat="47.25913" lon="4.95076">
        <ele>448.74176025391</ele>
        <time>2018-06-28T10:10:33+0200</time>
      </trkpt>
      <trkpt lat="47.25913" lon="4.95072">
        <ele>448.80767822266</ele>
        <time>2018-06-28T10:10:36+0200</time>
      </trkpt>
      <trkpt lat="47.25913" lon="4.95071">
        <ele>448.84027099609</ele>
        <time>2018-06-28T10:10:39+0200</time>
      </trkpt>
      <trkpt lat="47.25913" lon="4.95066">
        <ele>448.78408813477</ele>
        <time>2018-06-28T10:10:42+0200</time>
      </trkpt>
      <trkpt lat="47.25913" lon="4.95062">
        <ele>448.77200317383</ele>
        <time>2018-06-28T10:10:45+0200</time>
      </trkpt>
      <trkpt lat="47.25914" lon="4.95059">
        <ele>448.79876708984</ele>
        <time>2018-06-28T10:10:48+0200</time>
      </trkpt>
      <trkpt lat="47.25914" lon="4.95055">
        <ele>448.86883544922</ele>
        <time>2018-06-28T10:10:51+0200</time>
      </trkpt>
      <trkpt lat="47.25915" lon="4.95049">
        <ele>448.92150878906</ele>
        <time>2018-06-28T10:10:54+0200</time>
      </trkpt>
      <trkpt lat="47.25915" lon="4.95048">
        <ele>449.00646972656</ele>
        <time>2018-06-28T10:10:57+0200</time>
      </trkpt>
      <trkpt lat="47.25915" lon="4.95047">
        <ele>449.11575317383</ele>
        <time>2018-06-28T10:11:00+0200</time>
      </trkpt>
      <trkpt lat="47.25916" lon="4.95046">
        <ele>449.17721557617</ele>
        <time>2018-06-28T10:11:03+0200</time>
      </trkpt>
      <trkpt lat="47.25916" lon="4.95041">
        <ele>449.14889526367</ele>
        <time>2018-06-28T10:11:06+0200</time>
      </trkpt>
      <trkpt lat="47.25919" lon="4.95034">
        <ele>448.99615478516</ele>
        <time>2018-06-28T10:11:09+0200</time>
      </trkpt>
      <trkpt lat="47.25919" lon="4.95028">
        <ele>448.81314086914</ele>
        <time>2018-06-28T10:11:12+0200</time>
      </trkpt>
      <trkpt lat="47.25919" lon="4.95026">
        <ele>448.69183349609</ele>
        <time>2018-06-28T10:11:15+0200</time>
      </trkpt>
      <trkpt lat="47.2592" lon="4.95022">
        <ele>448.59469604492</ele>
        <time>2018-06-28T10:11:18+0200</time>
      </trkpt>
      <trkpt lat="47.25922" lon="4.95019">
        <ele>448.4655456543</ele>
        <time>2018-06-28T10:11:21+0200</time>
      </trkpt>
      <trkpt lat="47.25922" lon="4.95017">
        <ele>448.41253662109</ele>
        <time>2018-06-28T10:11:24+0200</time>
      </trkpt>
      <trkpt lat="47.25923" lon="4.95011">
        <ele>448.37716674805</ele>
        <time>2018-06-28T10:11:27+0200</time>
      </trkpt>
      <trkpt lat="47.25923" lon="4.95007">
        <ele>448.33291625977</ele>
        <time>2018-06-28T10:11:30+0200</time>
      </trkpt>
      <trkpt lat="47.25924" lon="4.95004">
        <ele>448.15295410156</ele>
        <time>2018-06-28T10:11:33+0200</time>
      </trkpt>
      <trkpt lat="47.25926" lon="4.94999">
        <ele>447.89730834961</ele>
        <time>2018-06-28T10:11:36+0200</time>
      </trkpt>
      <trkpt lat="47.25926" lon="4.94997">
        <ele>447.75286865234</ele>
        <time>2018-06-28T10:11:39+0200</time>
      </trkpt>
      <trkpt lat="47.25927" lon="4.94993">
        <ele>447.70440673828</ele>
        <time>2018-06-28T10:11:42+0200</time>
      </trkpt>
      <trkpt lat="47.25927" lon="4.94991">
        <ele>447.67565917969</ele>
        <time>2018-06-28T10:11:45+0200</time>
      </trkpt>
      <trkpt lat="47.25927" lon="4.94988">
        <ele>447.67233276367</ele>
        <time>2018-06-28T10:11:48+0200</time>
      </trkpt>
      <trkpt lat="47.25929" lon="4.94983">
        <ele>447.72384643555</ele>
        <time>2018-06-28T10:11:51+0200</time>
      </trkpt>
      <trkpt lat="47.25931" lon="4.94979">
        <ele>447.83428955078</ele>
        <time>2018-06-28T10:11:54+0200</time>
      </trkpt>
      <trkpt lat="47.2593" lon="4.94975">
        <ele>448.17135620117</ele>
        <time>2018-06-28T10:11:57+0200</time>
      </trkpt>
      <trkpt lat="47.25931" lon="4.94971">
        <ele>448.59860229492</ele>
        <time>2018-06-28T10:12:00+0200</time>
      </trkpt>
      <trkpt lat="47.25931" lon="4.94969">
        <ele>448.95788574219</ele>
        <time>2018-06-28T10:12:03+0200</time>
      </trkpt>
      <trkpt lat="47.25932" lon="4.94967">
        <ele>449.13973999023</ele>
        <time>2018-06-28T10:12:06+0200</time>
      </trkpt>
      <trkpt lat="47.25932" lon="4.94966">
        <ele>449.18533325195</ele>
        <time>2018-06-28T10:12:09+0200</time>
      </trkpt>
      <trkpt lat="47.25931" lon="4.94966">
        <ele>449.23699951172</ele>
        <time>2018-06-28T10:12:12+0200</time>
      </trkpt>
      <trkpt lat="47.25932" lon="4.94966">
        <ele>449.26739501953</ele>
        <time>2018-06-28T10:12:15+0200</time>
      </trkpt>
      <trkpt lat="47.25932" lon="4.94965">
        <ele>449.25170898438</ele>
        <time>2018-06-28T10:12:18+0200</time>
      </trkpt>
      <trkpt lat="47.25932" lon="4.94964">
        <ele>449.21655273438</ele>
        <time>2018-06-28T10:12:21+0200</time>
      </trkpt>
      <trkpt lat="47.25933" lon="4.94963">
        <ele>449.21459960938</ele>
        <time>2018-06-28T10:12:24+0200</time>
      </trkpt>
      <trkpt lat="47.25934" lon="4.94963">
        <ele>449.47381591797</ele>
        <time>2018-06-28T10:12:27+0200</time>
      </trkpt>
      <trkpt lat="47.25934" lon="4.94962">
        <ele>449.55755615234</ele>
        <time>2018-06-28T10:12:30+0200</time>
      </trkpt>
      <trkpt lat="47.25933" lon="4.94963">
        <ele>449.65255737305</ele>
        <time>2018-06-28T10:12:33+0200</time>
      </trkpt>
      <trkpt lat="47.25933" lon="4.94963">
        <ele>449.77230834961</ele>
        <time>2018-06-28T10:12:36+0200</time>
      </trkpt>
      <trkpt lat="47.25933" lon="4.94963">
        <ele>449.9052734375</ele>
        <time>2018-06-28T10:12:39+0200</time>
      </trkpt>
      <trkpt lat="47.25933" lon="4.94963">
        <ele>450.04724121094</ele>
        <time>2018-06-28T10:12:42+0200</time>
      </trkpt>
      <trkpt lat="47.25932" lon="4.94963">
        <ele>450.57162475586</ele>
        <time>2018-06-28T10:12:45+0200</time>
      </trkpt>
      <trkpt lat="47.25929" lon="4.94962">
        <ele>451.51391601562</ele>
        <time>2018-06-28T10:12:48+0200</time>
      </trkpt>
      <trkpt lat="47.25929" lon="4.94961">
        <ele>451.65194702148</ele>
        <time>2018-06-28T10:12:51+0200</time>
      </trkpt>
      <trkpt lat="47.25931" lon="4.94956">
        <ele>452.33169555664</ele>
        <time>2018-06-28T10:12:54+0200</time>
      </trkpt>
      <trkpt lat="47.25932" lon="4.94954">
        <ele>452.55334472656</ele>
        <time>2018-06-28T10:12:57+0200</time>
      </trkpt>
      <trkpt lat="47.25932" lon="4.94954">
        <ele>452.60064697266</ele>
        <time>2018-06-28T10:13:00+0200</time>
      </trkpt>
      <trkpt lat="47.25932" lon="4.94955">
        <ele>452.64385986328</ele>
        <time>2018-06-28T10:13:03+0200</time>
      </trkpt>
      <trkpt lat="47.25933" lon="4.94954">
        <ele>452.76049804688</ele>
        <time>2018-06-28T10:13:06+0200</time>
      </trkpt>
      <trkpt lat="47.25933" lon="4.94955">
        <ele>452.98342895508</ele>
        <time>2018-06-28T10:13:09+0200</time>
      </trkpt>
      <trkpt lat="47.25931" lon="4.94959">
        <ele>453.30853271484</ele>
        <time>2018-06-28T10:13:12+0200</time>
      </trkpt>
      <trkpt lat="47.25931" lon="4.94961">
        <ele>453.36389160156</ele>
        <time>2018-06-28T10:13:15+0200</time>
      </trkpt>
      <trkpt lat="47.25931" lon="4.94961">
        <ele>453.43542480469</ele>
        <time>2018-06-28T10:13:18+0200</time>
      </trkpt>
      <trkpt lat="47.25931" lon="4.94961">
        <ele>453.50018310547</ele>
        <time>2018-06-28T10:13:21+0200</time>
      </trkpt>
      <trkpt lat="47.25931" lon="4.94961">
        <ele>453.5299987793</ele>
        <time>2018-06-28T10:13:24+0200</time>
      </trkpt>
      <trkpt lat="47.25933" lon="4.94962">
        <ele>453.57550048828</ele>
        <time>2018-06-28T10:13:27+0200</time>
      </trkpt>
      <trkpt lat="47.25933" lon="4.9496">
        <ele>453.59252929688</ele>
        <time>2018-06-28T10:13:30+0200</time>
      </trkpt>
      <trkpt lat="47.25933" lon="4.94959">
        <ele>453.58905029297</ele>
        <time>2018-06-28T10:13:33+0200</time>
      </trkpt>
      <trkpt lat="47.25934" lon="4.9496">
        <ele>453.44641113281</ele>
        <time>2018-06-28T10:13:36+0200</time>
      </trkpt>
      <trkpt lat="47.25933" lon="4.9496">
        <ele>453.27386474609</ele>
        <time>2018-06-28T10:13:39+0200</time>
      </trkpt>
      <trkpt lat="47.25933" lon="4.9496">
        <ele>453.22750854492</ele>
        <time>2018-06-28T10:13:42+0200</time>
      </trkpt>
      <trkpt lat="47.25935" lon="4.94957">
        <ele>453.18890380859</ele>
        <time>2018-06-28T10:13:45+0200</time>
      </trkpt>
      <trkpt lat="47.25936" lon="4.94954">
        <ele>453.1999206543</ele>
        <time>2018-06-28T10:13:48+0200</time>
      </trkpt>
      <trkpt lat="47.25938" lon="4.94951">
        <ele>453.24520874023</ele>
        <time>2018-06-28T10:13:51+0200</time>
      </trkpt>
      <trkpt lat="47.25939" lon="4.9495">
        <ele>453.28289794922</ele>
        <time>2018-06-28T10:13:54+0200</time>
      </trkpt>
      <trkpt lat="47.25938" lon="4.94951">
        <ele>453.29278564453</ele>
        <time>2018-06-28T10:13:57+0200</time>
      </trkpt>
      <trkpt lat="47.25939" lon="4.94952">
        <ele>453.31469726562</ele>
        <time>2018-06-28T10:14:00+0200</time>
      </trkpt>
      <trkpt lat="47.2594" lon="4.94953">
        <ele>453.34866333008</ele>
        <time>2018-06-28T10:14:03+0200</time>
      </trkpt>
      <trkpt lat="47.2594" lon="4.94953">
        <ele>453.38748168945</ele>
        <time>2018-06-28T10:14:06+0200</time>
      </trkpt>
      <trkpt lat="47.2594" lon="4.94953">
        <ele>453.42202758789</ele>
        <time>2018-06-28T10:14:09+0200</time>
      </trkpt>
      <trkpt lat="47.2594" lon="4.94953">
        <ele>453.44931030273</ele>
        <time>2018-06-28T10:14:12+0200</time>
      </trkpt>
      <trkpt lat="47.25939" lon="4.94955">
        <ele>453.53271484375</ele>
        <time>2018-06-28T10:14:15+0200</time>
      </trkpt>
      <trkpt lat="47.25938" lon="4.94956">
        <ele>453.54663085938</ele>
        <time>2018-06-28T10:14:18+0200</time>
      </trkpt>
      <trkpt lat="47.25938" lon="4.94956">
        <ele>453.54742431641</ele>
        <time>2018-06-28T10:14:21+0200</time>
      </trkpt>
      <trkpt lat="47.25937" lon="4.94957">
        <ele>453.53652954102</ele>
        <time>2018-06-28T10:14:24+0200</time>
      </trkpt>
      <trkpt lat="47.25936" lon="4.94958">
        <ele>453.4616394043</ele>
        <time>2018-06-28T10:14:27+0200</time>
      </trkpt>
      <trkpt lat="47.25936" lon="4.94958">
        <ele>453.43734741211</ele>
        <time>2018-06-28T10:14:30+0200</time>
      </trkpt>
      <trkpt lat="47.25936" lon="4.94958">
        <ele>453.41299438477</ele>
        <time>2018-06-28T10:14:33+0200</time>
      </trkpt>
      <trkpt lat="47.25936" lon="4.94958">
        <ele>453.38793945312</ele>
        <time>2018-06-28T10:14:36+0200</time>
      </trkpt>
      <trkpt lat="47.25936" lon="4.94958">
        <ele>453.35931396484</ele>
        <time>2018-06-28T10:14:39+0200</time>
      </trkpt>
      <trkpt lat="47.25936" lon="4.94959">
        <ele>453.3310546875</ele>
        <time>2018-06-28T10:14:42+0200</time>
      </trkpt>
      <trkpt lat="47.25936" lon="4.94958">
        <ele>453.29809570312</ele>
        <time>2018-06-28T10:14:45+0200</time>
      </trkpt>
      <trkpt lat="47.25935" lon="4.94959">
        <ele>453.16458129883</ele>
        <time>2018-06-28T10:14:48+0200</time>
      </trkpt>
      <trkpt lat="47.25935" lon="4.94958">
        <ele>453.13684082031</ele>
        <time>2018-06-28T10:14:51+0200</time>
      </trkpt>
      <trkpt lat="47.25935" lon="4.94958">
        <ele>453.10818481445</ele>
        <time>2018-06-28T10:14:54+0200</time>
      </trkpt>
      <trkpt lat="47.25936" lon="4.94958">
        <ele>453.07525634766</ele>
        <time>2018-06-28T10:14:57+0200</time>
      </trkpt>
      <trkpt lat="47.25936" lon="4.94958">
        <ele>453.04598999023</ele>
        <time>2018-06-28T10:15:00+0200</time>
      </trkpt>
      <trkpt lat="47.25936" lon="4.94957">
        <ele>453.02008056641</ele>
        <time>2018-06-28T10:15:03+0200</time>
      </trkpt>
      <trkpt lat="47.25936" lon="4.94957">
        <ele>452.99975585938</ele>
        <time>2018-06-28T10:15:06+0200</time>
      </trkpt>
      <trkpt lat="47.25936" lon="4.94956">
        <ele>452.97933959961</ele>
        <time>2018-06-28T10:15:09+0200</time>
      </trkpt>
      <trkpt lat="47.25936" lon="4.94956">
        <ele>452.96420288086</ele>
        <time>2018-06-28T10:15:12+0200</time>
      </trkpt>
      <trkpt lat="47.25937" lon="4.94954">
        <ele>452.95407104492</ele>
        <time>2018-06-28T10:15:15+0200</time>
      </trkpt>
      <trkpt lat="47.25937" lon="4.94954">
        <ele>452.94403076172</ele>
        <time>2018-06-28T10:15:18+0200</time>
      </trkpt>
      <trkpt lat="47.25937" lon="4.94954">
        <ele>452.91665649414</ele>
        <time>2018-06-28T10:15:21+0200</time>
      </trkpt>
      <trkpt lat="47.25937" lon="4.94954">
        <ele>452.87622070312</ele>
        <time>2018-06-28T10:15:24+0200</time>
      </trkpt>
      <trkpt lat="47.25937" lon="4.94952">
        <ele>452.74783325195</ele>
        <time>2018-06-28T10:15:27+0200</time>
      </trkpt>
      <trkpt lat="47.25937" lon="4.94952">
        <ele>452.72299194336</ele>
        <time>2018-06-28T10:15:30+0200</time>
      </trkpt>
      <trkpt lat="47.25937" lon="4.94953">
        <ele>452.7048034668</ele>
        <time>2018-06-28T10:15:33+0200</time>
      </trkpt>
      <trkpt lat="47.25938" lon="4.94953">
        <ele>452.68997192383</ele>
        <time>2018-06-28T10:15:36+0200</time>
      </trkpt>
      <trkpt lat="47.25938" lon="4.94953">
        <ele>452.67950439453</ele>
        <time>2018-06-28T10:15:39+0200</time>
      </trkpt>
      <trkpt lat="47.25938" lon="4.94953">
        <ele>452.66802978516</ele>
        <time>2018-06-28T10:15:42+0200</time>
      </trkpt>
      <trkpt lat="47.25937" lon="4.94954">
        <ele>452.65548706055</ele>
        <time>2018-06-28T10:15:45+0200</time>
      </trkpt>
      <trkpt lat="47.25937" lon="4.94954">
        <ele>452.64321899414</ele>
        <time>2018-06-28T10:15:48+0200</time>
      </trkpt>
      <trkpt lat="47.25937" lon="4.94955">
        <ele>452.63046264648</ele>
        <time>2018-06-28T10:15:51+0200</time>
      </trkpt>
      <trkpt lat="47.25937" lon="4.94955">
        <ele>452.61822509766</ele>
        <time>2018-06-28T10:15:54+0200</time>
      </trkpt>
      <trkpt lat="47.25937" lon="4.94956">
        <ele>452.60479736328</ele>
        <time>2018-06-28T10:15:57+0200</time>
      </trkpt>
      <trkpt lat="47.25937" lon="4.94956">
        <ele>452.59204101562</ele>
        <time>2018-06-28T10:16:00+0200</time>
      </trkpt>
      <trkpt lat="47.25937" lon="4.94958">
        <ele>452.54962158203</ele>
        <time>2018-06-28T10:16:03+0200</time>
      </trkpt>
      <trkpt lat="47.25936" lon="4.94959">
        <ele>452.51434326172</ele>
        <time>2018-06-28T10:16:06+0200</time>
      </trkpt>
      <trkpt lat="47.25936" lon="4.94959">
        <ele>452.50375366211</ele>
        <time>2018-06-28T10:16:09+0200</time>
      </trkpt>
      <trkpt lat="47.25936" lon="4.9496">
        <ele>452.49282836914</ele>
        <time>2018-06-28T10:16:12+0200</time>
      </trkpt>
      <trkpt lat="47.25936" lon="4.9496">
        <ele>452.48620605469</ele>
        <time>2018-06-28T10:16:15+0200</time>
      </trkpt>
      <trkpt lat="47.25936" lon="4.94961">
        <ele>452.4870300293</ele>
        <time>2018-06-28T10:16:18+0200</time>
      </trkpt>
      <trkpt lat="47.25936" lon="4.94961">
        <ele>452.49301147461</ele>
        <time>2018-06-28T10:16:21+0200</time>
      </trkpt>
      <trkpt lat="47.25936" lon="4.94961">
        <ele>452.5041809082</ele>
        <time>2018-06-28T10:16:24+0200</time>
      </trkpt>
      <trkpt lat="47.25936" lon="4.94961">
        <ele>452.51968383789</ele>
        <time>2018-06-28T10:16:27+0200</time>
      </trkpt>
      <trkpt lat="47.25936" lon="4.94961">
        <ele>452.53482055664</ele>
        <time>2018-06-28T10:16:30+0200</time>
      </trkpt>
      <trkpt lat="47.25936" lon="4.94961">
        <ele>452.5491027832</ele>
        <time>2018-06-28T10:16:33+0200</time>
      </trkpt>
      <trkpt lat="47.25936" lon="4.94961">
        <ele>452.55941772461</ele>
        <time>2018-06-28T10:16:36+0200</time>
      </trkpt>
      <trkpt lat="47.25937" lon="4.9496">
        <ele>452.56918334961</ele>
        <time>2018-06-28T10:16:39+0200</time>
      </trkpt>
      <trkpt lat="47.25937" lon="4.9496">
        <ele>452.58135986328</ele>
        <time>2018-06-28T10:16:42+0200</time>
      </trkpt>
      <trkpt lat="47.25937" lon="4.9496">
        <ele>452.59817504883</ele>
        <time>2018-06-28T10:16:45+0200</time>
      </trkpt>
      <trkpt lat="47.25937" lon="4.94961">
        <ele>452.61911010742</ele>
        <time>2018-06-28T10:16:48+0200</time>
      </trkpt>
      <trkpt lat="47.25936" lon="4.94961">
        <ele>452.63793945312</ele>
        <time>2018-06-28T10:16:51+0200</time>
      </trkpt>
      <trkpt lat="47.25936" lon="4.94961">
        <ele>452.65603637695</ele>
        <time>2018-06-28T10:16:54+0200</time>
      </trkpt>
      <trkpt lat="47.25936" lon="4.94961">
        <ele>452.67340087891</ele>
        <time>2018-06-28T10:16:57+0200</time>
      </trkpt>
      <trkpt lat="47.25937" lon="4.94961">
        <ele>452.68862915039</ele>
        <time>2018-06-28T10:17:00+0200</time>
      </trkpt>
      <trkpt lat="47.25937" lon="4.94961">
        <ele>452.70397949219</ele>
        <time>2018-06-28T10:17:03+0200</time>
      </trkpt>
      <trkpt lat="47.25937" lon="4.94961">
        <ele>452.72393798828</ele>
        <time>2018-06-28T10:17:06+0200</time>
      </trkpt>
      <trkpt lat="47.25937" lon="4.94962">
        <ele>452.75134277344</ele>
        <time>2018-06-28T10:17:09+0200</time>
      </trkpt>
      <trkpt lat="47.25937" lon="4.94962">
        <ele>452.78564453125</ele>
        <time>2018-06-28T10:17:12+0200</time>
      </trkpt>
      <trkpt lat="47.25937" lon="4.94962">
        <ele>452.82427978516</ele>
        <time>2018-06-28T10:17:15+0200</time>
      </trkpt>
      <trkpt lat="47.25937" lon="4.94962">
        <ele>452.86581420898</ele>
        <time>2018-06-28T10:17:18+0200</time>
      </trkpt>
      <trkpt lat="47.25937" lon="4.94962">
        <ele>452.91094970703</ele>
        <time>2018-06-28T10:17:21+0200</time>
      </trkpt>
      <trkpt lat="47.25937" lon="4.94962">
        <ele>452.95840454102</ele>
        <time>2018-06-28T10:17:24+0200</time>
      </trkpt>
      <trkpt lat="47.25937" lon="4.94962">
        <ele>453.00610351562</ele>
        <time>2018-06-28T10:17:27+0200</time>
      </trkpt>
      <trkpt lat="47.25937" lon="4.94963">
        <ele>453.05413818359</ele>
        <time>2018-06-28T10:17:30+0200</time>
      </trkpt>
      <trkpt lat="47.25937" lon="4.94963">
        <ele>453.10598754883</ele>
        <time>2018-06-28T10:17:33+0200</time>
      </trkpt>
      <trkpt lat="47.25937" lon="4.94963">
        <ele>453.16641235352</ele>
        <time>2018-06-28T10:17:36+0200</time>
      </trkpt>
      <trkpt lat="47.25937" lon="4.94963">
        <ele>453.23248291016</ele>
        <time>2018-06-28T10:17:39+0200</time>
      </trkpt>
      <trkpt lat="47.25936" lon="4.94962">
        <ele>453.30126953125</ele>
        <time>2018-06-28T10:17:42+0200</time>
      </trkpt>
      <trkpt lat="47.25936" lon="4.94962">
        <ele>453.36929321289</ele>
        <time>2018-06-28T10:17:45+0200</time>
      </trkpt>
      <trkpt lat="47.25936" lon="4.94962">
        <ele>453.43118286133</ele>
        <time>2018-06-28T10:17:48+0200</time>
      </trkpt>
      <trkpt lat="47.25936" lon="4.94961">
        <ele>453.48858642578</ele>
        <time>2018-06-28T10:17:51+0200</time>
      </trkpt>
      <trkpt lat="47.25936" lon="4.94961">
        <ele>453.54629516602</ele>
        <time>2018-06-28T10:17:54+0200</time>
      </trkpt>
      <trkpt lat="47.25937" lon="4.9496">
        <ele>453.60461425781</ele>
        <time>2018-06-28T10:17:57+0200</time>
      </trkpt>
      <trkpt lat="47.25937" lon="4.94961">
        <ele>453.6623840332</ele>
        <time>2018-06-28T10:18:00+0200</time>
      </trkpt>
      <trkpt lat="47.25937" lon="4.94961">
        <ele>453.7200012207</ele>
        <time>2018-06-28T10:18:03+0200</time>
      </trkpt>
      <trkpt lat="47.25937" lon="4.94961">
        <ele>453.77917480469</ele>
        <time>2018-06-28T10:18:06+0200</time>
      </trkpt>
      <trkpt lat="47.25936" lon="4.94961">
        <ele>453.83813476562</ele>
        <time>2018-06-28T10:18:09+0200</time>
      </trkpt>
      <trkpt lat="47.25937" lon="4.94961">
        <ele>453.89562988281</ele>
        <time>2018-06-28T10:18:12+0200</time>
      </trkpt>
      <trkpt lat="47.25937" lon="4.9496">
        <ele>453.95257568359</ele>
        <time>2018-06-28T10:18:15+0200</time>
      </trkpt>
      <trkpt lat="47.25937" lon="4.94959">
        <ele>454.00360107422</ele>
        <time>2018-06-28T10:18:18+0200</time>
      </trkpt>
      <trkpt lat="47.25937" lon="4.94959">
        <ele>454.04797363281</ele>
        <time>2018-06-28T10:18:21+0200</time>
      </trkpt>
      <trkpt lat="47.25937" lon="4.94959">
        <ele>454.08697509766</ele>
        <time>2018-06-28T10:18:24+0200</time>
      </trkpt>
      <trkpt lat="47.25938" lon="4.94958">
        <ele>454.12329101562</ele>
        <time>2018-06-28T10:18:27+0200</time>
      </trkpt>
      <trkpt lat="47.25937" lon="4.94958">
        <ele>454.26715087891</ele>
        <time>2018-06-28T10:18:30+0200</time>
      </trkpt>
      <trkpt lat="47.25937" lon="4.94958">
        <ele>454.30319213867</ele>
        <time>2018-06-28T10:18:33+0200</time>
      </trkpt>
      <trkpt lat="47.25937" lon="4.94958">
        <ele>454.33764648438</ele>
        <time>2018-06-28T10:18:36+0200</time>
      </trkpt>
      <trkpt lat="47.25937" lon="4.94958">
        <ele>454.37258911133</ele>
        <time>2018-06-28T10:18:39+0200</time>
      </trkpt>
      <trkpt lat="47.25937" lon="4.94958">
        <ele>454.40423583984</ele>
        <time>2018-06-28T10:18:42+0200</time>
      </trkpt>
      <trkpt lat="47.25937" lon="4.94957">
        <ele>454.43692016602</ele>
        <time>2018-06-28T10:18:45+0200</time>
      </trkpt>
      <trkpt lat="47.25937" lon="4.94957">
        <ele>454.46801757812</ele>
        <time>2018-06-28T10:18:48+0200</time>
      </trkpt>
      <trkpt lat="47.25937" lon="4.94956">
        <ele>454.49652099609</ele>
        <time>2018-06-28T10:18:51+0200</time>
      </trkpt>
      <trkpt lat="47.25937" lon="4.94956">
        <ele>454.52456665039</ele>
        <time>2018-06-28T10:18:54+0200</time>
      </trkpt>
      <trkpt lat="47.25937" lon="4.94956">
        <ele>454.55035400391</ele>
        <time>2018-06-28T10:18:57+0200</time>
      </trkpt>
      <trkpt lat="47.25937" lon="4.94956">
        <ele>454.57208251953</ele>
        <time>2018-06-28T10:19:00+0200</time>
      </trkpt>
      <trkpt lat="47.25937" lon="4.94956">
        <ele>454.59387207031</ele>
        <time>2018-06-28T10:19:03+0200</time>
      </trkpt>
      <trkpt lat="47.25937" lon="4.94957">
        <ele>454.61724853516</ele>
        <time>2018-06-28T10:19:06+0200</time>
      </trkpt>
      <trkpt lat="47.25937" lon="4.94957">
        <ele>454.63891601562</ele>
        <time>2018-06-28T10:19:09+0200</time>
      </trkpt>
      <trkpt lat="47.25937" lon="4.94957">
        <ele>454.65921020508</ele>
        <time>2018-06-28T10:19:12+0200</time>
      </trkpt>
      <trkpt lat="47.25937" lon="4.94957">
        <ele>454.74649047852</ele>
        <time>2018-06-28T10:19:15+0200</time>
      </trkpt>
      <trkpt lat="47.25937" lon="4.94957">
        <ele>454.7653503418</ele>
        <time>2018-06-28T10:19:18+0200</time>
      </trkpt>
      <trkpt lat="47.25937" lon="4.94957">
        <ele>454.78659057617</ele>
        <time>2018-06-28T10:19:21+0200</time>
      </trkpt>
      <trkpt lat="47.25937" lon="4.94957">
        <ele>454.80926513672</ele>
        <time>2018-06-28T10:19:24+0200</time>
      </trkpt>
      <trkpt lat="47.25937" lon="4.94955">
        <ele>454.9296875</ele>
        <time>2018-06-28T10:19:27+0200</time>
      </trkpt>
      <trkpt lat="47.25937" lon="4.94953">
        <ele>454.99282836914</ele>
        <time>2018-06-28T10:19:30+0200</time>
      </trkpt>
      <trkpt lat="47.25937" lon="4.94953">
        <ele>455.00393676758</ele>
        <time>2018-06-28T10:19:33+0200</time>
      </trkpt>
      <trkpt lat="47.25937" lon="4.94953">
        <ele>455.01022338867</ele>
        <time>2018-06-28T10:19:36+0200</time>
      </trkpt>
      <trkpt lat="47.25937" lon="4.94953">
        <ele>455.01486206055</ele>
        <time>2018-06-28T10:19:39+0200</time>
      </trkpt>
      <trkpt lat="47.25937" lon="4.94952">
        <ele>455.01666259766</ele>
        <time>2018-06-28T10:19:42+0200</time>
      </trkpt>
      <trkpt lat="47.25937" lon="4.94952">
        <ele>455.01568603516</ele>
        <time>2018-06-28T10:19:45+0200</time>
      </trkpt>
      <trkpt lat="47.25937" lon="4.94952">
        <ele>455.01159667969</ele>
        <time>2018-06-28T10:19:48+0200</time>
      </trkpt>
      <trkpt lat="47.25937" lon="4.94953">
        <ele>455.00497436523</ele>
        <time>2018-06-28T10:19:51+0200</time>
      </trkpt>
      <trkpt lat="47.25937" lon="4.94953">
        <ele>454.99630737305</ele>
        <time>2018-06-28T10:19:54+0200</time>
      </trkpt>
      <trkpt lat="47.25937" lon="4.94954">
        <ele>454.986328125</ele>
        <time>2018-06-28T10:19:57+0200</time>
      </trkpt>
      <trkpt lat="47.25937" lon="4.94954">
        <ele>454.97778320312</ele>
        <time>2018-06-28T10:20:00+0200</time>
      </trkpt>
      <trkpt lat="47.25937" lon="4.94955">
        <ele>454.96170043945</ele>
        <time>2018-06-28T10:20:03+0200</time>
      </trkpt>
      <trkpt lat="47.25937" lon="4.94956">
        <ele>454.94839477539</ele>
        <time>2018-06-28T10:20:06+0200</time>
      </trkpt>
      <trkpt lat="47.25937" lon="4.94956">
        <ele>454.93536376953</ele>
        <time>2018-06-28T10:20:09+0200</time>
      </trkpt>
      <trkpt lat="47.25937" lon="4.94956">
        <ele>454.91885375977</ele>
        <time>2018-06-28T10:20:12+0200</time>
      </trkpt>
      <trkpt lat="47.25937" lon="4.94956">
        <ele>454.90158081055</ele>
        <time>2018-06-28T10:20:15+0200</time>
      </trkpt>
      <trkpt lat="47.25937" lon="4.94956">
        <ele>454.8860168457</ele>
        <time>2018-06-28T10:20:18+0200</time>
      </trkpt>
      <trkpt lat="47.25937" lon="4.94957">
        <ele>454.86596679688</ele>
        <time>2018-06-28T10:20:21+0200</time>
      </trkpt>
      <trkpt lat="47.25937" lon="4.94957">
        <ele>454.83569335938</ele>
        <time>2018-06-28T10:20:24+0200</time>
      </trkpt>
      <trkpt lat="47.25937" lon="4.94957">
        <ele>454.7985534668</ele>
        <time>2018-06-28T10:20:27+0200</time>
      </trkpt>
      <trkpt lat="47.25936" lon="4.94957">
        <ele>454.76248168945</ele>
        <time>2018-06-28T10:20:31+0200</time>
      </trkpt>
      <trkpt lat="47.25936" lon="4.94958">
        <ele>454.73477172852</ele>
        <time>2018-06-28T10:20:34+0200</time>
      </trkpt>
      <trkpt lat="47.25936" lon="4.94958">
        <ele>454.71466064453</ele>
        <time>2018-06-28T10:20:37+0200</time>
      </trkpt>
      <trkpt lat="47.25936" lon="4.94958">
        <ele>454.70397949219</ele>
        <time>2018-06-28T10:20:40+0200</time>
      </trkpt>
      <trkpt lat="47.25936" lon="4.94958">
        <ele>454.69738769531</ele>
        <time>2018-06-28T10:20:43+0200</time>
      </trkpt>
      <trkpt lat="47.25936" lon="4.94959">
        <ele>454.68414306641</ele>
        <time>2018-06-28T10:20:46+0200</time>
      </trkpt>
      <trkpt lat="47.25936" lon="4.94959">
        <ele>454.66918945312</ele>
        <time>2018-06-28T10:20:49+0200</time>
      </trkpt>
      <trkpt lat="47.25935" lon="4.94959">
        <ele>454.65283203125</ele>
        <time>2018-06-28T10:20:52+0200</time>
      </trkpt>
      <trkpt lat="47.25935" lon="4.94959">
        <ele>454.6357421875</ele>
        <time>2018-06-28T10:20:55+0200</time>
      </trkpt>
      <trkpt lat="47.25935" lon="4.94959">
        <ele>454.61795043945</ele>
        <time>2018-06-28T10:20:58+0200</time>
      </trkpt>
      <trkpt lat="47.25936" lon="4.94959">
        <ele>454.60223388672</ele>
        <time>2018-06-28T10:21:01+0200</time>
      </trkpt>
      <trkpt lat="47.25936" lon="4.94959">
        <ele>454.59143066406</ele>
        <time>2018-06-28T10:21:04+0200</time>
      </trkpt>
      <trkpt lat="47.25936" lon="4.94959">
        <ele>454.58209228516</ele>
        <time>2018-06-28T10:21:07+0200</time>
      </trkpt>
      <trkpt lat="47.25936" lon="4.9496">
        <ele>454.56469726562</ele>
        <time>2018-06-28T10:21:10+0200</time>
      </trkpt>
      <trkpt lat="47.25936" lon="4.9496">
        <ele>454.54974365234</ele>
        <time>2018-06-28T10:21:13+0200</time>
      </trkpt>
      <trkpt lat="47.25935" lon="4.9496">
        <ele>454.53421020508</ele>
        <time>2018-06-28T10:21:16+0200</time>
      </trkpt>
      <trkpt lat="47.25935" lon="4.9496">
        <ele>454.51876831055</ele>
        <time>2018-06-28T10:21:19+0200</time>
      </trkpt>
      <trkpt lat="47.25935" lon="4.9496">
        <ele>454.50476074219</ele>
        <time>2018-06-28T10:21:22+0200</time>
      </trkpt>
      <trkpt lat="47.25935" lon="4.9496">
        <ele>454.48666381836</ele>
        <time>2018-06-28T10:21:25+0200</time>
      </trkpt>
      <trkpt lat="47.25935" lon="4.9496">
        <ele>454.45724487305</ele>
        <time>2018-06-28T10:21:28+0200</time>
      </trkpt>
      <trkpt lat="47.25935" lon="4.9496">
        <ele>454.42419433594</ele>
        <time>2018-06-28T10:21:31+0200</time>
      </trkpt>
      <trkpt lat="47.25935" lon="4.9496">
        <ele>454.38616943359</ele>
        <time>2018-06-28T10:21:34+0200</time>
      </trkpt>
      <trkpt lat="47.25935" lon="4.9496">
        <ele>454.35482788086</ele>
        <time>2018-06-28T10:21:37+0200</time>
      </trkpt>
      <trkpt lat="47.25935" lon="4.94958">
        <ele>454.32913208008</ele>
        <time>2018-06-28T10:21:40+0200</time>
      </trkpt>
      <trkpt lat="47.25935" lon="4.94959">
        <ele>454.23468017578</ele>
        <time>2018-06-28T10:21:43+0200</time>
      </trkpt>
      <trkpt lat="47.25935" lon="4.94959">
        <ele>454.2096862793</ele>
        <time>2018-06-28T10:21:46+0200</time>
      </trkpt>
      <trkpt lat="47.25935" lon="4.94959">
        <ele>454.18814086914</ele>
        <time>2018-06-28T10:21:49+0200</time>
      </trkpt>
      <trkpt lat="47.25935" lon="4.94962">
        <ele>454.10928344727</ele>
        <time>2018-06-28T10:21:52+0200</time>
      </trkpt>
      <trkpt lat="47.25935" lon="4.94963">
        <ele>453.96170043945</ele>
        <time>2018-06-28T10:21:55+0200</time>
      </trkpt>
      <trkpt lat="47.25935" lon="4.94965">
        <ele>453.93927001953</ele>
        <time>2018-06-28T10:21:58+0200</time>
      </trkpt>
      <trkpt lat="47.25935" lon="4.94965">
        <ele>453.9130859375</ele>
        <time>2018-06-28T10:22:01+0200</time>
      </trkpt>
      <trkpt lat="47.25935" lon="4.94965">
        <ele>453.8840637207</ele>
        <time>2018-06-28T10:22:04+0200</time>
      </trkpt>
      <trkpt lat="47.25935" lon="4.94965">
        <ele>453.85433959961</ele>
        <time>2018-06-28T10:22:07+0200</time>
      </trkpt>
      <trkpt lat="47.25935" lon="4.94965">
        <ele>453.82916259766</ele>
        <time>2018-06-28T10:22:10+0200</time>
      </trkpt>
      <trkpt lat="47.25935" lon="4.94965">
        <ele>453.80981445312</ele>
        <time>2018-06-28T10:22:13+0200</time>
      </trkpt>
      <trkpt lat="47.25935" lon="4.94965">
        <ele>453.79708862305</ele>
        <time>2018-06-28T10:22:16+0200</time>
      </trkpt>
      <trkpt lat="47.25934" lon="4.94964">
        <ele>453.78170776367</ele>
        <time>2018-06-28T10:22:19+0200</time>
      </trkpt>
      <trkpt lat="47.25934" lon="4.94964">
        <ele>453.76162719727</ele>
        <time>2018-06-28T10:22:22+0200</time>
      </trkpt>
      <trkpt lat="47.25934" lon="4.94964">
        <ele>453.73587036133</ele>
        <time>2018-06-28T10:22:25+0200</time>
      </trkpt>
      <trkpt lat="47.25934" lon="4.94964">
        <ele>453.71249389648</ele>
        <time>2018-06-28T10:22:28+0200</time>
      </trkpt>
      <trkpt lat="47.25934" lon="4.94964">
        <ele>453.6943359375</ele>
        <time>2018-06-28T10:22:31+0200</time>
      </trkpt>
      <trkpt lat="47.25934" lon="4.94963">
        <ele>453.68051147461</ele>
        <time>2018-06-28T10:22:34+0200</time>
      </trkpt>
      <trkpt lat="47.25934" lon="4.94963">
        <ele>453.65798950195</ele>
        <time>2018-06-28T10:22:37+0200</time>
      </trkpt>
      <trkpt lat="47.25934" lon="4.94962">
        <ele>453.62020874023</ele>
        <time>2018-06-28T10:22:40+0200</time>
      </trkpt>
      <trkpt lat="47.25934" lon="4.94962">
        <ele>453.57461547852</ele>
        <time>2018-06-28T10:22:43+0200</time>
      </trkpt>
      <trkpt lat="47.25934" lon="4.94962">
        <ele>453.53430175781</ele>
        <time>2018-06-28T10:22:46+0200</time>
      </trkpt>
      <trkpt lat="47.25934" lon="4.94963">
        <ele>453.49755859375</ele>
        <time>2018-06-28T10:22:49+0200</time>
      </trkpt>
      <trkpt lat="47.25934" lon="4.94963">
        <ele>453.4665222168</ele>
        <time>2018-06-28T10:22:52+0200</time>
      </trkpt>
      <trkpt lat="47.25934" lon="4.94962">
        <ele>453.44271850586</ele>
        <time>2018-06-28T10:22:55+0200</time>
      </trkpt>
      <trkpt lat="47.25934" lon="4.94962">
        <ele>453.42196655273</ele>
        <time>2018-06-28T10:22:58+0200</time>
      </trkpt>
      <trkpt lat="47.25934" lon="4.94962">
        <ele>453.40454101562</ele>
        <time>2018-06-28T10:23:01+0200</time>
      </trkpt>
      <trkpt lat="47.25934" lon="4.94961">
        <ele>453.39508056641</ele>
        <time>2018-06-28T10:23:04+0200</time>
      </trkpt>
      <trkpt lat="47.25934" lon="4.94961">
        <ele>453.32577514648</ele>
        <time>2018-06-28T10:23:07+0200</time>
      </trkpt>
      <trkpt lat="47.25935" lon="4.94958">
        <ele>453.31045532227</ele>
        <time>2018-06-28T10:23:10+0200</time>
      </trkpt>
      <trkpt lat="47.25935" lon="4.94957">
        <ele>453.29016113281</ele>
        <time>2018-06-28T10:23:13+0200</time>
      </trkpt>
      <trkpt lat="47.25935" lon="4.94957">
        <ele>453.26681518555</ele>
        <time>2018-06-28T10:23:16+0200</time>
      </trkpt>
      <trkpt lat="47.25936" lon="4.94957">
        <ele>453.23959350586</ele>
        <time>2018-06-28T10:23:19+0200</time>
      </trkpt>
      <trkpt lat="47.25936" lon="4.94956">
        <ele>453.21054077148</ele>
        <time>2018-06-28T10:23:22+0200</time>
      </trkpt>
      <trkpt lat="47.25936" lon="4.94957">
        <ele>453.12167358398</ele>
        <time>2018-06-28T10:23:25+0200</time>
      </trkpt>
      <trkpt lat="47.25936" lon="4.94957">
        <ele>453.05413818359</ele>
        <time>2018-06-28T10:23:28+0200</time>
      </trkpt>
      <trkpt lat="47.25937" lon="4.94957">
        <ele>452.97665405273</ele>
        <time>2018-06-28T10:23:31+0200</time>
      </trkpt>
      <trkpt lat="47.25938" lon="4.94961">
        <ele>452.8996887207</ele>
        <time>2018-06-28T10:23:34+0200</time>
      </trkpt>
      <trkpt lat="47.25938" lon="4.94963">
        <ele>452.82183837891</ele>
        <time>2018-06-28T10:23:37+0200</time>
      </trkpt>
      <trkpt lat="47.25938" lon="4.94963">
        <ele>452.80184936523</ele>
        <time>2018-06-28T10:23:40+0200</time>
      </trkpt>
      <trkpt lat="47.25938" lon="4.94963">
        <ele>452.78927612305</ele>
        <time>2018-06-28T10:23:43+0200</time>
      </trkpt>
      <trkpt lat="47.25939" lon="4.94965">
        <ele>452.75369262695</ele>
        <time>2018-06-28T10:23:46+0200</time>
      </trkpt>
      <trkpt lat="47.2594" lon="4.94968">
        <ele>452.68719482422</ele>
        <time>2018-06-28T10:23:49+0200</time>
      </trkpt>
      <trkpt lat="47.2594" lon="4.94969">
        <ele>452.68032836914</ele>
        <time>2018-06-28T10:23:52+0200</time>
      </trkpt>
      <trkpt lat="47.2594" lon="4.94969">
        <ele>452.67135620117</ele>
        <time>2018-06-28T10:23:55+0200</time>
      </trkpt>
      <trkpt lat="47.2594" lon="4.94971">
        <ele>452.66589355469</ele>
        <time>2018-06-28T10:23:58+0200</time>
      </trkpt>
      <trkpt lat="47.2594" lon="4.94972">
        <ele>452.65701293945</ele>
        <time>2018-06-28T10:24:01+0200</time>
      </trkpt>
      <trkpt lat="47.2594" lon="4.94974">
        <ele>452.65588378906</ele>
        <time>2018-06-28T10:24:04+0200</time>
      </trkpt>
      <trkpt lat="47.2594" lon="4.94978">
        <ele>452.65905761719</ele>
        <time>2018-06-28T10:24:07+0200</time>
      </trkpt>
      <trkpt lat="47.2594" lon="4.94982">
        <ele>452.6672668457</ele>
        <time>2018-06-28T10:24:10+0200</time>
      </trkpt>
      <trkpt lat="47.2594" lon="4.94982">
        <ele>452.66284179688</ele>
        <time>2018-06-28T10:24:13+0200</time>
      </trkpt>
      <trkpt lat="47.2594" lon="4.94987">
        <ele>452.65914916992</ele>
        <time>2018-06-28T10:24:16+0200</time>
      </trkpt>
      <trkpt lat="47.25941" lon="4.94991">
        <ele>452.65679931641</ele>
        <time>2018-06-28T10:24:19+0200</time>
      </trkpt>
      <trkpt lat="47.25941" lon="4.94993">
        <ele>452.65383911133</ele>
        <time>2018-06-28T10:24:22+0200</time>
      </trkpt>
      <trkpt lat="47.25941" lon="4.94994">
        <ele>452.65286254883</ele>
        <time>2018-06-28T10:24:25+0200</time>
      </trkpt>
      <trkpt lat="47.25942" lon="4.95001">
        <ele>452.65747070312</ele>
        <time>2018-06-28T10:24:28+0200</time>
      </trkpt>
      <trkpt lat="47.25942" lon="4.95003">
        <ele>452.66555786133</ele>
        <time>2018-06-28T10:24:31+0200</time>
      </trkpt>
      <trkpt lat="47.25942" lon="4.95006">
        <ele>452.67474365234</ele>
        <time>2018-06-28T10:24:34+0200</time>
      </trkpt>
      <trkpt lat="47.25942" lon="4.95009">
        <ele>452.71627807617</ele>
        <time>2018-06-28T10:24:37+0200</time>
      </trkpt>
      <trkpt lat="47.25943" lon="4.95013">
        <ele>452.73025512695</ele>
        <time>2018-06-28T10:24:40+0200</time>
      </trkpt>
      <trkpt lat="47.25944" lon="4.95015">
        <ele>452.74996948242</ele>
        <time>2018-06-28T10:24:43+0200</time>
      </trkpt>
      <trkpt lat="47.25944" lon="4.95015">
        <ele>452.77606201172</ele>
        <time>2018-06-28T10:24:46+0200</time>
      </trkpt>
      <trkpt lat="47.25944" lon="4.95016">
        <ele>452.8059387207</ele>
        <time>2018-06-28T10:24:49+0200</time>
      </trkpt>
      <trkpt lat="47.25945" lon="4.95019">
        <ele>452.84375</ele>
        <time>2018-06-28T10:24:52+0200</time>
      </trkpt>
      <trkpt lat="47.25945" lon="4.95023">
        <ele>452.89358520508</ele>
        <time>2018-06-28T10:24:55+0200</time>
      </trkpt>
      <trkpt lat="47.25946" lon="4.95027">
        <ele>453.14086914062</ele>
        <time>2018-06-28T10:24:58+0200</time>
      </trkpt>
      <trkpt lat="47.25947" lon="4.9503">
        <ele>453.21072387695</ele>
        <time>2018-06-28T10:25:01+0200</time>
      </trkpt>
      <trkpt lat="47.25947" lon="4.95031">
        <ele>453.48394775391</ele>
        <time>2018-06-28T10:25:04+0200</time>
      </trkpt>
      <trkpt lat="47.25948" lon="4.95033">
        <ele>453.69189453125</ele>
        <time>2018-06-28T10:25:07+0200</time>
      </trkpt>
      <trkpt lat="47.25949" lon="4.95036">
        <ele>453.90182495117</ele>
        <time>2018-06-28T10:25:10+0200</time>
      </trkpt>
      <trkpt lat="47.2595" lon="4.95039">
        <ele>454.26715087891</ele>
        <time>2018-06-28T10:25:13+0200</time>
      </trkpt>
      <trkpt lat="47.25951" lon="4.95041">
        <ele>454.32162475586</ele>
        <time>2018-06-28T10:25:16+0200</time>
      </trkpt>
      <trkpt lat="47.25952" lon="4.95042">
        <ele>454.37344360352</ele>
        <time>2018-06-28T10:25:19+0200</time>
      </trkpt>
      <trkpt lat="47.25953" lon="4.95045">
        <ele>454.56182861328</ele>
        <time>2018-06-28T10:25:22+0200</time>
      </trkpt>
      <trkpt lat="47.25955" lon="4.95047">
        <ele>454.75372314453</ele>
        <time>2018-06-28T10:25:25+0200</time>
      </trkpt>
      <trkpt lat="47.25958" lon="4.95052">
        <ele>454.93521118164</ele>
        <time>2018-06-28T10:25:28+0200</time>
      </trkpt>
      <trkpt lat="47.25961" lon="4.95056">
        <ele>455.31939697266</ele>
        <time>2018-06-28T10:25:31+0200</time>
      </trkpt>
      <trkpt lat="47.25963" lon="4.95062">
        <ele>455.54177856445</ele>
        <time>2018-06-28T10:25:34+0200</time>
      </trkpt>
      <trkpt lat="47.25965" lon="4.95071">
        <ele>455.84594726562</ele>
        <time>2018-06-28T10:25:37+0200</time>
      </trkpt>
      <trkpt lat="47.25967" lon="4.95077">
        <ele>456.16253662109</ele>
        <time>2018-06-28T10:25:40+0200</time>
      </trkpt>
      <trkpt lat="47.25968" lon="4.95083">
        <ele>456.54928588867</ele>
        <time>2018-06-28T10:25:43+0200</time>
      </trkpt>
      <trkpt lat="47.25968" lon="4.95087">
        <ele>456.90844726562</ele>
        <time>2018-06-28T10:25:46+0200</time>
      </trkpt>
      <trkpt lat="47.25968" lon="4.95092">
        <ele>457.25344848633</ele>
        <time>2018-06-28T10:25:49+0200</time>
      </trkpt>
      <trkpt lat="47.25968" lon="4.95097">
        <ele>457.54690551758</ele>
        <time>2018-06-28T10:25:52+0200</time>
      </trkpt>
      <trkpt lat="47.25967" lon="4.95099">
        <ele>457.8115234375</ele>
        <time>2018-06-28T10:25:55+0200</time>
      </trkpt>
      <trkpt lat="47.25967" lon="4.95102">
        <ele>457.99353027344</ele>
        <time>2018-06-28T10:25:58+0200</time>
      </trkpt>
      <trkpt lat="47.25967" lon="4.95108">
        <ele>458.18496704102</ele>
        <time>2018-06-28T10:26:01+0200</time>
      </trkpt>
      <trkpt lat="47.25966" lon="4.9511">
        <ele>458.21368408203</ele>
        <time>2018-06-28T10:26:04+0200</time>
      </trkpt>
      <trkpt lat="47.25966" lon="4.9511">
        <ele>458.24389648438</ele>
        <time>2018-06-28T10:26:07+0200</time>
      </trkpt>
      <trkpt lat="47.25966" lon="4.9511">
        <ele>458.26864624023</ele>
        <time>2018-06-28T10:26:10+0200</time>
      </trkpt>
      <trkpt lat="47.25966" lon="4.95111">
        <ele>458.28256225586</ele>
        <time>2018-06-28T10:26:13+0200</time>
      </trkpt>
      <trkpt lat="47.25965" lon="4.95112">
        <ele>458.29196166992</ele>
        <time>2018-06-28T10:26:16+0200</time>
      </trkpt>
      <trkpt lat="47.25965" lon="4.95112">
        <ele>458.30059814453</ele>
        <time>2018-06-28T10:26:19+0200</time>
      </trkpt>
      <trkpt lat="47.25965" lon="4.95112">
        <ele>458.33093261719</ele>
        <time>2018-06-28T10:26:22+0200</time>
      </trkpt>
      <trkpt lat="47.25964" lon="4.95113">
        <ele>458.34899902344</ele>
        <time>2018-06-28T10:26:25+0200</time>
      </trkpt>
      <trkpt lat="47.25963" lon="4.95115">
        <ele>458.35940551758</ele>
        <time>2018-06-28T10:26:28+0200</time>
      </trkpt>
      <trkpt lat="47.25962" lon="4.95119">
        <ele>458.38684082031</ele>
        <time>2018-06-28T10:26:31+0200</time>
      </trkpt>
      <trkpt lat="47.25961" lon="4.95122">
        <ele>458.42404174805</ele>
        <time>2018-06-28T10:26:34+0200</time>
      </trkpt>
      <trkpt lat="47.25961" lon="4.95122">
        <ele>458.45669555664</ele>
        <time>2018-06-28T10:26:37+0200</time>
      </trkpt>
      <trkpt lat="47.25959" lon="4.95125">
        <ele>458.52447509766</ele>
        <time>2018-06-28T10:26:40+0200</time>
      </trkpt>
      <trkpt lat="47.25959" lon="4.95127">
        <ele>458.58413696289</ele>
        <time>2018-06-28T10:26:43+0200</time>
      </trkpt>
      <trkpt lat="47.25954" lon="4.95135">
        <ele>458.56747436523</ele>
        <time>2018-06-28T10:26:46+0200</time>
      </trkpt>
      <trkpt lat="47.25954" lon="4.95135">
        <ele>458.51705932617</ele>
        <time>2018-06-28T10:26:49+0200</time>
      </trkpt>
      <trkpt lat="47.25952" lon="4.95137">
        <ele>458.31954956055</ele>
        <time>2018-06-28T10:26:52+0200</time>
      </trkpt>
      <trkpt lat="47.25951" lon="4.95137">
        <ele>458.22186279297</ele>
        <time>2018-06-28T10:26:55+0200</time>
      </trkpt>
      <trkpt lat="47.25951" lon="4.95138">
        <ele>458.02203369141</ele>
        <time>2018-06-28T10:26:58+0200</time>
      </trkpt>
      <trkpt lat="47.25947" lon="4.95142">
        <ele>457.54647827148</ele>
        <time>2018-06-28T10:27:01+0200</time>
      </trkpt>
      <trkpt lat="47.25942" lon="4.95149">
        <ele>456.87515258789</ele>
        <time>2018-06-28T10:27:04+0200</time>
      </trkpt>
      <trkpt lat="47.25941" lon="4.95153">
        <ele>456.16162109375</ele>
        <time>2018-06-28T10:27:07+0200</time>
      </trkpt>
      <trkpt lat="47.25939" lon="4.95155">
        <ele>455.7151184082</ele>
        <time>2018-06-28T10:27:10+0200</time>
      </trkpt>
      <trkpt lat="47.25938" lon="4.95156">
        <ele>455.48175048828</ele>
        <time>2018-06-28T10:27:13+0200</time>
      </trkpt>
      <trkpt lat="47.25937" lon="4.95159">
        <ele>455.31716918945</ele>
        <time>2018-06-28T10:27:16+0200</time>
      </trkpt>
      <trkpt lat="47.25939" lon="4.95164">
        <ele>455.22598266602</ele>
        <time>2018-06-28T10:27:19+0200</time>
      </trkpt>
      <trkpt lat="47.25941" lon="4.95167">
        <ele>455.2536315918</ele>
        <time>2018-06-28T10:27:22+0200</time>
      </trkpt>
      <trkpt lat="47.25944" lon="4.95171">
        <ele>455.41604614258</ele>
        <time>2018-06-28T10:27:25+0200</time>
      </trkpt>
      <trkpt lat="47.25946" lon="4.95177">
        <ele>455.56759643555</ele>
        <time>2018-06-28T10:27:28+0200</time>
      </trkpt>
      <trkpt lat="47.25947" lon="4.95179">
        <ele>455.39294433594</ele>
        <time>2018-06-28T10:27:31+0200</time>
      </trkpt>
      <trkpt lat="47.25947" lon="4.95181">
        <ele>455.08654785156</ele>
        <time>2018-06-28T10:27:34+0200</time>
      </trkpt>
      <trkpt lat="47.25945" lon="4.95182">
        <ele>454.83865356445</ele>
        <time>2018-06-28T10:27:37+0200</time>
      </trkpt>
      <trkpt lat="47.25944" lon="4.95186">
        <ele>454.69827270508</ele>
        <time>2018-06-28T10:27:40+0200</time>
      </trkpt>
      <trkpt lat="47.25944" lon="4.95192">
        <ele>454.56188964844</ele>
        <time>2018-06-28T10:27:43+0200</time>
      </trkpt>
      <trkpt lat="47.25945" lon="4.95196">
        <ele>454.33441162109</ele>
        <time>2018-06-28T10:27:46+0200</time>
      </trkpt>
      <trkpt lat="47.25947" lon="4.95198">
        <ele>454.04943847656</ele>
        <time>2018-06-28T10:27:49+0200</time>
      </trkpt>
      <trkpt lat="47.25949" lon="4.952">
        <ele>453.72830200195</ele>
        <time>2018-06-28T10:27:52+0200</time>
      </trkpt>
      <trkpt lat="47.25949" lon="4.95199">
        <ele>453.41079711914</ele>
        <time>2018-06-28T10:27:55+0200</time>
      </trkpt>
      <trkpt lat="47.25951" lon="4.95203">
        <ele>453.23461914062</ele>
        <time>2018-06-28T10:27:58+0200</time>
      </trkpt>
      <trkpt lat="47.25953" lon="4.95205">
        <ele>452.63775634766</ele>
        <time>2018-06-28T10:28:01+0200</time>
      </trkpt>
      <trkpt lat="47.25955" lon="4.95209">
        <ele>452.1025390625</ele>
        <time>2018-06-28T10:28:04+0200</time>
      </trkpt>
      <trkpt lat="47.25955" lon="4.9521">
        <ele>451.59103393555</ele>
        <time>2018-06-28T10:28:07+0200</time>
      </trkpt>
      <trkpt lat="47.25957" lon="4.95213">
        <ele>450.94964599609</ele>
        <time>2018-06-28T10:28:10+0200</time>
      </trkpt>
      <trkpt lat="47.25958" lon="4.95213">
        <ele>450.31246948242</ele>
        <time>2018-06-28T10:28:13+0200</time>
      </trkpt>
      <trkpt lat="47.25958" lon="4.95215">
        <ele>449.76007080078</ele>
        <time>2018-06-28T10:28:16+0200</time>
      </trkpt>
      <trkpt lat="47.25958" lon="4.95216">
        <ele>449.36306762695</ele>
        <time>2018-06-28T10:28:19+0200</time>
      </trkpt>
      <trkpt lat="47.25958" lon="4.95219">
        <ele>449.05804443359</ele>
        <time>2018-06-28T10:28:22+0200</time>
      </trkpt>
      <trkpt lat="47.25958" lon="4.9522">
        <ele>448.95544433594</ele>
        <time>2018-06-28T10:28:25+0200</time>
      </trkpt>
      <trkpt lat="47.25959" lon="4.95227">
        <ele>448.86654663086</ele>
        <time>2018-06-28T10:28:28+0200</time>
      </trkpt>
      <trkpt lat="47.25959" lon="4.95229">
        <ele>448.77682495117</ele>
        <time>2018-06-28T10:28:31+0200</time>
      </trkpt>
      <trkpt lat="47.25958" lon="4.95238">
        <ele>448.7077331543</ele>
        <time>2018-06-28T10:28:34+0200</time>
      </trkpt>
      <trkpt lat="47.25958" lon="4.95242">
        <ele>448.64599609375</ele>
        <time>2018-06-28T10:28:37+0200</time>
      </trkpt>
      <trkpt lat="47.25958" lon="4.95245">
        <ele>448.57733154297</ele>
        <time>2018-06-28T10:28:40+0200</time>
      </trkpt>
      <trkpt lat="47.25957" lon="4.95247">
        <ele>448.62115478516</ele>
        <time>2018-06-28T10:28:43+0200</time>
      </trkpt>
      <trkpt lat="47.25957" lon="4.95253">
        <ele>448.74615478516</ele>
        <time>2018-06-28T10:28:46+0200</time>
      </trkpt>
      <trkpt lat="47.25957" lon="4.95255">
        <ele>448.92758178711</ele>
        <time>2018-06-28T10:28:49+0200</time>
      </trkpt>
      <trkpt lat="47.25955" lon="4.95259">
        <ele>449.2473449707</ele>
        <time>2018-06-28T10:28:52+0200</time>
      </trkpt>
      <trkpt lat="47.25955" lon="4.95263">
        <ele>449.52011108398</ele>
        <time>2018-06-28T10:28:55+0200</time>
      </trkpt>
      <trkpt lat="47.25955" lon="4.95267">
        <ele>449.85244750977</ele>
        <time>2018-06-28T10:28:58+0200</time>
      </trkpt>
      <trkpt lat="47.25954" lon="4.95268">
        <ele>450.27252197266</ele>
        <time>2018-06-28T10:29:01+0200</time>
      </trkpt>
      <trkpt lat="47.25952" lon="4.95273">
        <ele>450.63269042969</ele>
        <time>2018-06-28T10:29:04+0200</time>
      </trkpt>
      <trkpt lat="47.2595" lon="4.95278">
        <ele>450.92901611328</ele>
        <time>2018-06-28T10:29:07+0200</time>
      </trkpt>
      <trkpt lat="47.2595" lon="4.9528">
        <ele>451.16079711914</ele>
        <time>2018-06-28T10:29:10+0200</time>
      </trkpt>
      <trkpt lat="47.25949" lon="4.95283">
        <ele>451.38171386719</ele>
        <time>2018-06-28T10:29:13+0200</time>
      </trkpt>
      <trkpt lat="47.25948" lon="4.95286">
        <ele>451.56756591797</ele>
        <time>2018-06-28T10:29:16+0200</time>
      </trkpt>
      <trkpt lat="47.25949" lon="4.9529">
        <ele>451.78216552734</ele>
        <time>2018-06-28T10:29:19+0200</time>
      </trkpt>
      <trkpt lat="47.25949" lon="4.95297">
        <ele>452.03466796875</ele>
        <time>2018-06-28T10:29:22+0200</time>
      </trkpt>
      <trkpt lat="47.25952" lon="4.95299">
        <ele>452.2760925293</ele>
        <time>2018-06-28T10:29:25+0200</time>
      </trkpt>
      <trkpt lat="47.25952" lon="4.95301">
        <ele>452.36169433594</ele>
        <time>2018-06-28T10:29:28+0200</time>
      </trkpt>
      <trkpt lat="47.25952" lon="4.95304">
        <ele>452.35897827148</ele>
        <time>2018-06-28T10:29:31+0200</time>
      </trkpt>
      <trkpt lat="47.25952" lon="4.9531">
        <ele>452.34609985352</ele>
        <time>2018-06-28T10:29:34+0200</time>
      </trkpt>
      <trkpt lat="47.25952" lon="4.95313">
        <ele>452.26110839844</ele>
        <time>2018-06-28T10:29:37+0200</time>
      </trkpt>
      <trkpt lat="47.25953" lon="4.95318">
        <ele>452.13452148438</ele>
        <time>2018-06-28T10:29:40+0200</time>
      </trkpt>
      <trkpt lat="47.25953" lon="4.95322">
        <ele>452.02908325195</ele>
        <time>2018-06-28T10:29:43+0200</time>
      </trkpt>
      <trkpt lat="47.25953" lon="4.95325">
        <ele>452.15176391602</ele>
        <time>2018-06-28T10:29:46+0200</time>
      </trkpt>
      <trkpt lat="47.25953" lon="4.95329">
        <ele>452.32611083984</ele>
        <time>2018-06-28T10:29:49+0200</time>
      </trkpt>
      <trkpt lat="47.25953" lon="4.95332">
        <ele>452.30844116211</ele>
        <time>2018-06-28T10:29:52+0200</time>
      </trkpt>
      <trkpt lat="47.25952" lon="4.95336">
        <ele>452.12536621094</ele>
        <time>2018-06-28T10:29:55+0200</time>
      </trkpt>
      <trkpt lat="47.25951" lon="4.95339">
        <ele>451.9372253418</ele>
        <time>2018-06-28T10:29:58+0200</time>
      </trkpt>
      <trkpt lat="47.25951" lon="4.95344">
        <ele>451.66967773438</ele>
        <time>2018-06-28T10:30:01+0200</time>
      </trkpt>
      <trkpt lat="47.25952" lon="4.95345">
        <ele>451.54019165039</ele>
        <time>2018-06-28T10:30:04+0200</time>
      </trkpt>
      <trkpt lat="47.25952" lon="4.95349">
        <ele>451.56741333008</ele>
        <time>2018-06-28T10:30:07+0200</time>
      </trkpt>
      <trkpt lat="47.25952" lon="4.95354">
        <ele>451.69537353516</ele>
        <time>2018-06-28T10:30:10+0200</time>
      </trkpt>
      <trkpt lat="47.25953" lon="4.95358">
        <ele>451.90509033203</ele>
        <time>2018-06-28T10:30:13+0200</time>
      </trkpt>
      <trkpt lat="47.25952" lon="4.95361">
        <ele>451.93719482422</ele>
        <time>2018-06-28T10:30:16+0200</time>
      </trkpt>
      <trkpt lat="47.2595" lon="4.95366">
        <ele>451.90045166016</ele>
        <time>2018-06-28T10:30:19+0200</time>
      </trkpt>
      <trkpt lat="47.25948" lon="4.95368">
        <ele>451.82745361328</ele>
        <time>2018-06-28T10:30:22+0200</time>
      </trkpt>
      <trkpt lat="47.25946" lon="4.95373">
        <ele>451.81311035156</ele>
        <time>2018-06-28T10:30:25+0200</time>
      </trkpt>
      <trkpt lat="47.25944" lon="4.95377">
        <ele>451.73254394531</ele>
        <time>2018-06-28T10:30:28+0200</time>
      </trkpt>
      <trkpt lat="47.25943" lon="4.95381">
        <ele>451.56893920898</ele>
        <time>2018-06-28T10:30:31+0200</time>
      </trkpt>
      <trkpt lat="47.25944" lon="4.95384">
        <ele>451.39303588867</ele>
        <time>2018-06-28T10:30:34+0200</time>
      </trkpt>
      <trkpt lat="47.25942" lon="4.95387">
        <ele>451.31289672852</ele>
        <time>2018-06-28T10:30:37+0200</time>
      </trkpt>
      <trkpt lat="47.25942" lon="4.95389">
        <ele>451.25466918945</ele>
        <time>2018-06-28T10:30:40+0200</time>
      </trkpt>
      <trkpt lat="47.25941" lon="4.95393">
        <ele>451.09466552734</ele>
        <time>2018-06-28T10:30:43+0200</time>
      </trkpt>
      <trkpt lat="47.25942" lon="4.95394">
        <ele>450.81732177734</ele>
        <time>2018-06-28T10:30:46+0200</time>
      </trkpt>
      <trkpt lat="47.25942" lon="4.95396">
        <ele>450.62557983398</ele>
        <time>2018-06-28T10:30:49+0200</time>
      </trkpt>
      <trkpt lat="47.25942" lon="4.95396">
        <ele>450.54193115234</ele>
        <time>2018-06-28T10:30:52+0200</time>
      </trkpt>
      <trkpt lat="47.25942" lon="4.95397">
        <ele>450.37130737305</ele>
        <time>2018-06-28T10:30:55+0200</time>
      </trkpt>
      <trkpt lat="47.25941" lon="4.95402">
        <ele>450.27032470703</ele>
        <time>2018-06-28T10:30:58+0200</time>
      </trkpt>
      <trkpt lat="47.2594" lon="4.95408">
        <ele>450.17916870117</ele>
        <time>2018-06-28T10:31:01+0200</time>
      </trkpt>
      <trkpt lat="47.2594" lon="4.95411">
        <ele>450.07571411133</ele>
        <time>2018-06-28T10:31:04+0200</time>
      </trkpt>
      <trkpt lat="47.2594" lon="4.95414">
        <ele>449.92059326172</ele>
        <time>2018-06-28T10:31:07+0200</time>
      </trkpt>
      <trkpt lat="47.25939" lon="4.95416">
        <ele>449.79122924805</ele>
        <time>2018-06-28T10:31:10+0200</time>
      </trkpt>
      <trkpt lat="47.25939" lon="4.95419">
        <ele>449.71350097656</ele>
        <time>2018-06-28T10:31:13+0200</time>
      </trkpt>
      <trkpt lat="47.25939" lon="4.95419">
        <ele>449.71673583984</ele>
        <time>2018-06-28T10:31:16+0200</time>
      </trkpt>
      <trkpt lat="47.25939" lon="4.9542">
        <ele>449.82208251953</ele>
        <time>2018-06-28T10:31:19+0200</time>
      </trkpt>
      <trkpt lat="47.25939" lon="4.95423">
        <ele>450.13781738281</ele>
        <time>2018-06-28T10:31:22+0200</time>
      </trkpt>
      <trkpt lat="47.25939" lon="4.95426">
        <ele>450.51800537109</ele>
        <time>2018-06-28T10:31:25+0200</time>
      </trkpt>
      <trkpt lat="47.25937" lon="4.95431">
        <ele>450.798828125</ele>
        <time>2018-06-28T10:31:28+0200</time>
      </trkpt>
      <trkpt lat="47.25936" lon="4.95434">
        <ele>451.06936645508</ele>
        <time>2018-06-28T10:31:31+0200</time>
      </trkpt>
      <trkpt lat="47.25937" lon="4.95439">
        <ele>451.39596557617</ele>
        <time>2018-06-28T10:31:34+0200</time>
      </trkpt>
      <trkpt lat="47.25936" lon="4.9544">
        <ele>451.79309082031</ele>
        <time>2018-06-28T10:31:37+0200</time>
      </trkpt>
      <trkpt lat="47.25936" lon="4.95443">
        <ele>452.1711730957</ele>
        <time>2018-06-28T10:31:40+0200</time>
      </trkpt>
      <trkpt lat="47.25935" lon="4.9545">
        <ele>452.53012084961</ele>
        <time>2018-06-28T10:31:43+0200</time>
      </trkpt>
      <trkpt lat="47.25934" lon="4.95457">
        <ele>452.87646484375</ele>
        <time>2018-06-28T10:31:46+0200</time>
      </trkpt>
      <trkpt lat="47.25933" lon="4.95464">
        <ele>453.14010620117</ele>
        <time>2018-06-28T10:31:49+0200</time>
      </trkpt>
      <trkpt lat="47.25932" lon="4.95467">
        <ele>453.27905273438</ele>
        <time>2018-06-28T10:31:52+0200</time>
      </trkpt>
      <trkpt lat="47.25931" lon="4.9547">
        <ele>453.33074951172</ele>
        <time>2018-06-28T10:31:55+0200</time>
      </trkpt>
      <trkpt lat="47.25929" lon="4.95475">
        <ele>453.29013061523</ele>
        <time>2018-06-28T10:31:58+0200</time>
      </trkpt>
      <trkpt lat="47.25927" lon="4.95478">
        <ele>453.21032714844</ele>
        <time>2018-06-28T10:32:01+0200</time>
      </trkpt>
      <trkpt lat="47.25926" lon="4.95481">
        <ele>453.08221435547</ele>
        <time>2018-06-28T10:32:04+0200</time>
      </trkpt>
      <trkpt lat="47.25923" lon="4.95486">
        <ele>452.94613647461</ele>
        <time>2018-06-28T10:32:07+0200</time>
      </trkpt>
      <trkpt lat="47.25922" lon="4.95488">
        <ele>452.8603515625</ele>
        <time>2018-06-28T10:32:10+0200</time>
      </trkpt>
      <trkpt lat="47.2592" lon="4.95491">
        <ele>452.77014160156</ele>
        <time>2018-06-28T10:32:13+0200</time>
      </trkpt>
      <trkpt lat="47.25919" lon="4.95495">
        <ele>452.52563476562</ele>
        <time>2018-06-28T10:32:16+0200</time>
      </trkpt>
      <trkpt lat="47.25918" lon="4.95499">
        <ele>452.29833984375</ele>
        <time>2018-06-28T10:32:19+0200</time>
      </trkpt>
      <trkpt lat="47.25918" lon="4.95505">
        <ele>452.11471557617</ele>
        <time>2018-06-28T10:32:22+0200</time>
      </trkpt>
      <trkpt lat="47.25915" lon="4.95507">
        <ele>452.12847900391</ele>
        <time>2018-06-28T10:32:25+0200</time>
      </trkpt>
      <trkpt lat="47.25913" lon="4.95511">
        <ele>452.34780883789</ele>
        <time>2018-06-28T10:32:28+0200</time>
      </trkpt>
      <trkpt lat="47.25911" lon="4.95516">
        <ele>452.60531616211</ele>
        <time>2018-06-28T10:32:31+0200</time>
      </trkpt>
      <trkpt lat="47.2591" lon="4.9552">
        <ele>452.83666992188</ele>
        <time>2018-06-28T10:32:34+0200</time>
      </trkpt>
      <trkpt lat="47.25909" lon="4.95524">
        <ele>453.09582519531</ele>
        <time>2018-06-28T10:32:37+0200</time>
      </trkpt>
      <trkpt lat="47.25909" lon="4.95527">
        <ele>453.32598876953</ele>
        <time>2018-06-28T10:32:40+0200</time>
      </trkpt>
      <trkpt lat="47.25907" lon="4.9553">
        <ele>453.59744262695</ele>
        <time>2018-06-28T10:32:43+0200</time>
      </trkpt>
      <trkpt lat="47.25906" lon="4.95533">
        <ele>453.9326171875</ele>
        <time>2018-06-28T10:32:46+0200</time>
      </trkpt>
      <trkpt lat="47.25906" lon="4.95539">
        <ele>454.27633666992</ele>
        <time>2018-06-28T10:32:49+0200</time>
      </trkpt>
      <trkpt lat="47.25906" lon="4.95548">
        <ele>454.45520019531</ele>
        <time>2018-06-28T10:32:52+0200</time>
      </trkpt>
      <trkpt lat="47.25907" lon="4.95553">
        <ele>454.53103637695</ele>
        <time>2018-06-28T10:32:55+0200</time>
      </trkpt>
      <trkpt lat="47.25907" lon="4.9556">
        <ele>454.51187133789</ele>
        <time>2018-06-28T10:32:58+0200</time>
      </trkpt>
      <trkpt lat="47.25908" lon="4.95562">
        <ele>454.45156860352</ele>
        <time>2018-06-28T10:33:01+0200</time>
      </trkpt>
      <trkpt lat="47.25907" lon="4.95568">
        <ele>454.41973876953</ele>
        <time>2018-06-28T10:33:04+0200</time>
      </trkpt>
      <trkpt lat="47.25909" lon="4.95571">
        <ele>454.43670654297</ele>
        <time>2018-06-28T10:33:07+0200</time>
      </trkpt>
      <trkpt lat="47.2591" lon="4.95577">
        <ele>454.55062866211</ele>
        <time>2018-06-28T10:33:09+0200</time>
      </trkpt>
      <trkpt lat="47.2591" lon="4.95581">
        <ele>454.65817260742</ele>
        <time>2018-06-28T10:33:12+0200</time>
      </trkpt>
      <trkpt lat="47.25909" lon="4.95588">
        <ele>454.68133544922</ele>
        <time>2018-06-28T10:33:15+0200</time>
      </trkpt>
      <trkpt lat="47.25907" lon="4.95592">
        <ele>454.53540039062</ele>
        <time>2018-06-28T10:33:18+0200</time>
      </trkpt>
      <trkpt lat="47.25904" lon="4.95593">
        <ele>454.30661010742</ele>
        <time>2018-06-28T10:33:21+0200</time>
      </trkpt>
      <trkpt lat="47.25901" lon="4.95597">
        <ele>454.07208251953</ele>
        <time>2018-06-28T10:33:24+0200</time>
      </trkpt>
      <trkpt lat="47.259" lon="4.95601">
        <ele>453.92224121094</ele>
        <time>2018-06-28T10:33:27+0200</time>
      </trkpt>
      <trkpt lat="47.25899" lon="4.95605">
        <ele>453.77740478516</ele>
        <time>2018-06-28T10:33:30+0200</time>
      </trkpt>
      <trkpt lat="47.25897" lon="4.95609">
        <ele>453.57824707031</ele>
        <time>2018-06-28T10:33:33+0200</time>
      </trkpt>
      <trkpt lat="47.25897" lon="4.95613">
        <ele>453.41809082031</ele>
        <time>2018-06-28T10:33:36+0200</time>
      </trkpt>
      <trkpt lat="47.25897" lon="4.95621">
        <ele>453.38235473633</ele>
        <time>2018-06-28T10:33:39+0200</time>
      </trkpt>
      <trkpt lat="47.25896" lon="4.95625">
        <ele>453.32385253906</ele>
        <time>2018-06-28T10:33:42+0200</time>
      </trkpt>
      <trkpt lat="47.25894" lon="4.95629">
        <ele>453.12985229492</ele>
        <time>2018-06-28T10:33:45+0200</time>
      </trkpt>
      <trkpt lat="47.25892" lon="4.95633">
        <ele>452.82470703125</ele>
        <time>2018-06-28T10:33:48+0200</time>
      </trkpt>
      <trkpt lat="47.2589" lon="4.95636">
        <ele>452.54409790039</ele>
        <time>2018-06-28T10:33:51+0200</time>
      </trkpt>
      <trkpt lat="47.25889" lon="4.95639">
        <ele>452.29736328125</ele>
        <time>2018-06-28T10:33:54+0200</time>
      </trkpt>
      <trkpt lat="47.25889" lon="4.95643">
        <ele>451.95843505859</ele>
        <time>2018-06-28T10:33:57+0200</time>
      </trkpt>
      <trkpt lat="47.25888" lon="4.95647">
        <ele>451.6982421875</ele>
        <time>2018-06-28T10:34:00+0200</time>
      </trkpt>
      <trkpt lat="47.25887" lon="4.95651">
        <ele>451.53079223633</ele>
        <time>2018-06-28T10:34:03+0200</time>
      </trkpt>
      <trkpt lat="47.25886" lon="4.95656">
        <ele>451.42584228516</ele>
        <time>2018-06-28T10:34:06+0200</time>
      </trkpt>
      <trkpt lat="47.25885" lon="4.95661">
        <ele>451.36306762695</ele>
        <time>2018-06-28T10:34:09+0200</time>
      </trkpt>
      <trkpt lat="47.25885" lon="4.95666">
        <ele>451.41241455078</ele>
        <time>2018-06-28T10:34:12+0200</time>
      </trkpt>
      <trkpt lat="47.25885" lon="4.95672">
        <ele>451.40942382812</ele>
        <time>2018-06-28T10:34:15+0200</time>
      </trkpt>
      <trkpt lat="47.25886" lon="4.95677">
        <ele>451.41098022461</ele>
        <time>2018-06-28T10:34:18+0200</time>
      </trkpt>
      <trkpt lat="47.25887" lon="4.95678">
        <ele>451.41250610352</ele>
        <time>2018-06-28T10:34:21+0200</time>
      </trkpt>
      <trkpt lat="47.25887" lon="4.9568">
        <ele>451.3720703125</ele>
        <time>2018-06-28T10:34:24+0200</time>
      </trkpt>
      <trkpt lat="47.25887" lon="4.95681">
        <ele>451.36572265625</ele>
        <time>2018-06-28T10:34:27+0200</time>
      </trkpt>
      <trkpt lat="47.25887" lon="4.95682">
        <ele>451.34652709961</ele>
        <time>2018-06-28T10:34:30+0200</time>
      </trkpt>
      <trkpt lat="47.25887" lon="4.95682">
        <ele>451.31655883789</ele>
        <time>2018-06-28T10:34:33+0200</time>
      </trkpt>
      <trkpt lat="47.25888" lon="4.95683">
        <ele>451.30422973633</ele>
        <time>2018-06-28T10:34:36+0200</time>
      </trkpt>
      <trkpt lat="47.25888" lon="4.95684">
        <ele>451.29605102539</ele>
        <time>2018-06-28T10:34:39+0200</time>
      </trkpt>
      <trkpt lat="47.25887" lon="4.95684">
        <ele>451.27810668945</ele>
        <time>2018-06-28T10:34:42+0200</time>
      </trkpt>
      <trkpt lat="47.25887" lon="4.95685">
        <ele>451.25653076172</ele>
        <time>2018-06-28T10:34:45+0200</time>
      </trkpt>
      <trkpt lat="47.25887" lon="4.95685">
        <ele>451.23416137695</ele>
        <time>2018-06-28T10:34:48+0200</time>
      </trkpt>
      <trkpt lat="47.25887" lon="4.95685">
        <ele>451.22091674805</ele>
        <time>2018-06-28T10:34:51+0200</time>
      </trkpt>
      <trkpt lat="47.25887" lon="4.95686">
        <ele>451.21099853516</ele>
        <time>2018-06-28T10:34:54+0200</time>
      </trkpt>
      <trkpt lat="47.25887" lon="4.95687">
        <ele>451.20565795898</ele>
        <time>2018-06-28T10:34:57+0200</time>
      </trkpt>
      <trkpt lat="47.25887" lon="4.95688">
        <ele>451.20602416992</ele>
        <time>2018-06-28T10:35:00+0200</time>
      </trkpt>
      <trkpt lat="47.25887" lon="4.95688">
        <ele>451.20645141602</ele>
        <time>2018-06-28T10:35:03+0200</time>
      </trkpt>
      <trkpt lat="47.25886" lon="4.95689">
        <ele>451.20703125</ele>
        <time>2018-06-28T10:35:06+0200</time>
      </trkpt>
      <trkpt lat="47.25886" lon="4.95689">
        <ele>451.22494506836</ele>
        <time>2018-06-28T10:35:09+0200</time>
      </trkpt>
      <trkpt lat="47.25886" lon="4.9569">
        <ele>451.24765014648</ele>
        <time>2018-06-28T10:35:12+0200</time>
      </trkpt>
      <trkpt lat="47.25885" lon="4.95691">
        <ele>451.23043823242</ele>
        <time>2018-06-28T10:35:15+0200</time>
      </trkpt>
      <trkpt lat="47.25882" lon="4.95694">
        <ele>451.20217895508</ele>
        <time>2018-06-28T10:35:18+0200</time>
      </trkpt>
      <trkpt lat="47.25879" lon="4.95697">
        <ele>451.21743774414</ele>
        <time>2018-06-28T10:35:21+0200</time>
      </trkpt>
      <trkpt lat="47.25876" lon="4.957">
        <ele>451.03912353516</ele>
        <time>2018-06-28T10:35:24+0200</time>
      </trkpt>
      <trkpt lat="47.25873" lon="4.95703">
        <ele>450.68328857422</ele>
        <time>2018-06-28T10:35:27+0200</time>
      </trkpt>
      <trkpt lat="47.2587" lon="4.95706">
        <ele>450.24563598633</ele>
        <time>2018-06-28T10:35:30+0200</time>
      </trkpt>
      <trkpt lat="47.25868" lon="4.95709">
        <ele>449.80087280273</ele>
        <time>2018-06-28T10:35:33+0200</time>
      </trkpt>
      <trkpt lat="47.25865" lon="4.95713">
        <ele>449.43792724609</ele>
        <time>2018-06-28T10:35:36+0200</time>
      </trkpt>
      <trkpt lat="47.25862" lon="4.9572">
        <ele>449.10366821289</ele>
        <time>2018-06-28T10:35:39+0200</time>
      </trkpt>
      <trkpt lat="47.25861" lon="4.95723">
        <ele>448.74664306641</ele>
        <time>2018-06-28T10:35:42+0200</time>
      </trkpt>
      <trkpt lat="47.25858" lon="4.95726">
        <ele>448.45120239258</ele>
        <time>2018-06-28T10:35:45+0200</time>
      </trkpt>
      <trkpt lat="47.25856" lon="4.95729">
        <ele>448.22671508789</ele>
        <time>2018-06-28T10:35:48+0200</time>
      </trkpt>
      <trkpt lat="47.25854" lon="4.95733">
        <ele>448.02127075195</ele>
        <time>2018-06-28T10:35:51+0200</time>
      </trkpt>
      <trkpt lat="47.25852" lon="4.95735">
        <ele>447.85559082031</ele>
        <time>2018-06-28T10:35:54+0200</time>
      </trkpt>
      <trkpt lat="47.25849" lon="4.95738">
        <ele>447.77053833008</ele>
        <time>2018-06-28T10:35:57+0200</time>
      </trkpt>
      <trkpt lat="47.25846" lon="4.95741">
        <ele>447.65533447266</ele>
        <time>2018-06-28T10:36:00+0200</time>
      </trkpt>
      <trkpt lat="47.25843" lon="4.95744">
        <ele>447.54449462891</ele>
        <time>2018-06-28T10:36:03+0200</time>
      </trkpt>
      <trkpt lat="47.2584" lon="4.95748">
        <ele>447.30587768555</ele>
        <time>2018-06-28T10:36:06+0200</time>
      </trkpt>
      <trkpt lat="47.25837" lon="4.95752">
        <ele>447.00479125977</ele>
        <time>2018-06-28T10:36:09+0200</time>
      </trkpt>
      <trkpt lat="47.25835" lon="4.95753">
        <ele>446.77020263672</ele>
        <time>2018-06-28T10:36:12+0200</time>
      </trkpt>
      <trkpt lat="47.25832" lon="4.95755">
        <ele>446.65185546875</ele>
        <time>2018-06-28T10:36:15+0200</time>
      </trkpt>
      <trkpt lat="47.2583" lon="4.95759">
        <ele>446.57611083984</ele>
        <time>2018-06-28T10:36:18+0200</time>
      </trkpt>
      <trkpt lat="47.25827" lon="4.95762">
        <ele>446.49160766602</ele>
        <time>2018-06-28T10:36:21+0200</time>
      </trkpt>
      <trkpt lat="47.25825" lon="4.95766">
        <ele>446.48373413086</ele>
        <time>2018-06-28T10:36:24+0200</time>
      </trkpt>
      <trkpt lat="47.25822" lon="4.95769">
        <ele>446.48220825195</ele>
        <time>2018-06-28T10:36:27+0200</time>
      </trkpt>
      <trkpt lat="47.25819" lon="4.95771">
        <ele>446.56045532227</ele>
        <time>2018-06-28T10:36:30+0200</time>
      </trkpt>
      <trkpt lat="47.25816" lon="4.95775">
        <ele>446.65795898438</ele>
        <time>2018-06-28T10:36:33+0200</time>
      </trkpt>
      <trkpt lat="47.25814" lon="4.95778">
        <ele>446.71203613281</ele>
        <time>2018-06-28T10:36:36+0200</time>
      </trkpt>
      <trkpt lat="47.25812" lon="4.95783">
        <ele>446.69564819336</ele>
        <time>2018-06-28T10:36:39+0200</time>
      </trkpt>
      <trkpt lat="47.2581" lon="4.95785">
        <ele>446.63681030273</ele>
        <time>2018-06-28T10:36:42+0200</time>
      </trkpt>
      <trkpt lat="47.25808" lon="4.95788">
        <ele>446.5285949707</ele>
        <time>2018-06-28T10:36:45+0200</time>
      </trkpt>
      <trkpt lat="47.25805" lon="4.9579">
        <ele>446.48641967773</ele>
        <time>2018-06-28T10:36:48+0200</time>
      </trkpt>
      <trkpt lat="47.25803" lon="4.95795">
        <ele>446.39147949219</ele>
        <time>2018-06-28T10:36:51+0200</time>
      </trkpt>
      <trkpt lat="47.258" lon="4.958">
        <ele>446.2998046875</ele>
        <time>2018-06-28T10:36:54+0200</time>
      </trkpt>
      <trkpt lat="47.25799" lon="4.95802">
        <ele>446.3508605957</ele>
        <time>2018-06-28T10:36:57+0200</time>
      </trkpt>
      <trkpt lat="47.25795" lon="4.95806">
        <ele>446.39114379883</ele>
        <time>2018-06-28T10:37:00+0200</time>
      </trkpt>
      <trkpt lat="47.25792" lon="4.9581">
        <ele>446.35244750977</ele>
        <time>2018-06-28T10:37:03+0200</time>
      </trkpt>
      <trkpt lat="47.25789" lon="4.95813">
        <ele>446.23861694336</ele>
        <time>2018-06-28T10:37:06+0200</time>
      </trkpt>
      <trkpt lat="47.25786" lon="4.95816">
        <ele>446.03845214844</ele>
        <time>2018-06-28T10:37:09+0200</time>
      </trkpt>
      <trkpt lat="47.25783" lon="4.95817">
        <ele>445.80505371094</ele>
        <time>2018-06-28T10:37:12+0200</time>
      </trkpt>
      <trkpt lat="47.25779" lon="4.95817">
        <ele>445.55236816406</ele>
        <time>2018-06-28T10:37:15+0200</time>
      </trkpt>
      <trkpt lat="47.25778" lon="4.95816">
        <ele>445.33599853516</ele>
        <time>2018-06-28T10:37:18+0200</time>
      </trkpt>
      <trkpt lat="47.25776" lon="4.95815">
        <ele>445.15979003906</ele>
        <time>2018-06-28T10:37:21+0200</time>
      </trkpt>
      <trkpt lat="47.25774" lon="4.95813">
        <ele>445.01593017578</ele>
        <time>2018-06-28T10:37:24+0200</time>
      </trkpt>
      <trkpt lat="47.25771" lon="4.95812">
        <ele>444.83331298828</ele>
        <time>2018-06-28T10:37:27+0200</time>
      </trkpt>
      <trkpt lat="47.25769" lon="4.9581">
        <ele>444.65805053711</ele>
        <time>2018-06-28T10:37:30+0200</time>
      </trkpt>
      <trkpt lat="47.25766" lon="4.95811">
        <ele>444.56646728516</ele>
        <time>2018-06-28T10:37:33+0200</time>
      </trkpt>
      <trkpt lat="47.25763" lon="4.95812">
        <ele>444.43603515625</ele>
        <time>2018-06-28T10:37:36+0200</time>
      </trkpt>
      <trkpt lat="47.25759" lon="4.95812">
        <ele>444.36859130859</ele>
        <time>2018-06-28T10:37:39+0200</time>
      </trkpt>
      <trkpt lat="47.25756" lon="4.95812">
        <ele>444.41152954102</ele>
        <time>2018-06-28T10:37:42+0200</time>
      </trkpt>
      <trkpt lat="47.25752" lon="4.95811">
        <ele>444.48382568359</ele>
        <time>2018-06-28T10:37:45+0200</time>
      </trkpt>
      <trkpt lat="47.25749" lon="4.95811">
        <ele>444.55715942383</ele>
        <time>2018-06-28T10:37:48+0200</time>
      </trkpt>
      <trkpt lat="47.25744" lon="4.95813">
        <ele>444.55868530273</ele>
        <time>2018-06-28T10:37:51+0200</time>
      </trkpt>
      <trkpt lat="47.25742" lon="4.95814">
        <ele>444.50933837891</ele>
        <time>2018-06-28T10:37:54+0200</time>
      </trkpt>
      <trkpt lat="47.25739" lon="4.95815">
        <ele>444.43347167969</ele>
        <time>2018-06-28T10:37:57+0200</time>
      </trkpt>
      <trkpt lat="47.25735" lon="4.95815">
        <ele>444.30218505859</ele>
        <time>2018-06-28T10:38:00+0200</time>
      </trkpt>
      <trkpt lat="47.25732" lon="4.95815">
        <ele>444.11019897461</ele>
        <time>2018-06-28T10:38:03+0200</time>
      </trkpt>
      <trkpt lat="47.25729" lon="4.95817">
        <ele>443.93005371094</ele>
        <time>2018-06-28T10:38:06+0200</time>
      </trkpt>
      <trkpt lat="47.25725" lon="4.95817">
        <ele>443.7301940918</ele>
        <time>2018-06-28T10:38:09+0200</time>
      </trkpt>
      <trkpt lat="47.2572" lon="4.95818">
        <ele>443.48391723633</ele>
        <time>2018-06-28T10:38:12+0200</time>
      </trkpt>
      <trkpt lat="47.25714" lon="4.95818">
        <ele>443.13635253906</ele>
        <time>2018-06-28T10:38:15+0200</time>
      </trkpt>
      <trkpt lat="47.25711" lon="4.95818">
        <ele>442.79885864258</ele>
        <time>2018-06-28T10:38:18+0200</time>
      </trkpt>
      <trkpt lat="47.25707" lon="4.95818">
        <ele>442.49273681641</ele>
        <time>2018-06-28T10:38:21+0200</time>
      </trkpt>
      <trkpt lat="47.25704" lon="4.95818">
        <ele>442.21380615234</ele>
        <time>2018-06-28T10:38:24+0200</time>
      </trkpt>
      <trkpt lat="47.25701" lon="4.95818">
        <ele>441.91662597656</ele>
        <time>2018-06-28T10:38:27+0200</time>
      </trkpt>
      <trkpt lat="47.25698" lon="4.95818">
        <ele>441.66833496094</ele>
        <time>2018-06-28T10:38:30+0200</time>
      </trkpt>
      <trkpt lat="47.25696" lon="4.95819">
        <ele>441.40689086914</ele>
        <time>2018-06-28T10:38:33+0200</time>
      </trkpt>
      <trkpt lat="47.25693" lon="4.95821">
        <ele>441.06298828125</ele>
        <time>2018-06-28T10:38:36+0200</time>
      </trkpt>
      <trkpt lat="47.25691" lon="4.9582">
        <ele>440.70092773438</ele>
        <time>2018-06-28T10:38:39+0200</time>
      </trkpt>
      <trkpt lat="47.25689" lon="4.95819">
        <ele>440.33145141602</ele>
        <time>2018-06-28T10:38:42+0200</time>
      </trkpt>
      <trkpt lat="47.25687" lon="4.95819">
        <ele>440.01605224609</ele>
        <time>2018-06-28T10:38:45+0200</time>
      </trkpt>
      <trkpt lat="47.25685" lon="4.95822">
        <ele>439.73739624023</ele>
        <time>2018-06-28T10:38:48+0200</time>
      </trkpt>
      <trkpt lat="47.25682" lon="4.95822">
        <ele>439.48580932617</ele>
        <time>2018-06-28T10:38:51+0200</time>
      </trkpt>
      <trkpt lat="47.25682" lon="4.95823">
        <ele>439.39877319336</ele>
        <time>2018-06-28T10:38:54+0200</time>
      </trkpt>
      <trkpt lat="47.25682" lon="4.95823">
        <ele>439.36651611328</ele>
        <time>2018-06-28T10:38:57+0200</time>
      </trkpt>
      <trkpt lat="47.25682" lon="4.95823">
        <ele>439.33660888672</ele>
        <time>2018-06-28T10:39:00+0200</time>
      </trkpt>
      <trkpt lat="47.25682" lon="4.95823">
        <ele>439.3056640625</ele>
        <time>2018-06-28T10:39:03+0200</time>
      </trkpt>
      <trkpt lat="47.25682" lon="4.95823">
        <ele>439.27734375</ele>
        <time>2018-06-28T10:39:06+0200</time>
      </trkpt>
      <trkpt lat="47.25679" lon="4.95823">
        <ele>439.08651733398</ele>
        <time>2018-06-28T10:39:09+0200</time>
      </trkpt>
      <trkpt lat="47.25679" lon="4.95823">
        <ele>439.05581665039</ele>
        <time>2018-06-28T10:39:12+0200</time>
      </trkpt>
      <trkpt lat="47.25679" lon="4.95823">
        <ele>439.02017211914</ele>
        <time>2018-06-28T10:39:15+0200</time>
      </trkpt>
      <trkpt lat="47.25678" lon="4.95823">
        <ele>438.98471069336</ele>
        <time>2018-06-28T10:39:18+0200</time>
      </trkpt>
      <trkpt lat="47.25678" lon="4.95823">
        <ele>438.95428466797</ele>
        <time>2018-06-28T10:39:21+0200</time>
      </trkpt>
      <trkpt lat="47.25678" lon="4.95823">
        <ele>438.93344116211</ele>
        <time>2018-06-28T10:39:24+0200</time>
      </trkpt>
      <trkpt lat="47.25678" lon="4.95823">
        <ele>438.90951538086</ele>
        <time>2018-06-28T10:39:27+0200</time>
      </trkpt>
      <trkpt lat="47.25678" lon="4.95823">
        <ele>438.88583374023</ele>
        <time>2018-06-28T10:39:30+0200</time>
      </trkpt>
      <trkpt lat="47.25678" lon="4.95824">
        <ele>438.86758422852</ele>
        <time>2018-06-28T10:39:33+0200</time>
      </trkpt>
      <trkpt lat="47.25677" lon="4.95824">
        <ele>438.84881591797</ele>
        <time>2018-06-28T10:39:36+0200</time>
      </trkpt>
      <trkpt lat="47.25677" lon="4.95824">
        <ele>438.82794189453</ele>
        <time>2018-06-28T10:39:39+0200</time>
      </trkpt>
      <trkpt lat="47.25677" lon="4.95824">
        <ele>438.79510498047</ele>
        <time>2018-06-28T10:39:42+0200</time>
      </trkpt>
      <trkpt lat="47.25677" lon="4.95823">
        <ele>438.76031494141</ele>
        <time>2018-06-28T10:39:45+0200</time>
      </trkpt>
      <trkpt lat="47.25677" lon="4.95823">
        <ele>438.72482299805</ele>
        <time>2018-06-28T10:39:48+0200</time>
      </trkpt>
      <trkpt lat="47.25677" lon="4.95823">
        <ele>438.70013427734</ele>
        <time>2018-06-28T10:39:51+0200</time>
      </trkpt>
      <trkpt lat="47.25677" lon="4.95823">
        <ele>438.69451904297</ele>
        <time>2018-06-28T10:39:54+0200</time>
      </trkpt>
      <trkpt lat="47.25677" lon="4.95823">
        <ele>438.71362304688</ele>
        <time>2018-06-28T10:39:57+0200</time>
      </trkpt>
      <trkpt lat="47.25677" lon="4.95823">
        <ele>438.74331665039</ele>
        <time>2018-06-28T10:40:00+0200</time>
      </trkpt>
      <trkpt lat="47.25677" lon="4.95823">
        <ele>438.77200317383</ele>
        <time>2018-06-28T10:40:03+0200</time>
      </trkpt>
      <trkpt lat="47.25676" lon="4.95823">
        <ele>438.82525634766</ele>
        <time>2018-06-28T10:40:06+0200</time>
      </trkpt>
      <trkpt lat="47.25676" lon="4.95823">
        <ele>438.88650512695</ele>
        <time>2018-06-28T10:40:09+0200</time>
      </trkpt>
      <trkpt lat="47.25675" lon="4.95823">
        <ele>438.93508911133</ele>
        <time>2018-06-28T10:40:12+0200</time>
      </trkpt>
      <trkpt lat="47.25675" lon="4.95823">
        <ele>438.94235229492</ele>
        <time>2018-06-28T10:40:15+0200</time>
      </trkpt>
      <trkpt lat="47.25675" lon="4.95823">
        <ele>438.91479492188</ele>
        <time>2018-06-28T10:40:18+0200</time>
      </trkpt>
      <trkpt lat="47.25675" lon="4.95823">
        <ele>438.88122558594</ele>
        <time>2018-06-28T10:40:21+0200</time>
      </trkpt>
      <trkpt lat="47.25675" lon="4.95823">
        <ele>438.87905883789</ele>
        <time>2018-06-28T10:40:24+0200</time>
      </trkpt>
      <trkpt lat="47.25675" lon="4.95823">
        <ele>438.87777709961</ele>
        <time>2018-06-28T10:40:27+0200</time>
      </trkpt>
      <trkpt lat="47.25675" lon="4.95823">
        <ele>438.85308837891</ele>
        <time>2018-06-28T10:40:30+0200</time>
      </trkpt>
      <trkpt lat="47.25675" lon="4.95823">
        <ele>438.81384277344</ele>
        <time>2018-06-28T10:40:33+0200</time>
      </trkpt>
      <trkpt lat="47.25675" lon="4.95823">
        <ele>438.78091430664</ele>
        <time>2018-06-28T10:40:36+0200</time>
      </trkpt>
      <trkpt lat="47.25675" lon="4.95823">
        <ele>438.78070068359</ele>
        <time>2018-06-28T10:40:39+0200</time>
      </trkpt>
      <trkpt lat="47.25675" lon="4.95823">
        <ele>438.80676269531</ele>
        <time>2018-06-28T10:40:42+0200</time>
      </trkpt>
      <trkpt lat="47.25675" lon="4.95822">
        <ele>438.82092285156</ele>
        <time>2018-06-28T10:40:45+0200</time>
      </trkpt>
      <trkpt lat="47.25678" lon="4.9582">
        <ele>438.82144165039</ele>
        <time>2018-06-28T10:40:48+0200</time>
      </trkpt>
      <trkpt lat="47.25678" lon="4.95821">
        <ele>438.81646728516</ele>
        <time>2018-06-28T10:40:51+0200</time>
      </trkpt>
      <trkpt lat="47.25678" lon="4.95821">
        <ele>438.81005859375</ele>
        <time>2018-06-28T10:40:54+0200</time>
      </trkpt>
      <trkpt lat="47.25678" lon="4.9582">
        <ele>438.80404663086</ele>
        <time>2018-06-28T10:40:57+0200</time>
      </trkpt>
      <trkpt lat="47.25678" lon="4.9582">
        <ele>438.80227661133</ele>
        <time>2018-06-28T10:41:00+0200</time>
      </trkpt>
      <trkpt lat="47.25678" lon="4.95821">
        <ele>438.80981445312</ele>
        <time>2018-06-28T10:41:03+0200</time>
      </trkpt>
      <trkpt lat="47.25678" lon="4.95821">
        <ele>438.81631469727</ele>
        <time>2018-06-28T10:41:06+0200</time>
      </trkpt>
      <trkpt lat="47.25678" lon="4.95821">
        <ele>438.81735229492</ele>
        <time>2018-06-28T10:41:09+0200</time>
      </trkpt>
      <trkpt lat="47.25678" lon="4.95821">
        <ele>438.81539916992</ele>
        <time>2018-06-28T10:41:12+0200</time>
      </trkpt>
      <trkpt lat="47.25678" lon="4.95821">
        <ele>438.76422119141</ele>
        <time>2018-06-28T10:41:15+0200</time>
      </trkpt>
      <trkpt lat="47.25677" lon="4.95821">
        <ele>438.73913574219</ele>
        <time>2018-06-28T10:41:18+0200</time>
      </trkpt>
      <trkpt lat="47.25677" lon="4.95822">
        <ele>438.49429321289</ele>
        <time>2018-06-28T10:41:21+0200</time>
      </trkpt>
      <trkpt lat="47.25677" lon="4.95822">
        <ele>438.46960449219</ele>
        <time>2018-06-28T10:41:24+0200</time>
      </trkpt>
      <trkpt lat="47.25676" lon="4.95823">
        <ele>438.36880493164</ele>
        <time>2018-06-28T10:41:27+0200</time>
      </trkpt>
      <trkpt lat="47.25676" lon="4.95823">
        <ele>438.24893188477</ele>
        <time>2018-06-28T10:41:30+0200</time>
      </trkpt>
      <trkpt lat="47.25676" lon="4.95823">
        <ele>438.00701904297</ele>
        <time>2018-06-28T10:41:33+0200</time>
      </trkpt>
      <trkpt lat="47.25676" lon="4.95826">
        <ele>437.80169677734</ele>
        <time>2018-06-28T10:41:36+0200</time>
      </trkpt>
      <trkpt lat="47.25675" lon="4.95831">
        <ele>437.48861694336</ele>
        <time>2018-06-28T10:41:39+0200</time>
      </trkpt>
      <trkpt lat="47.25674" lon="4.95833">
        <ele>437.27130126953</ele>
        <time>2018-06-28T10:41:42+0200</time>
      </trkpt>
      <trkpt lat="47.25671" lon="4.95835">
        <ele>437.05081176758</ele>
        <time>2018-06-28T10:41:45+0200</time>
      </trkpt>
      <trkpt lat="47.25668" lon="4.95839">
        <ele>436.79248046875</ele>
        <time>2018-06-28T10:41:48+0200</time>
      </trkpt>
      <trkpt lat="47.25665" lon="4.95841">
        <ele>436.54898071289</ele>
        <time>2018-06-28T10:41:51+0200</time>
      </trkpt>
      <trkpt lat="47.25663" lon="4.95843">
        <ele>436.30145263672</ele>
        <time>2018-06-28T10:41:54+0200</time>
      </trkpt>
      <trkpt lat="47.2566" lon="4.95847">
        <ele>436.09420776367</ele>
        <time>2018-06-28T10:41:57+0200</time>
      </trkpt>
      <trkpt lat="47.25658" lon="4.9585">
        <ele>435.87646484375</ele>
        <time>2018-06-28T10:42:00+0200</time>
      </trkpt>
      <trkpt lat="47.25656" lon="4.95852">
        <ele>435.65420532227</ele>
        <time>2018-06-28T10:42:03+0200</time>
      </trkpt>
      <trkpt lat="47.25654" lon="4.95855">
        <ele>435.48428344727</ele>
        <time>2018-06-28T10:42:06+0200</time>
      </trkpt>
      <trkpt lat="47.25652" lon="4.95858">
        <ele>435.38375854492</ele>
        <time>2018-06-28T10:42:09+0200</time>
      </trkpt>
      <trkpt lat="47.25651" lon="4.95861">
        <ele>435.38101196289</ele>
        <time>2018-06-28T10:42:12+0200</time>
      </trkpt>
      <trkpt lat="47.25649" lon="4.95862">
        <ele>435.45181274414</ele>
        <time>2018-06-28T10:42:15+0200</time>
      </trkpt>
      <trkpt lat="47.25648" lon="4.95866">
        <ele>435.60006713867</ele>
        <time>2018-06-28T10:42:18+0200</time>
      </trkpt>
      <trkpt lat="47.25649" lon="4.95866">
        <ele>435.73620605469</ele>
        <time>2018-06-28T10:42:21+0200</time>
      </trkpt>
      <trkpt lat="47.25649" lon="4.95868">
        <ele>435.83120727539</ele>
        <time>2018-06-28T10:42:24+0200</time>
      </trkpt>
      <trkpt lat="47.25649" lon="4.95873">
        <ele>435.84039306641</ele>
        <time>2018-06-28T10:42:27+0200</time>
      </trkpt>
      <trkpt lat="47.25649" lon="4.9588">
        <ele>435.71792602539</ele>
        <time>2018-06-28T10:42:30+0200</time>
      </trkpt>
      <trkpt lat="47.25651" lon="4.95882">
        <ele>435.56881713867</ele>
        <time>2018-06-28T10:42:33+0200</time>
      </trkpt>
      <trkpt lat="47.25654" lon="4.95886">
        <ele>435.57507324219</ele>
        <time>2018-06-28T10:42:36+0200</time>
      </trkpt>
      <trkpt lat="47.25655" lon="4.95888">
        <ele>435.63214111328</ele>
        <time>2018-06-28T10:42:39+0200</time>
      </trkpt>
      <trkpt lat="47.25657" lon="4.95894">
        <ele>435.62762451172</ele>
        <time>2018-06-28T10:42:42+0200</time>
      </trkpt>
      <trkpt lat="47.25657" lon="4.959">
        <ele>435.66778564453</ele>
        <time>2018-06-28T10:42:45+0200</time>
      </trkpt>
      <trkpt lat="47.25658" lon="4.95903">
        <ele>435.71417236328</ele>
        <time>2018-06-28T10:42:48+0200</time>
      </trkpt>
      <trkpt lat="47.25658" lon="4.95907">
        <ele>435.76412963867</ele>
        <time>2018-06-28T10:42:51+0200</time>
      </trkpt>
      <trkpt lat="47.25659" lon="4.95912">
        <ele>435.74566650391</ele>
        <time>2018-06-28T10:42:54+0200</time>
      </trkpt>
      <trkpt lat="47.2566" lon="4.95916">
        <ele>435.67861938477</ele>
        <time>2018-06-28T10:42:57+0200</time>
      </trkpt>
      <trkpt lat="47.25662" lon="4.95918">
        <ele>435.60925292969</ele>
        <time>2018-06-28T10:43:00+0200</time>
      </trkpt>
      <trkpt lat="47.25663" lon="4.95923">
        <ele>435.51065063477</ele>
        <time>2018-06-28T10:43:03+0200</time>
      </trkpt>
      <trkpt lat="47.25662" lon="4.95926">
        <ele>435.44223022461</ele>
        <time>2018-06-28T10:43:06+0200</time>
      </trkpt>
      <trkpt lat="47.25661" lon="4.95929">
        <ele>435.57614135742</ele>
        <time>2018-06-28T10:43:09+0200</time>
      </trkpt>
      <trkpt lat="47.25659" lon="4.95932">
        <ele>435.8332824707</ele>
        <time>2018-06-28T10:43:12+0200</time>
      </trkpt>
      <trkpt lat="47.25659" lon="4.95935">
        <ele>436.16784667969</ele>
        <time>2018-06-28T10:43:15+0200</time>
      </trkpt>
      <trkpt lat="47.25658" lon="4.95939">
        <ele>436.55453491211</ele>
        <time>2018-06-28T10:43:18+0200</time>
      </trkpt>
      <trkpt lat="47.25658" lon="4.95945">
        <ele>436.8639831543</ele>
        <time>2018-06-28T10:43:21+0200</time>
      </trkpt>
      <trkpt lat="47.25658" lon="4.95954">
        <ele>436.9967956543</ele>
        <time>2018-06-28T10:43:24+0200</time>
      </trkpt>
      <trkpt lat="47.25657" lon="4.95961">
        <ele>436.81936645508</ele>
        <time>2018-06-28T10:43:27+0200</time>
      </trkpt>
      <trkpt lat="47.25654" lon="4.95964">
        <ele>436.48123168945</ele>
        <time>2018-06-28T10:43:30+0200</time>
      </trkpt>
      <trkpt lat="47.25651" lon="4.95967">
        <ele>436.10134887695</ele>
        <time>2018-06-28T10:43:33+0200</time>
      </trkpt>
      <trkpt lat="47.25648" lon="4.9597">
        <ele>435.75912475586</ele>
        <time>2018-06-28T10:43:36+0200</time>
      </trkpt>
      <trkpt lat="47.25645" lon="4.95972">
        <ele>435.53765869141</ele>
        <time>2018-06-28T10:43:39+0200</time>
      </trkpt>
      <trkpt lat="47.25644" lon="4.95975">
        <ele>435.4831237793</ele>
        <time>2018-06-28T10:43:42+0200</time>
      </trkpt>
      <trkpt lat="47.25643" lon="4.95979">
        <ele>435.49127197266</ele>
        <time>2018-06-28T10:43:45+0200</time>
      </trkpt>
      <trkpt lat="47.25642" lon="4.95981">
        <ele>435.59808349609</ele>
        <time>2018-06-28T10:43:48+0200</time>
      </trkpt>
      <trkpt lat="47.25639" lon="4.95987">
        <ele>435.5973815918</ele>
        <time>2018-06-28T10:43:51+0200</time>
      </trkpt>
      <trkpt lat="47.25638" lon="4.9599">
        <ele>435.51684570312</ele>
        <time>2018-06-28T10:43:54+0200</time>
      </trkpt>
      <trkpt lat="47.25635" lon="4.95992">
        <ele>435.37646484375</ele>
        <time>2018-06-28T10:43:57+0200</time>
      </trkpt>
      <trkpt lat="47.25633" lon="4.95994">
        <ele>435.1589050293</ele>
        <time>2018-06-28T10:44:00+0200</time>
      </trkpt>
      <trkpt lat="47.2563" lon="4.95996">
        <ele>434.98516845703</ele>
        <time>2018-06-28T10:44:03+0200</time>
      </trkpt>
      <trkpt lat="47.2563" lon="4.95998">
        <ele>434.8349609375</ele>
        <time>2018-06-28T10:44:06+0200</time>
      </trkpt>
      <trkpt lat="47.25631" lon="4.95999">
        <ele>434.80953979492</ele>
        <time>2018-06-28T10:44:09+0200</time>
      </trkpt>
      <trkpt lat="47.2563" lon="4.96004">
        <ele>434.86166381836</ele>
        <time>2018-06-28T10:44:12+0200</time>
      </trkpt>
      <trkpt lat="47.25629" lon="4.96008">
        <ele>434.83349609375</ele>
        <time>2018-06-28T10:44:15+0200</time>
      </trkpt>
      <trkpt lat="47.25629" lon="4.96009">
        <ele>434.76113891602</ele>
        <time>2018-06-28T10:44:18+0200</time>
      </trkpt>
      <trkpt lat="47.25626" lon="4.96011">
        <ele>434.5852355957</ele>
        <time>2018-06-28T10:44:21+0200</time>
      </trkpt>
      <trkpt lat="47.25626" lon="4.96011">
        <ele>434.27621459961</ele>
        <time>2018-06-28T10:44:24+0200</time>
      </trkpt>
      <trkpt lat="47.25624" lon="4.9601">
        <ele>433.99215698242</ele>
        <time>2018-06-28T10:44:27+0200</time>
      </trkpt>
      <trkpt lat="47.25623" lon="4.9601">
        <ele>433.85690307617</ele>
        <time>2018-06-28T10:44:30+0200</time>
      </trkpt>
      <trkpt lat="47.25622" lon="4.96012">
        <ele>433.85397338867</ele>
        <time>2018-06-28T10:44:33+0200</time>
      </trkpt>
      <trkpt lat="47.25622" lon="4.96013">
        <ele>433.77456665039</ele>
        <time>2018-06-28T10:44:36+0200</time>
      </trkpt>
      <trkpt lat="47.25622" lon="4.96014">
        <ele>433.75146484375</ele>
        <time>2018-06-28T10:44:39+0200</time>
      </trkpt>
      <trkpt lat="47.25622" lon="4.96015">
        <ele>433.71896362305</ele>
        <time>2018-06-28T10:44:42+0200</time>
      </trkpt>
      <trkpt lat="47.25622" lon="4.96016">
        <ele>433.58612060547</ele>
        <time>2018-06-28T10:44:45+0200</time>
      </trkpt>
      <trkpt lat="47.25622" lon="4.96017">
        <ele>433.55310058594</ele>
        <time>2018-06-28T10:44:48+0200</time>
      </trkpt>
      <trkpt lat="47.25622" lon="4.96017">
        <ele>433.52517700195</ele>
        <time>2018-06-28T10:44:51+0200</time>
      </trkpt>
      <trkpt lat="47.25622" lon="4.96018">
        <ele>433.49917602539</ele>
        <time>2018-06-28T10:44:54+0200</time>
      </trkpt>
      <trkpt lat="47.25622" lon="4.96019">
        <ele>433.46987915039</ele>
        <time>2018-06-28T10:44:57+0200</time>
      </trkpt>
      <trkpt lat="47.25622" lon="4.96019">
        <ele>433.44018554688</ele>
        <time>2018-06-28T10:45:00+0200</time>
      </trkpt>
      <trkpt lat="47.25622" lon="4.9602">
        <ele>433.40914916992</ele>
        <time>2018-06-28T10:45:03+0200</time>
      </trkpt>
      <trkpt lat="47.25622" lon="4.9602">
        <ele>433.37612915039</ele>
        <time>2018-06-28T10:45:06+0200</time>
      </trkpt>
      <trkpt lat="47.25622" lon="4.9602">
        <ele>433.34487915039</ele>
        <time>2018-06-28T10:45:09+0200</time>
      </trkpt>
      <trkpt lat="47.25622" lon="4.96021">
        <ele>433.31384277344</ele>
        <time>2018-06-28T10:45:12+0200</time>
      </trkpt>
      <trkpt lat="47.25622" lon="4.96021">
        <ele>433.28805541992</ele>
        <time>2018-06-28T10:45:15+0200</time>
      </trkpt>
      <trkpt lat="47.25622" lon="4.96021">
        <ele>433.26257324219</ele>
        <time>2018-06-28T10:45:18+0200</time>
      </trkpt>
      <trkpt lat="47.25622" lon="4.96021">
        <ele>433.24057006836</ele>
        <time>2018-06-28T10:45:21+0200</time>
      </trkpt>
      <trkpt lat="47.25622" lon="4.96021">
        <ele>433.16760253906</ele>
        <time>2018-06-28T10:45:24+0200</time>
      </trkpt>
      <trkpt lat="47.25621" lon="4.96022">
        <ele>432.99160766602</ele>
        <time>2018-06-28T10:45:27+0200</time>
      </trkpt>
      <trkpt lat="47.25621" lon="4.96022">
        <ele>432.86614990234</ele>
        <time>2018-06-28T10:45:30+0200</time>
      </trkpt>
      <trkpt lat="47.25621" lon="4.96023">
        <ele>432.75213623047</ele>
        <time>2018-06-28T10:45:33+0200</time>
      </trkpt>
      <trkpt lat="47.25621" lon="4.96023">
        <ele>432.72860717773</ele>
        <time>2018-06-28T10:45:36+0200</time>
      </trkpt>
      <trkpt lat="47.25621" lon="4.96023">
        <ele>432.642578125</ele>
        <time>2018-06-28T10:45:39+0200</time>
      </trkpt>
      <trkpt lat="47.25621" lon="4.96023">
        <ele>432.62057495117</ele>
        <time>2018-06-28T10:45:42+0200</time>
      </trkpt>
      <trkpt lat="47.25621" lon="4.96023">
        <ele>432.47320556641</ele>
        <time>2018-06-28T10:45:45+0200</time>
      </trkpt>
      <trkpt lat="47.25621" lon="4.96024">
        <ele>432.40548706055</ele>
        <time>2018-06-28T10:45:49+0200</time>
      </trkpt>
      <trkpt lat="47.25621" lon="4.96024">
        <ele>432.40335083008</ele>
        <time>2018-06-28T10:45:52+0200</time>
      </trkpt>
      <trkpt lat="47.25621" lon="4.96024">
        <ele>432.40682983398</ele>
        <time>2018-06-28T10:45:55+0200</time>
      </trkpt>
      <trkpt lat="47.25621" lon="4.96024">
        <ele>432.4089050293</ele>
        <time>2018-06-28T10:45:58+0200</time>
      </trkpt>
      <trkpt lat="47.25621" lon="4.96024">
        <ele>432.40447998047</ele>
        <time>2018-06-28T10:46:01+0200</time>
      </trkpt>
      <trkpt lat="47.25621" lon="4.96023">
        <ele>432.40600585938</ele>
        <time>2018-06-28T10:46:04+0200</time>
      </trkpt>
      <trkpt lat="47.25621" lon="4.96023">
        <ele>432.41851806641</ele>
        <time>2018-06-28T10:46:07+0200</time>
      </trkpt>
      <trkpt lat="47.25621" lon="4.96022">
        <ele>432.42004394531</ele>
        <time>2018-06-28T10:46:10+0200</time>
      </trkpt>
      <trkpt lat="47.25621" lon="4.96022">
        <ele>432.4221496582</ele>
        <time>2018-06-28T10:46:13+0200</time>
      </trkpt>
      <trkpt lat="47.25621" lon="4.96021">
        <ele>432.42544555664</ele>
        <time>2018-06-28T10:46:16+0200</time>
      </trkpt>
      <trkpt lat="47.25621" lon="4.96021">
        <ele>432.42361450195</ele>
        <time>2018-06-28T10:46:19+0200</time>
      </trkpt>
      <trkpt lat="47.2562" lon="4.96021">
        <ele>432.41885375977</ele>
        <time>2018-06-28T10:46:22+0200</time>
      </trkpt>
      <trkpt lat="47.2562" lon="4.96021">
        <ele>432.41265869141</ele>
        <time>2018-06-28T10:46:25+0200</time>
      </trkpt>
      <trkpt lat="47.25619" lon="4.96021">
        <ele>432.36386108398</ele>
        <time>2018-06-28T10:46:28+0200</time>
      </trkpt>
      <trkpt lat="47.25618" lon="4.96023">
        <ele>432.32498168945</ele>
        <time>2018-06-28T10:46:31+0200</time>
      </trkpt>
      <trkpt lat="47.25617" lon="4.96023">
        <ele>432.32614135742</ele>
        <time>2018-06-28T10:46:34+0200</time>
      </trkpt>
      <trkpt lat="47.25617" lon="4.96023">
        <ele>432.32604980469</ele>
        <time>2018-06-28T10:46:37+0200</time>
      </trkpt>
      <trkpt lat="47.25617" lon="4.96023">
        <ele>432.32281494141</ele>
        <time>2018-06-28T10:46:40+0200</time>
      </trkpt>
      <trkpt lat="47.25616" lon="4.96023">
        <ele>432.30740356445</ele>
        <time>2018-06-28T10:46:43+0200</time>
      </trkpt>
      <trkpt lat="47.25616" lon="4.96023">
        <ele>432.2878112793</ele>
        <time>2018-06-28T10:46:46+0200</time>
      </trkpt>
      <trkpt lat="47.25615" lon="4.96023">
        <ele>432.26693725586</ele>
        <time>2018-06-28T10:46:49+0200</time>
      </trkpt>
      <trkpt lat="47.25615" lon="4.96023">
        <ele>432.23397827148</ele>
        <time>2018-06-28T10:46:52+0200</time>
      </trkpt>
      <trkpt lat="47.25615" lon="4.96024">
        <ele>432.1806640625</ele>
        <time>2018-06-28T10:46:55+0200</time>
      </trkpt>
      <trkpt lat="47.25615" lon="4.96024">
        <ele>432.11370849609</ele>
        <time>2018-06-28T10:46:58+0200</time>
      </trkpt>
      <trkpt lat="47.25614" lon="4.96023">
        <ele>432.06137084961</ele>
        <time>2018-06-28T10:47:01+0200</time>
      </trkpt>
      <trkpt lat="47.25614" lon="4.96023">
        <ele>432.00997924805</ele>
        <time>2018-06-28T10:47:04+0200</time>
      </trkpt>
      <trkpt lat="47.25614" lon="4.96023">
        <ele>431.95965576172</ele>
        <time>2018-06-28T10:47:07+0200</time>
      </trkpt>
      <trkpt lat="47.25614" lon="4.96023">
        <ele>431.9079284668</ele>
        <time>2018-06-28T10:47:10+0200</time>
      </trkpt>
      <trkpt lat="47.25613" lon="4.96023">
        <ele>431.86431884766</ele>
        <time>2018-06-28T10:47:13+0200</time>
      </trkpt>
      <trkpt lat="47.25613" lon="4.96023">
        <ele>431.82614135742</ele>
        <time>2018-06-28T10:47:16+0200</time>
      </trkpt>
      <trkpt lat="47.25613" lon="4.96023">
        <ele>431.78903198242</ele>
        <time>2018-06-28T10:47:19+0200</time>
      </trkpt>
      <trkpt lat="47.25612" lon="4.96024">
        <ele>431.74908447266</ele>
        <time>2018-06-28T10:47:22+0200</time>
      </trkpt>
      <trkpt lat="47.25612" lon="4.96024">
        <ele>431.7165222168</ele>
        <time>2018-06-28T10:47:25+0200</time>
      </trkpt>
      <trkpt lat="47.25612" lon="4.96024">
        <ele>431.6767578125</ele>
        <time>2018-06-28T10:47:28+0200</time>
      </trkpt>
      <trkpt lat="47.25612" lon="4.96024">
        <ele>431.6340637207</ele>
        <time>2018-06-28T10:47:31+0200</time>
      </trkpt>
      <trkpt lat="47.25611" lon="4.96024">
        <ele>431.59442138672</ele>
        <time>2018-06-28T10:47:34+0200</time>
      </trkpt>
      <trkpt lat="47.25611" lon="4.96024">
        <ele>431.55392456055</ele>
        <time>2018-06-28T10:47:37+0200</time>
      </trkpt>
      <trkpt lat="47.25611" lon="4.96023">
        <ele>431.51434326172</ele>
        <time>2018-06-28T10:47:40+0200</time>
      </trkpt>
      <trkpt lat="47.25611" lon="4.96023">
        <ele>431.47592163086</ele>
        <time>2018-06-28T10:47:43+0200</time>
      </trkpt>
      <trkpt lat="47.25611" lon="4.96023">
        <ele>431.439453125</ele>
        <time>2018-06-28T10:47:46+0200</time>
      </trkpt>
      <trkpt lat="47.25611" lon="4.96023">
        <ele>431.39688110352</ele>
        <time>2018-06-28T10:47:49+0200</time>
      </trkpt>
      <trkpt lat="47.25611" lon="4.96022">
        <ele>431.38024902344</ele>
        <time>2018-06-28T10:47:52+0200</time>
      </trkpt>
      <trkpt lat="47.2561" lon="4.96022">
        <ele>431.375</ele>
        <time>2018-06-28T10:47:55+0200</time>
      </trkpt>
      <trkpt lat="47.2561" lon="4.96021">
        <ele>431.36798095703</ele>
        <time>2018-06-28T10:47:58+0200</time>
      </trkpt>
      <trkpt lat="47.2561" lon="4.96021">
        <ele>431.36770629883</ele>
        <time>2018-06-28T10:48:01+0200</time>
      </trkpt>
      <trkpt lat="47.2561" lon="4.96021">
        <ele>431.38317871094</ele>
        <time>2018-06-28T10:48:04+0200</time>
      </trkpt>
      <trkpt lat="47.2561" lon="4.96021">
        <ele>431.38507080078</ele>
        <time>2018-06-28T10:48:07+0200</time>
      </trkpt>
      <trkpt lat="47.25611" lon="4.96019">
        <ele>431.4013671875</ele>
        <time>2018-06-28T10:48:10+0200</time>
      </trkpt>
      <trkpt lat="47.25612" lon="4.96019">
        <ele>431.40768432617</ele>
        <time>2018-06-28T10:48:13+0200</time>
      </trkpt>
      <trkpt lat="47.25612" lon="4.9602">
        <ele>431.40228271484</ele>
        <time>2018-06-28T10:48:16+0200</time>
      </trkpt>
      <trkpt lat="47.25612" lon="4.96021">
        <ele>431.361328125</ele>
        <time>2018-06-28T10:48:19+0200</time>
      </trkpt>
      <trkpt lat="47.25612" lon="4.96022">
        <ele>431.34796142578</ele>
        <time>2018-06-28T10:48:22+0200</time>
      </trkpt>
      <trkpt lat="47.25612" lon="4.96022">
        <ele>431.33111572266</ele>
        <time>2018-06-28T10:48:25+0200</time>
      </trkpt>
      <trkpt lat="47.25612" lon="4.96022">
        <ele>431.32421875</ele>
        <time>2018-06-28T10:48:28+0200</time>
      </trkpt>
      <trkpt lat="47.25612" lon="4.96022">
        <ele>431.34201049805</ele>
        <time>2018-06-28T10:48:31+0200</time>
      </trkpt>
      <trkpt lat="47.25612" lon="4.96021">
        <ele>431.41882324219</ele>
        <time>2018-06-28T10:48:34+0200</time>
      </trkpt>
      <trkpt lat="47.25612" lon="4.96023">
        <ele>431.55337524414</ele>
        <time>2018-06-28T10:48:37+0200</time>
      </trkpt>
      <trkpt lat="47.25611" lon="4.96025">
        <ele>431.64184570312</ele>
        <time>2018-06-28T10:48:40+0200</time>
      </trkpt>
      <trkpt lat="47.25611" lon="4.96026">
        <ele>431.64083862305</ele>
        <time>2018-06-28T10:48:43+0200</time>
      </trkpt>
      <trkpt lat="47.25611" lon="4.96027">
        <ele>431.63461303711</ele>
        <time>2018-06-28T10:48:46+0200</time>
      </trkpt>
      <trkpt lat="47.25611" lon="4.96027">
        <ele>431.63549804688</ele>
        <time>2018-06-28T10:48:49+0200</time>
      </trkpt>
      <trkpt lat="47.25612" lon="4.96028">
        <ele>431.64471435547</ele>
        <time>2018-06-28T10:48:52+0200</time>
      </trkpt>
      <trkpt lat="47.25612" lon="4.96029">
        <ele>431.75115966797</ele>
        <time>2018-06-28T10:48:55+0200</time>
      </trkpt>
      <trkpt lat="47.25612" lon="4.96029">
        <ele>431.87750244141</ele>
        <time>2018-06-28T10:48:58+0200</time>
      </trkpt>
      <trkpt lat="47.25611" lon="4.96031">
        <ele>432.03762817383</ele>
        <time>2018-06-28T10:49:01+0200</time>
      </trkpt>
      <trkpt lat="47.25608" lon="4.96033">
        <ele>432.138671875</ele>
        <time>2018-06-28T10:49:04+0200</time>
      </trkpt>
      <trkpt lat="47.25606" lon="4.96034">
        <ele>432.24841308594</ele>
        <time>2018-06-28T10:49:07+0200</time>
      </trkpt>
      <trkpt lat="47.25605" lon="4.96036">
        <ele>432.28601074219</ele>
        <time>2018-06-28T10:49:10+0200</time>
      </trkpt>
      <trkpt lat="47.25603" lon="4.96037">
        <ele>432.24377441406</ele>
        <time>2018-06-28T10:49:13+0200</time>
      </trkpt>
      <trkpt lat="47.25602" lon="4.96039">
        <ele>432.19094848633</ele>
        <time>2018-06-28T10:49:16+0200</time>
      </trkpt>
      <trkpt lat="47.25601" lon="4.96043">
        <ele>432.05307006836</ele>
        <time>2018-06-28T10:49:19+0200</time>
      </trkpt>
      <trkpt lat="47.25601" lon="4.96044">
        <ele>431.81796264648</ele>
        <time>2018-06-28T10:49:22+0200</time>
      </trkpt>
      <trkpt lat="47.25601" lon="4.96045">
        <ele>431.61907958984</ele>
        <time>2018-06-28T10:49:25+0200</time>
      </trkpt>
      <trkpt lat="47.256" lon="4.96044">
        <ele>431.58422851562</ele>
        <time>2018-06-28T10:49:28+0200</time>
      </trkpt>
      <trkpt lat="47.256" lon="4.96043">
        <ele>431.58929443359</ele>
        <time>2018-06-28T10:49:31+0200</time>
      </trkpt>
      <trkpt lat="47.256" lon="4.96043">
        <ele>431.58471679688</ele>
        <time>2018-06-28T10:49:34+0200</time>
      </trkpt>
      <trkpt lat="47.256" lon="4.96044">
        <ele>431.58261108398</ele>
        <time>2018-06-28T10:49:37+0200</time>
      </trkpt>
      <trkpt lat="47.256" lon="4.96044">
        <ele>431.56973266602</ele>
        <time>2018-06-28T10:49:40+0200</time>
      </trkpt>
      <trkpt lat="47.25599" lon="4.96045">
        <ele>431.41098022461</ele>
        <time>2018-06-28T10:49:43+0200</time>
      </trkpt>
      <trkpt lat="47.25599" lon="4.96045">
        <ele>431.17984008789</ele>
        <time>2018-06-28T10:49:46+0200</time>
      </trkpt>
      <trkpt lat="47.25599" lon="4.96047">
        <ele>430.94705200195</ele>
        <time>2018-06-28T10:49:49+0200</time>
      </trkpt>
      <trkpt lat="47.25599" lon="4.96052">
        <ele>430.80294799805</ele>
        <time>2018-06-28T10:49:52+0200</time>
      </trkpt>
      <trkpt lat="47.25599" lon="4.96056">
        <ele>430.49792480469</ele>
        <time>2018-06-28T10:49:55+0200</time>
      </trkpt>
      <trkpt lat="47.256" lon="4.96059">
        <ele>430.1022644043</ele>
        <time>2018-06-28T10:49:58+0200</time>
      </trkpt>
      <trkpt lat="47.25601" lon="4.96063">
        <ele>429.72113037109</ele>
        <time>2018-06-28T10:50:01+0200</time>
      </trkpt>
      <trkpt lat="47.25601" lon="4.96064">
        <ele>429.40780639648</ele>
        <time>2018-06-28T10:50:04+0200</time>
      </trkpt>
      <trkpt lat="47.25602" lon="4.96066">
        <ele>429.14849853516</ele>
        <time>2018-06-28T10:50:07+0200</time>
      </trkpt>
      <trkpt lat="47.25603" lon="4.96069">
        <ele>428.94064331055</ele>
        <time>2018-06-28T10:50:10+0200</time>
      </trkpt>
      <trkpt lat="47.25605" lon="4.96072">
        <ele>428.74890136719</ele>
        <time>2018-06-28T10:50:13+0200</time>
      </trkpt>
      <trkpt lat="47.25607" lon="4.96077">
        <ele>428.51947021484</ele>
        <time>2018-06-28T10:50:16+0200</time>
      </trkpt>
      <trkpt lat="47.25608" lon="4.96079">
        <ele>428.29061889648</ele>
        <time>2018-06-28T10:50:19+0200</time>
      </trkpt>
      <trkpt lat="47.25609" lon="4.96082">
        <ele>428.04721069336</ele>
        <time>2018-06-28T10:50:22+0200</time>
      </trkpt>
      <trkpt lat="47.2561" lon="4.96086">
        <ele>427.8561706543</ele>
        <time>2018-06-28T10:50:25+0200</time>
      </trkpt>
      <trkpt lat="47.25612" lon="4.96088">
        <ele>427.6696472168</ele>
        <time>2018-06-28T10:50:28+0200</time>
      </trkpt>
      <trkpt lat="47.25614" lon="4.96091">
        <ele>427.45065307617</ele>
        <time>2018-06-28T10:50:31+0200</time>
      </trkpt>
      <trkpt lat="47.25616" lon="4.96094">
        <ele>427.18600463867</ele>
        <time>2018-06-28T10:50:34+0200</time>
      </trkpt>
      <trkpt lat="47.25618" lon="4.96094">
        <ele>426.9504699707</ele>
        <time>2018-06-28T10:50:37+0200</time>
      </trkpt>
      <trkpt lat="47.25619" lon="4.96094">
        <ele>426.70156860352</ele>
        <time>2018-06-28T10:50:40+0200</time>
      </trkpt>
      <trkpt lat="47.2562" lon="4.96095">
        <ele>426.48709106445</ele>
        <time>2018-06-28T10:50:43+0200</time>
      </trkpt>
      <trkpt lat="47.25622" lon="4.96095">
        <ele>426.26519775391</ele>
        <time>2018-06-28T10:50:46+0200</time>
      </trkpt>
      <trkpt lat="47.25624" lon="4.96093">
        <ele>425.95175170898</ele>
        <time>2018-06-28T10:50:49+0200</time>
      </trkpt>
      <trkpt lat="47.25626" lon="4.96093">
        <ele>425.5910949707</ele>
        <time>2018-06-28T10:50:52+0200</time>
      </trkpt>
      <trkpt lat="47.25629" lon="4.96092">
        <ele>425.24035644531</ele>
        <time>2018-06-28T10:50:55+0200</time>
      </trkpt>
      <trkpt lat="47.25633" lon="4.96095">
        <ele>424.90240478516</ele>
        <time>2018-06-28T10:50:58+0200</time>
      </trkpt>
      <trkpt lat="47.25635" lon="4.96096">
        <ele>424.51348876953</ele>
        <time>2018-06-28T10:51:01+0200</time>
      </trkpt>
      <trkpt lat="47.25635" lon="4.96096">
        <ele>424.24279785156</ele>
        <time>2018-06-28T10:51:04+0200</time>
      </trkpt>
      <trkpt lat="47.25637" lon="4.96098">
        <ele>424.1337890625</ele>
        <time>2018-06-28T10:51:07+0200</time>
      </trkpt>
      <trkpt lat="47.25641" lon="4.96101">
        <ele>424.23123168945</ele>
        <time>2018-06-28T10:51:10+0200</time>
      </trkpt>
      <trkpt lat="47.25641" lon="4.96102">
        <ele>424.36511230469</ele>
        <time>2018-06-28T10:51:13+0200</time>
      </trkpt>
      <trkpt lat="47.25641" lon="4.96103">
        <ele>424.49295043945</ele>
        <time>2018-06-28T10:51:16+0200</time>
      </trkpt>
      <trkpt lat="47.25643" lon="4.96105">
        <ele>424.88616943359</ele>
        <time>2018-06-28T10:51:19+0200</time>
      </trkpt>
      <trkpt lat="47.25647" lon="4.96106">
        <ele>425.15881347656</ele>
        <time>2018-06-28T10:51:22+0200</time>
      </trkpt>
      <trkpt lat="47.25652" lon="4.9611">
        <ele>425.29333496094</ele>
        <time>2018-06-28T10:51:25+0200</time>
      </trkpt>
      <trkpt lat="47.25654" lon="4.96112">
        <ele>425.42910766602</ele>
        <time>2018-06-28T10:51:28+0200</time>
      </trkpt>
      <trkpt lat="47.25655" lon="4.96112">
        <ele>425.5270690918</ele>
        <time>2018-06-28T10:51:31+0200</time>
      </trkpt>
      <trkpt lat="47.25656" lon="4.96112">
        <ele>425.68298339844</ele>
        <time>2018-06-28T10:51:34+0200</time>
      </trkpt>
      <trkpt lat="47.25658" lon="4.96114">
        <ele>425.84692382812</ele>
        <time>2018-06-28T10:51:37+0200</time>
      </trkpt>
      <trkpt lat="47.25658" lon="4.96115">
        <ele>425.96438598633</ele>
        <time>2018-06-28T10:51:40+0200</time>
      </trkpt>
      <trkpt lat="47.25659" lon="4.96118">
        <ele>426.30642700195</ele>
        <time>2018-06-28T10:51:43+0200</time>
      </trkpt>
      <trkpt lat="47.25659" lon="4.96121">
        <ele>426.47970581055</ele>
        <time>2018-06-28T10:51:46+0200</time>
      </trkpt>
      <trkpt lat="47.25661" lon="4.96124">
        <ele>426.83889770508</ele>
        <time>2018-06-28T10:51:49+0200</time>
      </trkpt>
      <trkpt lat="47.25661" lon="4.96124">
        <ele>427.38677978516</ele>
        <time>2018-06-28T10:51:52+0200</time>
      </trkpt>
      <trkpt lat="47.25662" lon="4.96125">
        <ele>427.74490356445</ele>
        <time>2018-06-28T10:51:55+0200</time>
      </trkpt>
      <trkpt lat="47.25663" lon="4.9613">
        <ele>427.94686889648</ele>
        <time>2018-06-28T10:51:58+0200</time>
      </trkpt>
      <trkpt lat="47.25663" lon="4.96131">
        <ele>427.99102783203</ele>
        <time>2018-06-28T10:52:01+0200</time>
      </trkpt>
      <trkpt lat="47.25664" lon="4.96132">
        <ele>428.31594848633</ele>
        <time>2018-06-28T10:52:04+0200</time>
      </trkpt>
      <trkpt lat="47.25664" lon="4.96133">
        <ele>428.48736572266</ele>
        <time>2018-06-28T10:52:07+0200</time>
      </trkpt>
      <trkpt lat="47.2567" lon="4.96143">
        <ele>428.95428466797</ele>
        <time>2018-06-28T10:52:10+0200</time>
      </trkpt>
      <trkpt lat="47.25674" lon="4.96152">
        <ele>429.45593261719</ele>
        <time>2018-06-28T10:52:13+0200</time>
      </trkpt>
      <trkpt lat="47.25675" lon="4.96159">
        <ele>429.8503112793</ele>
        <time>2018-06-28T10:52:16+0200</time>
      </trkpt>
      <trkpt lat="47.25675" lon="4.96164">
        <ele>430.13973999023</ele>
        <time>2018-06-28T10:52:19+0200</time>
      </trkpt>
      <trkpt lat="47.25677" lon="4.96165">
        <ele>430.30844116211</ele>
        <time>2018-06-28T10:52:22+0200</time>
      </trkpt>
      <trkpt lat="47.25681" lon="4.9617">
        <ele>430.3828125</ele>
        <time>2018-06-28T10:52:25+0200</time>
      </trkpt>
      <trkpt lat="47.25684" lon="4.96172">
        <ele>430.51193237305</ele>
        <time>2018-06-28T10:52:28+0200</time>
      </trkpt>
      <trkpt lat="47.25686" lon="4.96172">
        <ele>430.64855957031</ele>
        <time>2018-06-28T10:52:31+0200</time>
      </trkpt>
      <trkpt lat="47.25689" lon="4.96174">
        <ele>430.78857421875</ele>
        <time>2018-06-28T10:52:34+0200</time>
      </trkpt>
      <trkpt lat="47.2569" lon="4.96175">
        <ele>430.88809204102</ele>
        <time>2018-06-28T10:52:37+0200</time>
      </trkpt>
      <trkpt lat="47.25693" lon="4.96176">
        <ele>430.9323425293</ele>
        <time>2018-06-28T10:52:40+0200</time>
      </trkpt>
      <trkpt lat="47.25695" lon="4.96179">
        <ele>430.75726318359</ele>
        <time>2018-06-28T10:52:43+0200</time>
      </trkpt>
      <trkpt lat="47.25697" lon="4.96182">
        <ele>430.49353027344</ele>
        <time>2018-06-28T10:52:46+0200</time>
      </trkpt>
      <trkpt lat="47.257" lon="4.96185">
        <ele>430.19967651367</ele>
        <time>2018-06-28T10:52:49+0200</time>
      </trkpt>
      <trkpt lat="47.25702" lon="4.96186">
        <ele>429.89376831055</ele>
        <time>2018-06-28T10:52:52+0200</time>
      </trkpt>
      <trkpt lat="47.25706" lon="4.96188">
        <ele>429.56365966797</ele>
        <time>2018-06-28T10:52:55+0200</time>
      </trkpt>
      <trkpt lat="47.25709" lon="4.96189">
        <ele>429.27551269531</ele>
        <time>2018-06-28T10:52:58+0200</time>
      </trkpt>
      <trkpt lat="47.25711" lon="4.96191">
        <ele>429.05621337891</ele>
        <time>2018-06-28T10:53:01+0200</time>
      </trkpt>
      <trkpt lat="47.25714" lon="4.96193">
        <ele>428.88192749023</ele>
        <time>2018-06-28T10:53:04+0200</time>
      </trkpt>
      <trkpt lat="47.25716" lon="4.96195">
        <ele>428.70358276367</ele>
        <time>2018-06-28T10:53:07+0200</time>
      </trkpt>
      <trkpt lat="47.25717" lon="4.96198">
        <ele>428.55456542969</ele>
        <time>2018-06-28T10:53:10+0200</time>
      </trkpt>
      <trkpt lat="47.25719" lon="4.96201">
        <ele>428.5107421875</ele>
        <time>2018-06-28T10:53:13+0200</time>
      </trkpt>
      <trkpt lat="47.25721" lon="4.96203">
        <ele>428.61407470703</ele>
        <time>2018-06-28T10:53:16+0200</time>
      </trkpt>
      <trkpt lat="47.25723" lon="4.96205">
        <ele>428.76348876953</ele>
        <time>2018-06-28T10:53:19+0200</time>
      </trkpt>
      <trkpt lat="47.25725" lon="4.96208">
        <ele>428.85641479492</ele>
        <time>2018-06-28T10:53:22+0200</time>
      </trkpt>
      <trkpt lat="47.25725" lon="4.96211">
        <ele>428.97052001953</ele>
        <time>2018-06-28T10:53:25+0200</time>
      </trkpt>
      <trkpt lat="47.25727" lon="4.96216">
        <ele>429.12020874023</ele>
        <time>2018-06-28T10:53:28+0200</time>
      </trkpt>
      <trkpt lat="47.25728" lon="4.9622">
        <ele>429.22497558594</ele>
        <time>2018-06-28T10:53:31+0200</time>
      </trkpt>
      <trkpt lat="47.2573" lon="4.96225">
        <ele>429.29724121094</ele>
        <time>2018-06-28T10:53:34+0200</time>
      </trkpt>
      <trkpt lat="47.2573" lon="4.96227">
        <ele>429.33520507812</ele>
        <time>2018-06-28T10:53:37+0200</time>
      </trkpt>
      <trkpt lat="47.2573" lon="4.96228">
        <ele>429.47961425781</ele>
        <time>2018-06-28T10:53:40+0200</time>
      </trkpt>
      <trkpt lat="47.2573" lon="4.9623">
        <ele>429.75006103516</ele>
        <time>2018-06-28T10:53:43+0200</time>
      </trkpt>
      <trkpt lat="47.25731" lon="4.96237">
        <ele>430.04098510742</ele>
        <time>2018-06-28T10:53:46+0200</time>
      </trkpt>
      <trkpt lat="47.25731" lon="4.9624">
        <ele>430.34078979492</ele>
        <time>2018-06-28T10:53:49+0200</time>
      </trkpt>
      <trkpt lat="47.25731" lon="4.96242">
        <ele>430.70181274414</ele>
        <time>2018-06-28T10:53:52+0200</time>
      </trkpt>
      <trkpt lat="47.25731" lon="4.96247">
        <ele>431.13217163086</ele>
        <time>2018-06-28T10:53:55+0200</time>
      </trkpt>
      <trkpt lat="47.25731" lon="4.96254">
        <ele>431.44396972656</ele>
        <time>2018-06-28T10:53:58+0200</time>
      </trkpt>
      <trkpt lat="47.25731" lon="4.96254">
        <ele>431.71694946289</ele>
        <time>2018-06-28T10:54:01+0200</time>
      </trkpt>
      <trkpt lat="47.25732" lon="4.96257">
        <ele>432.08474731445</ele>
        <time>2018-06-28T10:54:04+0200</time>
      </trkpt>
      <trkpt lat="47.25732" lon="4.96262">
        <ele>432.50253295898</ele>
        <time>2018-06-28T10:54:07+0200</time>
      </trkpt>
      <trkpt lat="47.25733" lon="4.96269">
        <ele>433.03439331055</ele>
        <time>2018-06-28T10:54:10+0200</time>
      </trkpt>
      <trkpt lat="47.25734" lon="4.96273">
        <ele>433.66384887695</ele>
        <time>2018-06-28T10:54:13+0200</time>
      </trkpt>
      <trkpt lat="47.25735" lon="4.96275">
        <ele>434.2165222168</ele>
        <time>2018-06-28T10:54:16+0200</time>
      </trkpt>
      <trkpt lat="47.25736" lon="4.96283">
        <ele>434.62951660156</ele>
        <time>2018-06-28T10:54:19+0200</time>
      </trkpt>
      <trkpt lat="47.25736" lon="4.96286">
        <ele>434.68579101562</ele>
        <time>2018-06-28T10:54:22+0200</time>
      </trkpt>
      <trkpt lat="47.25736" lon="4.96287">
        <ele>434.55633544922</ele>
        <time>2018-06-28T10:54:25+0200</time>
      </trkpt>
      <trkpt lat="47.25735" lon="4.96291">
        <ele>434.50531005859</ele>
        <time>2018-06-28T10:54:28+0200</time>
      </trkpt>
      <trkpt lat="47.25735" lon="4.96297">
        <ele>434.41943359375</ele>
        <time>2018-06-28T10:54:31+0200</time>
      </trkpt>
      <trkpt lat="47.25735" lon="4.96301">
        <ele>434.37908935547</ele>
        <time>2018-06-28T10:54:34+0200</time>
      </trkpt>
      <trkpt lat="47.25736" lon="4.96303">
        <ele>434.50894165039</ele>
        <time>2018-06-28T10:54:37+0200</time>
      </trkpt>
      <trkpt lat="47.25736" lon="4.96312">
        <ele>434.84701538086</ele>
        <time>2018-06-28T10:54:40+0200</time>
      </trkpt>
      <trkpt lat="47.25737" lon="4.96316">
        <ele>435.18612670898</ele>
        <time>2018-06-28T10:54:43+0200</time>
      </trkpt>
      <trkpt lat="47.25737" lon="4.9632">
        <ele>435.53994750977</ele>
        <time>2018-06-28T10:54:46+0200</time>
      </trkpt>
      <trkpt lat="47.25737" lon="4.96324">
        <ele>435.76959228516</ele>
        <time>2018-06-28T10:54:49+0200</time>
      </trkpt>
      <trkpt lat="47.25737" lon="4.96329">
        <ele>435.83618164062</ele>
        <time>2018-06-28T10:54:52+0200</time>
      </trkpt>
      <trkpt lat="47.25738" lon="4.96334">
        <ele>435.87603759766</ele>
        <time>2018-06-28T10:54:55+0200</time>
      </trkpt>
      <trkpt lat="47.25739" lon="4.96339">
        <ele>435.86868286133</ele>
        <time>2018-06-28T10:54:58+0200</time>
      </trkpt>
      <trkpt lat="47.25739" lon="4.9634">
        <ele>435.90713500977</ele>
        <time>2018-06-28T10:55:01+0200</time>
      </trkpt>
      <trkpt lat="47.2574" lon="4.96342">
        <ele>435.92739868164</ele>
        <time>2018-06-28T10:55:04+0200</time>
      </trkpt>
      <trkpt lat="47.2574" lon="4.96348">
        <ele>435.95684814453</ele>
        <time>2018-06-28T10:55:07+0200</time>
      </trkpt>
      <trkpt lat="47.25741" lon="4.96352">
        <ele>435.99548339844</ele>
        <time>2018-06-28T10:55:10+0200</time>
      </trkpt>
      <trkpt lat="47.25743" lon="4.96358">
        <ele>435.94549560547</ele>
        <time>2018-06-28T10:55:13+0200</time>
      </trkpt>
      <trkpt lat="47.25744" lon="4.96364">
        <ele>435.87512207031</ele>
        <time>2018-06-28T10:55:16+0200</time>
      </trkpt>
      <trkpt lat="47.25746" lon="4.9637">
        <ele>435.84771728516</ele>
        <time>2018-06-28T10:55:19+0200</time>
      </trkpt>
      <trkpt lat="47.25747" lon="4.96371">
        <ele>435.80914306641</ele>
        <time>2018-06-28T10:55:22+0200</time>
      </trkpt>
      <trkpt lat="47.25747" lon="4.96373">
        <ele>435.90008544922</ele>
        <time>2018-06-28T10:55:25+0200</time>
      </trkpt>
      <trkpt lat="47.25748" lon="4.96376">
        <ele>436.00405883789</ele>
        <time>2018-06-28T10:55:28+0200</time>
      </trkpt>
      <trkpt lat="47.25749" lon="4.96379">
        <ele>436.15954589844</ele>
        <time>2018-06-28T10:55:31+0200</time>
      </trkpt>
      <trkpt lat="47.2575" lon="4.96383">
        <ele>436.47784423828</ele>
        <time>2018-06-28T10:55:34+0200</time>
      </trkpt>
      <trkpt lat="47.2575" lon="4.96387">
        <ele>436.84408569336</ele>
        <time>2018-06-28T10:55:37+0200</time>
      </trkpt>
      <trkpt lat="47.2575" lon="4.96395">
        <ele>437.07336425781</ele>
        <time>2018-06-28T10:55:40+0200</time>
      </trkpt>
      <trkpt lat="47.25751" lon="4.96402">
        <ele>437.1286315918</ele>
        <time>2018-06-28T10:55:43+0200</time>
      </trkpt>
      <trkpt lat="47.25752" lon="4.96406">
        <ele>436.97247314453</ele>
        <time>2018-06-28T10:55:46+0200</time>
      </trkpt>
      <trkpt lat="47.25753" lon="4.96407">
        <ele>436.89401245117</ele>
        <time>2018-06-28T10:55:49+0200</time>
      </trkpt>
      <trkpt lat="47.25754" lon="4.96409">
        <ele>436.93179321289</ele>
        <time>2018-06-28T10:55:52+0200</time>
      </trkpt>
      <trkpt lat="47.25756" lon="4.96412">
        <ele>437.00341796875</ele>
        <time>2018-06-28T10:55:55+0200</time>
      </trkpt>
      <trkpt lat="47.25756" lon="4.96416">
        <ele>437.04284667969</ele>
        <time>2018-06-28T10:55:58+0200</time>
      </trkpt>
      <trkpt lat="47.25757" lon="4.96418">
        <ele>437.08001708984</ele>
        <time>2018-06-28T10:56:01+0200</time>
      </trkpt>
      <trkpt lat="47.25756" lon="4.96421">
        <ele>437.17379760742</ele>
        <time>2018-06-28T10:56:04+0200</time>
      </trkpt>
      <trkpt lat="47.25755" lon="4.96425">
        <ele>437.17504882812</ele>
        <time>2018-06-28T10:56:07+0200</time>
      </trkpt>
      <trkpt lat="47.25752" lon="4.96429">
        <ele>437.02334594727</ele>
        <time>2018-06-28T10:56:10+0200</time>
      </trkpt>
      <trkpt lat="47.25751" lon="4.96433">
        <ele>436.72888183594</ele>
        <time>2018-06-28T10:56:13+0200</time>
      </trkpt>
      <trkpt lat="47.25749" lon="4.96437">
        <ele>436.50604248047</ele>
        <time>2018-06-28T10:56:16+0200</time>
      </trkpt>
      <trkpt lat="47.25746" lon="4.96442">
        <ele>436.31918334961</ele>
        <time>2018-06-28T10:56:19+0200</time>
      </trkpt>
      <trkpt lat="47.25743" lon="4.96443">
        <ele>436.12704467773</ele>
        <time>2018-06-28T10:56:22+0200</time>
      </trkpt>
      <trkpt lat="47.2574" lon="4.96444">
        <ele>435.97564697266</ele>
        <time>2018-06-28T10:56:25+0200</time>
      </trkpt>
      <trkpt lat="47.25739" lon="4.96447">
        <ele>435.91973876953</ele>
        <time>2018-06-28T10:56:28+0200</time>
      </trkpt>
      <trkpt lat="47.25738" lon="4.96454">
        <ele>435.85977172852</ele>
        <time>2018-06-28T10:56:31+0200</time>
      </trkpt>
      <trkpt lat="47.25739" lon="4.96459">
        <ele>435.75778198242</ele>
        <time>2018-06-28T10:56:34+0200</time>
      </trkpt>
      <trkpt lat="47.2574" lon="4.96465">
        <ele>435.66812133789</ele>
        <time>2018-06-28T10:56:37+0200</time>
      </trkpt>
      <trkpt lat="47.25741" lon="4.96468">
        <ele>435.58084106445</ele>
        <time>2018-06-28T10:56:40+0200</time>
      </trkpt>
      <trkpt lat="47.25742" lon="4.96472">
        <ele>435.51019287109</ele>
        <time>2018-06-28T10:56:43+0200</time>
      </trkpt>
      <trkpt lat="47.25742" lon="4.96473">
        <ele>435.51467895508</ele>
        <time>2018-06-28T10:56:46+0200</time>
      </trkpt>
      <trkpt lat="47.25743" lon="4.96477">
        <ele>435.71633911133</ele>
        <time>2018-06-28T10:56:49+0200</time>
      </trkpt>
      <trkpt lat="47.25744" lon="4.96483">
        <ele>435.87921142578</ele>
        <time>2018-06-28T10:56:52+0200</time>
      </trkpt>
      <trkpt lat="47.25745" lon="4.96488">
        <ele>435.96563720703</ele>
        <time>2018-06-28T10:56:55+0200</time>
      </trkpt>
      <trkpt lat="47.25746" lon="4.96491">
        <ele>436.06546020508</ele>
        <time>2018-06-28T10:56:58+0200</time>
      </trkpt>
      <trkpt lat="47.25747" lon="4.96496">
        <ele>436.17413330078</ele>
        <time>2018-06-28T10:57:01+0200</time>
      </trkpt>
      <trkpt lat="47.25746" lon="4.96499">
        <ele>436.31405639648</ele>
        <time>2018-06-28T10:57:04+0200</time>
      </trkpt>
      <trkpt lat="47.25746" lon="4.96503">
        <ele>436.47952270508</ele>
        <time>2018-06-28T10:57:07+0200</time>
      </trkpt>
      <trkpt lat="47.25746" lon="4.9651">
        <ele>436.54556274414</ele>
        <time>2018-06-28T10:57:10+0200</time>
      </trkpt>
      <trkpt lat="47.25747" lon="4.96514">
        <ele>436.44027709961</ele>
        <time>2018-06-28T10:57:13+0200</time>
      </trkpt>
      <trkpt lat="47.25747" lon="4.96518">
        <ele>436.24960327148</ele>
        <time>2018-06-28T10:57:16+0200</time>
      </trkpt>
      <trkpt lat="47.25748" lon="4.96522">
        <ele>436.05767822266</ele>
        <time>2018-06-28T10:57:19+0200</time>
      </trkpt>
      <trkpt lat="47.25748" lon="4.96526">
        <ele>435.99279785156</ele>
        <time>2018-06-28T10:57:22+0200</time>
      </trkpt>
      <trkpt lat="47.25749" lon="4.9653">
        <ele>436.01895141602</ele>
        <time>2018-06-28T10:57:25+0200</time>
      </trkpt>
      <trkpt lat="47.2575" lon="4.96536">
        <ele>435.93817138672</ele>
        <time>2018-06-28T10:57:28+0200</time>
      </trkpt>
      <trkpt lat="47.25751" lon="4.9654">
        <ele>435.69348144531</ele>
        <time>2018-06-28T10:57:31+0200</time>
      </trkpt>
      <trkpt lat="47.25751" lon="4.96544">
        <ele>435.38137817383</ele>
        <time>2018-06-28T10:57:34+0200</time>
      </trkpt>
      <trkpt lat="47.25753" lon="4.96547">
        <ele>435.05358886719</ele>
        <time>2018-06-28T10:57:37+0200</time>
      </trkpt>
      <trkpt lat="47.25754" lon="4.96549">
        <ele>434.70220947266</ele>
        <time>2018-06-28T10:57:40+0200</time>
      </trkpt>
      <trkpt lat="47.25755" lon="4.96551">
        <ele>434.35409545898</ele>
        <time>2018-06-28T10:57:43+0200</time>
      </trkpt>
      <trkpt lat="47.25756" lon="4.96551">
        <ele>434.18731689453</ele>
        <time>2018-06-28T10:57:46+0200</time>
      </trkpt>
      <trkpt lat="47.25756" lon="4.96553">
        <ele>434.09936523438</ele>
        <time>2018-06-28T10:57:49+0200</time>
      </trkpt>
      <trkpt lat="47.25756" lon="4.96558">
        <ele>434.06265258789</ele>
        <time>2018-06-28T10:57:52+0200</time>
      </trkpt>
      <trkpt lat="47.25756" lon="4.96561">
        <ele>433.96478271484</ele>
        <time>2018-06-28T10:57:55+0200</time>
      </trkpt>
      <trkpt lat="47.25757" lon="4.96562">
        <ele>433.84188842773</ele>
        <time>2018-06-28T10:57:58+0200</time>
      </trkpt>
      <trkpt lat="47.25757" lon="4.96564">
        <ele>433.74639892578</ele>
        <time>2018-06-28T10:58:01+0200</time>
      </trkpt>
      <trkpt lat="47.25757" lon="4.96567">
        <ele>433.81112670898</ele>
        <time>2018-06-28T10:58:04+0200</time>
      </trkpt>
      <trkpt lat="47.25757" lon="4.96571">
        <ele>433.98211669922</ele>
        <time>2018-06-28T10:58:06+0200</time>
      </trkpt>
      <trkpt lat="47.25756" lon="4.96575">
        <ele>434.12219238281</ele>
        <time>2018-06-28T10:58:09+0200</time>
      </trkpt>
      <trkpt lat="47.25755" lon="4.96577">
        <ele>434.23992919922</ele>
        <time>2018-06-28T10:58:12+0200</time>
      </trkpt>
      <trkpt lat="47.25754" lon="4.9658">
        <ele>434.4992980957</ele>
        <time>2018-06-28T10:58:15+0200</time>
      </trkpt>
      <trkpt lat="47.25752" lon="4.96584">
        <ele>434.74526977539</ele>
        <time>2018-06-28T10:58:18+0200</time>
      </trkpt>
      <trkpt lat="47.2575" lon="4.96589">
        <ele>434.93133544922</ele>
        <time>2018-06-28T10:58:21+0200</time>
      </trkpt>
      <trkpt lat="47.25749" lon="4.96592">
        <ele>434.99923706055</ele>
        <time>2018-06-28T10:58:24+0200</time>
      </trkpt>
      <trkpt lat="47.25748" lon="4.96595">
        <ele>435.10470581055</ele>
        <time>2018-06-28T10:58:27+0200</time>
      </trkpt>
      <trkpt lat="47.25746" lon="4.96601">
        <ele>435.15850830078</ele>
        <time>2018-06-28T10:58:30+0200</time>
      </trkpt>
      <trkpt lat="47.25745" lon="4.96604">
        <ele>435.26770019531</ele>
        <time>2018-06-28T10:58:33+0200</time>
      </trkpt>
      <trkpt lat="47.25744" lon="4.96604">
        <ele>435.44882202148</ele>
        <time>2018-06-28T10:58:36+0200</time>
      </trkpt>
      <trkpt lat="47.25742" lon="4.96608">
        <ele>435.72622680664</ele>
        <time>2018-06-28T10:58:39+0200</time>
      </trkpt>
      <trkpt lat="47.25741" lon="4.9661">
        <ele>435.96557617188</ele>
        <time>2018-06-28T10:58:42+0200</time>
      </trkpt>
      <trkpt lat="47.2574" lon="4.96612">
        <ele>436.212890625</ele>
        <time>2018-06-28T10:58:45+0200</time>
      </trkpt>
      <trkpt lat="47.25739" lon="4.96616">
        <ele>436.39630126953</ele>
        <time>2018-06-28T10:58:48+0200</time>
      </trkpt>
      <trkpt lat="47.25739" lon="4.96622">
        <ele>436.46374511719</ele>
        <time>2018-06-28T10:58:51+0200</time>
      </trkpt>
      <trkpt lat="47.25738" lon="4.96628">
        <ele>436.44836425781</ele>
        <time>2018-06-28T10:58:54+0200</time>
      </trkpt>
      <trkpt lat="47.25737" lon="4.96635">
        <ele>436.36413574219</ele>
        <time>2018-06-28T10:58:57+0200</time>
      </trkpt>
      <trkpt lat="47.25737" lon="4.96636">
        <ele>436.23034667969</ele>
        <time>2018-06-28T10:59:00+0200</time>
      </trkpt>
      <trkpt lat="47.25734" lon="4.96648">
        <ele>435.91870117188</ele>
        <time>2018-06-28T10:59:03+0200</time>
      </trkpt>
      <trkpt lat="47.25734" lon="4.96653">
        <ele>435.40185546875</ele>
        <time>2018-06-28T10:59:06+0200</time>
      </trkpt>
      <trkpt lat="47.25736" lon="4.96654">
        <ele>434.95590209961</ele>
        <time>2018-06-28T10:59:09+0200</time>
      </trkpt>
      <trkpt lat="47.25736" lon="4.96656">
        <ele>434.61477661133</ele>
        <time>2018-06-28T10:59:12+0200</time>
      </trkpt>
      <trkpt lat="47.25736" lon="4.96662">
        <ele>434.3766784668</ele>
        <time>2018-06-28T10:59:15+0200</time>
      </trkpt>
      <trkpt lat="47.25736" lon="4.96665">
        <ele>434.25439453125</ele>
        <time>2018-06-28T10:59:18+0200</time>
      </trkpt>
      <trkpt lat="47.25736" lon="4.9667">
        <ele>434.20590209961</ele>
        <time>2018-06-28T10:59:21+0200</time>
      </trkpt>
      <trkpt lat="47.25735" lon="4.96675">
        <ele>434.05227661133</ele>
        <time>2018-06-28T10:59:24+0200</time>
      </trkpt>
      <trkpt lat="47.25735" lon="4.9668">
        <ele>433.77297973633</ele>
        <time>2018-06-28T10:59:27+0200</time>
      </trkpt>
      <trkpt lat="47.25735" lon="4.96681">
        <ele>433.58709716797</ele>
        <time>2018-06-28T10:59:30+0200</time>
      </trkpt>
      <trkpt lat="47.25734" lon="4.96684">
        <ele>433.46981811523</ele>
        <time>2018-06-28T10:59:33+0200</time>
      </trkpt>
      <trkpt lat="47.25734" lon="4.96687">
        <ele>433.36926269531</ele>
        <time>2018-06-28T10:59:36+0200</time>
      </trkpt>
      <trkpt lat="47.25733" lon="4.96691">
        <ele>433.23110961914</ele>
        <time>2018-06-28T10:59:39+0200</time>
      </trkpt>
      <trkpt lat="47.25732" lon="4.96694">
        <ele>433.09161376953</ele>
        <time>2018-06-28T10:59:42+0200</time>
      </trkpt>
      <trkpt lat="47.25732" lon="4.96695">
        <ele>432.87976074219</ele>
        <time>2018-06-28T10:59:45+0200</time>
      </trkpt>
      <trkpt lat="47.2573" lon="4.96697">
        <ele>432.69186401367</ele>
        <time>2018-06-28T10:59:48+0200</time>
      </trkpt>
      <trkpt lat="47.2573" lon="4.96703">
        <ele>432.41949462891</ele>
        <time>2018-06-28T10:59:51+0200</time>
      </trkpt>
      <trkpt lat="47.25729" lon="4.96706">
        <ele>432.27590942383</ele>
        <time>2018-06-28T10:59:54+0200</time>
      </trkpt>
      <trkpt lat="47.25729" lon="4.96707">
        <ele>432.16482543945</ele>
        <time>2018-06-28T10:59:57+0200</time>
      </trkpt>
      <trkpt lat="47.25728" lon="4.96707">
        <ele>432.15533447266</ele>
        <time>2018-06-28T11:00:00+0200</time>
      </trkpt>
      <trkpt lat="47.25726" lon="4.9671">
        <ele>432.06033325195</ele>
        <time>2018-06-28T11:00:03+0200</time>
      </trkpt>
      <trkpt lat="47.25725" lon="4.96715">
        <ele>431.95016479492</ele>
        <time>2018-06-28T11:00:06+0200</time>
      </trkpt>
      <trkpt lat="47.25725" lon="4.96721">
        <ele>431.79550170898</ele>
        <time>2018-06-28T11:00:09+0200</time>
      </trkpt>
      <trkpt lat="47.25724" lon="4.96731">
        <ele>431.33346557617</ele>
        <time>2018-06-28T11:00:12+0200</time>
      </trkpt>
      <trkpt lat="47.25723" lon="4.96738">
        <ele>430.62145996094</ele>
        <time>2018-06-28T11:00:15+0200</time>
      </trkpt>
      <trkpt lat="47.25723" lon="4.9674">
        <ele>430.00439453125</ele>
        <time>2018-06-28T11:00:18+0200</time>
      </trkpt>
      <trkpt lat="47.25725" lon="4.96742">
        <ele>429.16757202148</ele>
        <time>2018-06-28T11:00:21+0200</time>
      </trkpt>
      <trkpt lat="47.25726" lon="4.96743">
        <ele>428.62954711914</ele>
        <time>2018-06-28T11:00:24+0200</time>
      </trkpt>
      <trkpt lat="47.25726" lon="4.96742">
        <ele>428.35659790039</ele>
        <time>2018-06-28T11:00:27+0200</time>
      </trkpt>
      <trkpt lat="47.25726" lon="4.96744">
        <ele>428.0634765625</ele>
        <time>2018-06-28T11:00:30+0200</time>
      </trkpt>
      <trkpt lat="47.25726" lon="4.96745">
        <ele>427.60833740234</ele>
        <time>2018-06-28T11:00:33+0200</time>
      </trkpt>
      <trkpt lat="47.25727" lon="4.96747">
        <ele>427.37432861328</ele>
        <time>2018-06-28T11:00:36+0200</time>
      </trkpt>
      <trkpt lat="47.25729" lon="4.96758">
        <ele>426.82946777344</ele>
        <time>2018-06-28T11:00:39+0200</time>
      </trkpt>
      <trkpt lat="47.25729" lon="4.96758">
        <ele>426.26235961914</ele>
        <time>2018-06-28T11:00:42+0200</time>
      </trkpt>
      <trkpt lat="47.25728" lon="4.96764">
        <ele>425.81500244141</ele>
        <time>2018-06-28T11:00:45+0200</time>
      </trkpt>
      <trkpt lat="47.25727" lon="4.96765">
        <ele>425.54647827148</ele>
        <time>2018-06-28T11:00:48+0200</time>
      </trkpt>
      <trkpt lat="47.25727" lon="4.96768">
        <ele>425.25439453125</ele>
        <time>2018-06-28T11:00:51+0200</time>
      </trkpt>
      <trkpt lat="47.25728" lon="4.96769">
        <ele>424.98062133789</ele>
        <time>2018-06-28T11:00:54+0200</time>
      </trkpt>
      <trkpt lat="47.25727" lon="4.96772">
        <ele>424.67007446289</ele>
        <time>2018-06-28T11:00:57+0200</time>
      </trkpt>
      <trkpt lat="47.25727" lon="4.96775">
        <ele>424.14916992188</ele>
        <time>2018-06-28T11:01:00+0200</time>
      </trkpt>
      <trkpt lat="47.25727" lon="4.96775">
        <ele>423.73699951172</ele>
        <time>2018-06-28T11:01:03+0200</time>
      </trkpt>
      <trkpt lat="47.25725" lon="4.96784">
        <ele>423.00009155273</ele>
        <time>2018-06-28T11:01:06+0200</time>
      </trkpt>
      <trkpt lat="47.25724" lon="4.9679">
        <ele>422.34194946289</ele>
        <time>2018-06-28T11:01:09+0200</time>
      </trkpt>
      <trkpt lat="47.25725" lon="4.96793">
        <ele>421.22048950195</ele>
        <time>2018-06-28T11:01:12+0200</time>
      </trkpt>
      <trkpt lat="47.25726" lon="4.96792">
        <ele>420.05975341797</ele>
        <time>2018-06-28T11:01:15+0200</time>
      </trkpt>
      <trkpt lat="47.25727" lon="4.96796">
        <ele>418.99475097656</ele>
        <time>2018-06-28T11:01:18+0200</time>
      </trkpt>
      <trkpt lat="47.25727" lon="4.968">
        <ele>417.98641967773</ele>
        <time>2018-06-28T11:01:21+0200</time>
      </trkpt>
      <trkpt lat="47.25727" lon="4.96805">
        <ele>417.02484130859</ele>
        <time>2018-06-28T11:01:24+0200</time>
      </trkpt>
      <trkpt lat="47.25727" lon="4.96809">
        <ele>416.41201782227</ele>
        <time>2018-06-28T11:01:27+0200</time>
      </trkpt>
      <trkpt lat="47.25727" lon="4.96816">
        <ele>415.54473876953</ele>
        <time>2018-06-28T11:01:30+0200</time>
      </trkpt>
      <trkpt lat="47.25727" lon="4.96819">
        <ele>414.72427368164</ele>
        <time>2018-06-28T11:01:33+0200</time>
      </trkpt>
      <trkpt lat="47.25727" lon="4.96822">
        <ele>413.92730712891</ele>
        <time>2018-06-28T11:01:36+0200</time>
      </trkpt>
      <trkpt lat="47.25728" lon="4.96823">
        <ele>413.27282714844</ele>
        <time>2018-06-28T11:01:39+0200</time>
      </trkpt>
      <trkpt lat="47.25729" lon="4.96823">
        <ele>412.95608520508</ele>
        <time>2018-06-28T11:01:42+0200</time>
      </trkpt>
      <trkpt lat="47.25731" lon="4.96824">
        <ele>412.6413269043</ele>
        <time>2018-06-28T11:01:45+0200</time>
      </trkpt>
      <trkpt lat="47.25732" lon="4.96832">
        <ele>412.34408569336</ele>
        <time>2018-06-28T11:01:48+0200</time>
      </trkpt>
      <trkpt lat="47.25733" lon="4.96837">
        <ele>412.20919799805</ele>
        <time>2018-06-28T11:01:51+0200</time>
      </trkpt>
      <trkpt lat="47.25734" lon="4.96842">
        <ele>411.68630981445</ele>
        <time>2018-06-28T11:01:54+0200</time>
      </trkpt>
      <trkpt lat="47.25734" lon="4.96843">
        <ele>411.06204223633</ele>
        <time>2018-06-28T11:01:57+0200</time>
      </trkpt>
      <trkpt lat="47.25736" lon="4.96846">
        <ele>410.45489501953</ele>
        <time>2018-06-28T11:02:00+0200</time>
      </trkpt>
      <trkpt lat="47.25737" lon="4.96848">
        <ele>409.97201538086</ele>
        <time>2018-06-28T11:02:03+0200</time>
      </trkpt>
      <trkpt lat="47.25738" lon="4.96854">
        <ele>409.19158935547</ele>
        <time>2018-06-28T11:02:06+0200</time>
      </trkpt>
      <trkpt lat="47.25742" lon="4.96854">
        <ele>408.66735839844</ele>
        <time>2018-06-28T11:02:09+0200</time>
      </trkpt>
      <trkpt lat="47.25743" lon="4.96854">
        <ele>408.18347167969</ele>
        <time>2018-06-28T11:02:12+0200</time>
      </trkpt>
      <trkpt lat="47.25744" lon="4.96857">
        <ele>407.62942504883</ele>
        <time>2018-06-28T11:02:15+0200</time>
      </trkpt>
      <trkpt lat="47.25747" lon="4.96859">
        <ele>407.07608032227</ele>
        <time>2018-06-28T11:02:18+0200</time>
      </trkpt>
      <trkpt lat="47.2575" lon="4.96861">
        <ele>406.45599365234</ele>
        <time>2018-06-28T11:02:21+0200</time>
      </trkpt>
      <trkpt lat="47.25751" lon="4.96862">
        <ele>405.91091918945</ele>
        <time>2018-06-28T11:02:24+0200</time>
      </trkpt>
      <trkpt lat="47.25751" lon="4.96862">
        <ele>405.64828491211</ele>
        <time>2018-06-28T11:02:27+0200</time>
      </trkpt>
      <trkpt lat="47.25752" lon="4.96862">
        <ele>405.60809326172</ele>
        <time>2018-06-28T11:02:30+0200</time>
      </trkpt>
      <trkpt lat="47.25752" lon="4.96862">
        <ele>405.5700378418</ele>
        <time>2018-06-28T11:02:33+0200</time>
      </trkpt>
      <trkpt lat="47.25753" lon="4.96862">
        <ele>405.5315246582</ele>
        <time>2018-06-28T11:02:36+0200</time>
      </trkpt>
      <trkpt lat="47.25753" lon="4.96862">
        <ele>405.49404907227</ele>
        <time>2018-06-28T11:02:39+0200</time>
      </trkpt>
      <trkpt lat="47.25754" lon="4.96861">
        <ele>405.47305297852</ele>
        <time>2018-06-28T11:02:42+0200</time>
      </trkpt>
      <trkpt lat="47.25754" lon="4.96861">
        <ele>405.44134521484</ele>
        <time>2018-06-28T11:02:45+0200</time>
      </trkpt>
      <trkpt lat="47.25754" lon="4.96861">
        <ele>405.39440917969</ele>
        <time>2018-06-28T11:02:48+0200</time>
      </trkpt>
      <trkpt lat="47.25754" lon="4.96861">
        <ele>405.34033203125</ele>
        <time>2018-06-28T11:02:51+0200</time>
      </trkpt>
      <trkpt lat="47.25755" lon="4.96862">
        <ele>405.28057861328</ele>
        <time>2018-06-28T11:02:54+0200</time>
      </trkpt>
      <trkpt lat="47.25757" lon="4.96864">
        <ele>405.04690551758</ele>
        <time>2018-06-28T11:02:57+0200</time>
      </trkpt>
      <trkpt lat="47.25757" lon="4.96864">
        <ele>404.99560546875</ele>
        <time>2018-06-28T11:03:00+0200</time>
      </trkpt>
      <trkpt lat="47.25757" lon="4.96864">
        <ele>404.9709777832</ele>
        <time>2018-06-28T11:03:03+0200</time>
      </trkpt>
      <trkpt lat="47.25757" lon="4.96864">
        <ele>404.96380615234</ele>
        <time>2018-06-28T11:03:06+0200</time>
      </trkpt>
      <trkpt lat="47.25757" lon="4.96864">
        <ele>404.95477294922</ele>
        <time>2018-06-28T11:03:09+0200</time>
      </trkpt>
      <trkpt lat="47.25757" lon="4.96864">
        <ele>404.92971801758</ele>
        <time>2018-06-28T11:03:12+0200</time>
      </trkpt>
      <trkpt lat="47.25757" lon="4.96863">
        <ele>404.91741943359</ele>
        <time>2018-06-28T11:03:15+0200</time>
      </trkpt>
      <trkpt lat="47.25756" lon="4.96864">
        <ele>404.80081176758</ele>
        <time>2018-06-28T11:03:18+0200</time>
      </trkpt>
      <trkpt lat="47.25756" lon="4.96864">
        <ele>404.67172241211</ele>
        <time>2018-06-28T11:03:21+0200</time>
      </trkpt>
      <trkpt lat="47.25756" lon="4.96865">
        <ele>404.43286132812</ele>
        <time>2018-06-28T11:03:24+0200</time>
      </trkpt>
      <trkpt lat="47.25757" lon="4.96865">
        <ele>404.36685180664</ele>
        <time>2018-06-28T11:03:27+0200</time>
      </trkpt>
      <trkpt lat="47.25758" lon="4.96866">
        <ele>404.31811523438</ele>
        <time>2018-06-28T11:03:30+0200</time>
      </trkpt>
      <trkpt lat="47.25759" lon="4.96867">
        <ele>404.29241943359</ele>
        <time>2018-06-28T11:03:33+0200</time>
      </trkpt>
      <trkpt lat="47.25759" lon="4.96867">
        <ele>404.27633666992</ele>
        <time>2018-06-28T11:03:36+0200</time>
      </trkpt>
      <trkpt lat="47.25759" lon="4.96867">
        <ele>404.25802612305</ele>
        <time>2018-06-28T11:03:39+0200</time>
      </trkpt>
      <trkpt lat="47.2576" lon="4.96867">
        <ele>404.23788452148</ele>
        <time>2018-06-28T11:03:42+0200</time>
      </trkpt>
      <trkpt lat="47.2576" lon="4.96867">
        <ele>404.21496582031</ele>
        <time>2018-06-28T11:03:45+0200</time>
      </trkpt>
      <trkpt lat="47.2576" lon="4.96867">
        <ele>404.18325805664</ele>
        <time>2018-06-28T11:03:48+0200</time>
      </trkpt>
      <trkpt lat="47.2576" lon="4.96867">
        <ele>404.15191650391</ele>
        <time>2018-06-28T11:03:51+0200</time>
      </trkpt>
      <trkpt lat="47.2576" lon="4.96867">
        <ele>404.12036132812</ele>
        <time>2018-06-28T11:03:54+0200</time>
      </trkpt>
      <trkpt lat="47.25761" lon="4.96867">
        <ele>404.08447265625</ele>
        <time>2018-06-28T11:03:57+0200</time>
      </trkpt>
      <trkpt lat="47.25761" lon="4.96867">
        <ele>404.03451538086</ele>
        <time>2018-06-28T11:04:00+0200</time>
      </trkpt>
      <trkpt lat="47.25761" lon="4.96867">
        <ele>403.98919677734</ele>
        <time>2018-06-28T11:04:03+0200</time>
      </trkpt>
      <trkpt lat="47.25761" lon="4.96867">
        <ele>403.95693969727</ele>
        <time>2018-06-28T11:04:06+0200</time>
      </trkpt>
      <trkpt lat="47.25761" lon="4.96867">
        <ele>403.9401550293</ele>
        <time>2018-06-28T11:04:09+0200</time>
      </trkpt>
      <trkpt lat="47.25761" lon="4.96867">
        <ele>403.93344116211</ele>
        <time>2018-06-28T11:04:12+0200</time>
      </trkpt>
      <trkpt lat="47.2576" lon="4.96867">
        <ele>403.92633056641</ele>
        <time>2018-06-28T11:04:15+0200</time>
      </trkpt>
      <trkpt lat="47.2576" lon="4.96867">
        <ele>403.85586547852</ele>
        <time>2018-06-28T11:04:18+0200</time>
      </trkpt>
      <trkpt lat="47.2576" lon="4.96867">
        <ele>403.82684326172</ele>
        <time>2018-06-28T11:04:21+0200</time>
      </trkpt>
      <trkpt lat="47.2576" lon="4.96866">
        <ele>403.78118896484</ele>
        <time>2018-06-28T11:04:24+0200</time>
      </trkpt>
      <trkpt lat="47.25761" lon="4.96867">
        <ele>403.69812011719</ele>
        <time>2018-06-28T11:04:27+0200</time>
      </trkpt>
      <trkpt lat="47.25761" lon="4.96867">
        <ele>403.59860229492</ele>
        <time>2018-06-28T11:04:30+0200</time>
      </trkpt>
      <trkpt lat="47.25761" lon="4.96867">
        <ele>403.4992980957</ele>
        <time>2018-06-28T11:04:33+0200</time>
      </trkpt>
      <trkpt lat="47.25762" lon="4.96868">
        <ele>403.13018798828</ele>
        <time>2018-06-28T11:04:36+0200</time>
      </trkpt>
      <trkpt lat="47.25762" lon="4.96869">
        <ele>403.08563232422</ele>
        <time>2018-06-28T11:04:39+0200</time>
      </trkpt>
      <trkpt lat="47.25762" lon="4.96869">
        <ele>403.06381225586</ele>
        <time>2018-06-28T11:04:42+0200</time>
      </trkpt>
      <trkpt lat="47.25764" lon="4.9687">
        <ele>402.95126342773</ele>
        <time>2018-06-28T11:04:45+0200</time>
      </trkpt>
      <trkpt lat="47.25764" lon="4.96871">
        <ele>402.86611938477</ele>
        <time>2018-06-28T11:04:48+0200</time>
      </trkpt>
      <trkpt lat="47.25764" lon="4.96871">
        <ele>402.83090209961</ele>
        <time>2018-06-28T11:04:51+0200</time>
      </trkpt>
      <trkpt lat="47.25764" lon="4.96872">
        <ele>402.78665161133</ele>
        <time>2018-06-28T11:04:54+0200</time>
      </trkpt>
      <trkpt lat="47.25764" lon="4.96872">
        <ele>402.74520874023</ele>
        <time>2018-06-28T11:04:57+0200</time>
      </trkpt>
      <trkpt lat="47.25764" lon="4.96872">
        <ele>402.59829711914</ele>
        <time>2018-06-28T11:05:00+0200</time>
      </trkpt>
      <trkpt lat="47.25764" lon="4.96871">
        <ele>402.53909301758</ele>
        <time>2018-06-28T11:05:03+0200</time>
      </trkpt>
      <trkpt lat="47.25764" lon="4.96871">
        <ele>402.47525024414</ele>
        <time>2018-06-28T11:05:06+0200</time>
      </trkpt>
      <trkpt lat="47.25763" lon="4.96868">
        <ele>402.1923828125</ele>
        <time>2018-06-28T11:05:09+0200</time>
      </trkpt>
      <trkpt lat="47.25762" lon="4.96866">
        <ele>402.14236450195</ele>
        <time>2018-06-28T11:05:12+0200</time>
      </trkpt>
      <trkpt lat="47.25762" lon="4.96867">
        <ele>402.10882568359</ele>
        <time>2018-06-28T11:05:15+0200</time>
      </trkpt>
      <trkpt lat="47.25765" lon="4.96874">
        <ele>402.07391357422</ele>
        <time>2018-06-28T11:05:18+0200</time>
      </trkpt>
      <trkpt lat="47.25765" lon="4.96875">
        <ele>401.93167114258</ele>
        <time>2018-06-28T11:05:21+0200</time>
      </trkpt>
      <trkpt lat="47.25765" lon="4.96875">
        <ele>401.73876953125</ele>
        <time>2018-06-28T11:05:24+0200</time>
      </trkpt>
      <trkpt lat="47.25765" lon="4.96875">
        <ele>401.68344116211</ele>
        <time>2018-06-28T11:05:27+0200</time>
      </trkpt>
      <trkpt lat="47.25765" lon="4.96874">
        <ele>401.59912109375</ele>
        <time>2018-06-28T11:05:30+0200</time>
      </trkpt>
      <trkpt lat="47.25765" lon="4.96874">
        <ele>401.52355957031</ele>
        <time>2018-06-28T11:05:33+0200</time>
      </trkpt>
      <trkpt lat="47.25764" lon="4.96874">
        <ele>401.22784423828</ele>
        <time>2018-06-28T11:05:36+0200</time>
      </trkpt>
      <trkpt lat="47.25764" lon="4.96874">
        <ele>401.15908813477</ele>
        <time>2018-06-28T11:05:39+0200</time>
      </trkpt>
      <trkpt lat="47.25763" lon="4.96874">
        <ele>400.91650390625</ele>
        <time>2018-06-28T11:05:42+0200</time>
      </trkpt>
      <trkpt lat="47.25762" lon="4.96874">
        <ele>400.87734985352</ele>
        <time>2018-06-28T11:05:45+0200</time>
      </trkpt>
      <trkpt lat="47.25762" lon="4.96873">
        <ele>400.84320068359</ele>
        <time>2018-06-28T11:05:48+0200</time>
      </trkpt>
      <trkpt lat="47.25762" lon="4.96873">
        <ele>400.80889892578</ele>
        <time>2018-06-28T11:05:51+0200</time>
      </trkpt>
      <trkpt lat="47.25762" lon="4.96873">
        <ele>400.78018188477</ele>
        <time>2018-06-28T11:05:54+0200</time>
      </trkpt>
      <trkpt lat="47.25762" lon="4.96873">
        <ele>400.75347900391</ele>
        <time>2018-06-28T11:05:57+0200</time>
      </trkpt>
      <trkpt lat="47.25762" lon="4.96873">
        <ele>400.7219543457</ele>
        <time>2018-06-28T11:06:00+0200</time>
      </trkpt>
      <trkpt lat="47.25762" lon="4.96873">
        <ele>400.57723999023</ele>
        <time>2018-06-28T11:06:03+0200</time>
      </trkpt>
      <trkpt lat="47.25762" lon="4.96872">
        <ele>400.43304443359</ele>
        <time>2018-06-28T11:06:06+0200</time>
      </trkpt>
      <trkpt lat="47.25762" lon="4.96871">
        <ele>400.25573730469</ele>
        <time>2018-06-28T11:06:09+0200</time>
      </trkpt>
      <trkpt lat="47.25762" lon="4.96872">
        <ele>400.20892333984</ele>
        <time>2018-06-28T11:06:12+0200</time>
      </trkpt>
      <trkpt lat="47.25761" lon="4.96871">
        <ele>400.15536499023</ele>
        <time>2018-06-28T11:06:15+0200</time>
      </trkpt>
      <trkpt lat="47.25761" lon="4.96871">
        <ele>400.09790039062</ele>
        <time>2018-06-28T11:06:18+0200</time>
      </trkpt>
      <trkpt lat="47.25761" lon="4.96871">
        <ele>400.04183959961</ele>
        <time>2018-06-28T11:06:21+0200</time>
      </trkpt>
      <trkpt lat="47.25761" lon="4.9687">
        <ele>399.99072265625</ele>
        <time>2018-06-28T11:06:24+0200</time>
      </trkpt>
      <trkpt lat="47.25761" lon="4.9687">
        <ele>399.94226074219</ele>
        <time>2018-06-28T11:06:27+0200</time>
      </trkpt>
      <trkpt lat="47.25761" lon="4.9687">
        <ele>399.8923034668</ele>
        <time>2018-06-28T11:06:30+0200</time>
      </trkpt>
      <trkpt lat="47.25761" lon="4.9687">
        <ele>399.83636474609</ele>
        <time>2018-06-28T11:06:33+0200</time>
      </trkpt>
      <trkpt lat="47.2576" lon="4.9687">
        <ele>399.77899169922</ele>
        <time>2018-06-28T11:06:36+0200</time>
      </trkpt>
      <trkpt lat="47.2576" lon="4.96869">
        <ele>399.72409057617</ele>
        <time>2018-06-28T11:06:39+0200</time>
      </trkpt>
      <trkpt lat="47.2576" lon="4.96869">
        <ele>399.67263793945</ele>
        <time>2018-06-28T11:06:42+0200</time>
      </trkpt>
      <trkpt lat="47.2576" lon="4.96869">
        <ele>399.61413574219</ele>
        <time>2018-06-28T11:06:45+0200</time>
      </trkpt>
      <trkpt lat="47.2576" lon="4.96869">
        <ele>399.55053710938</ele>
        <time>2018-06-28T11:06:48+0200</time>
      </trkpt>
      <trkpt lat="47.2576" lon="4.9687">
        <ele>399.49020385742</ele>
        <time>2018-06-28T11:06:51+0200</time>
      </trkpt>
      <trkpt lat="47.2576" lon="4.9687">
        <ele>399.43350219727</ele>
        <time>2018-06-28T11:06:54+0200</time>
      </trkpt>
      <trkpt lat="47.2576" lon="4.9687">
        <ele>399.38610839844</ele>
        <time>2018-06-28T11:06:57+0200</time>
      </trkpt>
      <trkpt lat="47.2576" lon="4.9687">
        <ele>399.34265136719</ele>
        <time>2018-06-28T11:07:00+0200</time>
      </trkpt>
      <trkpt lat="47.2576" lon="4.9687">
        <ele>399.30419921875</ele>
        <time>2018-06-28T11:07:03+0200</time>
      </trkpt>
      <trkpt lat="47.2576" lon="4.9687">
        <ele>399.26712036133</ele>
        <time>2018-06-28T11:07:06+0200</time>
      </trkpt>
      <trkpt lat="47.2576" lon="4.9687">
        <ele>399.23135375977</ele>
        <time>2018-06-28T11:07:09+0200</time>
      </trkpt>
      <trkpt lat="47.2576" lon="4.9687">
        <ele>399.1965637207</ele>
        <time>2018-06-28T11:07:12+0200</time>
      </trkpt>
      <trkpt lat="47.2576" lon="4.9687">
        <ele>399.16387939453</ele>
        <time>2018-06-28T11:07:15+0200</time>
      </trkpt>
      <trkpt lat="47.2576" lon="4.9687">
        <ele>399.12774658203</ele>
        <time>2018-06-28T11:07:18+0200</time>
      </trkpt>
      <trkpt lat="47.2576" lon="4.96871">
        <ele>398.99185180664</ele>
        <time>2018-06-28T11:07:21+0200</time>
      </trkpt>
      <trkpt lat="47.2576" lon="4.96871">
        <ele>398.95742797852</ele>
        <time>2018-06-28T11:07:24+0200</time>
      </trkpt>
      <trkpt lat="47.2576" lon="4.96871">
        <ele>398.9196472168</ele>
        <time>2018-06-28T11:07:27+0200</time>
      </trkpt>
      <trkpt lat="47.2576" lon="4.96871">
        <ele>398.87893676758</ele>
        <time>2018-06-28T11:07:30+0200</time>
      </trkpt>
      <trkpt lat="47.2576" lon="4.96871">
        <ele>398.83499145508</ele>
        <time>2018-06-28T11:07:33+0200</time>
      </trkpt>
      <trkpt lat="47.2576" lon="4.96871">
        <ele>398.79513549805</ele>
        <time>2018-06-28T11:07:36+0200</time>
      </trkpt>
      <trkpt lat="47.2576" lon="4.96871">
        <ele>398.75592041016</ele>
        <time>2018-06-28T11:07:39+0200</time>
      </trkpt>
      <trkpt lat="47.2576" lon="4.9687">
        <ele>398.71545410156</ele>
        <time>2018-06-28T11:07:42+0200</time>
      </trkpt>
      <trkpt lat="47.2576" lon="4.9687">
        <ele>398.67861938477</ele>
        <time>2018-06-28T11:07:45+0200</time>
      </trkpt>
      <trkpt lat="47.2576" lon="4.96869">
        <ele>398.64392089844</ele>
        <time>2018-06-28T11:07:48+0200</time>
      </trkpt>
      <trkpt lat="47.2576" lon="4.96869">
        <ele>398.61337280273</ele>
        <time>2018-06-28T11:07:51+0200</time>
      </trkpt>
      <trkpt lat="47.25759" lon="4.96868">
        <ele>398.58163452148</ele>
        <time>2018-06-28T11:07:54+0200</time>
      </trkpt>
      <trkpt lat="47.2576" lon="4.96869">
        <ele>398.44854736328</ele>
        <time>2018-06-28T11:07:57+0200</time>
      </trkpt>
      <trkpt lat="47.2576" lon="4.96868">
        <ele>398.23406982422</ele>
        <time>2018-06-28T11:08:00+0200</time>
      </trkpt>
      <trkpt lat="47.2576" lon="4.96867">
        <ele>398.20434570312</ele>
        <time>2018-06-28T11:08:03+0200</time>
      </trkpt>
      <trkpt lat="47.2576" lon="4.96867">
        <ele>398.17980957031</ele>
        <time>2018-06-28T11:08:06+0200</time>
      </trkpt>
      <trkpt lat="47.2576" lon="4.96867">
        <ele>398.16448974609</ele>
        <time>2018-06-28T11:08:09+0200</time>
      </trkpt>
      <trkpt lat="47.2576" lon="4.96867">
        <ele>398.15115356445</ele>
        <time>2018-06-28T11:08:12+0200</time>
      </trkpt>
      <trkpt lat="47.2576" lon="4.96867">
        <ele>398.14031982422</ele>
        <time>2018-06-28T11:08:15+0200</time>
      </trkpt>
      <trkpt lat="47.2576" lon="4.96867">
        <ele>398.1298828125</ele>
        <time>2018-06-28T11:08:18+0200</time>
      </trkpt>
      <trkpt lat="47.2576" lon="4.96868">
        <ele>398.1208190918</ele>
        <time>2018-06-28T11:08:21+0200</time>
      </trkpt>
      <trkpt lat="47.25761" lon="4.9687">
        <ele>398.04635620117</ele>
        <time>2018-06-28T11:08:24+0200</time>
      </trkpt>
      <trkpt lat="47.25763" lon="4.96874">
        <ele>397.96002197266</ele>
        <time>2018-06-28T11:08:27+0200</time>
      </trkpt>
      <trkpt lat="47.25763" lon="4.96876">
        <ele>397.90112304688</ele>
        <time>2018-06-28T11:08:30+0200</time>
      </trkpt>
      <trkpt lat="47.25764" lon="4.96878">
        <ele>397.85198974609</ele>
        <time>2018-06-28T11:08:33+0200</time>
      </trkpt>
      <trkpt lat="47.25766" lon="4.96879">
        <ele>397.84439086914</ele>
        <time>2018-06-28T11:08:36+0200</time>
      </trkpt>
      <trkpt lat="47.25768" lon="4.96882">
        <ele>397.83251953125</ele>
        <time>2018-06-28T11:08:39+0200</time>
      </trkpt>
      <trkpt lat="47.25769" lon="4.96882">
        <ele>397.82373046875</ele>
        <time>2018-06-28T11:08:42+0200</time>
      </trkpt>
      <trkpt lat="47.25769" lon="4.96879">
        <ele>397.76550292969</ele>
        <time>2018-06-28T11:08:45+0200</time>
      </trkpt>
      <trkpt lat="47.25771" lon="4.9688">
        <ele>397.67199707031</ele>
        <time>2018-06-28T11:08:48+0200</time>
      </trkpt>
      <trkpt lat="47.25772" lon="4.96879">
        <ele>397.56619262695</ele>
        <time>2018-06-28T11:08:51+0200</time>
      </trkpt>
      <trkpt lat="47.25772" lon="4.96879">
        <ele>397.54968261719</ele>
        <time>2018-06-28T11:08:54+0200</time>
      </trkpt>
      <trkpt lat="47.25773" lon="4.96879">
        <ele>397.53851318359</ele>
        <time>2018-06-28T11:08:57+0200</time>
      </trkpt>
      <trkpt lat="47.25773" lon="4.9688">
        <ele>397.49468994141</ele>
        <time>2018-06-28T11:09:00+0200</time>
      </trkpt>
      <trkpt lat="47.25774" lon="4.96881">
        <ele>397.47073364258</ele>
        <time>2018-06-28T11:09:03+0200</time>
      </trkpt>
      <trkpt lat="47.25777" lon="4.96884">
        <ele>397.46041870117</ele>
        <time>2018-06-28T11:09:06+0200</time>
      </trkpt>
      <trkpt lat="47.25779" lon="4.96884">
        <ele>397.46398925781</ele>
        <time>2018-06-28T11:09:09+0200</time>
      </trkpt>
      <trkpt lat="47.2578" lon="4.96884">
        <ele>397.46395874023</ele>
        <time>2018-06-28T11:09:12+0200</time>
      </trkpt>
      <trkpt lat="47.2578" lon="4.96885">
        <ele>397.46206665039</ele>
        <time>2018-06-28T11:09:15+0200</time>
      </trkpt>
      <trkpt lat="47.2578" lon="4.96885">
        <ele>397.45587158203</ele>
        <time>2018-06-28T11:09:18+0200</time>
      </trkpt>
      <trkpt lat="47.2578" lon="4.96885">
        <ele>397.43399047852</ele>
        <time>2018-06-28T11:09:21+0200</time>
      </trkpt>
      <trkpt lat="47.25783" lon="4.96886">
        <ele>397.41436767578</ele>
        <time>2018-06-28T11:09:24+0200</time>
      </trkpt>
      <trkpt lat="47.25784" lon="4.96886">
        <ele>397.39459228516</ele>
        <time>2018-06-28T11:09:27+0200</time>
      </trkpt>
      <trkpt lat="47.25784" lon="4.96887">
        <ele>397.37503051758</ele>
        <time>2018-06-28T11:09:30+0200</time>
      </trkpt>
      <trkpt lat="47.25785" lon="4.96886">
        <ele>397.37103271484</ele>
        <time>2018-06-28T11:09:33+0200</time>
      </trkpt>
      <trkpt lat="47.25784" lon="4.96886">
        <ele>397.35314941406</ele>
        <time>2018-06-28T11:09:36+0200</time>
      </trkpt>
      <trkpt lat="47.25784" lon="4.96886">
        <ele>397.32641601562</ele>
        <time>2018-06-28T11:09:39+0200</time>
      </trkpt>
      <trkpt lat="47.25781" lon="4.96884">
        <ele>397.30194091797</ele>
        <time>2018-06-28T11:09:42+0200</time>
      </trkpt>
      <trkpt lat="47.25778" lon="4.96882">
        <ele>397.27847290039</ele>
        <time>2018-06-28T11:09:45+0200</time>
      </trkpt>
      <trkpt lat="47.25777" lon="4.96881">
        <ele>397.2356262207</ele>
        <time>2018-06-28T11:09:48+0200</time>
      </trkpt>
      <trkpt lat="47.25776" lon="4.96881">
        <ele>397.19534301758</ele>
        <time>2018-06-28T11:09:51+0200</time>
      </trkpt>
      <trkpt lat="47.25776" lon="4.96881">
        <ele>397.19152832031</ele>
        <time>2018-06-28T11:09:54+0200</time>
      </trkpt>
      <trkpt lat="47.25776" lon="4.96882">
        <ele>397.19177246094</ele>
        <time>2018-06-28T11:09:57+0200</time>
      </trkpt>
      <trkpt lat="47.25775" lon="4.96883">
        <ele>397.22534179688</ele>
        <time>2018-06-28T11:10:00+0200</time>
      </trkpt>
      <trkpt lat="47.25774" lon="4.96884">
        <ele>397.26177978516</ele>
        <time>2018-06-28T11:10:03+0200</time>
      </trkpt>
      <trkpt lat="47.25773" lon="4.96887">
        <ele>397.32794189453</ele>
        <time>2018-06-28T11:10:06+0200</time>
      </trkpt>
      <trkpt lat="47.25773" lon="4.96889">
        <ele>397.42385864258</ele>
        <time>2018-06-28T11:10:09+0200</time>
      </trkpt>
      <trkpt lat="47.25773" lon="4.9689">
        <ele>397.55511474609</ele>
        <time>2018-06-28T11:10:12+0200</time>
      </trkpt>
      <trkpt lat="47.25772" lon="4.96894">
        <ele>397.69717407227</ele>
        <time>2018-06-28T11:10:15+0200</time>
      </trkpt>
      <trkpt lat="47.25772" lon="4.96897">
        <ele>397.84930419922</ele>
        <time>2018-06-28T11:10:18+0200</time>
      </trkpt>
      <trkpt lat="47.25772" lon="4.96898">
        <ele>398.00387573242</ele>
        <time>2018-06-28T11:10:21+0200</time>
      </trkpt>
      <trkpt lat="47.25772" lon="4.96902">
        <ele>398.14593505859</ele>
        <time>2018-06-28T11:10:24+0200</time>
      </trkpt>
      <trkpt lat="47.25772" lon="4.96903">
        <ele>398.29257202148</ele>
        <time>2018-06-28T11:10:28+0200</time>
      </trkpt>
      <trkpt lat="47.25772" lon="4.96906">
        <ele>398.42578125</ele>
        <time>2018-06-28T11:10:31+0200</time>
      </trkpt>
      <trkpt lat="47.25772" lon="4.96907">
        <ele>398.55514526367</ele>
        <time>2018-06-28T11:10:34+0200</time>
      </trkpt>
      <trkpt lat="47.25772" lon="4.9691">
        <ele>398.67156982422</ele>
        <time>2018-06-28T11:10:37+0200</time>
      </trkpt>
      <trkpt lat="47.25771" lon="4.96913">
        <ele>398.77236938477</ele>
        <time>2018-06-28T11:10:40+0200</time>
      </trkpt>
      <trkpt lat="47.25771" lon="4.96916">
        <ele>398.85089111328</ele>
        <time>2018-06-28T11:10:43+0200</time>
      </trkpt>
      <trkpt lat="47.2577" lon="4.96919">
        <ele>398.91934204102</ele>
        <time>2018-06-28T11:10:46+0200</time>
      </trkpt>
      <trkpt lat="47.2577" lon="4.96919">
        <ele>398.99813842773</ele>
        <time>2018-06-28T11:10:49+0200</time>
      </trkpt>
      <trkpt lat="47.2577" lon="4.96922">
        <ele>399.02835083008</ele>
        <time>2018-06-28T11:10:52+0200</time>
      </trkpt>
      <trkpt lat="47.25769" lon="4.96926">
        <ele>399.00430297852</ele>
        <time>2018-06-28T11:10:55+0200</time>
      </trkpt>
      <trkpt lat="47.25769" lon="4.96928">
        <ele>398.97552490234</ele>
        <time>2018-06-28T11:10:58+0200</time>
      </trkpt>
      <trkpt lat="47.25769" lon="4.96929">
        <ele>398.96038818359</ele>
        <time>2018-06-28T11:11:01+0200</time>
      </trkpt>
      <trkpt lat="47.25769" lon="4.96931">
        <ele>398.83917236328</ele>
        <time>2018-06-28T11:11:04+0200</time>
      </trkpt>
      <trkpt lat="47.25769" lon="4.96936">
        <ele>398.4801940918</ele>
        <time>2018-06-28T11:11:07+0200</time>
      </trkpt>
      <trkpt lat="47.25769" lon="4.96944">
        <ele>398.07992553711</ele>
        <time>2018-06-28T11:11:10+0200</time>
      </trkpt>
      <trkpt lat="47.25769" lon="4.96944">
        <ele>397.91192626953</ele>
        <time>2018-06-28T11:11:13+0200</time>
      </trkpt>
      <trkpt lat="47.25769" lon="4.96944">
        <ele>397.86383056641</ele>
        <time>2018-06-28T11:11:16+0200</time>
      </trkpt>
      <trkpt lat="47.25769" lon="4.96944">
        <ele>397.81088256836</ele>
        <time>2018-06-28T11:11:19+0200</time>
      </trkpt>
      <trkpt lat="47.25769" lon="4.96944">
        <ele>397.75384521484</ele>
        <time>2018-06-28T11:11:22+0200</time>
      </trkpt>
      <trkpt lat="47.25769" lon="4.96944">
        <ele>397.69360351562</ele>
        <time>2018-06-28T11:11:25+0200</time>
      </trkpt>
      <trkpt lat="47.25769" lon="4.96944">
        <ele>397.6315612793</ele>
        <time>2018-06-28T11:11:28+0200</time>
      </trkpt>
      <trkpt lat="47.25769" lon="4.96944">
        <ele>397.56857299805</ele>
        <time>2018-06-28T11:11:31+0200</time>
      </trkpt>
      <trkpt lat="47.25769" lon="4.96944">
        <ele>397.5026550293</ele>
        <time>2018-06-28T11:11:34+0200</time>
      </trkpt>
      <trkpt lat="47.25769" lon="4.96944">
        <ele>397.43295288086</ele>
        <time>2018-06-28T11:11:37+0200</time>
      </trkpt>
      <trkpt lat="47.2577" lon="4.96944">
        <ele>397.35858154297</ele>
        <time>2018-06-28T11:11:40+0200</time>
      </trkpt>
      <trkpt lat="47.2577" lon="4.96945">
        <ele>397.27960205078</ele>
        <time>2018-06-28T11:11:43+0200</time>
      </trkpt>
      <trkpt lat="47.2577" lon="4.96947">
        <ele>396.46484375</ele>
        <time>2018-06-28T11:11:46+0200</time>
      </trkpt>
      <trkpt lat="47.2577" lon="4.96948">
        <ele>396.38208007812</ele>
        <time>2018-06-28T11:11:49+0200</time>
      </trkpt>
      <trkpt lat="47.25771" lon="4.96948">
        <ele>396.29605102539</ele>
        <time>2018-06-28T11:11:52+0200</time>
      </trkpt>
      <trkpt lat="47.25771" lon="4.96948">
        <ele>396.21130371094</ele>
        <time>2018-06-28T11:11:55+0200</time>
      </trkpt>
      <trkpt lat="47.25771" lon="4.96949">
        <ele>396.12692260742</ele>
        <time>2018-06-28T11:11:58+0200</time>
      </trkpt>
      <trkpt lat="47.25771" lon="4.96949">
        <ele>396.03912353516</ele>
        <time>2018-06-28T11:12:01+0200</time>
      </trkpt>
      <trkpt lat="47.25771" lon="4.9695">
        <ele>395.67385864258</ele>
        <time>2018-06-28T11:12:04+0200</time>
      </trkpt>
      <trkpt lat="47.25772" lon="4.96952">
        <ele>395.5817565918</ele>
        <time>2018-06-28T11:12:07+0200</time>
      </trkpt>
      <trkpt lat="47.25772" lon="4.96952">
        <ele>395.48620605469</ele>
        <time>2018-06-28T11:12:10+0200</time>
      </trkpt>
      <trkpt lat="47.25772" lon="4.96952">
        <ele>395.39630126953</ele>
        <time>2018-06-28T11:12:13+0200</time>
      </trkpt>
      <trkpt lat="47.25772" lon="4.96952">
        <ele>395.30895996094</ele>
        <time>2018-06-28T11:12:16+0200</time>
      </trkpt>
      <trkpt lat="47.25772" lon="4.96952">
        <ele>395.21780395508</ele>
        <time>2018-06-28T11:12:19+0200</time>
      </trkpt>
      <trkpt lat="47.25772" lon="4.96953">
        <ele>395.12042236328</ele>
        <time>2018-06-28T11:12:22+0200</time>
      </trkpt>
      <trkpt lat="47.25772" lon="4.96953">
        <ele>394.71182250977</ele>
        <time>2018-06-28T11:12:25+0200</time>
      </trkpt>
      <trkpt lat="47.25772" lon="4.96953">
        <ele>394.61004638672</ele>
        <time>2018-06-28T11:12:28+0200</time>
      </trkpt>
      <trkpt lat="47.25772" lon="4.96954">
        <ele>394.50738525391</ele>
        <time>2018-06-28T11:12:31+0200</time>
      </trkpt>
      <trkpt lat="47.25773" lon="4.96954">
        <ele>394.40295410156</ele>
        <time>2018-06-28T11:12:34+0200</time>
      </trkpt>
      <trkpt lat="47.25773" lon="4.96953">
        <ele>393.97546386719</ele>
        <time>2018-06-28T11:12:37+0200</time>
      </trkpt>
      <trkpt lat="47.25773" lon="4.96953">
        <ele>393.8688659668</ele>
        <time>2018-06-28T11:12:40+0200</time>
      </trkpt>
      <trkpt lat="47.25773" lon="4.96953">
        <ele>393.76083374023</ele>
        <time>2018-06-28T11:12:43+0200</time>
      </trkpt>
      <trkpt lat="47.25773" lon="4.96953">
        <ele>393.65270996094</ele>
        <time>2018-06-28T11:12:46+0200</time>
      </trkpt>
      <trkpt lat="47.25773" lon="4.96953">
        <ele>393.54571533203</ele>
        <time>2018-06-28T11:12:49+0200</time>
      </trkpt>
      <trkpt lat="47.25773" lon="4.96953">
        <ele>393.44058227539</ele>
        <time>2018-06-28T11:12:52+0200</time>
      </trkpt>
      <trkpt lat="47.25773" lon="4.96953">
        <ele>393.33251953125</ele>
        <time>2018-06-28T11:12:55+0200</time>
      </trkpt>
      <trkpt lat="47.25773" lon="4.96949">
        <ele>392.89700317383</ele>
        <time>2018-06-28T11:12:58+0200</time>
      </trkpt>
      <trkpt lat="47.25774" lon="4.96948">
        <ele>392.15307617188</ele>
        <time>2018-06-28T11:13:01+0200</time>
      </trkpt>
      <trkpt lat="47.25774" lon="4.96948">
        <ele>391.74893188477</ele>
        <time>2018-06-28T11:13:04+0200</time>
      </trkpt>
      <trkpt lat="47.25774" lon="4.96948">
        <ele>391.65093994141</ele>
        <time>2018-06-28T11:13:07+0200</time>
      </trkpt>
      <trkpt lat="47.25774" lon="4.96948">
        <ele>391.55612182617</ele>
        <time>2018-06-28T11:13:10+0200</time>
      </trkpt>
      <trkpt lat="47.25774" lon="4.96947">
        <ele>391.45947265625</ele>
        <time>2018-06-28T11:13:13+0200</time>
      </trkpt>
      <trkpt lat="47.25774" lon="4.96947">
        <ele>391.36053466797</ele>
        <time>2018-06-28T11:13:16+0200</time>
      </trkpt>
      <trkpt lat="47.25774" lon="4.96945">
        <ele>390.66931152344</ele>
        <time>2018-06-28T11:13:19+0200</time>
      </trkpt>
      <trkpt lat="47.25774" lon="4.96944">
        <ele>389.73614501953</ele>
        <time>2018-06-28T11:13:22+0200</time>
      </trkpt>
      <trkpt lat="47.25773" lon="4.96943">
        <ele>389.39169311523</ele>
        <time>2018-06-28T11:13:25+0200</time>
      </trkpt>
      <trkpt lat="47.25773" lon="4.96943">
        <ele>389.31314086914</ele>
        <time>2018-06-28T11:13:28+0200</time>
      </trkpt>
      <trkpt lat="47.25773" lon="4.96944">
        <ele>389.2399597168</ele>
        <time>2018-06-28T11:13:31+0200</time>
      </trkpt>
      <trkpt lat="47.25771" lon="4.96946">
        <ele>388.55358886719</ele>
        <time>2018-06-28T11:13:34+0200</time>
      </trkpt>
      <trkpt lat="47.25769" lon="4.96949">
        <ele>387.9211730957</ele>
        <time>2018-06-28T11:13:37+0200</time>
      </trkpt>
      <trkpt lat="47.25766" lon="4.96952">
        <ele>387.31716918945</ele>
        <time>2018-06-28T11:13:40+0200</time>
      </trkpt>
      <trkpt lat="47.25763" lon="4.96955">
        <ele>386.73153686523</ele>
        <time>2018-06-28T11:13:43+0200</time>
      </trkpt>
      <trkpt lat="47.2576" lon="4.96957">
        <ele>386.14303588867</ele>
        <time>2018-06-28T11:13:46+0200</time>
      </trkpt>
      <trkpt lat="47.25759" lon="4.96958">
        <ele>385.56750488281</ele>
        <time>2018-06-28T11:13:49+0200</time>
      </trkpt>
      <trkpt lat="47.25756" lon="4.96957">
        <ele>384.97100830078</ele>
        <time>2018-06-28T11:13:52+0200</time>
      </trkpt>
      <trkpt lat="47.25754" lon="4.96957">
        <ele>384.37176513672</ele>
        <time>2018-06-28T11:13:55+0200</time>
      </trkpt>
      <trkpt lat="47.25751" lon="4.96957">
        <ele>383.77145385742</ele>
        <time>2018-06-28T11:13:58+0200</time>
      </trkpt>
      <trkpt lat="47.25749" lon="4.96957">
        <ele>383.13946533203</ele>
        <time>2018-06-28T11:14:01+0200</time>
      </trkpt>
      <trkpt lat="47.25747" lon="4.96956">
        <ele>382.48815917969</ele>
        <time>2018-06-28T11:14:04+0200</time>
      </trkpt>
      <trkpt lat="47.25744" lon="4.96956">
        <ele>381.85394287109</ele>
        <time>2018-06-28T11:14:07+0200</time>
      </trkpt>
      <trkpt lat="47.25742" lon="4.96955">
        <ele>381.24322509766</ele>
        <time>2018-06-28T11:14:10+0200</time>
      </trkpt>
      <trkpt lat="47.25739" lon="4.96955">
        <ele>380.67086791992</ele>
        <time>2018-06-28T11:14:13+0200</time>
      </trkpt>
      <trkpt lat="47.25737" lon="4.96955">
        <ele>380.1428527832</ele>
        <time>2018-06-28T11:14:16+0200</time>
      </trkpt>
      <trkpt lat="47.25736" lon="4.96955">
        <ele>379.67861938477</ele>
        <time>2018-06-28T11:14:19+0200</time>
      </trkpt>
      <trkpt lat="47.25733" lon="4.96954">
        <ele>379.26818847656</ele>
        <time>2018-06-28T11:14:22+0200</time>
      </trkpt>
      <trkpt lat="47.25731" lon="4.96952">
        <ele>378.98016357422</ele>
        <time>2018-06-28T11:14:25+0200</time>
      </trkpt>
      <trkpt lat="47.2573" lon="4.96951">
        <ele>378.81866455078</ele>
        <time>2018-06-28T11:14:28+0200</time>
      </trkpt>
      <trkpt lat="47.2573" lon="4.9695">
        <ele>378.77386474609</ele>
        <time>2018-06-28T11:14:31+0200</time>
      </trkpt>
      <trkpt lat="47.25729" lon="4.9695">
        <ele>378.72784423828</ele>
        <time>2018-06-28T11:14:34+0200</time>
      </trkpt>
      <trkpt lat="47.25729" lon="4.9695">
        <ele>378.68411254883</ele>
        <time>2018-06-28T11:14:37+0200</time>
      </trkpt>
      <trkpt lat="47.25729" lon="4.9695">
        <ele>378.64413452148</ele>
        <time>2018-06-28T11:14:40+0200</time>
      </trkpt>
      <trkpt lat="47.25729" lon="4.9695">
        <ele>378.60473632812</ele>
        <time>2018-06-28T11:14:43+0200</time>
      </trkpt>
      <trkpt lat="47.25729" lon="4.9695">
        <ele>378.56301879883</ele>
        <time>2018-06-28T11:14:46+0200</time>
      </trkpt>
      <trkpt lat="47.25729" lon="4.9695">
        <ele>378.51989746094</ele>
        <time>2018-06-28T11:14:49+0200</time>
      </trkpt>
      <trkpt lat="47.25729" lon="4.9695">
        <ele>378.47854614258</ele>
        <time>2018-06-28T11:14:52+0200</time>
      </trkpt>
      <trkpt lat="47.25727" lon="4.96951">
        <ele>378.0732421875</ele>
        <time>2018-06-28T11:14:55+0200</time>
      </trkpt>
      <trkpt lat="47.25725" lon="4.96953">
        <ele>377.63409423828</ele>
        <time>2018-06-28T11:14:58+0200</time>
      </trkpt>
      <trkpt lat="47.25724" lon="4.96953">
        <ele>377.17623901367</ele>
        <time>2018-06-28T11:15:01+0200</time>
      </trkpt>
      <trkpt lat="47.25722" lon="4.96953">
        <ele>376.77127075195</ele>
        <time>2018-06-28T11:15:04+0200</time>
      </trkpt>
      <trkpt lat="47.25718" lon="4.96953">
        <ele>376.41738891602</ele>
        <time>2018-06-28T11:15:07+0200</time>
      </trkpt>
      <trkpt lat="47.25716" lon="4.96954">
        <ele>376.11688232422</ele>
        <time>2018-06-28T11:15:10+0200</time>
      </trkpt>
      <trkpt lat="47.25715" lon="4.96953">
        <ele>375.8193359375</ele>
        <time>2018-06-28T11:15:13+0200</time>
      </trkpt>
      <trkpt lat="47.25713" lon="4.96952">
        <ele>375.52093505859</ele>
        <time>2018-06-28T11:15:16+0200</time>
      </trkpt>
      <trkpt lat="47.25711" lon="4.96951">
        <ele>375.22482299805</ele>
        <time>2018-06-28T11:15:19+0200</time>
      </trkpt>
      <trkpt lat="47.25708" lon="4.96951">
        <ele>374.95449829102</ele>
        <time>2018-06-28T11:15:22+0200</time>
      </trkpt>
      <trkpt lat="47.25705" lon="4.96949">
        <ele>374.72744750977</ele>
        <time>2018-06-28T11:15:25+0200</time>
      </trkpt>
      <trkpt lat="47.25702" lon="4.96948">
        <ele>374.52752685547</ele>
        <time>2018-06-28T11:15:28+0200</time>
      </trkpt>
      <trkpt lat="47.25698" lon="4.96947">
        <ele>374.33212280273</ele>
        <time>2018-06-28T11:15:31+0200</time>
      </trkpt>
      <trkpt lat="47.25694" lon="4.96945">
        <ele>374.12322998047</ele>
        <time>2018-06-28T11:15:34+0200</time>
      </trkpt>
      <trkpt lat="47.25689" lon="4.96943">
        <ele>373.89468383789</ele>
        <time>2018-06-28T11:15:37+0200</time>
      </trkpt>
      <trkpt lat="47.25685" lon="4.96942">
        <ele>373.62670898438</ele>
        <time>2018-06-28T11:15:40+0200</time>
      </trkpt>
      <trkpt lat="47.25681" lon="4.96941">
        <ele>373.3489074707</ele>
        <time>2018-06-28T11:15:43+0200</time>
      </trkpt>
      <trkpt lat="47.25677" lon="4.9694">
        <ele>373.05047607422</ele>
        <time>2018-06-28T11:15:46+0200</time>
      </trkpt>
      <trkpt lat="47.25672" lon="4.96939">
        <ele>372.73364257812</ele>
        <time>2018-06-28T11:15:49+0200</time>
      </trkpt>
      <trkpt lat="47.25669" lon="4.96939">
        <ele>372.51226806641</ele>
        <time>2018-06-28T11:15:52+0200</time>
      </trkpt>
      <trkpt lat="47.25669" lon="4.96939">
        <ele>372.39910888672</ele>
        <time>2018-06-28T11:15:55+0200</time>
      </trkpt>
      <trkpt lat="47.25668" lon="4.96939">
        <ele>372.37438964844</ele>
        <time>2018-06-28T11:15:58+0200</time>
      </trkpt>
      <trkpt lat="47.25668" lon="4.96939">
        <ele>372.35153198242</ele>
        <time>2018-06-28T11:16:01+0200</time>
      </trkpt>
      <trkpt lat="47.25668" lon="4.96939">
        <ele>372.24926757812</ele>
        <time>2018-06-28T11:16:04+0200</time>
      </trkpt>
      <trkpt lat="47.25664" lon="4.96938">
        <ele>372.00671386719</ele>
        <time>2018-06-28T11:16:07+0200</time>
      </trkpt>
      <trkpt lat="47.2566" lon="4.96938">
        <ele>371.77243041992</ele>
        <time>2018-06-28T11:16:10+0200</time>
      </trkpt>
      <trkpt lat="47.25656" lon="4.96937">
        <ele>371.52612304688</ele>
        <time>2018-06-28T11:16:13+0200</time>
      </trkpt>
      <trkpt lat="47.25653" lon="4.96937">
        <ele>371.26962280273</ele>
        <time>2018-06-28T11:16:16+0200</time>
      </trkpt>
      <trkpt lat="47.25651" lon="4.96936">
        <ele>371.0168762207</ele>
        <time>2018-06-28T11:16:19+0200</time>
      </trkpt>
      <trkpt lat="47.2565" lon="4.96936">
        <ele>370.85485839844</ele>
        <time>2018-06-28T11:16:22+0200</time>
      </trkpt>
      <trkpt lat="47.25649" lon="4.96936">
        <ele>370.77090454102</ele>
        <time>2018-06-28T11:16:25+0200</time>
      </trkpt>
      <trkpt lat="47.25649" lon="4.96937">
        <ele>370.75161743164</ele>
        <time>2018-06-28T11:16:28+0200</time>
      </trkpt>
      <trkpt lat="47.25649" lon="4.96937">
        <ele>370.65438842773</ele>
        <time>2018-06-28T11:16:31+0200</time>
      </trkpt>
      <trkpt lat="47.25649" lon="4.96938">
        <ele>370.56051635742</ele>
        <time>2018-06-28T11:16:34+0200</time>
      </trkpt>
      <trkpt lat="47.25649" lon="4.96938">
        <ele>370.5361328125</ele>
        <time>2018-06-28T11:16:37+0200</time>
      </trkpt>
      <trkpt lat="47.25649" lon="4.96938">
        <ele>370.50875854492</ele>
        <time>2018-06-28T11:16:40+0200</time>
      </trkpt>
      <trkpt lat="47.25649" lon="4.96938">
        <ele>370.48004150391</ele>
        <time>2018-06-28T11:16:43+0200</time>
      </trkpt>
      <trkpt lat="47.25649" lon="4.96939">
        <ele>370.44924926758</ele>
        <time>2018-06-28T11:16:46+0200</time>
      </trkpt>
      <trkpt lat="47.25649" lon="4.96938">
        <ele>370.41607666016</ele>
        <time>2018-06-28T11:16:49+0200</time>
      </trkpt>
      <trkpt lat="47.25649" lon="4.96939">
        <ele>370.38217163086</ele>
        <time>2018-06-28T11:16:52+0200</time>
      </trkpt>
      <trkpt lat="47.2565" lon="4.96939">
        <ele>370.34671020508</ele>
        <time>2018-06-28T11:16:55+0200</time>
      </trkpt>
      <trkpt lat="47.25651" lon="4.96939">
        <ele>370.20449829102</ele>
        <time>2018-06-28T11:16:58+0200</time>
      </trkpt>
      <trkpt lat="47.25651" lon="4.96939">
        <ele>370.17114257812</ele>
        <time>2018-06-28T11:17:01+0200</time>
      </trkpt>
      <trkpt lat="47.25651" lon="4.96939">
        <ele>370.14059448242</ele>
        <time>2018-06-28T11:17:04+0200</time>
      </trkpt>
      <trkpt lat="47.25651" lon="4.96939">
        <ele>370.11096191406</ele>
        <time>2018-06-28T11:17:07+0200</time>
      </trkpt>
      <trkpt lat="47.25651" lon="4.96939">
        <ele>370.08081054688</ele>
        <time>2018-06-28T11:17:10+0200</time>
      </trkpt>
      <trkpt lat="47.25651" lon="4.96939">
        <ele>370.04956054688</ele>
        <time>2018-06-28T11:17:13+0200</time>
      </trkpt>
      <trkpt lat="47.2565" lon="4.96938">
        <ele>369.70755004883</ele>
        <time>2018-06-28T11:17:16+0200</time>
      </trkpt>
      <trkpt lat="47.25649" lon="4.96937">
        <ele>369.35171508789</ele>
        <time>2018-06-28T11:17:19+0200</time>
      </trkpt>
      <trkpt lat="47.25646" lon="4.96936">
        <ele>369.00177001953</ele>
        <time>2018-06-28T11:17:22+0200</time>
      </trkpt>
      <trkpt lat="47.25643" lon="4.96936">
        <ele>368.64294433594</ele>
        <time>2018-06-28T11:17:25+0200</time>
      </trkpt>
      <trkpt lat="47.25639" lon="4.96936">
        <ele>368.28500366211</ele>
        <time>2018-06-28T11:17:28+0200</time>
      </trkpt>
      <trkpt lat="47.25636" lon="4.96938">
        <ele>367.97692871094</ele>
        <time>2018-06-28T11:17:31+0200</time>
      </trkpt>
      <trkpt lat="47.25632" lon="4.96939">
        <ele>367.71246337891</ele>
        <time>2018-06-28T11:17:34+0200</time>
      </trkpt>
      <trkpt lat="47.2563" lon="4.9694">
        <ele>367.4665222168</ele>
        <time>2018-06-28T11:17:37+0200</time>
      </trkpt>
      <trkpt lat="47.25627" lon="4.96941">
        <ele>367.22402954102</ele>
        <time>2018-06-28T11:17:40+0200</time>
      </trkpt>
      <trkpt lat="47.25624" lon="4.96942">
        <ele>366.97979736328</ele>
        <time>2018-06-28T11:17:43+0200</time>
      </trkpt>
      <trkpt lat="47.2562" lon="4.96943">
        <ele>366.75534057617</ele>
        <time>2018-06-28T11:17:46+0200</time>
      </trkpt>
      <trkpt lat="47.25617" lon="4.96945">
        <ele>366.52465820312</ele>
        <time>2018-06-28T11:17:49+0200</time>
      </trkpt>
      <trkpt lat="47.25613" lon="4.96945">
        <ele>366.28472900391</ele>
        <time>2018-06-28T11:17:52+0200</time>
      </trkpt>
      <trkpt lat="47.2561" lon="4.96944">
        <ele>366.0426940918</ele>
        <time>2018-06-28T11:17:55+0200</time>
      </trkpt>
      <trkpt lat="47.25607" lon="4.96945">
        <ele>365.81085205078</ele>
        <time>2018-06-28T11:17:58+0200</time>
      </trkpt>
      <trkpt lat="47.25603" lon="4.96946">
        <ele>365.56021118164</ele>
        <time>2018-06-28T11:18:01+0200</time>
      </trkpt>
      <trkpt lat="47.256" lon="4.96947">
        <ele>365.26776123047</ele>
        <time>2018-06-28T11:18:04+0200</time>
      </trkpt>
      <trkpt lat="47.25597" lon="4.96948">
        <ele>364.96862792969</ele>
        <time>2018-06-28T11:18:07+0200</time>
      </trkpt>
      <trkpt lat="47.25595" lon="4.96949">
        <ele>364.68255615234</ele>
        <time>2018-06-28T11:18:10+0200</time>
      </trkpt>
      <trkpt lat="47.25591" lon="4.96949">
        <ele>364.41418457031</ele>
        <time>2018-06-28T11:18:13+0200</time>
      </trkpt>
      <trkpt lat="47.25587" lon="4.9695">
        <ele>364.05413818359</ele>
        <time>2018-06-28T11:18:16+0200</time>
      </trkpt>
      <trkpt lat="47.25583" lon="4.9695">
        <ele>363.64324951172</ele>
        <time>2018-06-28T11:18:19+0200</time>
      </trkpt>
      <trkpt lat="47.25579" lon="4.96952">
        <ele>363.22039794922</ele>
        <time>2018-06-28T11:18:22+0200</time>
      </trkpt>
      <trkpt lat="47.25576" lon="4.96953">
        <ele>362.81970214844</ele>
        <time>2018-06-28T11:18:25+0200</time>
      </trkpt>
      <trkpt lat="47.25575" lon="4.96954">
        <ele>362.51559448242</ele>
        <time>2018-06-28T11:18:28+0200</time>
      </trkpt>
      <trkpt lat="47.25573" lon="4.96957">
        <ele>362.31823730469</ele>
        <time>2018-06-28T11:18:31+0200</time>
      </trkpt>
      <trkpt lat="47.2557" lon="4.96959">
        <ele>362.16485595703</ele>
        <time>2018-06-28T11:18:34+0200</time>
      </trkpt>
      <trkpt lat="47.25568" lon="4.96961">
        <ele>362.04125976562</ele>
        <time>2018-06-28T11:18:37+0200</time>
      </trkpt>
      <trkpt lat="47.25565" lon="4.96962">
        <ele>361.85855102539</ele>
        <time>2018-06-28T11:18:40+0200</time>
      </trkpt>
      <trkpt lat="47.2556" lon="4.96962">
        <ele>361.50183105469</ele>
        <time>2018-06-28T11:18:43+0200</time>
      </trkpt>
      <trkpt lat="47.25557" lon="4.96961">
        <ele>360.96948242188</ele>
        <time>2018-06-28T11:18:46+0200</time>
      </trkpt>
      <trkpt lat="47.25552" lon="4.96961">
        <ele>360.43930053711</ele>
        <time>2018-06-28T11:18:49+0200</time>
      </trkpt>
      <trkpt lat="47.25551" lon="4.96962">
        <ele>359.9130859375</ele>
        <time>2018-06-28T11:18:52+0200</time>
      </trkpt>
      <trkpt lat="47.25548" lon="4.96963">
        <ele>359.27682495117</ele>
        <time>2018-06-28T11:18:55+0200</time>
      </trkpt>
      <trkpt lat="47.25544" lon="4.96962">
        <ele>358.58917236328</ele>
        <time>2018-06-28T11:18:58+0200</time>
      </trkpt>
      <trkpt lat="47.25542" lon="4.9696">
        <ele>357.88003540039</ele>
        <time>2018-06-28T11:19:01+0200</time>
      </trkpt>
      <trkpt lat="47.25538" lon="4.9696">
        <ele>357.21438598633</ele>
        <time>2018-06-28T11:19:04+0200</time>
      </trkpt>
      <trkpt lat="47.25535" lon="4.9696">
        <ele>356.56713867188</ele>
        <time>2018-06-28T11:19:07+0200</time>
      </trkpt>
      <trkpt lat="47.25533" lon="4.96961">
        <ele>356.0090637207</ele>
        <time>2018-06-28T11:19:10+0200</time>
      </trkpt>
      <trkpt lat="47.25532" lon="4.96961">
        <ele>355.61227416992</ele>
        <time>2018-06-28T11:19:13+0200</time>
      </trkpt>
      <trkpt lat="47.25529" lon="4.96962">
        <ele>355.29772949219</ele>
        <time>2018-06-28T11:19:16+0200</time>
      </trkpt>
      <trkpt lat="47.25526" lon="4.96962">
        <ele>355.03979492188</ele>
        <time>2018-06-28T11:19:19+0200</time>
      </trkpt>
      <trkpt lat="47.25523" lon="4.9696">
        <ele>354.81021118164</ele>
        <time>2018-06-28T11:19:22+0200</time>
      </trkpt>
      <trkpt lat="47.25519" lon="4.96958">
        <ele>354.50634765625</ele>
        <time>2018-06-28T11:19:25+0200</time>
      </trkpt>
      <trkpt lat="47.25516" lon="4.96958">
        <ele>354.08963012695</ele>
        <time>2018-06-28T11:19:28+0200</time>
      </trkpt>
      <trkpt lat="47.25511" lon="4.96959">
        <ele>353.60070800781</ele>
        <time>2018-06-28T11:19:31+0200</time>
      </trkpt>
      <trkpt lat="47.25508" lon="4.96961">
        <ele>353.12673950195</ele>
        <time>2018-06-28T11:19:34+0200</time>
      </trkpt>
      <trkpt lat="47.25506" lon="4.96961">
        <ele>352.69760131836</ele>
        <time>2018-06-28T11:19:37+0200</time>
      </trkpt>
      <trkpt lat="47.25503" lon="4.96961">
        <ele>352.25790405273</ele>
        <time>2018-06-28T11:19:40+0200</time>
      </trkpt>
      <trkpt lat="47.255" lon="4.96961">
        <ele>351.810546875</ele>
        <time>2018-06-28T11:19:43+0200</time>
      </trkpt>
      <trkpt lat="47.25498" lon="4.96961">
        <ele>351.3896484375</ele>
        <time>2018-06-28T11:19:46+0200</time>
      </trkpt>
      <trkpt lat="47.25496" lon="4.96961">
        <ele>351.03186035156</ele>
        <time>2018-06-28T11:19:49+0200</time>
      </trkpt>
      <trkpt lat="47.25492" lon="4.96961">
        <ele>350.68493652344</ele>
        <time>2018-06-28T11:19:52+0200</time>
      </trkpt>
      <trkpt lat="47.25488" lon="4.96961">
        <ele>350.23037719727</ele>
        <time>2018-06-28T11:19:55+0200</time>
      </trkpt>
      <trkpt lat="47.25485" lon="4.96961">
        <ele>349.70642089844</ele>
        <time>2018-06-28T11:19:58+0200</time>
      </trkpt>
      <trkpt lat="47.25482" lon="4.96961">
        <ele>349.16806030273</ele>
        <time>2018-06-28T11:20:01+0200</time>
      </trkpt>
      <trkpt lat="47.25479" lon="4.96961">
        <ele>348.63623046875</ele>
        <time>2018-06-28T11:20:04+0200</time>
      </trkpt>
      <trkpt lat="47.25477" lon="4.96961">
        <ele>348.07659912109</ele>
        <time>2018-06-28T11:20:07+0200</time>
      </trkpt>
      <trkpt lat="47.25476" lon="4.96961">
        <ele>347.50366210938</ele>
        <time>2018-06-28T11:20:10+0200</time>
      </trkpt>
      <trkpt lat="47.25472" lon="4.96961">
        <ele>346.89053344727</ele>
        <time>2018-06-28T11:20:13+0200</time>
      </trkpt>
      <trkpt lat="47.25471" lon="4.96962">
        <ele>346.36416625977</ele>
        <time>2018-06-28T11:20:16+0200</time>
      </trkpt>
      <trkpt lat="47.25468" lon="4.96962">
        <ele>345.91976928711</ele>
        <time>2018-06-28T11:20:19+0200</time>
      </trkpt>
      <trkpt lat="47.25466" lon="4.96961">
        <ele>345.58898925781</ele>
        <time>2018-06-28T11:20:22+0200</time>
      </trkpt>
      <trkpt lat="47.25464" lon="4.96961">
        <ele>345.22589111328</ele>
        <time>2018-06-28T11:20:25+0200</time>
      </trkpt>
      <trkpt lat="47.25461" lon="4.9696">
        <ele>344.89785766602</ele>
        <time>2018-06-28T11:20:28+0200</time>
      </trkpt>
      <trkpt lat="47.2546" lon="4.96959">
        <ele>344.54037475586</ele>
        <time>2018-06-28T11:20:31+0200</time>
      </trkpt>
      <trkpt lat="47.25457" lon="4.96959">
        <ele>344.15228271484</ele>
        <time>2018-06-28T11:20:34+0200</time>
      </trkpt>
      <trkpt lat="47.25455" lon="4.96959">
        <ele>343.77185058594</ele>
        <time>2018-06-28T11:20:37+0200</time>
      </trkpt>
      <trkpt lat="47.25452" lon="4.96958">
        <ele>343.42349243164</ele>
        <time>2018-06-28T11:20:40+0200</time>
      </trkpt>
      <trkpt lat="47.25449" lon="4.96958">
        <ele>343.06991577148</ele>
        <time>2018-06-28T11:20:43+0200</time>
      </trkpt>
      <trkpt lat="47.25447" lon="4.96959">
        <ele>342.66323852539</ele>
        <time>2018-06-28T11:20:46+0200</time>
      </trkpt>
      <trkpt lat="47.25445" lon="4.96958">
        <ele>342.24160766602</ele>
        <time>2018-06-28T11:20:49+0200</time>
      </trkpt>
      <trkpt lat="47.25443" lon="4.96959">
        <ele>341.85775756836</ele>
        <time>2018-06-28T11:20:52+0200</time>
      </trkpt>
      <trkpt lat="47.2544" lon="4.96959">
        <ele>341.53713989258</ele>
        <time>2018-06-28T11:20:55+0200</time>
      </trkpt>
      <trkpt lat="47.25438" lon="4.9696">
        <ele>341.26351928711</ele>
        <time>2018-06-28T11:20:58+0200</time>
      </trkpt>
      <trkpt lat="47.25433" lon="4.96961">
        <ele>340.90670776367</ele>
        <time>2018-06-28T11:21:01+0200</time>
      </trkpt>
      <trkpt lat="47.2543" lon="4.96962">
        <ele>340.49462890625</ele>
        <time>2018-06-28T11:21:04+0200</time>
      </trkpt>
      <trkpt lat="47.25428" lon="4.96962">
        <ele>340.12850952148</ele>
        <time>2018-06-28T11:21:07+0200</time>
      </trkpt>
      <trkpt lat="47.25426" lon="4.96964">
        <ele>339.81649780273</ele>
        <time>2018-06-28T11:21:10+0200</time>
      </trkpt>
      <trkpt lat="47.25423" lon="4.96965">
        <ele>339.609375</ele>
        <time>2018-06-28T11:21:13+0200</time>
      </trkpt>
      <trkpt lat="47.2542" lon="4.96967">
        <ele>339.31948852539</ele>
        <time>2018-06-28T11:21:16+0200</time>
      </trkpt>
      <trkpt lat="47.25417" lon="4.96967">
        <ele>339.02154541016</ele>
        <time>2018-06-28T11:21:19+0200</time>
      </trkpt>
      <trkpt lat="47.25415" lon="4.96968">
        <ele>338.74566650391</ele>
        <time>2018-06-28T11:21:22+0200</time>
      </trkpt>
      <trkpt lat="47.25412" lon="4.96969">
        <ele>338.4655456543</ele>
        <time>2018-06-28T11:21:25+0200</time>
      </trkpt>
      <trkpt lat="47.25409" lon="4.9697">
        <ele>338.15182495117</ele>
        <time>2018-06-28T11:21:28+0200</time>
      </trkpt>
      <trkpt lat="47.25406" lon="4.96971">
        <ele>337.82708740234</ele>
        <time>2018-06-28T11:21:31+0200</time>
      </trkpt>
      <trkpt lat="47.25403" lon="4.96973">
        <ele>337.52990722656</ele>
        <time>2018-06-28T11:21:34+0200</time>
      </trkpt>
      <trkpt lat="47.25401" lon="4.96975">
        <ele>337.29306030273</ele>
        <time>2018-06-28T11:21:37+0200</time>
      </trkpt>
      <trkpt lat="47.25399" lon="4.96976">
        <ele>337.08767700195</ele>
        <time>2018-06-28T11:21:40+0200</time>
      </trkpt>
      <trkpt lat="47.25397" lon="4.96976">
        <ele>336.9114074707</ele>
        <time>2018-06-28T11:21:43+0200</time>
      </trkpt>
      <trkpt lat="47.25393" lon="4.96976">
        <ele>336.74661254883</ele>
        <time>2018-06-28T11:21:46+0200</time>
      </trkpt>
      <trkpt lat="47.25391" lon="4.96979">
        <ele>336.57501220703</ele>
        <time>2018-06-28T11:21:49+0200</time>
      </trkpt>
      <trkpt lat="47.25388" lon="4.96981">
        <ele>336.27075195312</ele>
        <time>2018-06-28T11:21:52+0200</time>
      </trkpt>
      <trkpt lat="47.25386" lon="4.96986">
        <ele>335.80996704102</ele>
        <time>2018-06-28T11:21:55+0200</time>
      </trkpt>
      <trkpt lat="47.25385" lon="4.9699">
        <ele>335.34216308594</ele>
        <time>2018-06-28T11:21:58+0200</time>
      </trkpt>
      <trkpt lat="47.25385" lon="4.96994">
        <ele>334.88290405273</ele>
        <time>2018-06-28T11:22:01+0200</time>
      </trkpt>
      <trkpt lat="47.25385" lon="4.96995">
        <ele>334.44482421875</ele>
        <time>2018-06-28T11:22:04+0200</time>
      </trkpt>
      <trkpt lat="47.25384" lon="4.97">
        <ele>333.97833251953</ele>
        <time>2018-06-28T11:22:07+0200</time>
      </trkpt>
      <trkpt lat="47.25383" lon="4.97004">
        <ele>333.58978271484</ele>
        <time>2018-06-28T11:22:10+0200</time>
      </trkpt>
      <trkpt lat="47.25383" lon="4.97008">
        <ele>333.31967163086</ele>
        <time>2018-06-28T11:22:13+0200</time>
      </trkpt>
      <trkpt lat="47.25383" lon="4.97011">
        <ele>333.14163208008</ele>
        <time>2018-06-28T11:22:16+0200</time>
      </trkpt>
      <trkpt lat="47.25382" lon="4.97014">
        <ele>333.08990478516</ele>
        <time>2018-06-28T11:22:19+0200</time>
      </trkpt>
      <trkpt lat="47.2538" lon="4.97017">
        <ele>333.1223449707</ele>
        <time>2018-06-28T11:22:22+0200</time>
      </trkpt>
      <trkpt lat="47.25378" lon="4.9702">
        <ele>333.2080078125</ele>
        <time>2018-06-28T11:22:25+0200</time>
      </trkpt>
      <trkpt lat="47.25377" lon="4.97023">
        <ele>333.20275878906</ele>
        <time>2018-06-28T11:22:28+0200</time>
      </trkpt>
      <trkpt lat="47.25375" lon="4.97026">
        <ele>333.12142944336</ele>
        <time>2018-06-28T11:22:31+0200</time>
      </trkpt>
      <trkpt lat="47.25373" lon="4.97028">
        <ele>332.94152832031</ele>
        <time>2018-06-28T11:22:34+0200</time>
      </trkpt>
      <trkpt lat="47.2537" lon="4.97031">
        <ele>332.60070800781</ele>
        <time>2018-06-28T11:22:36+0200</time>
      </trkpt>
      <trkpt lat="47.25369" lon="4.97035">
        <ele>332.14346313477</ele>
        <time>2018-06-28T11:22:39+0200</time>
      </trkpt>
      <trkpt lat="47.25365" lon="4.97036">
        <ele>331.6262512207</ele>
        <time>2018-06-28T11:22:42+0200</time>
      </trkpt>
      <trkpt lat="47.25363" lon="4.97037">
        <ele>331.04293823242</ele>
        <time>2018-06-28T11:22:45+0200</time>
      </trkpt>
      <trkpt lat="47.25359" lon="4.97039">
        <ele>330.41683959961</ele>
        <time>2018-06-28T11:22:48+0200</time>
      </trkpt>
      <trkpt lat="47.25354" lon="4.9704">
        <ele>329.84725952148</ele>
        <time>2018-06-28T11:22:51+0200</time>
      </trkpt>
      <trkpt lat="47.25352" lon="4.9704">
        <ele>329.32489013672</ele>
        <time>2018-06-28T11:22:54+0200</time>
      </trkpt>
      <trkpt lat="47.25351" lon="4.9704">
        <ele>328.99850463867</ele>
        <time>2018-06-28T11:22:57+0200</time>
      </trkpt>
      <trkpt lat="47.25351" lon="4.97041">
        <ele>328.59008789062</ele>
        <time>2018-06-28T11:23:00+0200</time>
      </trkpt>
      <trkpt lat="47.2535" lon="4.97038">
        <ele>328.14984130859</ele>
        <time>2018-06-28T11:23:03+0200</time>
      </trkpt>
      <trkpt lat="47.25347" lon="4.97037">
        <ele>327.74758911133</ele>
        <time>2018-06-28T11:23:06+0200</time>
      </trkpt>
      <trkpt lat="47.25345" lon="4.97037">
        <ele>327.40963745117</ele>
        <time>2018-06-28T11:23:09+0200</time>
      </trkpt>
      <trkpt lat="47.25342" lon="4.97036">
        <ele>327.12466430664</ele>
        <time>2018-06-28T11:23:12+0200</time>
      </trkpt>
      <trkpt lat="47.25339" lon="4.97035">
        <ele>326.99932861328</ele>
        <time>2018-06-28T11:23:15+0200</time>
      </trkpt>
      <trkpt lat="47.25338" lon="4.97035">
        <ele>326.63385009766</ele>
        <time>2018-06-28T11:23:18+0200</time>
      </trkpt>
      <trkpt lat="47.25337" lon="4.97033">
        <ele>326.31164550781</ele>
        <time>2018-06-28T11:23:21+0200</time>
      </trkpt>
      <trkpt lat="47.25335" lon="4.97031">
        <ele>325.99908447266</ele>
        <time>2018-06-28T11:23:24+0200</time>
      </trkpt>
      <trkpt lat="47.25331" lon="4.9703">
        <ele>325.56683349609</ele>
        <time>2018-06-28T11:23:27+0200</time>
      </trkpt>
      <trkpt lat="47.25328" lon="4.97029">
        <ele>325.01916503906</ele>
        <time>2018-06-28T11:23:30+0200</time>
      </trkpt>
      <trkpt lat="47.25325" lon="4.97029">
        <ele>324.43231201172</ele>
        <time>2018-06-28T11:23:33+0200</time>
      </trkpt>
      <trkpt lat="47.25321" lon="4.97029">
        <ele>323.87588500977</ele>
        <time>2018-06-28T11:23:36+0200</time>
      </trkpt>
      <trkpt lat="47.25319" lon="4.97029">
        <ele>323.34417724609</ele>
        <time>2018-06-28T11:23:39+0200</time>
      </trkpt>
      <trkpt lat="47.25315" lon="4.97027">
        <ele>322.83700561523</ele>
        <time>2018-06-28T11:23:42+0200</time>
      </trkpt>
      <trkpt lat="47.25311" lon="4.97026">
        <ele>322.30865478516</ele>
        <time>2018-06-28T11:23:45+0200</time>
      </trkpt>
      <trkpt lat="47.25308" lon="4.97026">
        <ele>321.77026367188</ele>
        <time>2018-06-28T11:23:48+0200</time>
      </trkpt>
      <trkpt lat="47.25304" lon="4.97026">
        <ele>321.25598144531</ele>
        <time>2018-06-28T11:23:51+0200</time>
      </trkpt>
      <trkpt lat="47.25302" lon="4.97026">
        <ele>320.77059936523</ele>
        <time>2018-06-28T11:23:54+0200</time>
      </trkpt>
      <trkpt lat="47.25301" lon="4.97027">
        <ele>320.4016418457</ele>
        <time>2018-06-28T11:23:57+0200</time>
      </trkpt>
      <trkpt lat="47.25297" lon="4.97027">
        <ele>320.23080444336</ele>
        <time>2018-06-28T11:24:00+0200</time>
      </trkpt>
      <trkpt lat="47.25295" lon="4.97026">
        <ele>320.12814331055</ele>
        <time>2018-06-28T11:24:03+0200</time>
      </trkpt>
      <trkpt lat="47.25292" lon="4.97026">
        <ele>320.1178894043</ele>
        <time>2018-06-28T11:24:06+0200</time>
      </trkpt>
      <trkpt lat="47.25288" lon="4.97027">
        <ele>320.03567504883</ele>
        <time>2018-06-28T11:24:09+0200</time>
      </trkpt>
      <trkpt lat="47.25285" lon="4.97027">
        <ele>319.86657714844</ele>
        <time>2018-06-28T11:24:12+0200</time>
      </trkpt>
      <trkpt lat="47.25282" lon="4.97028">
        <ele>319.7087097168</ele>
        <time>2018-06-28T11:24:15+0200</time>
      </trkpt>
      <trkpt lat="47.2528" lon="4.97029">
        <ele>319.60800170898</ele>
        <time>2018-06-28T11:24:18+0200</time>
      </trkpt>
      <trkpt lat="47.25278" lon="4.97029">
        <ele>319.54006958008</ele>
        <time>2018-06-28T11:24:21+0200</time>
      </trkpt>
      <trkpt lat="47.25276" lon="4.9703">
        <ele>319.55047607422</ele>
        <time>2018-06-28T11:24:24+0200</time>
      </trkpt>
      <trkpt lat="47.25273" lon="4.97031">
        <ele>319.57409667969</ele>
        <time>2018-06-28T11:24:27+0200</time>
      </trkpt>
      <trkpt lat="47.2527" lon="4.97031">
        <ele>319.63168334961</ele>
        <time>2018-06-28T11:24:30+0200</time>
      </trkpt>
      <trkpt lat="47.25267" lon="4.97031">
        <ele>319.71258544922</ele>
        <time>2018-06-28T11:24:33+0200</time>
      </trkpt>
      <trkpt lat="47.25265" lon="4.97031">
        <ele>319.80673217773</ele>
        <time>2018-06-28T11:24:36+0200</time>
      </trkpt>
      <trkpt lat="47.25262" lon="4.97031">
        <ele>319.91732788086</ele>
        <time>2018-06-28T11:24:39+0200</time>
      </trkpt>
      <trkpt lat="47.25258" lon="4.97031">
        <ele>319.99087524414</ele>
        <time>2018-06-28T11:24:42+0200</time>
      </trkpt>
      <trkpt lat="47.25255" lon="4.97031">
        <ele>319.95074462891</ele>
        <time>2018-06-28T11:24:45+0200</time>
      </trkpt>
      <trkpt lat="47.25252" lon="4.97033">
        <ele>319.79183959961</ele>
        <time>2018-06-28T11:24:48+0200</time>
      </trkpt>
      <trkpt lat="47.25249" lon="4.97033">
        <ele>319.57788085938</ele>
        <time>2018-06-28T11:24:51+0200</time>
      </trkpt>
      <trkpt lat="47.25246" lon="4.97032">
        <ele>319.36880493164</ele>
        <time>2018-06-28T11:24:54+0200</time>
      </trkpt>
      <trkpt lat="47.25243" lon="4.97031">
        <ele>319.10174560547</ele>
        <time>2018-06-28T11:24:57+0200</time>
      </trkpt>
      <trkpt lat="47.25239" lon="4.97029">
        <ele>318.74182128906</ele>
        <time>2018-06-28T11:25:00+0200</time>
      </trkpt>
      <trkpt lat="47.25237" lon="4.97028">
        <ele>318.35968017578</ele>
        <time>2018-06-28T11:25:03+0200</time>
      </trkpt>
      <trkpt lat="47.25235" lon="4.97028">
        <ele>317.96234130859</ele>
        <time>2018-06-28T11:25:06+0200</time>
      </trkpt>
      <trkpt lat="47.25232" lon="4.97026">
        <ele>317.63510131836</ele>
        <time>2018-06-28T11:25:09+0200</time>
      </trkpt>
      <trkpt lat="47.25227" lon="4.97025">
        <ele>317.35949707031</ele>
        <time>2018-06-28T11:25:12+0200</time>
      </trkpt>
      <trkpt lat="47.25224" lon="4.97024">
        <ele>317.15707397461</ele>
        <time>2018-06-28T11:25:15+0200</time>
      </trkpt>
      <trkpt lat="47.2522" lon="4.97024">
        <ele>316.98419189453</ele>
        <time>2018-06-28T11:25:18+0200</time>
      </trkpt>
      <trkpt lat="47.25216" lon="4.97023">
        <ele>316.80389404297</ele>
        <time>2018-06-28T11:25:21+0200</time>
      </trkpt>
      <trkpt lat="47.25213" lon="4.97023">
        <ele>316.61215209961</ele>
        <time>2018-06-28T11:25:24+0200</time>
      </trkpt>
      <trkpt lat="47.2521" lon="4.97022">
        <ele>316.36895751953</ele>
        <time>2018-06-28T11:25:27+0200</time>
      </trkpt>
      <trkpt lat="47.25207" lon="4.97022">
        <ele>316.10830688477</ele>
        <time>2018-06-28T11:25:30+0200</time>
      </trkpt>
      <trkpt lat="47.25204" lon="4.97022">
        <ele>315.88275146484</ele>
        <time>2018-06-28T11:25:33+0200</time>
      </trkpt>
      <trkpt lat="47.25201" lon="4.97023">
        <ele>315.7326965332</ele>
        <time>2018-06-28T11:25:36+0200</time>
      </trkpt>
      <trkpt lat="47.25199" lon="4.97024">
        <ele>315.64614868164</ele>
        <time>2018-06-28T11:25:39+0200</time>
      </trkpt>
      <trkpt lat="47.25196" lon="4.97025">
        <ele>315.5514831543</ele>
        <time>2018-06-28T11:25:42+0200</time>
      </trkpt>
      <trkpt lat="47.25193" lon="4.97026">
        <ele>315.4563293457</ele>
        <time>2018-06-28T11:25:45+0200</time>
      </trkpt>
      <trkpt lat="47.2519" lon="4.97027">
        <ele>315.41250610352</ele>
        <time>2018-06-28T11:25:48+0200</time>
      </trkpt>
      <trkpt lat="47.25188" lon="4.97029">
        <ele>315.33377075195</ele>
        <time>2018-06-28T11:25:51+0200</time>
      </trkpt>
      <trkpt lat="47.25185" lon="4.9703">
        <ele>315.2844543457</ele>
        <time>2018-06-28T11:25:54+0200</time>
      </trkpt>
      <trkpt lat="47.25182" lon="4.97032">
        <ele>315.19973754883</ele>
        <time>2018-06-28T11:25:57+0200</time>
      </trkpt>
      <trkpt lat="47.25178" lon="4.97034">
        <ele>315.0622253418</ele>
        <time>2018-06-28T11:26:00+0200</time>
      </trkpt>
      <trkpt lat="47.25175" lon="4.97036">
        <ele>314.89056396484</ele>
        <time>2018-06-28T11:26:03+0200</time>
      </trkpt>
      <trkpt lat="47.25172" lon="4.97036">
        <ele>314.7790222168</ele>
        <time>2018-06-28T11:26:06+0200</time>
      </trkpt>
      <trkpt lat="47.25168" lon="4.97036">
        <ele>314.77661132812</ele>
        <time>2018-06-28T11:26:09+0200</time>
      </trkpt>
      <trkpt lat="47.25165" lon="4.97037">
        <ele>314.94024658203</ele>
        <time>2018-06-28T11:26:12+0200</time>
      </trkpt>
      <trkpt lat="47.25162" lon="4.97038">
        <ele>315.18737792969</ele>
        <time>2018-06-28T11:26:15+0200</time>
      </trkpt>
      <trkpt lat="47.25159" lon="4.9704">
        <ele>315.39715576172</ele>
        <time>2018-06-28T11:26:18+0200</time>
      </trkpt>
      <trkpt lat="47.25156" lon="4.97043">
        <ele>315.61059570312</ele>
        <time>2018-06-28T11:26:21+0200</time>
      </trkpt>
      <trkpt lat="47.25151" lon="4.97045">
        <ele>315.8083190918</ele>
        <time>2018-06-28T11:26:24+0200</time>
      </trkpt>
      <trkpt lat="47.25149" lon="4.97046">
        <ele>315.87356567383</ele>
        <time>2018-06-28T11:26:27+0200</time>
      </trkpt>
      <trkpt lat="47.25146" lon="4.97048">
        <ele>315.95108032227</ele>
        <time>2018-06-28T11:26:30+0200</time>
      </trkpt>
      <trkpt lat="47.25143" lon="4.97049">
        <ele>315.99731445312</ele>
        <time>2018-06-28T11:26:33+0200</time>
      </trkpt>
      <trkpt lat="47.25138" lon="4.97051">
        <ele>316.02291870117</ele>
        <time>2018-06-28T11:26:36+0200</time>
      </trkpt>
      <trkpt lat="47.25137" lon="4.97052">
        <ele>316.08343505859</ele>
        <time>2018-06-28T11:26:39+0200</time>
      </trkpt>
      <trkpt lat="47.25134" lon="4.97053">
        <ele>316.23748779297</ele>
        <time>2018-06-28T11:26:42+0200</time>
      </trkpt>
      <trkpt lat="47.25132" lon="4.97057">
        <ele>316.42727661133</ele>
        <time>2018-06-28T11:26:45+0200</time>
      </trkpt>
      <trkpt lat="47.25127" lon="4.9706">
        <ele>316.63973999023</ele>
        <time>2018-06-28T11:26:48+0200</time>
      </trkpt>
      <trkpt lat="47.25126" lon="4.97062">
        <ele>316.80075073242</ele>
        <time>2018-06-28T11:26:51+0200</time>
      </trkpt>
      <trkpt lat="47.25122" lon="4.97065">
        <ele>316.85256958008</ele>
        <time>2018-06-28T11:26:54+0200</time>
      </trkpt>
      <trkpt lat="47.25119" lon="4.97066">
        <ele>316.9296875</ele>
        <time>2018-06-28T11:26:57+0200</time>
      </trkpt>
      <trkpt lat="47.25117" lon="4.97069">
        <ele>317.03115844727</ele>
        <time>2018-06-28T11:27:00+0200</time>
      </trkpt>
      <trkpt lat="47.25113" lon="4.97071">
        <ele>317.10189819336</ele>
        <time>2018-06-28T11:27:03+0200</time>
      </trkpt>
      <trkpt lat="47.2511" lon="4.97073">
        <ele>317.17834472656</ele>
        <time>2018-06-28T11:27:06+0200</time>
      </trkpt>
      <trkpt lat="47.25107" lon="4.97076">
        <ele>317.28344726562</ele>
        <time>2018-06-28T11:27:09+0200</time>
      </trkpt>
      <trkpt lat="47.25104" lon="4.97078">
        <ele>317.44702148438</ele>
        <time>2018-06-28T11:27:12+0200</time>
      </trkpt>
      <trkpt lat="47.25101" lon="4.97082">
        <ele>317.58255004883</ele>
        <time>2018-06-28T11:27:15+0200</time>
      </trkpt>
      <trkpt lat="47.25098" lon="4.97085">
        <ele>317.60046386719</ele>
        <time>2018-06-28T11:27:18+0200</time>
      </trkpt>
      <trkpt lat="47.25096" lon="4.97085">
        <ele>317.61114501953</ele>
        <time>2018-06-28T11:27:21+0200</time>
      </trkpt>
      <trkpt lat="47.25094" lon="4.97087">
        <ele>317.67077636719</ele>
        <time>2018-06-28T11:27:24+0200</time>
      </trkpt>
      <trkpt lat="47.25091" lon="4.97089">
        <ele>317.68743896484</ele>
        <time>2018-06-28T11:27:27+0200</time>
      </trkpt>
      <trkpt lat="47.25087" lon="4.97093">
        <ele>317.57312011719</ele>
        <time>2018-06-28T11:27:30+0200</time>
      </trkpt>
      <trkpt lat="47.25084" lon="4.97097">
        <ele>317.25946044922</ele>
        <time>2018-06-28T11:27:33+0200</time>
      </trkpt>
      <trkpt lat="47.25081" lon="4.97096">
        <ele>316.97177124023</ele>
        <time>2018-06-28T11:27:36+0200</time>
      </trkpt>
      <trkpt lat="47.25078" lon="4.97096">
        <ele>316.83526611328</ele>
        <time>2018-06-28T11:27:39+0200</time>
      </trkpt>
      <trkpt lat="47.25076" lon="4.97098">
        <ele>316.8095703125</ele>
        <time>2018-06-28T11:27:42+0200</time>
      </trkpt>
      <trkpt lat="47.25072" lon="4.97099">
        <ele>316.68258666992</ele>
        <time>2018-06-28T11:27:45+0200</time>
      </trkpt>
      <trkpt lat="47.25069" lon="4.97099">
        <ele>316.59381103516</ele>
        <time>2018-06-28T11:27:48+0200</time>
      </trkpt>
      <trkpt lat="47.25067" lon="4.97102">
        <ele>316.60882568359</ele>
        <time>2018-06-28T11:27:51+0200</time>
      </trkpt>
      <trkpt lat="47.25063" lon="4.97103">
        <ele>316.72915649414</ele>
        <time>2018-06-28T11:27:54+0200</time>
      </trkpt>
      <trkpt lat="47.2506" lon="4.97107">
        <ele>316.71475219727</ele>
        <time>2018-06-28T11:27:57+0200</time>
      </trkpt>
      <trkpt lat="47.25057" lon="4.97109">
        <ele>316.5546875</ele>
        <time>2018-06-28T11:28:00+0200</time>
      </trkpt>
      <trkpt lat="47.25054" lon="4.97108">
        <ele>316.39868164062</ele>
        <time>2018-06-28T11:28:03+0200</time>
      </trkpt>
      <trkpt lat="47.25051" lon="4.97107">
        <ele>316.33117675781</ele>
        <time>2018-06-28T11:28:06+0200</time>
      </trkpt>
      <trkpt lat="47.25046" lon="4.97109">
        <ele>316.20614624023</ele>
        <time>2018-06-28T11:28:09+0200</time>
      </trkpt>
      <trkpt lat="47.25042" lon="4.9711">
        <ele>315.98641967773</ele>
        <time>2018-06-28T11:28:12+0200</time>
      </trkpt>
      <trkpt lat="47.25039" lon="4.97112">
        <ele>315.80404663086</ele>
        <time>2018-06-28T11:28:15+0200</time>
      </trkpt>
      <trkpt lat="47.25035" lon="4.97113">
        <ele>315.66830444336</ele>
        <time>2018-06-28T11:28:18+0200</time>
      </trkpt>
      <trkpt lat="47.25031" lon="4.97114">
        <ele>315.50726318359</ele>
        <time>2018-06-28T11:28:21+0200</time>
      </trkpt>
      <trkpt lat="47.25029" lon="4.97114">
        <ele>315.33221435547</ele>
        <time>2018-06-28T11:28:24+0200</time>
      </trkpt>
      <trkpt lat="47.25026" lon="4.97114">
        <ele>315.20596313477</ele>
        <time>2018-06-28T11:28:27+0200</time>
      </trkpt>
      <trkpt lat="47.25024" lon="4.97114">
        <ele>315.14556884766</ele>
        <time>2018-06-28T11:28:30+0200</time>
      </trkpt>
      <trkpt lat="47.25022" lon="4.97115">
        <ele>315.15158081055</ele>
        <time>2018-06-28T11:28:33+0200</time>
      </trkpt>
      <trkpt lat="47.25019" lon="4.97116">
        <ele>315.18209838867</ele>
        <time>2018-06-28T11:28:36+0200</time>
      </trkpt>
      <trkpt lat="47.25016" lon="4.97115">
        <ele>315.24331665039</ele>
        <time>2018-06-28T11:28:39+0200</time>
      </trkpt>
      <trkpt lat="47.25015" lon="4.9711">
        <ele>315.26098632812</ele>
        <time>2018-06-28T11:28:42+0200</time>
      </trkpt>
      <trkpt lat="47.25014" lon="4.97107">
        <ele>315.23385620117</ele>
        <time>2018-06-28T11:28:45+0200</time>
      </trkpt>
      <trkpt lat="47.25014" lon="4.97103">
        <ele>315.19097900391</ele>
        <time>2018-06-28T11:28:48+0200</time>
      </trkpt>
      <trkpt lat="47.25015" lon="4.97098">
        <ele>315.11544799805</ele>
        <time>2018-06-28T11:28:51+0200</time>
      </trkpt>
      <trkpt lat="47.25015" lon="4.97094">
        <ele>315.04428100586</ele>
        <time>2018-06-28T11:28:54+0200</time>
      </trkpt>
      <trkpt lat="47.25013" lon="4.97089">
        <ele>314.97439575195</ele>
        <time>2018-06-28T11:28:57+0200</time>
      </trkpt>
      <trkpt lat="47.25012" lon="4.97085">
        <ele>314.94561767578</ele>
        <time>2018-06-28T11:29:00+0200</time>
      </trkpt>
      <trkpt lat="47.25011" lon="4.9708">
        <ele>314.92266845703</ele>
        <time>2018-06-28T11:29:03+0200</time>
      </trkpt>
      <trkpt lat="47.25011" lon="4.97075">
        <ele>314.89764404297</ele>
        <time>2018-06-28T11:29:06+0200</time>
      </trkpt>
      <trkpt lat="47.25011" lon="4.97071">
        <ele>314.87289428711</ele>
        <time>2018-06-28T11:29:09+0200</time>
      </trkpt>
      <trkpt lat="47.2501" lon="4.97067">
        <ele>314.85153198242</ele>
        <time>2018-06-28T11:29:12+0200</time>
      </trkpt>
      <trkpt lat="47.2501" lon="4.97063">
        <ele>314.81759643555</ele>
        <time>2018-06-28T11:29:15+0200</time>
      </trkpt>
      <trkpt lat="47.25011" lon="4.97059">
        <ele>314.79553222656</ele>
        <time>2018-06-28T11:29:18+0200</time>
      </trkpt>
      <trkpt lat="47.25011" lon="4.97055">
        <ele>314.79873657227</ele>
        <time>2018-06-28T11:29:21+0200</time>
      </trkpt>
      <trkpt lat="47.25012" lon="4.97049">
        <ele>314.85137939453</ele>
        <time>2018-06-28T11:29:24+0200</time>
      </trkpt>
      <trkpt lat="47.25012" lon="4.97046">
        <ele>314.9602355957</ele>
        <time>2018-06-28T11:29:27+0200</time>
      </trkpt>
      <trkpt lat="47.25012" lon="4.97042">
        <ele>315.0837097168</ele>
        <time>2018-06-28T11:29:30+0200</time>
      </trkpt>
      <trkpt lat="47.25012" lon="4.9704">
        <ele>315.21810913086</ele>
        <time>2018-06-28T11:29:33+0200</time>
      </trkpt>
      <trkpt lat="47.25008" lon="4.97037">
        <ele>315.35705566406</ele>
        <time>2018-06-28T11:29:36+0200</time>
      </trkpt>
      <trkpt lat="47.25002" lon="4.97035">
        <ele>315.52182006836</ele>
        <time>2018-06-28T11:29:39+0200</time>
      </trkpt>
      <trkpt lat="47.24999" lon="4.97035">
        <ele>315.68969726562</ele>
        <time>2018-06-28T11:29:42+0200</time>
      </trkpt>
      <trkpt lat="47.24998" lon="4.97036">
        <ele>315.73236083984</ele>
        <time>2018-06-28T11:29:45+0200</time>
      </trkpt>
      <trkpt lat="47.24997" lon="4.97036">
        <ele>315.78384399414</ele>
        <time>2018-06-28T11:29:48+0200</time>
      </trkpt>
      <trkpt lat="47.24994" lon="4.97033">
        <ele>315.97021484375</ele>
        <time>2018-06-28T11:29:51+0200</time>
      </trkpt>
      <trkpt lat="47.24991" lon="4.97032">
        <ele>316.32113647461</ele>
        <time>2018-06-28T11:29:54+0200</time>
      </trkpt>
      <trkpt lat="47.24988" lon="4.97031">
        <ele>316.70706176758</ele>
        <time>2018-06-28T11:29:57+0200</time>
      </trkpt>
      <trkpt lat="47.24985" lon="4.9703">
        <ele>317.08935546875</ele>
        <time>2018-06-28T11:30:00+0200</time>
      </trkpt>
      <trkpt lat="47.24983" lon="4.97031">
        <ele>317.41275024414</ele>
        <time>2018-06-28T11:30:03+0200</time>
      </trkpt>
      <trkpt lat="47.2498" lon="4.97032">
        <ele>317.76770019531</ele>
        <time>2018-06-28T11:30:06+0200</time>
      </trkpt>
      <trkpt lat="47.24976" lon="4.97035">
        <ele>317.91809082031</ele>
        <time>2018-06-28T11:30:09+0200</time>
      </trkpt>
      <trkpt lat="47.24971" lon="4.97034">
        <ele>317.87609863281</ele>
        <time>2018-06-28T11:30:12+0200</time>
      </trkpt>
      <trkpt lat="47.24968" lon="4.97034">
        <ele>317.7825012207</ele>
        <time>2018-06-28T11:30:15+0200</time>
      </trkpt>
      <trkpt lat="47.24965" lon="4.97034">
        <ele>317.75057983398</ele>
        <time>2018-06-28T11:30:18+0200</time>
      </trkpt>
      <trkpt lat="47.24964" lon="4.97033">
        <ele>317.70352172852</ele>
        <time>2018-06-28T11:30:21+0200</time>
      </trkpt>
      <trkpt lat="47.2496" lon="4.97032">
        <ele>317.65649414062</ele>
        <time>2018-06-28T11:30:24+0200</time>
      </trkpt>
      <trkpt lat="47.24957" lon="4.97031">
        <ele>317.65188598633</ele>
        <time>2018-06-28T11:30:27+0200</time>
      </trkpt>
      <trkpt lat="47.24953" lon="4.97031">
        <ele>317.70007324219</ele>
        <time>2018-06-28T11:30:30+0200</time>
      </trkpt>
      <trkpt lat="47.24949" lon="4.9703">
        <ele>317.82418823242</ele>
        <time>2018-06-28T11:30:33+0200</time>
      </trkpt>
      <trkpt lat="47.24946" lon="4.9703">
        <ele>317.93194580078</ele>
        <time>2018-06-28T11:30:36+0200</time>
      </trkpt>
      <trkpt lat="47.24943" lon="4.97029">
        <ele>317.95895385742</ele>
        <time>2018-06-28T11:30:39+0200</time>
      </trkpt>
      <trkpt lat="47.24941" lon="4.97027">
        <ele>317.92065429688</ele>
        <time>2018-06-28T11:30:42+0200</time>
      </trkpt>
      <trkpt lat="47.24938" lon="4.97025">
        <ele>317.87881469727</ele>
        <time>2018-06-28T11:30:45+0200</time>
      </trkpt>
      <trkpt lat="47.24936" lon="4.97024">
        <ele>317.85928344727</ele>
        <time>2018-06-28T11:30:48+0200</time>
      </trkpt>
      <trkpt lat="47.24933" lon="4.97022">
        <ele>317.83694458008</ele>
        <time>2018-06-28T11:30:51+0200</time>
      </trkpt>
      <trkpt lat="47.24931" lon="4.97021">
        <ele>317.82186889648</ele>
        <time>2018-06-28T11:30:54+0200</time>
      </trkpt>
      <trkpt lat="47.24928" lon="4.9702">
        <ele>317.82061767578</ele>
        <time>2018-06-28T11:30:57+0200</time>
      </trkpt>
      <trkpt lat="47.24926" lon="4.97019">
        <ele>317.85293579102</ele>
        <time>2018-06-28T11:31:00+0200</time>
      </trkpt>
      <trkpt lat="47.24923" lon="4.97017">
        <ele>317.90139770508</ele>
        <time>2018-06-28T11:31:03+0200</time>
      </trkpt>
      <trkpt lat="47.24918" lon="4.97016">
        <ele>317.96765136719</ele>
        <time>2018-06-28T11:31:06+0200</time>
      </trkpt>
      <trkpt lat="47.24916" lon="4.97015">
        <ele>318.03948974609</ele>
        <time>2018-06-28T11:31:09+0200</time>
      </trkpt>
      <trkpt lat="47.24913" lon="4.97013">
        <ele>318.12612915039</ele>
        <time>2018-06-28T11:31:12+0200</time>
      </trkpt>
      <trkpt lat="47.2491" lon="4.97012">
        <ele>318.1901550293</ele>
        <time>2018-06-28T11:31:15+0200</time>
      </trkpt>
      <trkpt lat="47.24906" lon="4.9701">
        <ele>318.18359375</ele>
        <time>2018-06-28T11:31:18+0200</time>
      </trkpt>
      <trkpt lat="47.24904" lon="4.97009">
        <ele>318.1623840332</ele>
        <time>2018-06-28T11:31:21+0200</time>
      </trkpt>
      <trkpt lat="47.249" lon="4.97007">
        <ele>318.20278930664</ele>
        <time>2018-06-28T11:31:24+0200</time>
      </trkpt>
      <trkpt lat="47.24895" lon="4.97005">
        <ele>318.21069335938</ele>
        <time>2018-06-28T11:31:27+0200</time>
      </trkpt>
      <trkpt lat="47.24892" lon="4.97004">
        <ele>318.24951171875</ele>
        <time>2018-06-28T11:31:30+0200</time>
      </trkpt>
      <trkpt lat="47.24892" lon="4.97004">
        <ele>318.34289550781</ele>
        <time>2018-06-28T11:31:33+0200</time>
      </trkpt>
      <trkpt lat="47.24889" lon="4.97002">
        <ele>318.38885498047</ele>
        <time>2018-06-28T11:31:36+0200</time>
      </trkpt>
      <trkpt lat="47.24886" lon="4.97">
        <ele>318.3782043457</ele>
        <time>2018-06-28T11:31:39+0200</time>
      </trkpt>
      <trkpt lat="47.24884" lon="4.96999">
        <ele>318.39694213867</ele>
        <time>2018-06-28T11:31:42+0200</time>
      </trkpt>
      <trkpt lat="47.24881" lon="4.96997">
        <ele>318.4479675293</ele>
        <time>2018-06-28T11:31:45+0200</time>
      </trkpt>
      <trkpt lat="47.24877" lon="4.96995">
        <ele>318.41845703125</ele>
        <time>2018-06-28T11:31:48+0200</time>
      </trkpt>
      <trkpt lat="47.24874" lon="4.96994">
        <ele>318.30563354492</ele>
        <time>2018-06-28T11:31:51+0200</time>
      </trkpt>
      <trkpt lat="47.2487" lon="4.96993">
        <ele>318.18609619141</ele>
        <time>2018-06-28T11:31:54+0200</time>
      </trkpt>
      <trkpt lat="47.24866" lon="4.96991">
        <ele>318.0466003418</ele>
        <time>2018-06-28T11:31:57+0200</time>
      </trkpt>
      <trkpt lat="47.24863" lon="4.96989">
        <ele>317.81329345703</ele>
        <time>2018-06-28T11:32:00+0200</time>
      </trkpt>
      <trkpt lat="47.24859" lon="4.96986">
        <ele>317.5432434082</ele>
        <time>2018-06-28T11:32:03+0200</time>
      </trkpt>
      <trkpt lat="47.24856" lon="4.96984">
        <ele>317.25796508789</ele>
        <time>2018-06-28T11:32:06+0200</time>
      </trkpt>
      <trkpt lat="47.24852" lon="4.96982">
        <ele>316.97470092773</ele>
        <time>2018-06-28T11:32:09+0200</time>
      </trkpt>
      <trkpt lat="47.2485" lon="4.9698">
        <ele>316.70263671875</ele>
        <time>2018-06-28T11:32:12+0200</time>
      </trkpt>
      <trkpt lat="47.24847" lon="4.96978">
        <ele>316.43716430664</ele>
        <time>2018-06-28T11:32:15+0200</time>
      </trkpt>
      <trkpt lat="47.24845" lon="4.96976">
        <ele>316.18502807617</ele>
        <time>2018-06-28T11:32:18+0200</time>
      </trkpt>
      <trkpt lat="47.24842" lon="4.96973">
        <ele>315.97631835938</ele>
        <time>2018-06-28T11:32:21+0200</time>
      </trkpt>
      <trkpt lat="47.24839" lon="4.96971">
        <ele>315.78897094727</ele>
        <time>2018-06-28T11:32:24+0200</time>
      </trkpt>
      <trkpt lat="47.24835" lon="4.9697">
        <ele>315.6149597168</ele>
        <time>2018-06-28T11:32:27+0200</time>
      </trkpt>
      <trkpt lat="47.24832" lon="4.96967">
        <ele>315.44381713867</ele>
        <time>2018-06-28T11:32:30+0200</time>
      </trkpt>
      <trkpt lat="47.24829" lon="4.96965">
        <ele>315.19635009766</ele>
        <time>2018-06-28T11:32:33+0200</time>
      </trkpt>
      <trkpt lat="47.24826" lon="4.96963">
        <ele>314.92303466797</ele>
        <time>2018-06-28T11:32:36+0200</time>
      </trkpt>
      <trkpt lat="47.24823" lon="4.96962">
        <ele>314.69799804688</ele>
        <time>2018-06-28T11:32:39+0200</time>
      </trkpt>
      <trkpt lat="47.2482" lon="4.9696">
        <ele>314.49960327148</ele>
        <time>2018-06-28T11:32:42+0200</time>
      </trkpt>
      <trkpt lat="47.24817" lon="4.96959">
        <ele>314.36807250977</ele>
        <time>2018-06-28T11:32:45+0200</time>
      </trkpt>
      <trkpt lat="47.24814" lon="4.96958">
        <ele>314.24142456055</ele>
        <time>2018-06-28T11:32:48+0200</time>
      </trkpt>
      <trkpt lat="47.2481" lon="4.96957">
        <ele>314.10317993164</ele>
        <time>2018-06-28T11:32:51+0200</time>
      </trkpt>
      <trkpt lat="47.24807" lon="4.96956">
        <ele>314.00155639648</ele>
        <time>2018-06-28T11:32:54+0200</time>
      </trkpt>
      <trkpt lat="47.24805" lon="4.96954">
        <ele>313.90426635742</ele>
        <time>2018-06-28T11:32:57+0200</time>
      </trkpt>
      <trkpt lat="47.24802" lon="4.96952">
        <ele>313.76171875</ele>
        <time>2018-06-28T11:33:00+0200</time>
      </trkpt>
      <trkpt lat="47.24798" lon="4.96949">
        <ele>313.60144042969</ele>
        <time>2018-06-28T11:33:03+0200</time>
      </trkpt>
      <trkpt lat="47.24794" lon="4.96948">
        <ele>313.39489746094</ele>
        <time>2018-06-28T11:33:06+0200</time>
      </trkpt>
      <trkpt lat="47.24792" lon="4.96947">
        <ele>313.22943115234</ele>
        <time>2018-06-28T11:33:09+0200</time>
      </trkpt>
      <trkpt lat="47.2479" lon="4.96945">
        <ele>313.07452392578</ele>
        <time>2018-06-28T11:33:12+0200</time>
      </trkpt>
      <trkpt lat="47.24788" lon="4.96945">
        <ele>313.02111816406</ele>
        <time>2018-06-28T11:33:15+0200</time>
      </trkpt>
      <trkpt lat="47.24786" lon="4.96944">
        <ele>313.05432128906</ele>
        <time>2018-06-28T11:33:18+0200</time>
      </trkpt>
      <trkpt lat="47.24781" lon="4.96942">
        <ele>313.02221679688</ele>
        <time>2018-06-28T11:33:21+0200</time>
      </trkpt>
      <trkpt lat="47.24777" lon="4.9694">
        <ele>312.85684204102</ele>
        <time>2018-06-28T11:33:24+0200</time>
      </trkpt>
      <trkpt lat="47.24774" lon="4.96938">
        <ele>312.638671875</ele>
        <time>2018-06-28T11:33:27+0200</time>
      </trkpt>
      <trkpt lat="47.24771" lon="4.96937">
        <ele>312.40145874023</ele>
        <time>2018-06-28T11:33:30+0200</time>
      </trkpt>
      <trkpt lat="47.24768" lon="4.96935">
        <ele>312.11212158203</ele>
        <time>2018-06-28T11:33:33+0200</time>
      </trkpt>
      <trkpt lat="47.24765" lon="4.96933">
        <ele>311.86227416992</ele>
        <time>2018-06-28T11:33:36+0200</time>
      </trkpt>
      <trkpt lat="47.24761" lon="4.96932">
        <ele>311.60485839844</ele>
        <time>2018-06-28T11:33:39+0200</time>
      </trkpt>
      <trkpt lat="47.24758" lon="4.96931">
        <ele>311.38931274414</ele>
        <time>2018-06-28T11:33:42+0200</time>
      </trkpt>
      <trkpt lat="47.24756" lon="4.96929">
        <ele>311.22219848633</ele>
        <time>2018-06-28T11:33:45+0200</time>
      </trkpt>
      <trkpt lat="47.24754" lon="4.96927">
        <ele>311.14868164062</ele>
        <time>2018-06-28T11:33:48+0200</time>
      </trkpt>
      <trkpt lat="47.24752" lon="4.96925">
        <ele>311.08352661133</ele>
        <time>2018-06-28T11:33:51+0200</time>
      </trkpt>
      <trkpt lat="47.24749" lon="4.96923">
        <ele>310.90600585938</ele>
        <time>2018-06-28T11:33:54+0200</time>
      </trkpt>
      <trkpt lat="47.24746" lon="4.9692">
        <ele>310.62991333008</ele>
        <time>2018-06-28T11:33:57+0200</time>
      </trkpt>
      <trkpt lat="47.24743" lon="4.96918">
        <ele>310.23837280273</ele>
        <time>2018-06-28T11:34:00+0200</time>
      </trkpt>
      <trkpt lat="47.24741" lon="4.96916">
        <ele>309.7971496582</ele>
        <time>2018-06-28T11:34:03+0200</time>
      </trkpt>
      <trkpt lat="47.24738" lon="4.96914">
        <ele>309.42736816406</ele>
        <time>2018-06-28T11:34:06+0200</time>
      </trkpt>
      <trkpt lat="47.24735" lon="4.96912">
        <ele>309.11599731445</ele>
        <time>2018-06-28T11:34:09+0200</time>
      </trkpt>
      <trkpt lat="47.24731" lon="4.96909">
        <ele>308.82141113281</ele>
        <time>2018-06-28T11:34:12+0200</time>
      </trkpt>
      <trkpt lat="47.24728" lon="4.96907">
        <ele>308.59112548828</ele>
        <time>2018-06-28T11:34:15+0200</time>
      </trkpt>
      <trkpt lat="47.24727" lon="4.96905">
        <ele>308.39410400391</ele>
        <time>2018-06-28T11:34:18+0200</time>
      </trkpt>
      <trkpt lat="47.24723" lon="4.96902">
        <ele>308.22933959961</ele>
        <time>2018-06-28T11:34:21+0200</time>
      </trkpt>
      <trkpt lat="47.2472" lon="4.96898">
        <ele>308.08871459961</ele>
        <time>2018-06-28T11:34:24+0200</time>
      </trkpt>
      <trkpt lat="47.24717" lon="4.96895">
        <ele>307.88040161133</ele>
        <time>2018-06-28T11:34:27+0200</time>
      </trkpt>
      <trkpt lat="47.24714" lon="4.96892">
        <ele>307.66363525391</ele>
        <time>2018-06-28T11:34:30+0200</time>
      </trkpt>
      <trkpt lat="47.2471" lon="4.9689">
        <ele>307.49273681641</ele>
        <time>2018-06-28T11:34:33+0200</time>
      </trkpt>
      <trkpt lat="47.2471" lon="4.9689">
        <ele>307.42868041992</ele>
        <time>2018-06-28T11:34:36+0200</time>
      </trkpt>
      <trkpt lat="47.2471" lon="4.9689">
        <ele>307.41873168945</ele>
        <time>2018-06-28T11:34:39+0200</time>
      </trkpt>
      <trkpt lat="47.24708" lon="4.96888">
        <ele>307.28515625</ele>
        <time>2018-06-28T11:34:42+0200</time>
      </trkpt>
      <trkpt lat="47.24708" lon="4.96885">
        <ele>307.13708496094</ele>
        <time>2018-06-28T11:34:45+0200</time>
      </trkpt>
      <trkpt lat="47.24705" lon="4.96882">
        <ele>307.01623535156</ele>
        <time>2018-06-28T11:34:49+0200</time>
      </trkpt>
      <trkpt lat="47.24703" lon="4.9688">
        <ele>306.9469909668</ele>
        <time>2018-06-28T11:34:52+0200</time>
      </trkpt>
      <trkpt lat="47.247" lon="4.96878">
        <ele>306.85479736328</ele>
        <time>2018-06-28T11:34:55+0200</time>
      </trkpt>
      <trkpt lat="47.24698" lon="4.96876">
        <ele>306.76083374023</ele>
        <time>2018-06-28T11:34:58+0200</time>
      </trkpt>
      <trkpt lat="47.24696" lon="4.96875">
        <ele>306.74591064453</ele>
        <time>2018-06-28T11:35:01+0200</time>
      </trkpt>
      <trkpt lat="47.24694" lon="4.96873">
        <ele>306.78924560547</ele>
        <time>2018-06-28T11:35:04+0200</time>
      </trkpt>
      <trkpt lat="47.2469" lon="4.96871">
        <ele>306.9455871582</ele>
        <time>2018-06-28T11:35:07+0200</time>
      </trkpt>
      <trkpt lat="47.24686" lon="4.9687">
        <ele>307.11563110352</ele>
        <time>2018-06-28T11:35:10+0200</time>
      </trkpt>
      <trkpt lat="47.24685" lon="4.96869">
        <ele>307.33938598633</ele>
        <time>2018-06-28T11:35:13+0200</time>
      </trkpt>
      <trkpt lat="47.24682" lon="4.96868">
        <ele>307.58062744141</ele>
        <time>2018-06-28T11:35:16+0200</time>
      </trkpt>
      <trkpt lat="47.2468" lon="4.96866">
        <ele>307.83752441406</ele>
        <time>2018-06-28T11:35:19+0200</time>
      </trkpt>
      <trkpt lat="47.24677" lon="4.96867">
        <ele>308.13104248047</ele>
        <time>2018-06-28T11:35:22+0200</time>
      </trkpt>
      <trkpt lat="47.24675" lon="4.96867">
        <ele>308.47598266602</ele>
        <time>2018-06-28T11:35:25+0200</time>
      </trkpt>
      <trkpt lat="47.24672" lon="4.96866">
        <ele>308.84994506836</ele>
        <time>2018-06-28T11:35:28+0200</time>
      </trkpt>
      <trkpt lat="47.24669" lon="4.96865">
        <ele>309.17276000977</ele>
        <time>2018-06-28T11:35:31+0200</time>
      </trkpt>
      <trkpt lat="47.24666" lon="4.96865">
        <ele>309.42984008789</ele>
        <time>2018-06-28T11:35:34+0200</time>
      </trkpt>
      <trkpt lat="47.24663" lon="4.96867">
        <ele>309.65203857422</ele>
        <time>2018-06-28T11:35:37+0200</time>
      </trkpt>
      <trkpt lat="47.24662" lon="4.96868">
        <ele>310.00659179688</ele>
        <time>2018-06-28T11:35:40+0200</time>
      </trkpt>
      <trkpt lat="47.2466" lon="4.96868">
        <ele>310.37438964844</ele>
        <time>2018-06-28T11:35:43+0200</time>
      </trkpt>
      <trkpt lat="47.24658" lon="4.96869">
        <ele>310.84823608398</ele>
        <time>2018-06-28T11:35:46+0200</time>
      </trkpt>
      <trkpt lat="47.24655" lon="4.9687">
        <ele>311.38729858398</ele>
        <time>2018-06-28T11:35:49+0200</time>
      </trkpt>
      <trkpt lat="47.24653" lon="4.96869">
        <ele>311.97680664062</ele>
        <time>2018-06-28T11:35:52+0200</time>
      </trkpt>
      <trkpt lat="47.24651" lon="4.96871">
        <ele>312.68859863281</ele>
        <time>2018-06-28T11:35:55+0200</time>
      </trkpt>
      <trkpt lat="47.24648" lon="4.96871">
        <ele>313.48934936523</ele>
        <time>2018-06-28T11:35:58+0200</time>
      </trkpt>
      <trkpt lat="47.24644" lon="4.9687">
        <ele>314.31323242188</ele>
        <time>2018-06-28T11:36:01+0200</time>
      </trkpt>
      <trkpt lat="47.2464" lon="4.96872">
        <ele>315.10357666016</ele>
        <time>2018-06-28T11:36:04+0200</time>
      </trkpt>
      <trkpt lat="47.24636" lon="4.96878">
        <ele>315.53033447266</ele>
        <time>2018-06-28T11:36:07+0200</time>
      </trkpt>
      <trkpt lat="47.24633" lon="4.9688">
        <ele>315.84359741211</ele>
        <time>2018-06-28T11:36:10+0200</time>
      </trkpt>
      <trkpt lat="47.24631" lon="4.96881">
        <ele>315.97692871094</ele>
        <time>2018-06-28T11:36:13+0200</time>
      </trkpt>
      <trkpt lat="47.24626" lon="4.96884">
        <ele>315.92822265625</ele>
        <time>2018-06-28T11:36:16+0200</time>
      </trkpt>
      <trkpt lat="47.24622" lon="4.96886">
        <ele>315.80349731445</ele>
        <time>2018-06-28T11:36:19+0200</time>
      </trkpt>
      <trkpt lat="47.24624" lon="4.96886">
        <ele>315.5524597168</ele>
        <time>2018-06-28T11:36:22+0200</time>
      </trkpt>
      <trkpt lat="47.24621" lon="4.96885">
        <ele>315.33538818359</ele>
        <time>2018-06-28T11:36:25+0200</time>
      </trkpt>
      <trkpt lat="47.24621" lon="4.96885">
        <ele>315.18569946289</ele>
        <time>2018-06-28T11:36:28+0200</time>
      </trkpt>
      <trkpt lat="47.24621" lon="4.96885">
        <ele>314.93161010742</ele>
        <time>2018-06-28T11:36:31+0200</time>
      </trkpt>
      <trkpt lat="47.2462" lon="4.96882">
        <ele>314.71005249023</ele>
        <time>2018-06-28T11:36:34+0200</time>
      </trkpt>
      <trkpt lat="47.24621" lon="4.96876">
        <ele>314.59454345703</ele>
        <time>2018-06-28T11:36:37+0200</time>
      </trkpt>
      <trkpt lat="47.24623" lon="4.96871">
        <ele>314.47534179688</ele>
        <time>2018-06-28T11:36:40+0200</time>
      </trkpt>
      <trkpt lat="47.24623" lon="4.96865">
        <ele>314.33734130859</ele>
        <time>2018-06-28T11:36:43+0200</time>
      </trkpt>
      <trkpt lat="47.24626" lon="4.96862">
        <ele>314.24978637695</ele>
        <time>2018-06-28T11:36:46+0200</time>
      </trkpt>
      <trkpt lat="47.24627" lon="4.96857">
        <ele>314.32321166992</ele>
        <time>2018-06-28T11:36:49+0200</time>
      </trkpt>
      <trkpt lat="47.24627" lon="4.96855">
        <ele>314.39361572266</ele>
        <time>2018-06-28T11:36:52+0200</time>
      </trkpt>
      <trkpt lat="47.24627" lon="4.96849">
        <ele>314.46078491211</ele>
        <time>2018-06-28T11:36:55+0200</time>
      </trkpt>
      <trkpt lat="47.24627" lon="4.96846">
        <ele>314.46047973633</ele>
        <time>2018-06-28T11:36:58+0200</time>
      </trkpt>
      <trkpt lat="47.24627" lon="4.96842">
        <ele>314.37640380859</ele>
        <time>2018-06-28T11:37:01+0200</time>
      </trkpt>
      <trkpt lat="47.24627" lon="4.96838">
        <ele>314.26193237305</ele>
        <time>2018-06-28T11:37:04+0200</time>
      </trkpt>
      <trkpt lat="47.24627" lon="4.96833">
        <ele>314.16348266602</ele>
        <time>2018-06-28T11:37:07+0200</time>
      </trkpt>
      <trkpt lat="47.24627" lon="4.96827">
        <ele>314.0426940918</ele>
        <time>2018-06-28T11:37:10+0200</time>
      </trkpt>
      <trkpt lat="47.24627" lon="4.96823">
        <ele>313.88543701172</ele>
        <time>2018-06-28T11:37:13+0200</time>
      </trkpt>
      <trkpt lat="47.24627" lon="4.9682">
        <ele>313.72470092773</ele>
        <time>2018-06-28T11:37:16+0200</time>
      </trkpt>
      <trkpt lat="47.24627" lon="4.96816">
        <ele>313.55865478516</ele>
        <time>2018-06-28T11:37:19+0200</time>
      </trkpt>
      <trkpt lat="47.24628" lon="4.96813">
        <ele>313.43771362305</ele>
        <time>2018-06-28T11:37:22+0200</time>
      </trkpt>
      <trkpt lat="47.24628" lon="4.96807">
        <ele>313.41928100586</ele>
        <time>2018-06-28T11:37:25+0200</time>
      </trkpt>
      <trkpt lat="47.24627" lon="4.96803">
        <ele>313.43908691406</ele>
        <time>2018-06-28T11:37:28+0200</time>
      </trkpt>
      <trkpt lat="47.24628" lon="4.96799">
        <ele>313.51538085938</ele>
        <time>2018-06-28T11:37:31+0200</time>
      </trkpt>
      <trkpt lat="47.24628" lon="4.96795">
        <ele>313.69979858398</ele>
        <time>2018-06-28T11:37:34+0200</time>
      </trkpt>
      <trkpt lat="47.24628" lon="4.9679">
        <ele>313.98440551758</ele>
        <time>2018-06-28T11:37:37+0200</time>
      </trkpt>
      <trkpt lat="47.24627" lon="4.96787">
        <ele>314.21664428711</ele>
        <time>2018-06-28T11:37:40+0200</time>
      </trkpt>
      <trkpt lat="47.24627" lon="4.96782">
        <ele>314.37786865234</ele>
        <time>2018-06-28T11:37:43+0200</time>
      </trkpt>
      <trkpt lat="47.24627" lon="4.96777">
        <ele>314.48226928711</ele>
        <time>2018-06-28T11:37:46+0200</time>
      </trkpt>
      <trkpt lat="47.24626" lon="4.96772">
        <ele>314.54598999023</ele>
        <time>2018-06-28T11:37:49+0200</time>
      </trkpt>
      <trkpt lat="47.24626" lon="4.96767">
        <ele>314.54141235352</ele>
        <time>2018-06-28T11:37:52+0200</time>
      </trkpt>
      <trkpt lat="47.24625" lon="4.96763">
        <ele>314.48754882812</ele>
        <time>2018-06-28T11:37:55+0200</time>
      </trkpt>
      <trkpt lat="47.24625" lon="4.96758">
        <ele>314.39797973633</ele>
        <time>2018-06-28T11:37:58+0200</time>
      </trkpt>
      <trkpt lat="47.24625" lon="4.96754">
        <ele>314.31112670898</ele>
        <time>2018-06-28T11:38:01+0200</time>
      </trkpt>
      <trkpt lat="47.24625" lon="4.96751">
        <ele>314.20513916016</ele>
        <time>2018-06-28T11:38:04+0200</time>
      </trkpt>
      <trkpt lat="47.24624" lon="4.96747">
        <ele>314.1044921875</ele>
        <time>2018-06-28T11:38:07+0200</time>
      </trkpt>
      <trkpt lat="47.24622" lon="4.96743">
        <ele>314.04321289062</ele>
        <time>2018-06-28T11:38:10+0200</time>
      </trkpt>
      <trkpt lat="47.2462" lon="4.96739">
        <ele>314.03381347656</ele>
        <time>2018-06-28T11:38:13+0200</time>
      </trkpt>
      <trkpt lat="47.24618" lon="4.96735">
        <ele>314.07064819336</ele>
        <time>2018-06-28T11:38:16+0200</time>
      </trkpt>
      <trkpt lat="47.24615" lon="4.96733">
        <ele>314.14688110352</ele>
        <time>2018-06-28T11:38:19+0200</time>
      </trkpt>
      <trkpt lat="47.24614" lon="4.96732">
        <ele>314.25317382812</ele>
        <time>2018-06-28T11:38:22+0200</time>
      </trkpt>
      <trkpt lat="47.24612" lon="4.9673">
        <ele>314.37756347656</ele>
        <time>2018-06-28T11:38:25+0200</time>
      </trkpt>
      <trkpt lat="47.24608" lon="4.96729">
        <ele>314.5178527832</ele>
        <time>2018-06-28T11:38:28+0200</time>
      </trkpt>
      <trkpt lat="47.24605" lon="4.96727">
        <ele>314.67413330078</ele>
        <time>2018-06-28T11:38:31+0200</time>
      </trkpt>
      <trkpt lat="47.24601" lon="4.96725">
        <ele>314.83218383789</ele>
        <time>2018-06-28T11:38:34+0200</time>
      </trkpt>
      <trkpt lat="47.24598" lon="4.96725">
        <ele>314.97692871094</ele>
        <time>2018-06-28T11:38:37+0200</time>
      </trkpt>
      <trkpt lat="47.24594" lon="4.96723">
        <ele>315.12896728516</ele>
        <time>2018-06-28T11:38:40+0200</time>
      </trkpt>
      <trkpt lat="47.24591" lon="4.96722">
        <ele>315.27926635742</ele>
        <time>2018-06-28T11:38:43+0200</time>
      </trkpt>
      <trkpt lat="47.24588" lon="4.96719">
        <ele>315.40240478516</ele>
        <time>2018-06-28T11:38:46+0200</time>
      </trkpt>
      <trkpt lat="47.24584" lon="4.96716">
        <ele>315.54150390625</ele>
        <time>2018-06-28T11:38:49+0200</time>
      </trkpt>
      <trkpt lat="47.24583" lon="4.96713">
        <ele>315.69177246094</ele>
        <time>2018-06-28T11:38:52+0200</time>
      </trkpt>
      <trkpt lat="47.24581" lon="4.96709">
        <ele>315.78619384766</ele>
        <time>2018-06-28T11:38:55+0200</time>
      </trkpt>
      <trkpt lat="47.24579" lon="4.96706">
        <ele>315.87878417969</ele>
        <time>2018-06-28T11:38:58+0200</time>
      </trkpt>
      <trkpt lat="47.24579" lon="4.96702">
        <ele>315.9765625</ele>
        <time>2018-06-28T11:39:01+0200</time>
      </trkpt>
      <trkpt lat="47.24577" lon="4.96698">
        <ele>316.08169555664</ele>
        <time>2018-06-28T11:39:04+0200</time>
      </trkpt>
      <trkpt lat="47.24577" lon="4.96694">
        <ele>316.16247558594</ele>
        <time>2018-06-28T11:39:07+0200</time>
      </trkpt>
      <trkpt lat="47.24576" lon="4.96689">
        <ele>316.25311279297</ele>
        <time>2018-06-28T11:39:10+0200</time>
      </trkpt>
      <trkpt lat="47.24575" lon="4.96685">
        <ele>316.34432983398</ele>
        <time>2018-06-28T11:39:13+0200</time>
      </trkpt>
      <trkpt lat="47.24574" lon="4.9668">
        <ele>316.42803955078</ele>
        <time>2018-06-28T11:39:16+0200</time>
      </trkpt>
      <trkpt lat="47.24573" lon="4.96676">
        <ele>316.49392700195</ele>
        <time>2018-06-28T11:39:19+0200</time>
      </trkpt>
      <trkpt lat="47.24573" lon="4.96672">
        <ele>316.5207824707</ele>
        <time>2018-06-28T11:39:22+0200</time>
      </trkpt>
      <trkpt lat="47.24572" lon="4.96667">
        <ele>316.52893066406</ele>
        <time>2018-06-28T11:39:25+0200</time>
      </trkpt>
      <trkpt lat="47.24572" lon="4.96662">
        <ele>316.51525878906</ele>
        <time>2018-06-28T11:39:28+0200</time>
      </trkpt>
      <trkpt lat="47.24572" lon="4.96658">
        <ele>316.48516845703</ele>
        <time>2018-06-28T11:39:31+0200</time>
      </trkpt>
      <trkpt lat="47.24571" lon="4.96653">
        <ele>316.48458862305</ele>
        <time>2018-06-28T11:39:34+0200</time>
      </trkpt>
      <trkpt lat="47.24571" lon="4.96649">
        <ele>316.51113891602</ele>
        <time>2018-06-28T11:39:37+0200</time>
      </trkpt>
      <trkpt lat="47.24571" lon="4.96645">
        <ele>316.5576171875</ele>
        <time>2018-06-28T11:39:40+0200</time>
      </trkpt>
      <trkpt lat="47.24571" lon="4.96641">
        <ele>316.63153076172</ele>
        <time>2018-06-28T11:39:43+0200</time>
      </trkpt>
      <trkpt lat="47.24571" lon="4.96637">
        <ele>316.64993286133</ele>
        <time>2018-06-28T11:39:46+0200</time>
      </trkpt>
      <trkpt lat="47.24571" lon="4.96634">
        <ele>316.62350463867</ele>
        <time>2018-06-28T11:39:49+0200</time>
      </trkpt>
      <trkpt lat="47.24571" lon="4.96629">
        <ele>316.65414428711</ele>
        <time>2018-06-28T11:39:52+0200</time>
      </trkpt>
      <trkpt lat="47.24571" lon="4.96625">
        <ele>316.72271728516</ele>
        <time>2018-06-28T11:39:55+0200</time>
      </trkpt>
      <trkpt lat="47.24571" lon="4.96621">
        <ele>316.84365844727</ele>
        <time>2018-06-28T11:39:58+0200</time>
      </trkpt>
      <trkpt lat="47.24571" lon="4.96617">
        <ele>316.99771118164</ele>
        <time>2018-06-28T11:40:01+0200</time>
      </trkpt>
      <trkpt lat="47.24571" lon="4.96614">
        <ele>317.17834472656</ele>
        <time>2018-06-28T11:40:04+0200</time>
      </trkpt>
      <trkpt lat="47.24571" lon="4.96609">
        <ele>317.44458007812</ele>
        <time>2018-06-28T11:40:07+0200</time>
      </trkpt>
      <trkpt lat="47.24571" lon="4.96605">
        <ele>317.7766418457</ele>
        <time>2018-06-28T11:40:10+0200</time>
      </trkpt>
      <trkpt lat="47.24571" lon="4.96601">
        <ele>318.13919067383</ele>
        <time>2018-06-28T11:40:13+0200</time>
      </trkpt>
      <trkpt lat="47.2457" lon="4.96597">
        <ele>318.48406982422</ele>
        <time>2018-06-28T11:40:16+0200</time>
      </trkpt>
      <trkpt lat="47.2457" lon="4.96594">
        <ele>318.82684326172</ele>
        <time>2018-06-28T11:40:19+0200</time>
      </trkpt>
      <trkpt lat="47.2457" lon="4.96591">
        <ele>319.16949462891</ele>
        <time>2018-06-28T11:40:22+0200</time>
      </trkpt>
      <trkpt lat="47.24569" lon="4.96587">
        <ele>319.44528198242</ele>
        <time>2018-06-28T11:40:25+0200</time>
      </trkpt>
      <trkpt lat="47.24569" lon="4.96583">
        <ele>319.71166992188</ele>
        <time>2018-06-28T11:40:28+0200</time>
      </trkpt>
      <trkpt lat="47.24568" lon="4.96579">
        <ele>319.99713134766</ele>
        <time>2018-06-28T11:40:31+0200</time>
      </trkpt>
      <trkpt lat="47.24567" lon="4.96576">
        <ele>320.02447509766</ele>
        <time>2018-06-28T11:40:34+0200</time>
      </trkpt>
      <trkpt lat="47.24567" lon="4.96575">
        <ele>320.142578125</ele>
        <time>2018-06-28T11:40:37+0200</time>
      </trkpt>
      <trkpt lat="47.24567" lon="4.96574">
        <ele>320.17684936523</ele>
        <time>2018-06-28T11:40:40+0200</time>
      </trkpt>
      <trkpt lat="47.24567" lon="4.96573">
        <ele>320.48468017578</ele>
        <time>2018-06-28T11:40:43+0200</time>
      </trkpt>
      <trkpt lat="47.24566" lon="4.96572">
        <ele>320.69076538086</ele>
        <time>2018-06-28T11:40:46+0200</time>
      </trkpt>
      <trkpt lat="47.24565" lon="4.96571">
        <ele>321.06546020508</ele>
        <time>2018-06-28T11:40:49+0200</time>
      </trkpt>
      <trkpt lat="47.24564" lon="4.96571">
        <ele>321.29470825195</ele>
        <time>2018-06-28T11:40:52+0200</time>
      </trkpt>
      <trkpt lat="47.24563" lon="4.96571">
        <ele>321.69226074219</ele>
        <time>2018-06-28T11:40:55+0200</time>
      </trkpt>
      <trkpt lat="47.24563" lon="4.9657">
        <ele>322.06268310547</ele>
        <time>2018-06-28T11:40:58+0200</time>
      </trkpt>
    </trkseg>
  </trk>
</gpx>